<?xml version="1.0" encoding="UTF-8" standalone="no" ?>
<gpx xmlns="http://www.topografix.com/GPX/1/1" xmlns:xsi="http://www.w3.org/2001/XMLSchema-instance" xsi:schemaLocation="http://www.topografix.com/GPX/1/1 http://www.topografix.com/GPX/1/1/gpx.xsd" version="1.1" creator="VisuGPX - https://www.visugpx.com">
  <metadata>
    <name>Grand Perron des Encombres</name>
  </metadata>
  <wpt lat="45.21839" lon="6.47276">
    <ele>711.8</ele>
    <name><![CDATA[]]></name>
  </wpt>
  <wpt lat="45.2183" lon="6.47267">
    <ele>711.2</ele>
    <name><![CDATA[]]></name>
  </wpt>
  <trk>
    <name><![CDATA[Grand Perron des Encombres_1]]></name>
    <trkseg>
      <trkpt lat="45.21839" lon="6.47276">
        <ele>711.8</ele>
        <time>2022-07-03T05:53:37.000Z</time>
      </trkpt>
      <trkpt lat="45.21826" lon="6.47267">
        <ele>711.2</ele>
        <time>2022-07-03T05:54:29.000Z</time>
      </trkpt>
      <trkpt lat="45.21824" lon="6.47252">
        <ele>711.1</ele>
        <time>2022-07-03T05:54:33.000Z</time>
      </trkpt>
      <trkpt lat="45.21833" lon="6.47241">
        <ele>711</ele>
        <time>2022-07-03T05:54:37.000Z</time>
      </trkpt>
      <trkpt lat="45.21845" lon="6.47233">
        <ele>711.3</ele>
        <time>2022-07-03T05:54:41.000Z</time>
      </trkpt>
      <trkpt lat="45.21852" lon="6.47218">
        <ele>711</ele>
        <time>2022-07-03T05:54:45.000Z</time>
      </trkpt>
      <trkpt lat="45.21858" lon="6.472">
        <ele>710.9</ele>
        <time>2022-07-03T05:54:49.000Z</time>
      </trkpt>
      <trkpt lat="45.21865" lon="6.47181">
        <ele>710.7</ele>
        <time>2022-07-03T05:54:53.000Z</time>
      </trkpt>
      <trkpt lat="45.21874" lon="6.47166">
        <ele>710.4</ele>
        <time>2022-07-03T05:54:57.000Z</time>
      </trkpt>
      <trkpt lat="45.21884" lon="6.47152">
        <ele>710.3</ele>
        <time>2022-07-03T05:55:01.000Z</time>
      </trkpt>
      <trkpt lat="45.21892" lon="6.47138">
        <ele>710.1</ele>
        <time>2022-07-03T05:55:05.000Z</time>
      </trkpt>
      <trkpt lat="45.21897" lon="6.47124">
        <ele>709.7</ele>
        <time>2022-07-03T05:55:09.000Z</time>
      </trkpt>
      <trkpt lat="45.21904" lon="6.47109">
        <ele>709.5</ele>
        <time>2022-07-03T05:55:13.000Z</time>
      </trkpt>
      <trkpt lat="45.21913" lon="6.47097">
        <ele>709.4</ele>
        <time>2022-07-03T05:55:17.000Z</time>
      </trkpt>
      <trkpt lat="45.21923" lon="6.47083">
        <ele>710.2</ele>
        <time>2022-07-03T05:55:21.000Z</time>
      </trkpt>
      <trkpt lat="45.21931" lon="6.4707">
        <ele>711.2</ele>
        <time>2022-07-03T05:55:25.000Z</time>
      </trkpt>
      <trkpt lat="45.21937" lon="6.47058">
        <ele>711.2</ele>
        <time>2022-07-03T05:55:29.000Z</time>
      </trkpt>
      <trkpt lat="45.21939" lon="6.47037">
        <ele>709.9</ele>
        <time>2022-07-03T05:55:33.000Z</time>
      </trkpt>
      <trkpt lat="45.21943" lon="6.47013">
        <ele>708.7</ele>
        <time>2022-07-03T05:55:37.000Z</time>
      </trkpt>
      <trkpt lat="45.21945" lon="6.4699">
        <ele>708.1</ele>
        <time>2022-07-03T05:55:41.000Z</time>
      </trkpt>
      <trkpt lat="45.21948" lon="6.46969">
        <ele>708.2</ele>
        <time>2022-07-03T05:55:45.000Z</time>
      </trkpt>
      <trkpt lat="45.21956" lon="6.4695">
        <ele>708.2</ele>
        <time>2022-07-03T05:55:49.000Z</time>
      </trkpt>
      <trkpt lat="45.21968" lon="6.46931">
        <ele>707.7</ele>
        <time>2022-07-03T05:55:53.000Z</time>
      </trkpt>
      <trkpt lat="45.21979" lon="6.46914">
        <ele>707.6</ele>
        <time>2022-07-03T05:55:57.000Z</time>
      </trkpt>
      <trkpt lat="45.21988" lon="6.46895">
        <ele>707.5</ele>
        <time>2022-07-03T05:56:01.000Z</time>
      </trkpt>
      <trkpt lat="45.21997" lon="6.46877">
        <ele>706.8</ele>
        <time>2022-07-03T05:56:05.000Z</time>
      </trkpt>
      <trkpt lat="45.22004" lon="6.4686">
        <ele>706.2</ele>
        <time>2022-07-03T05:56:09.000Z</time>
      </trkpt>
      <trkpt lat="45.2201" lon="6.46842">
        <ele>706.1</ele>
        <time>2022-07-03T05:56:13.000Z</time>
      </trkpt>
      <trkpt lat="45.22018" lon="6.46824">
        <ele>706</ele>
        <time>2022-07-03T05:56:17.000Z</time>
      </trkpt>
      <trkpt lat="45.22026" lon="6.46805">
        <ele>706</ele>
        <time>2022-07-03T05:56:21.000Z</time>
      </trkpt>
      <trkpt lat="45.22034" lon="6.46785">
        <ele>705.8</ele>
        <time>2022-07-03T05:56:25.000Z</time>
      </trkpt>
      <trkpt lat="45.22044" lon="6.46767">
        <ele>705.4</ele>
        <time>2022-07-03T05:56:29.000Z</time>
      </trkpt>
      <trkpt lat="45.22055" lon="6.46748">
        <ele>705.1</ele>
        <time>2022-07-03T05:56:33.000Z</time>
      </trkpt>
      <trkpt lat="45.22064" lon="6.4673">
        <ele>704.8</ele>
        <time>2022-07-03T05:56:37.000Z</time>
      </trkpt>
      <trkpt lat="45.22075" lon="6.46712">
        <ele>704.3</ele>
        <time>2022-07-03T05:56:41.000Z</time>
      </trkpt>
      <trkpt lat="45.22085" lon="6.46694">
        <ele>704</ele>
        <time>2022-07-03T05:56:45.000Z</time>
      </trkpt>
      <trkpt lat="45.22095" lon="6.46677">
        <ele>704</ele>
        <time>2022-07-03T05:56:49.000Z</time>
      </trkpt>
      <trkpt lat="45.22106" lon="6.46661">
        <ele>704</ele>
        <time>2022-07-03T05:56:53.000Z</time>
      </trkpt>
      <trkpt lat="45.22117" lon="6.46645">
        <ele>703.9</ele>
        <time>2022-07-03T05:56:57.000Z</time>
      </trkpt>
      <trkpt lat="45.22129" lon="6.46629">
        <ele>703.5</ele>
        <time>2022-07-03T05:57:01.000Z</time>
      </trkpt>
      <trkpt lat="45.22139" lon="6.46612">
        <ele>703.8</ele>
        <time>2022-07-03T05:57:05.000Z</time>
      </trkpt>
      <trkpt lat="45.22147" lon="6.46596">
        <ele>704</ele>
        <time>2022-07-03T05:57:09.000Z</time>
      </trkpt>
      <trkpt lat="45.22153" lon="6.46576">
        <ele>704</ele>
        <time>2022-07-03T05:57:13.000Z</time>
      </trkpt>
      <trkpt lat="45.2216" lon="6.46559">
        <ele>704</ele>
        <time>2022-07-03T05:57:17.000Z</time>
      </trkpt>
      <trkpt lat="45.22168" lon="6.46546">
        <ele>704</ele>
        <time>2022-07-03T05:57:21.000Z</time>
      </trkpt>
      <trkpt lat="45.22179" lon="6.46538">
        <ele>704.4</ele>
        <time>2022-07-03T05:57:25.000Z</time>
      </trkpt>
      <trkpt lat="45.22189" lon="6.46529">
        <ele>704.7</ele>
        <time>2022-07-03T05:57:29.000Z</time>
      </trkpt>
      <trkpt lat="45.22197" lon="6.46518">
        <ele>705.3</ele>
        <time>2022-07-03T05:57:33.000Z</time>
      </trkpt>
      <trkpt lat="45.22204" lon="6.46509">
        <ele>705.7</ele>
        <time>2022-07-03T05:57:37.000Z</time>
      </trkpt>
      <trkpt lat="45.22213" lon="6.46501">
        <ele>706</ele>
        <time>2022-07-03T05:57:41.000Z</time>
      </trkpt>
      <trkpt lat="45.22222" lon="6.46496">
        <ele>706.2</ele>
        <time>2022-07-03T05:57:45.000Z</time>
      </trkpt>
      <trkpt lat="45.22234" lon="6.46489">
        <ele>707.5</ele>
        <time>2022-07-03T05:57:49.000Z</time>
      </trkpt>
      <trkpt lat="45.22245" lon="6.46485">
        <ele>708.5</ele>
        <time>2022-07-03T05:57:53.000Z</time>
      </trkpt>
      <trkpt lat="45.22253" lon="6.46478">
        <ele>708.6</ele>
        <time>2022-07-03T05:57:57.000Z</time>
      </trkpt>
      <trkpt lat="45.2226" lon="6.46462">
        <ele>708.8</ele>
        <time>2022-07-03T05:58:03.000Z</time>
      </trkpt>
      <trkpt lat="45.22264" lon="6.46451">
        <ele>709.3</ele>
        <time>2022-07-03T05:58:07.000Z</time>
      </trkpt>
      <trkpt lat="45.2227" lon="6.46437">
        <ele>709.9</ele>
        <time>2022-07-03T05:58:13.000Z</time>
      </trkpt>
      <trkpt lat="45.22275" lon="6.46426">
        <ele>710.5</ele>
        <time>2022-07-03T05:58:19.000Z</time>
      </trkpt>
      <trkpt lat="45.22278" lon="6.46411">
        <ele>711.1</ele>
        <time>2022-07-03T05:58:27.000Z</time>
      </trkpt>
      <trkpt lat="45.22282" lon="6.46399">
        <ele>711.6</ele>
        <time>2022-07-03T05:58:33.000Z</time>
      </trkpt>
      <trkpt lat="45.22287" lon="6.46386">
        <ele>712.3</ele>
        <time>2022-07-03T05:58:41.000Z</time>
      </trkpt>
      <trkpt lat="45.22296" lon="6.46378">
        <ele>713.1</ele>
        <time>2022-07-03T05:58:47.000Z</time>
      </trkpt>
      <trkpt lat="45.22306" lon="6.46372">
        <ele>714.6</ele>
        <time>2022-07-03T05:58:53.000Z</time>
      </trkpt>
      <trkpt lat="45.22317" lon="6.46368">
        <ele>715.7</ele>
        <time>2022-07-03T05:58:59.000Z</time>
      </trkpt>
      <trkpt lat="45.22327" lon="6.46366">
        <ele>716.3</ele>
        <time>2022-07-03T05:59:05.000Z</time>
      </trkpt>
      <trkpt lat="45.22337" lon="6.46363">
        <ele>717</ele>
        <time>2022-07-03T05:59:11.000Z</time>
      </trkpt>
      <trkpt lat="45.22344" lon="6.46355">
        <ele>718.1</ele>
        <time>2022-07-03T05:59:17.000Z</time>
      </trkpt>
      <trkpt lat="45.22354" lon="6.46352">
        <ele>719.1</ele>
        <time>2022-07-03T05:59:23.000Z</time>
      </trkpt>
      <trkpt lat="45.22365" lon="6.46353">
        <ele>720.4</ele>
        <time>2022-07-03T05:59:29.000Z</time>
      </trkpt>
      <trkpt lat="45.22375" lon="6.46351">
        <ele>722.3</ele>
        <time>2022-07-03T05:59:35.000Z</time>
      </trkpt>
      <trkpt lat="45.22385" lon="6.46347">
        <ele>723.7</ele>
        <time>2022-07-03T05:59:41.000Z</time>
      </trkpt>
      <trkpt lat="45.22393" lon="6.46343">
        <ele>724.3</ele>
        <time>2022-07-03T05:59:49.000Z</time>
      </trkpt>
      <trkpt lat="45.22403" lon="6.46337">
        <ele>724.4</ele>
        <time>2022-07-03T05:59:57.000Z</time>
      </trkpt>
      <trkpt lat="45.22412" lon="6.46332">
        <ele>724.6</ele>
        <time>2022-07-03T06:00:03.000Z</time>
      </trkpt>
      <trkpt lat="45.2242" lon="6.46324">
        <ele>725.6</ele>
        <time>2022-07-03T06:00:09.000Z</time>
      </trkpt>
      <trkpt lat="45.22424" lon="6.46313">
        <ele>726.4</ele>
        <time>2022-07-03T06:00:15.000Z</time>
      </trkpt>
      <trkpt lat="45.22426" lon="6.46298">
        <ele>726.9</ele>
        <time>2022-07-03T06:00:21.000Z</time>
      </trkpt>
      <trkpt lat="45.22429" lon="6.46286">
        <ele>727.8</ele>
        <time>2022-07-03T06:00:27.000Z</time>
      </trkpt>
      <trkpt lat="45.22431" lon="6.4627">
        <ele>728.6</ele>
        <time>2022-07-03T06:00:35.000Z</time>
      </trkpt>
      <trkpt lat="45.22438" lon="6.46258">
        <ele>729.7</ele>
        <time>2022-07-03T06:00:41.000Z</time>
      </trkpt>
      <trkpt lat="45.22446" lon="6.46248">
        <ele>730.9</ele>
        <time>2022-07-03T06:00:49.000Z</time>
      </trkpt>
      <trkpt lat="45.22458" lon="6.46245">
        <ele>732</ele>
        <time>2022-07-03T06:00:57.000Z</time>
      </trkpt>
      <trkpt lat="45.22468" lon="6.46249">
        <ele>733.3</ele>
        <time>2022-07-03T06:01:05.000Z</time>
      </trkpt>
      <trkpt lat="45.22478" lon="6.46253">
        <ele>734.4</ele>
        <time>2022-07-03T06:01:13.000Z</time>
      </trkpt>
      <trkpt lat="45.22486" lon="6.46257">
        <ele>735.2</ele>
        <time>2022-07-03T06:01:21.000Z</time>
      </trkpt>
      <trkpt lat="45.22495" lon="6.4626">
        <ele>736.2</ele>
        <time>2022-07-03T06:01:27.000Z</time>
      </trkpt>
      <trkpt lat="45.22505" lon="6.46262">
        <ele>737.3</ele>
        <time>2022-07-03T06:01:33.000Z</time>
      </trkpt>
      <trkpt lat="45.22516" lon="6.46262">
        <ele>738.3</ele>
        <time>2022-07-03T06:01:39.000Z</time>
      </trkpt>
      <trkpt lat="45.22525" lon="6.46267">
        <ele>739.1</ele>
        <time>2022-07-03T06:01:47.000Z</time>
      </trkpt>
      <trkpt lat="45.22536" lon="6.46272">
        <ele>739.8</ele>
        <time>2022-07-03T06:01:55.000Z</time>
      </trkpt>
      <trkpt lat="45.22547" lon="6.46276">
        <ele>740.4</ele>
        <time>2022-07-03T06:02:03.000Z</time>
      </trkpt>
      <trkpt lat="45.22559" lon="6.46279">
        <ele>741.5</ele>
        <time>2022-07-03T06:02:09.000Z</time>
      </trkpt>
      <trkpt lat="45.22568" lon="6.46272">
        <ele>743.6</ele>
        <time>2022-07-03T06:02:17.000Z</time>
      </trkpt>
      <trkpt lat="45.22575" lon="6.46263">
        <ele>744.7</ele>
        <time>2022-07-03T06:02:25.000Z</time>
      </trkpt>
      <trkpt lat="45.22576" lon="6.46249">
        <ele>744.5</ele>
        <time>2022-07-03T06:02:33.000Z</time>
      </trkpt>
      <trkpt lat="45.22576" lon="6.46234">
        <ele>745.2</ele>
        <time>2022-07-03T06:02:39.000Z</time>
      </trkpt>
      <trkpt lat="45.22572" lon="6.4622">
        <ele>745.4</ele>
        <time>2022-07-03T06:02:45.000Z</time>
      </trkpt>
      <trkpt lat="45.22567" lon="6.46207">
        <ele>745.3</ele>
        <time>2022-07-03T06:02:51.000Z</time>
      </trkpt>
      <trkpt lat="45.22566" lon="6.46193">
        <ele>745.8</ele>
        <time>2022-07-03T06:02:57.000Z</time>
      </trkpt>
      <trkpt lat="45.22566" lon="6.4618">
        <ele>746.3</ele>
        <time>2022-07-03T06:03:03.000Z</time>
      </trkpt>
      <trkpt lat="45.22572" lon="6.46165">
        <ele>747.6</ele>
        <time>2022-07-03T06:03:11.000Z</time>
      </trkpt>
      <trkpt lat="45.2258" lon="6.46156">
        <ele>748.5</ele>
        <time>2022-07-03T06:03:17.000Z</time>
      </trkpt>
      <trkpt lat="45.22588" lon="6.46147">
        <ele>750</ele>
        <time>2022-07-03T06:03:23.000Z</time>
      </trkpt>
      <trkpt lat="45.22596" lon="6.46139">
        <ele>751.5</ele>
        <time>2022-07-03T06:03:29.000Z</time>
      </trkpt>
      <trkpt lat="45.22602" lon="6.46129">
        <ele>752.5</ele>
        <time>2022-07-03T06:03:35.000Z</time>
      </trkpt>
      <trkpt lat="45.2261" lon="6.46119">
        <ele>753.4</ele>
        <time>2022-07-03T06:03:43.000Z</time>
      </trkpt>
      <trkpt lat="45.22612" lon="6.46106">
        <ele>753.4</ele>
        <time>2022-07-03T06:03:49.000Z</time>
      </trkpt>
      <trkpt lat="45.2261" lon="6.4609">
        <ele>752.9</ele>
        <time>2022-07-03T06:03:57.000Z</time>
      </trkpt>
      <trkpt lat="45.22613" lon="6.46076">
        <ele>753.7</ele>
        <time>2022-07-03T06:04:03.000Z</time>
      </trkpt>
      <trkpt lat="45.22613" lon="6.46061">
        <ele>754.8</ele>
        <time>2022-07-03T06:04:11.000Z</time>
      </trkpt>
      <trkpt lat="45.22613" lon="6.46047">
        <ele>755.5</ele>
        <time>2022-07-03T06:04:17.000Z</time>
      </trkpt>
      <trkpt lat="45.2262" lon="6.46037">
        <ele>756.9</ele>
        <time>2022-07-03T06:04:27.000Z</time>
      </trkpt>
      <trkpt lat="45.2263" lon="6.46041">
        <ele>758.5</ele>
        <time>2022-07-03T06:04:33.000Z</time>
      </trkpt>
      <trkpt lat="45.22633" lon="6.46056">
        <ele>758.2</ele>
        <time>2022-07-03T06:04:41.000Z</time>
      </trkpt>
      <trkpt lat="45.22631" lon="6.46069">
        <ele>758</ele>
        <time>2022-07-03T06:04:47.000Z</time>
      </trkpt>
      <trkpt lat="45.22632" lon="6.46084">
        <ele>758.1</ele>
        <time>2022-07-03T06:04:55.000Z</time>
      </trkpt>
      <trkpt lat="45.22634" lon="6.46098">
        <ele>759</ele>
        <time>2022-07-03T06:05:03.000Z</time>
      </trkpt>
      <trkpt lat="45.22633" lon="6.46112">
        <ele>759.5</ele>
        <time>2022-07-03T06:05:09.000Z</time>
      </trkpt>
      <trkpt lat="45.22634" lon="6.46127">
        <ele>760.6</ele>
        <time>2022-07-03T06:05:17.000Z</time>
      </trkpt>
      <trkpt lat="45.22635" lon="6.46142">
        <ele>761.9</ele>
        <time>2022-07-03T06:05:27.000Z</time>
      </trkpt>
      <trkpt lat="45.22636" lon="6.46156">
        <ele>762.9</ele>
        <time>2022-07-03T06:05:35.000Z</time>
      </trkpt>
      <trkpt lat="45.22642" lon="6.46169">
        <ele>764</ele>
        <time>2022-07-03T06:05:43.000Z</time>
      </trkpt>
      <trkpt lat="45.22647" lon="6.46182">
        <ele>765.3</ele>
        <time>2022-07-03T06:05:49.000Z</time>
      </trkpt>
      <trkpt lat="45.22652" lon="6.46194">
        <ele>766.5</ele>
        <time>2022-07-03T06:05:55.000Z</time>
      </trkpt>
      <trkpt lat="45.22659" lon="6.46207">
        <ele>767.1</ele>
        <time>2022-07-03T06:06:03.000Z</time>
      </trkpt>
      <trkpt lat="45.22666" lon="6.46216">
        <ele>768</ele>
        <time>2022-07-03T06:06:09.000Z</time>
      </trkpt>
      <trkpt lat="45.22674" lon="6.46219">
        <ele>769.5</ele>
        <time>2022-07-03T06:06:17.000Z</time>
      </trkpt>
      <trkpt lat="45.22683" lon="6.46223">
        <ele>771.2</ele>
        <time>2022-07-03T06:06:23.000Z</time>
      </trkpt>
      <trkpt lat="45.22692" lon="6.46218">
        <ele>772.2</ele>
        <time>2022-07-03T06:06:29.000Z</time>
      </trkpt>
      <trkpt lat="45.22699" lon="6.46205">
        <ele>773.2</ele>
        <time>2022-07-03T06:06:35.000Z</time>
      </trkpt>
      <trkpt lat="45.22705" lon="6.46195">
        <ele>774</ele>
        <time>2022-07-03T06:06:41.000Z</time>
      </trkpt>
      <trkpt lat="45.22712" lon="6.46182">
        <ele>774.3</ele>
        <time>2022-07-03T06:06:49.000Z</time>
      </trkpt>
      <trkpt lat="45.22717" lon="6.46171">
        <ele>774.4</ele>
        <time>2022-07-03T06:06:55.000Z</time>
      </trkpt>
      <trkpt lat="45.22724" lon="6.46161">
        <ele>774.8</ele>
        <time>2022-07-03T06:07:01.000Z</time>
      </trkpt>
      <trkpt lat="45.22732" lon="6.46152">
        <ele>775.5</ele>
        <time>2022-07-03T06:07:07.000Z</time>
      </trkpt>
      <trkpt lat="45.22741" lon="6.46145">
        <ele>776.5</ele>
        <time>2022-07-03T06:07:13.000Z</time>
      </trkpt>
      <trkpt lat="45.22749" lon="6.46137">
        <ele>777.4</ele>
        <time>2022-07-03T06:07:19.000Z</time>
      </trkpt>
      <trkpt lat="45.22759" lon="6.4613">
        <ele>778.4</ele>
        <time>2022-07-03T06:07:27.000Z</time>
      </trkpt>
      <trkpt lat="45.22768" lon="6.46128">
        <ele>779.7</ele>
        <time>2022-07-03T06:07:33.000Z</time>
      </trkpt>
      <trkpt lat="45.22779" lon="6.4612">
        <ele>780.6</ele>
        <time>2022-07-03T06:07:41.000Z</time>
      </trkpt>
      <trkpt lat="45.22786" lon="6.4611">
        <ele>781.4</ele>
        <time>2022-07-03T06:07:47.000Z</time>
      </trkpt>
      <trkpt lat="45.22788" lon="6.46096">
        <ele>782.4</ele>
        <time>2022-07-03T06:07:53.000Z</time>
      </trkpt>
      <trkpt lat="45.22788" lon="6.46082">
        <ele>782.8</ele>
        <time>2022-07-03T06:07:59.000Z</time>
      </trkpt>
      <trkpt lat="45.22785" lon="6.46069">
        <ele>782.2</ele>
        <time>2022-07-03T06:08:05.000Z</time>
      </trkpt>
      <trkpt lat="45.22783" lon="6.46056">
        <ele>781.7</ele>
        <time>2022-07-03T06:08:13.000Z</time>
      </trkpt>
      <trkpt lat="45.22795" lon="6.46056">
        <ele>783.3</ele>
        <time>2022-07-03T06:08:21.000Z</time>
      </trkpt>
      <trkpt lat="45.22803" lon="6.46063">
        <ele>784.7</ele>
        <time>2022-07-03T06:08:27.000Z</time>
      </trkpt>
      <trkpt lat="45.22809" lon="6.46075">
        <ele>785.9</ele>
        <time>2022-07-03T06:08:33.000Z</time>
      </trkpt>
      <trkpt lat="45.22814" lon="6.46088">
        <ele>787</ele>
        <time>2022-07-03T06:08:41.000Z</time>
      </trkpt>
      <trkpt lat="45.22816" lon="6.46104">
        <ele>788</ele>
        <time>2022-07-03T06:08:49.000Z</time>
      </trkpt>
      <trkpt lat="45.22818" lon="6.46123">
        <ele>789.9</ele>
        <time>2022-07-03T06:08:55.000Z</time>
      </trkpt>
      <trkpt lat="45.22813" lon="6.46136">
        <ele>790.9</ele>
        <time>2022-07-03T06:09:01.000Z</time>
      </trkpt>
      <trkpt lat="45.22805" lon="6.46147">
        <ele>790.9</ele>
        <time>2022-07-03T06:09:09.000Z</time>
      </trkpt>
      <trkpt lat="45.22795" lon="6.46155">
        <ele>789.6</ele>
        <time>2022-07-03T06:09:17.000Z</time>
      </trkpt>
      <trkpt lat="45.22791" lon="6.46167">
        <ele>789.7</ele>
        <time>2022-07-03T06:09:23.000Z</time>
      </trkpt>
      <trkpt lat="45.22796" lon="6.46178">
        <ele>792</ele>
        <time>2022-07-03T06:09:29.000Z</time>
      </trkpt>
      <trkpt lat="45.22807" lon="6.46182">
        <ele>794.9</ele>
        <time>2022-07-03T06:09:35.000Z</time>
      </trkpt>
      <trkpt lat="45.2282" lon="6.46181">
        <ele>797.3</ele>
        <time>2022-07-03T06:09:41.000Z</time>
      </trkpt>
      <trkpt lat="45.2283" lon="6.46175">
        <ele>798.7</ele>
        <time>2022-07-03T06:09:47.000Z</time>
      </trkpt>
      <trkpt lat="45.22835" lon="6.46163">
        <ele>797.9</ele>
        <time>2022-07-03T06:09:53.000Z</time>
      </trkpt>
      <trkpt lat="45.22842" lon="6.46152">
        <ele>797.4</ele>
        <time>2022-07-03T06:09:59.000Z</time>
      </trkpt>
      <trkpt lat="45.22853" lon="6.46147">
        <ele>797.9</ele>
        <time>2022-07-03T06:10:07.000Z</time>
      </trkpt>
      <trkpt lat="45.22861" lon="6.46137">
        <ele>797.8</ele>
        <time>2022-07-03T06:10:15.000Z</time>
      </trkpt>
      <trkpt lat="45.22871" lon="6.46142">
        <ele>799.2</ele>
        <time>2022-07-03T06:10:21.000Z</time>
      </trkpt>
      <trkpt lat="45.22881" lon="6.46149">
        <ele>801.4</ele>
        <time>2022-07-03T06:10:27.000Z</time>
      </trkpt>
      <trkpt lat="45.22891" lon="6.46146">
        <ele>802.5</ele>
        <time>2022-07-03T06:10:35.000Z</time>
      </trkpt>
      <trkpt lat="45.22903" lon="6.46148">
        <ele>804.8</ele>
        <time>2022-07-03T06:10:41.000Z</time>
      </trkpt>
      <trkpt lat="45.22912" lon="6.46143">
        <ele>805.6</ele>
        <time>2022-07-03T06:10:47.000Z</time>
      </trkpt>
      <trkpt lat="45.22921" lon="6.46139">
        <ele>806.5</ele>
        <time>2022-07-03T06:10:53.000Z</time>
      </trkpt>
      <trkpt lat="45.22931" lon="6.46133">
        <ele>807.5</ele>
        <time>2022-07-03T06:11:01.000Z</time>
      </trkpt>
      <trkpt lat="45.22941" lon="6.46129">
        <ele>808.7</ele>
        <time>2022-07-03T06:11:09.000Z</time>
      </trkpt>
      <trkpt lat="45.22947" lon="6.46118">
        <ele>809</ele>
        <time>2022-07-03T06:11:15.000Z</time>
      </trkpt>
      <trkpt lat="45.22956" lon="6.4612">
        <ele>811.5</ele>
        <time>2022-07-03T06:11:23.000Z</time>
      </trkpt>
      <trkpt lat="45.22952" lon="6.46135">
        <ele>811.8</ele>
        <time>2022-07-03T06:11:31.000Z</time>
      </trkpt>
      <trkpt lat="45.22945" lon="6.46144">
        <ele>810.8</ele>
        <time>2022-07-03T06:11:37.000Z</time>
      </trkpt>
      <trkpt lat="45.22938" lon="6.46154">
        <ele>810.7</ele>
        <time>2022-07-03T06:11:43.000Z</time>
      </trkpt>
      <trkpt lat="45.22932" lon="6.46164">
        <ele>811.2</ele>
        <time>2022-07-03T06:11:49.000Z</time>
      </trkpt>
      <trkpt lat="45.22924" lon="6.46174">
        <ele>811.4</ele>
        <time>2022-07-03T06:11:55.000Z</time>
      </trkpt>
      <trkpt lat="45.22918" lon="6.46188">
        <ele>811.7</ele>
        <time>2022-07-03T06:12:03.000Z</time>
      </trkpt>
      <trkpt lat="45.22922" lon="6.46203">
        <ele>814.3</ele>
        <time>2022-07-03T06:12:09.000Z</time>
      </trkpt>
      <trkpt lat="45.22931" lon="6.46208">
        <ele>817.9</ele>
        <time>2022-07-03T06:12:15.000Z</time>
      </trkpt>
      <trkpt lat="45.22943" lon="6.46203">
        <ele>819.5</ele>
        <time>2022-07-03T06:12:21.000Z</time>
      </trkpt>
      <trkpt lat="45.22949" lon="6.46193">
        <ele>818.8</ele>
        <time>2022-07-03T06:12:27.000Z</time>
      </trkpt>
      <trkpt lat="45.22957" lon="6.46185">
        <ele>819.7</ele>
        <time>2022-07-03T06:12:33.000Z</time>
      </trkpt>
      <trkpt lat="45.22962" lon="6.46175">
        <ele>819.4</ele>
        <time>2022-07-03T06:12:39.000Z</time>
      </trkpt>
      <trkpt lat="45.22968" lon="6.46164">
        <ele>818.8</ele>
        <time>2022-07-03T06:12:45.000Z</time>
      </trkpt>
      <trkpt lat="45.22978" lon="6.46159">
        <ele>819.8</ele>
        <time>2022-07-03T06:12:51.000Z</time>
      </trkpt>
      <trkpt lat="45.22988" lon="6.46158">
        <ele>821</ele>
        <time>2022-07-03T06:12:59.000Z</time>
      </trkpt>
      <trkpt lat="45.22997" lon="6.46163">
        <ele>822.4</ele>
        <time>2022-07-03T06:13:07.000Z</time>
      </trkpt>
      <trkpt lat="45.23005" lon="6.4617">
        <ele>823.6</ele>
        <time>2022-07-03T06:13:13.000Z</time>
      </trkpt>
      <trkpt lat="45.23014" lon="6.46179">
        <ele>824.9</ele>
        <time>2022-07-03T06:13:19.000Z</time>
      </trkpt>
      <trkpt lat="45.23023" lon="6.46185">
        <ele>825.7</ele>
        <time>2022-07-03T06:13:27.000Z</time>
      </trkpt>
      <trkpt lat="45.23032" lon="6.46192">
        <ele>826.6</ele>
        <time>2022-07-03T06:13:33.000Z</time>
      </trkpt>
      <trkpt lat="45.23042" lon="6.46202">
        <ele>829.4</ele>
        <time>2022-07-03T06:13:39.000Z</time>
      </trkpt>
      <trkpt lat="45.23049" lon="6.46212">
        <ele>830.9</ele>
        <time>2022-07-03T06:13:47.000Z</time>
      </trkpt>
      <trkpt lat="45.23058" lon="6.46226">
        <ele>832.4</ele>
        <time>2022-07-03T06:13:59.000Z</time>
      </trkpt>
      <trkpt lat="45.23068" lon="6.46228">
        <ele>835.1</ele>
        <time>2022-07-03T06:14:05.000Z</time>
      </trkpt>
      <trkpt lat="45.23077" lon="6.46223">
        <ele>835.3</ele>
        <time>2022-07-03T06:14:11.000Z</time>
      </trkpt>
      <trkpt lat="45.2308" lon="6.4621">
        <ele>833.8</ele>
        <time>2022-07-03T06:14:17.000Z</time>
      </trkpt>
      <trkpt lat="45.23081" lon="6.46197">
        <ele>831.7</ele>
        <time>2022-07-03T06:14:23.000Z</time>
      </trkpt>
      <trkpt lat="45.23087" lon="6.46183">
        <ele>832.3</ele>
        <time>2022-07-03T06:14:29.000Z</time>
      </trkpt>
      <trkpt lat="45.23097" lon="6.46175">
        <ele>834.9</ele>
        <time>2022-07-03T06:14:37.000Z</time>
      </trkpt>
      <trkpt lat="45.23106" lon="6.46168">
        <ele>836.8</ele>
        <time>2022-07-03T06:14:43.000Z</time>
      </trkpt>
      <trkpt lat="45.23113" lon="6.4616">
        <ele>838.1</ele>
        <time>2022-07-03T06:14:49.000Z</time>
      </trkpt>
      <trkpt lat="45.23119" lon="6.46149">
        <ele>839.6</ele>
        <time>2022-07-03T06:14:57.000Z</time>
      </trkpt>
      <trkpt lat="45.23125" lon="6.46136">
        <ele>840.3</ele>
        <time>2022-07-03T06:15:05.000Z</time>
      </trkpt>
      <trkpt lat="45.23133" lon="6.46128">
        <ele>841.4</ele>
        <time>2022-07-03T06:15:11.000Z</time>
      </trkpt>
      <trkpt lat="45.2314" lon="6.46118">
        <ele>842.7</ele>
        <time>2022-07-03T06:15:17.000Z</time>
      </trkpt>
      <trkpt lat="45.23147" lon="6.46104">
        <ele>843.6</ele>
        <time>2022-07-03T06:15:25.000Z</time>
      </trkpt>
      <trkpt lat="45.23156" lon="6.46093">
        <ele>845.5</ele>
        <time>2022-07-03T06:15:33.000Z</time>
      </trkpt>
      <trkpt lat="45.23161" lon="6.46106">
        <ele>847.4</ele>
        <time>2022-07-03T06:15:41.000Z</time>
      </trkpt>
      <trkpt lat="45.2316" lon="6.46118">
        <ele>848.1</ele>
        <time>2022-07-03T06:15:47.000Z</time>
      </trkpt>
      <trkpt lat="45.23156" lon="6.46134">
        <ele>849</ele>
        <time>2022-07-03T06:15:55.000Z</time>
      </trkpt>
      <trkpt lat="45.23151" lon="6.46149">
        <ele>849.2</ele>
        <time>2022-07-03T06:16:03.000Z</time>
      </trkpt>
      <trkpt lat="45.23149" lon="6.46162">
        <ele>850.1</ele>
        <time>2022-07-03T06:16:11.000Z</time>
      </trkpt>
      <trkpt lat="45.23149" lon="6.46176">
        <ele>851</ele>
        <time>2022-07-03T06:16:19.000Z</time>
      </trkpt>
      <trkpt lat="45.23151" lon="6.46191">
        <ele>851.9</ele>
        <time>2022-07-03T06:16:27.000Z</time>
      </trkpt>
      <trkpt lat="45.23156" lon="6.46208">
        <ele>853.1</ele>
        <time>2022-07-03T06:16:35.000Z</time>
      </trkpt>
      <trkpt lat="45.23166" lon="6.46216">
        <ele>856</ele>
        <time>2022-07-03T06:16:41.000Z</time>
      </trkpt>
      <trkpt lat="45.23175" lon="6.46211">
        <ele>859.1</ele>
        <time>2022-07-03T06:16:47.000Z</time>
      </trkpt>
      <trkpt lat="45.23178" lon="6.46197">
        <ele>860.1</ele>
        <time>2022-07-03T06:16:53.000Z</time>
      </trkpt>
      <trkpt lat="45.23179" lon="6.4618">
        <ele>859.8</ele>
        <time>2022-07-03T06:17:01.000Z</time>
      </trkpt>
      <trkpt lat="45.23182" lon="6.46165">
        <ele>859.7</ele>
        <time>2022-07-03T06:17:09.000Z</time>
      </trkpt>
      <trkpt lat="45.23186" lon="6.46152">
        <ele>860.1</ele>
        <time>2022-07-03T06:17:15.000Z</time>
      </trkpt>
      <trkpt lat="45.23193" lon="6.46141">
        <ele>861.3</ele>
        <time>2022-07-03T06:17:21.000Z</time>
      </trkpt>
      <trkpt lat="45.23199" lon="6.4613">
        <ele>863.2</ele>
        <time>2022-07-03T06:17:27.000Z</time>
      </trkpt>
      <trkpt lat="45.23203" lon="6.46118">
        <ele>864.7</ele>
        <time>2022-07-03T06:17:33.000Z</time>
      </trkpt>
      <trkpt lat="45.23207" lon="6.46102">
        <ele>866.7</ele>
        <time>2022-07-03T06:17:41.000Z</time>
      </trkpt>
      <trkpt lat="45.23208" lon="6.46086">
        <ele>869</ele>
        <time>2022-07-03T06:17:49.000Z</time>
      </trkpt>
      <trkpt lat="45.23209" lon="6.4607">
        <ele>870.5</ele>
        <time>2022-07-03T06:17:57.000Z</time>
      </trkpt>
      <trkpt lat="45.2321" lon="6.46053">
        <ele>872.1</ele>
        <time>2022-07-03T06:18:05.000Z</time>
      </trkpt>
      <trkpt lat="45.23213" lon="6.4604">
        <ele>873</ele>
        <time>2022-07-03T06:18:11.000Z</time>
      </trkpt>
      <trkpt lat="45.23214" lon="6.46025">
        <ele>873.8</ele>
        <time>2022-07-03T06:18:19.000Z</time>
      </trkpt>
      <trkpt lat="45.23215" lon="6.46011">
        <ele>873.8</ele>
        <time>2022-07-03T06:18:25.000Z</time>
      </trkpt>
      <trkpt lat="45.23216" lon="6.45995">
        <ele>873.7</ele>
        <time>2022-07-03T06:18:33.000Z</time>
      </trkpt>
      <trkpt lat="45.23216" lon="6.45981">
        <ele>874.3</ele>
        <time>2022-07-03T06:18:39.000Z</time>
      </trkpt>
      <trkpt lat="45.23216" lon="6.45965">
        <ele>874.8</ele>
        <time>2022-07-03T06:18:47.000Z</time>
      </trkpt>
      <trkpt lat="45.23216" lon="6.45952">
        <ele>875.1</ele>
        <time>2022-07-03T06:18:53.000Z</time>
      </trkpt>
      <trkpt lat="45.2322" lon="6.45938">
        <ele>876.8</ele>
        <time>2022-07-03T06:18:59.000Z</time>
      </trkpt>
      <trkpt lat="45.23224" lon="6.45924">
        <ele>878.9</ele>
        <time>2022-07-03T06:19:05.000Z</time>
      </trkpt>
      <trkpt lat="45.23226" lon="6.45911">
        <ele>880</ele>
        <time>2022-07-03T06:19:11.000Z</time>
      </trkpt>
      <trkpt lat="45.23226" lon="6.45896">
        <ele>879.4</ele>
        <time>2022-07-03T06:19:17.000Z</time>
      </trkpt>
      <trkpt lat="45.23227" lon="6.45882">
        <ele>879.6</ele>
        <time>2022-07-03T06:19:23.000Z</time>
      </trkpt>
      <trkpt lat="45.2323" lon="6.45868">
        <ele>880.5</ele>
        <time>2022-07-03T06:19:29.000Z</time>
      </trkpt>
      <trkpt lat="45.23233" lon="6.45852">
        <ele>881.8</ele>
        <time>2022-07-03T06:19:37.000Z</time>
      </trkpt>
      <trkpt lat="45.23239" lon="6.45841">
        <ele>882.9</ele>
        <time>2022-07-03T06:19:43.000Z</time>
      </trkpt>
      <trkpt lat="45.23243" lon="6.45828">
        <ele>884.2</ele>
        <time>2022-07-03T06:20:11.000Z</time>
      </trkpt>
      <trkpt lat="45.23242" lon="6.45844">
        <ele>882.9</ele>
        <time>2022-07-03T06:23:32.000Z</time>
      </trkpt>
      <trkpt lat="45.23249" lon="6.45853">
        <ele>882.9</ele>
        <time>2022-07-03T06:23:38.000Z</time>
      </trkpt>
      <trkpt lat="45.2326" lon="6.45848">
        <ele>884.2</ele>
        <time>2022-07-03T06:23:46.000Z</time>
      </trkpt>
      <trkpt lat="45.2327" lon="6.45848">
        <ele>885.4</ele>
        <time>2022-07-03T06:23:54.000Z</time>
      </trkpt>
      <trkpt lat="45.23271" lon="6.45865">
        <ele>887.2</ele>
        <time>2022-07-03T06:24:02.000Z</time>
      </trkpt>
      <trkpt lat="45.23267" lon="6.45878">
        <ele>888.5</ele>
        <time>2022-07-03T06:24:08.000Z</time>
      </trkpt>
      <trkpt lat="45.23263" lon="6.4589">
        <ele>889.3</ele>
        <time>2022-07-03T06:24:14.000Z</time>
      </trkpt>
      <trkpt lat="45.23259" lon="6.45902">
        <ele>889.6</ele>
        <time>2022-07-03T06:24:20.000Z</time>
      </trkpt>
      <trkpt lat="45.23258" lon="6.45916">
        <ele>890.6</ele>
        <time>2022-07-03T06:24:26.000Z</time>
      </trkpt>
      <trkpt lat="45.23257" lon="6.4593">
        <ele>890.6</ele>
        <time>2022-07-03T06:24:32.000Z</time>
      </trkpt>
      <trkpt lat="45.2326" lon="6.45945">
        <ele>891.3</ele>
        <time>2022-07-03T06:24:38.000Z</time>
      </trkpt>
      <trkpt lat="45.23264" lon="6.45959">
        <ele>891.4</ele>
        <time>2022-07-03T06:24:44.000Z</time>
      </trkpt>
      <trkpt lat="45.23269" lon="6.45973">
        <ele>891.5</ele>
        <time>2022-07-03T06:24:50.000Z</time>
      </trkpt>
      <trkpt lat="45.23273" lon="6.45986">
        <ele>892.5</ele>
        <time>2022-07-03T06:24:56.000Z</time>
      </trkpt>
      <trkpt lat="45.23274" lon="6.46003">
        <ele>892.5</ele>
        <time>2022-07-03T06:25:02.000Z</time>
      </trkpt>
      <trkpt lat="45.23278" lon="6.46016">
        <ele>893.3</ele>
        <time>2022-07-03T06:25:08.000Z</time>
      </trkpt>
      <trkpt lat="45.23282" lon="6.46031">
        <ele>894.1</ele>
        <time>2022-07-03T06:25:14.000Z</time>
      </trkpt>
      <trkpt lat="45.23284" lon="6.46044">
        <ele>895.3</ele>
        <time>2022-07-03T06:25:20.000Z</time>
      </trkpt>
      <trkpt lat="45.23286" lon="6.4606">
        <ele>896.5</ele>
        <time>2022-07-03T06:25:26.000Z</time>
      </trkpt>
      <trkpt lat="45.23286" lon="6.46075">
        <ele>897.8</ele>
        <time>2022-07-03T06:25:32.000Z</time>
      </trkpt>
      <trkpt lat="45.23287" lon="6.46089">
        <ele>898.7</ele>
        <time>2022-07-03T06:25:38.000Z</time>
      </trkpt>
      <trkpt lat="45.23289" lon="6.46106">
        <ele>899.7</ele>
        <time>2022-07-03T06:25:46.000Z</time>
      </trkpt>
      <trkpt lat="45.23293" lon="6.4612">
        <ele>900.7</ele>
        <time>2022-07-03T06:25:54.000Z</time>
      </trkpt>
      <trkpt lat="45.23295" lon="6.46136">
        <ele>900.7</ele>
        <time>2022-07-03T06:26:00.000Z</time>
      </trkpt>
      <trkpt lat="45.23298" lon="6.46151">
        <ele>901.4</ele>
        <time>2022-07-03T06:26:06.000Z</time>
      </trkpt>
      <trkpt lat="45.23302" lon="6.46165">
        <ele>902.5</ele>
        <time>2022-07-03T06:26:12.000Z</time>
      </trkpt>
      <trkpt lat="45.23307" lon="6.46178">
        <ele>903.5</ele>
        <time>2022-07-03T06:26:20.000Z</time>
      </trkpt>
      <trkpt lat="45.23312" lon="6.46192">
        <ele>903.8</ele>
        <time>2022-07-03T06:26:26.000Z</time>
      </trkpt>
      <trkpt lat="45.23315" lon="6.46206">
        <ele>903.7</ele>
        <time>2022-07-03T06:26:32.000Z</time>
      </trkpt>
      <trkpt lat="45.23318" lon="6.46222">
        <ele>903.5</ele>
        <time>2022-07-03T06:26:38.000Z</time>
      </trkpt>
      <trkpt lat="45.23318" lon="6.46236">
        <ele>903.7</ele>
        <time>2022-07-03T06:26:44.000Z</time>
      </trkpt>
      <trkpt lat="45.23321" lon="6.46253">
        <ele>904.6</ele>
        <time>2022-07-03T06:26:52.000Z</time>
      </trkpt>
      <trkpt lat="45.2333" lon="6.46263">
        <ele>906.2</ele>
        <time>2022-07-03T06:26:58.000Z</time>
      </trkpt>
      <trkpt lat="45.2334" lon="6.46256">
        <ele>909.5</ele>
        <time>2022-07-03T06:27:04.000Z</time>
      </trkpt>
      <trkpt lat="45.23344" lon="6.46245">
        <ele>912.3</ele>
        <time>2022-07-03T06:27:10.000Z</time>
      </trkpt>
      <trkpt lat="45.23343" lon="6.46229">
        <ele>913.1</ele>
        <time>2022-07-03T06:27:16.000Z</time>
      </trkpt>
      <trkpt lat="45.23342" lon="6.46213">
        <ele>913.9</ele>
        <time>2022-07-03T06:27:22.000Z</time>
      </trkpt>
      <trkpt lat="45.23339" lon="6.46197">
        <ele>914.6</ele>
        <time>2022-07-03T06:27:28.000Z</time>
      </trkpt>
      <trkpt lat="45.23334" lon="6.46186">
        <ele>914.4</ele>
        <time>2022-07-03T06:27:34.000Z</time>
      </trkpt>
      <trkpt lat="45.23331" lon="6.46171">
        <ele>915.9</ele>
        <time>2022-07-03T06:27:40.000Z</time>
      </trkpt>
      <trkpt lat="45.23327" lon="6.46159">
        <ele>915.7</ele>
        <time>2022-07-03T06:27:46.000Z</time>
      </trkpt>
      <trkpt lat="45.23323" lon="6.46145">
        <ele>914.9</ele>
        <time>2022-07-03T06:27:52.000Z</time>
      </trkpt>
      <trkpt lat="45.23321" lon="6.46132">
        <ele>914.9</ele>
        <time>2022-07-03T06:27:58.000Z</time>
      </trkpt>
      <trkpt lat="45.23323" lon="6.46117">
        <ele>915.2</ele>
        <time>2022-07-03T06:28:04.000Z</time>
      </trkpt>
      <trkpt lat="45.23325" lon="6.46102">
        <ele>915.7</ele>
        <time>2022-07-03T06:28:10.000Z</time>
      </trkpt>
      <trkpt lat="45.23331" lon="6.4609">
        <ele>917.3</ele>
        <time>2022-07-03T06:28:16.000Z</time>
      </trkpt>
      <trkpt lat="45.2334" lon="6.4608">
        <ele>919.4</ele>
        <time>2022-07-03T06:28:22.000Z</time>
      </trkpt>
      <trkpt lat="45.23349" lon="6.46072">
        <ele>921.2</ele>
        <time>2022-07-03T06:28:28.000Z</time>
      </trkpt>
      <trkpt lat="45.23356" lon="6.46061">
        <ele>921.4</ele>
        <time>2022-07-03T06:28:34.000Z</time>
      </trkpt>
      <trkpt lat="45.23363" lon="6.46048">
        <ele>921.9</ele>
        <time>2022-07-03T06:28:40.000Z</time>
      </trkpt>
      <trkpt lat="45.23369" lon="6.46037">
        <ele>923.1</ele>
        <time>2022-07-03T06:28:46.000Z</time>
      </trkpt>
      <trkpt lat="45.23374" lon="6.46026">
        <ele>924.1</ele>
        <time>2022-07-03T06:28:52.000Z</time>
      </trkpt>
      <trkpt lat="45.23377" lon="6.4601">
        <ele>924.6</ele>
        <time>2022-07-03T06:28:58.000Z</time>
      </trkpt>
      <trkpt lat="45.23377" lon="6.45996">
        <ele>924.1</ele>
        <time>2022-07-03T06:29:02.000Z</time>
      </trkpt>
      <trkpt lat="45.23377" lon="6.45981">
        <ele>924.2</ele>
        <time>2022-07-03T06:29:08.000Z</time>
      </trkpt>
      <trkpt lat="45.23379" lon="6.45968">
        <ele>924.9</ele>
        <time>2022-07-03T06:29:14.000Z</time>
      </trkpt>
      <trkpt lat="45.23376" lon="6.45954">
        <ele>924.4</ele>
        <time>2022-07-03T06:29:20.000Z</time>
      </trkpt>
      <trkpt lat="45.23374" lon="6.4594">
        <ele>924</ele>
        <time>2022-07-03T06:29:26.000Z</time>
      </trkpt>
      <trkpt lat="45.23375" lon="6.45927">
        <ele>926</ele>
        <time>2022-07-03T06:29:32.000Z</time>
      </trkpt>
      <trkpt lat="45.23377" lon="6.45913">
        <ele>928.4</ele>
        <time>2022-07-03T06:29:38.000Z</time>
      </trkpt>
      <trkpt lat="45.23377" lon="6.45898">
        <ele>929.8</ele>
        <time>2022-07-03T06:29:44.000Z</time>
      </trkpt>
      <trkpt lat="45.23381" lon="6.45883">
        <ele>931.9</ele>
        <time>2022-07-03T06:29:50.000Z</time>
      </trkpt>
      <trkpt lat="45.23382" lon="6.45868">
        <ele>932.3</ele>
        <time>2022-07-03T06:29:56.000Z</time>
      </trkpt>
      <trkpt lat="45.23382" lon="6.45854">
        <ele>932.2</ele>
        <time>2022-07-03T06:30:02.000Z</time>
      </trkpt>
      <trkpt lat="45.23381" lon="6.4584">
        <ele>932.1</ele>
        <time>2022-07-03T06:30:08.000Z</time>
      </trkpt>
      <trkpt lat="45.23379" lon="6.45825">
        <ele>931.5</ele>
        <time>2022-07-03T06:30:14.000Z</time>
      </trkpt>
      <trkpt lat="45.23376" lon="6.45813">
        <ele>930.6</ele>
        <time>2022-07-03T06:30:20.000Z</time>
      </trkpt>
      <trkpt lat="45.23375" lon="6.45796">
        <ele>931.4</ele>
        <time>2022-07-03T06:31:23.000Z</time>
      </trkpt>
      <trkpt lat="45.23388" lon="6.45797">
        <ele>935.2</ele>
        <time>2022-07-03T06:33:21.000Z</time>
      </trkpt>
      <trkpt lat="45.23395" lon="6.45809">
        <ele>936.7</ele>
        <time>2022-07-03T06:33:27.000Z</time>
      </trkpt>
      <trkpt lat="45.23393" lon="6.45824">
        <ele>936.6</ele>
        <time>2022-07-03T06:33:33.000Z</time>
      </trkpt>
      <trkpt lat="45.23393" lon="6.45839">
        <ele>936.9</ele>
        <time>2022-07-03T06:33:39.000Z</time>
      </trkpt>
      <trkpt lat="45.23393" lon="6.45852">
        <ele>936.8</ele>
        <time>2022-07-03T06:33:45.000Z</time>
      </trkpt>
      <trkpt lat="45.23394" lon="6.45868">
        <ele>937.2</ele>
        <time>2022-07-03T06:33:51.000Z</time>
      </trkpt>
      <trkpt lat="45.23396" lon="6.45886">
        <ele>938.2</ele>
        <time>2022-07-03T06:33:59.000Z</time>
      </trkpt>
      <trkpt lat="45.23402" lon="6.459">
        <ele>939.4</ele>
        <time>2022-07-03T06:34:03.000Z</time>
      </trkpt>
      <trkpt lat="45.23406" lon="6.45912">
        <ele>939.4</ele>
        <time>2022-07-03T06:34:09.000Z</time>
      </trkpt>
      <trkpt lat="45.23412" lon="6.45923">
        <ele>939.9</ele>
        <time>2022-07-03T06:34:15.000Z</time>
      </trkpt>
      <trkpt lat="45.23418" lon="6.45937">
        <ele>941</ele>
        <time>2022-07-03T06:34:23.000Z</time>
      </trkpt>
      <trkpt lat="45.23424" lon="6.45948">
        <ele>942.4</ele>
        <time>2022-07-03T06:34:29.000Z</time>
      </trkpt>
      <trkpt lat="45.23427" lon="6.45961">
        <ele>943.7</ele>
        <time>2022-07-03T06:34:35.000Z</time>
      </trkpt>
      <trkpt lat="45.23427" lon="6.45975">
        <ele>944.3</ele>
        <time>2022-07-03T06:34:41.000Z</time>
      </trkpt>
      <trkpt lat="45.23425" lon="6.4599">
        <ele>944.5</ele>
        <time>2022-07-03T06:34:47.000Z</time>
      </trkpt>
      <trkpt lat="45.23422" lon="6.46003">
        <ele>944.4</ele>
        <time>2022-07-03T06:34:53.000Z</time>
      </trkpt>
      <trkpt lat="45.2342" lon="6.46016">
        <ele>945.3</ele>
        <time>2022-07-03T06:34:59.000Z</time>
      </trkpt>
      <trkpt lat="45.23416" lon="6.46032">
        <ele>945.8</ele>
        <time>2022-07-03T06:35:07.000Z</time>
      </trkpt>
      <trkpt lat="45.23415" lon="6.46046">
        <ele>946.1</ele>
        <time>2022-07-03T06:35:13.000Z</time>
      </trkpt>
      <trkpt lat="45.23414" lon="6.46062">
        <ele>946.7</ele>
        <time>2022-07-03T06:35:21.000Z</time>
      </trkpt>
      <trkpt lat="45.23417" lon="6.46078">
        <ele>947.8</ele>
        <time>2022-07-03T06:35:27.000Z</time>
      </trkpt>
      <trkpt lat="45.23419" lon="6.46095">
        <ele>949.6</ele>
        <time>2022-07-03T06:35:33.000Z</time>
      </trkpt>
      <trkpt lat="45.23419" lon="6.46112">
        <ele>950.9</ele>
        <time>2022-07-03T06:35:41.000Z</time>
      </trkpt>
      <trkpt lat="45.23419" lon="6.46127">
        <ele>951.5</ele>
        <time>2022-07-03T06:35:47.000Z</time>
      </trkpt>
      <trkpt lat="45.2342" lon="6.46142">
        <ele>952.2</ele>
        <time>2022-07-03T06:35:53.000Z</time>
      </trkpt>
      <trkpt lat="45.23424" lon="6.46156">
        <ele>952.6</ele>
        <time>2022-07-03T06:35:59.000Z</time>
      </trkpt>
      <trkpt lat="45.23431" lon="6.46169">
        <ele>953.6</ele>
        <time>2022-07-03T06:36:05.000Z</time>
      </trkpt>
      <trkpt lat="45.23439" lon="6.46177">
        <ele>954.3</ele>
        <time>2022-07-03T06:36:11.000Z</time>
      </trkpt>
      <trkpt lat="45.23448" lon="6.46183">
        <ele>955.7</ele>
        <time>2022-07-03T06:36:17.000Z</time>
      </trkpt>
      <trkpt lat="45.23453" lon="6.46194">
        <ele>955.3</ele>
        <time>2022-07-03T06:36:23.000Z</time>
      </trkpt>
      <trkpt lat="45.23456" lon="6.46207">
        <ele>955.7</ele>
        <time>2022-07-03T06:36:29.000Z</time>
      </trkpt>
      <trkpt lat="45.23463" lon="6.46218">
        <ele>957.2</ele>
        <time>2022-07-03T06:36:35.000Z</time>
      </trkpt>
      <trkpt lat="45.23474" lon="6.46216">
        <ele>960.1</ele>
        <time>2022-07-03T06:36:41.000Z</time>
      </trkpt>
      <trkpt lat="45.2348" lon="6.46204">
        <ele>962.4</ele>
        <time>2022-07-03T06:36:47.000Z</time>
      </trkpt>
      <trkpt lat="45.23476" lon="6.46189">
        <ele>962.8</ele>
        <time>2022-07-03T06:36:53.000Z</time>
      </trkpt>
      <trkpt lat="45.23468" lon="6.46178">
        <ele>963</ele>
        <time>2022-07-03T06:36:59.000Z</time>
      </trkpt>
      <trkpt lat="45.23462" lon="6.46169">
        <ele>962.9</ele>
        <time>2022-07-03T06:37:05.000Z</time>
      </trkpt>
      <trkpt lat="45.23457" lon="6.46156">
        <ele>964</ele>
        <time>2022-07-03T06:37:11.000Z</time>
      </trkpt>
      <trkpt lat="45.23454" lon="6.46141">
        <ele>965.4</ele>
        <time>2022-07-03T06:37:17.000Z</time>
      </trkpt>
      <trkpt lat="45.23452" lon="6.46127">
        <ele>965.4</ele>
        <time>2022-07-03T06:37:23.000Z</time>
      </trkpt>
      <trkpt lat="45.23453" lon="6.46112">
        <ele>966.3</ele>
        <time>2022-07-03T06:37:29.000Z</time>
      </trkpt>
      <trkpt lat="45.23456" lon="6.46099">
        <ele>966.6</ele>
        <time>2022-07-03T06:37:35.000Z</time>
      </trkpt>
      <trkpt lat="45.2346" lon="6.46082">
        <ele>966.7</ele>
        <time>2022-07-03T06:37:43.000Z</time>
      </trkpt>
      <trkpt lat="45.23466" lon="6.46069">
        <ele>968.4</ele>
        <time>2022-07-03T06:37:49.000Z</time>
      </trkpt>
      <trkpt lat="45.23471" lon="6.46055">
        <ele>969.3</ele>
        <time>2022-07-03T06:37:55.000Z</time>
      </trkpt>
      <trkpt lat="45.23477" lon="6.4604">
        <ele>970.2</ele>
        <time>2022-07-03T06:38:01.000Z</time>
      </trkpt>
      <trkpt lat="45.23481" lon="6.46028">
        <ele>971.1</ele>
        <time>2022-07-03T06:38:05.000Z</time>
      </trkpt>
      <trkpt lat="45.23484" lon="6.46014">
        <ele>971.9</ele>
        <time>2022-07-03T06:38:11.000Z</time>
      </trkpt>
      <trkpt lat="45.23487" lon="6.46001">
        <ele>972.6</ele>
        <time>2022-07-03T06:38:17.000Z</time>
      </trkpt>
      <trkpt lat="45.23488" lon="6.45987">
        <ele>972.9</ele>
        <time>2022-07-03T06:38:23.000Z</time>
      </trkpt>
      <trkpt lat="45.2349" lon="6.45974">
        <ele>973.4</ele>
        <time>2022-07-03T06:38:29.000Z</time>
      </trkpt>
      <trkpt lat="45.23493" lon="6.45961">
        <ele>974</ele>
        <time>2022-07-03T06:38:35.000Z</time>
      </trkpt>
      <trkpt lat="45.23498" lon="6.45948">
        <ele>975.1</ele>
        <time>2022-07-03T06:38:41.000Z</time>
      </trkpt>
      <trkpt lat="45.23503" lon="6.45936">
        <ele>976.4</ele>
        <time>2022-07-03T06:38:47.000Z</time>
      </trkpt>
      <trkpt lat="45.23508" lon="6.45925">
        <ele>977.1</ele>
        <time>2022-07-03T06:38:53.000Z</time>
      </trkpt>
      <trkpt lat="45.23513" lon="6.45912">
        <ele>977.8</ele>
        <time>2022-07-03T06:38:59.000Z</time>
      </trkpt>
      <trkpt lat="45.23517" lon="6.45899">
        <ele>978.8</ele>
        <time>2022-07-03T06:39:05.000Z</time>
      </trkpt>
      <trkpt lat="45.2352" lon="6.45885">
        <ele>979.2</ele>
        <time>2022-07-03T06:39:11.000Z</time>
      </trkpt>
      <trkpt lat="45.23522" lon="6.45872">
        <ele>980</ele>
        <time>2022-07-03T06:39:17.000Z</time>
      </trkpt>
      <trkpt lat="45.23523" lon="6.45858">
        <ele>980.5</ele>
        <time>2022-07-03T06:39:23.000Z</time>
      </trkpt>
      <trkpt lat="45.23523" lon="6.45844">
        <ele>980.9</ele>
        <time>2022-07-03T06:39:29.000Z</time>
      </trkpt>
      <trkpt lat="45.23524" lon="6.45831">
        <ele>981.6</ele>
        <time>2022-07-03T06:39:35.000Z</time>
      </trkpt>
      <trkpt lat="45.23526" lon="6.45816">
        <ele>982.2</ele>
        <time>2022-07-03T06:39:41.000Z</time>
      </trkpt>
      <trkpt lat="45.23529" lon="6.45803">
        <ele>983.2</ele>
        <time>2022-07-03T06:39:47.000Z</time>
      </trkpt>
      <trkpt lat="45.23535" lon="6.45792">
        <ele>984</ele>
        <time>2022-07-03T06:39:53.000Z</time>
      </trkpt>
      <trkpt lat="45.23544" lon="6.45783">
        <ele>984.9</ele>
        <time>2022-07-03T06:39:59.000Z</time>
      </trkpt>
      <trkpt lat="45.23555" lon="6.4578">
        <ele>986.2</ele>
        <time>2022-07-03T06:40:05.000Z</time>
      </trkpt>
      <trkpt lat="45.23565" lon="6.45773">
        <ele>987.3</ele>
        <time>2022-07-03T06:40:11.000Z</time>
      </trkpt>
      <trkpt lat="45.23576" lon="6.45771">
        <ele>989.2</ele>
        <time>2022-07-03T06:40:17.000Z</time>
      </trkpt>
      <trkpt lat="45.23585" lon="6.45767">
        <ele>990.6</ele>
        <time>2022-07-03T06:40:23.000Z</time>
      </trkpt>
      <trkpt lat="45.23593" lon="6.45759">
        <ele>990.7</ele>
        <time>2022-07-03T06:40:29.000Z</time>
      </trkpt>
      <trkpt lat="45.23602" lon="6.45752">
        <ele>991.1</ele>
        <time>2022-07-03T06:40:35.000Z</time>
      </trkpt>
      <trkpt lat="45.23613" lon="6.45751">
        <ele>992.2</ele>
        <time>2022-07-03T06:40:41.000Z</time>
      </trkpt>
      <trkpt lat="45.23623" lon="6.45746">
        <ele>993.6</ele>
        <time>2022-07-03T06:40:49.000Z</time>
      </trkpt>
      <trkpt lat="45.23634" lon="6.45742">
        <ele>994.6</ele>
        <time>2022-07-03T06:40:57.000Z</time>
      </trkpt>
      <trkpt lat="45.23645" lon="6.45738">
        <ele>995</ele>
        <time>2022-07-03T06:41:05.000Z</time>
      </trkpt>
      <trkpt lat="45.23654" lon="6.45738">
        <ele>995.7</ele>
        <time>2022-07-03T06:41:11.000Z</time>
      </trkpt>
      <trkpt lat="45.23666" lon="6.45737">
        <ele>996.5</ele>
        <time>2022-07-03T06:41:19.000Z</time>
      </trkpt>
      <trkpt lat="45.23676" lon="6.45741">
        <ele>997.9</ele>
        <time>2022-07-03T06:41:25.000Z</time>
      </trkpt>
      <trkpt lat="45.23686" lon="6.45745">
        <ele>999.2</ele>
        <time>2022-07-03T06:41:31.000Z</time>
      </trkpt>
      <trkpt lat="45.23695" lon="6.4575">
        <ele>1000.9</ele>
        <time>2022-07-03T06:41:37.000Z</time>
      </trkpt>
      <trkpt lat="45.23704" lon="6.45756">
        <ele>1001.6</ele>
        <time>2022-07-03T06:41:43.000Z</time>
      </trkpt>
      <trkpt lat="45.23713" lon="6.4576">
        <ele>1002.4</ele>
        <time>2022-07-03T06:41:49.000Z</time>
      </trkpt>
      <trkpt lat="45.23722" lon="6.45764">
        <ele>1002.9</ele>
        <time>2022-07-03T06:41:55.000Z</time>
      </trkpt>
      <trkpt lat="45.23734" lon="6.45769">
        <ele>1003.4</ele>
        <time>2022-07-03T06:42:03.000Z</time>
      </trkpt>
      <trkpt lat="45.23746" lon="6.45771">
        <ele>1003.6</ele>
        <time>2022-07-03T06:42:09.000Z</time>
      </trkpt>
      <trkpt lat="45.23756" lon="6.45775">
        <ele>1004.5</ele>
        <time>2022-07-03T06:42:15.000Z</time>
      </trkpt>
      <trkpt lat="45.23766" lon="6.45778">
        <ele>1005.4</ele>
        <time>2022-07-03T06:42:21.000Z</time>
      </trkpt>
      <trkpt lat="45.23777" lon="6.4578">
        <ele>1005.6</ele>
        <time>2022-07-03T06:42:29.000Z</time>
      </trkpt>
      <trkpt lat="45.23787" lon="6.45783">
        <ele>1006.2</ele>
        <time>2022-07-03T06:42:37.000Z</time>
      </trkpt>
      <trkpt lat="45.23798" lon="6.4579">
        <ele>1007</ele>
        <time>2022-07-03T06:42:45.000Z</time>
      </trkpt>
      <trkpt lat="45.23805" lon="6.45797">
        <ele>1007.7</ele>
        <time>2022-07-03T06:42:51.000Z</time>
      </trkpt>
      <trkpt lat="45.23814" lon="6.45809">
        <ele>1008.4</ele>
        <time>2022-07-03T06:42:59.000Z</time>
      </trkpt>
      <trkpt lat="45.23822" lon="6.45819">
        <ele>1009.9</ele>
        <time>2022-07-03T06:43:05.000Z</time>
      </trkpt>
      <trkpt lat="45.2383" lon="6.45825">
        <ele>1011.3</ele>
        <time>2022-07-03T06:43:13.000Z</time>
      </trkpt>
      <trkpt lat="45.23841" lon="6.45832">
        <ele>1012.9</ele>
        <time>2022-07-03T06:43:21.000Z</time>
      </trkpt>
      <trkpt lat="45.2385" lon="6.45844">
        <ele>1014.6</ele>
        <time>2022-07-03T06:43:29.000Z</time>
      </trkpt>
      <trkpt lat="45.23859" lon="6.45849">
        <ele>1015.4</ele>
        <time>2022-07-03T06:43:35.000Z</time>
      </trkpt>
      <trkpt lat="45.23869" lon="6.4585">
        <ele>1016.8</ele>
        <time>2022-07-03T06:43:41.000Z</time>
      </trkpt>
      <trkpt lat="45.23877" lon="6.45844">
        <ele>1017.1</ele>
        <time>2022-07-03T06:43:47.000Z</time>
      </trkpt>
      <trkpt lat="45.23883" lon="6.45835">
        <ele>1016.5</ele>
        <time>2022-07-03T06:43:53.000Z</time>
      </trkpt>
      <trkpt lat="45.23888" lon="6.45824">
        <ele>1015.1</ele>
        <time>2022-07-03T06:43:59.000Z</time>
      </trkpt>
      <trkpt lat="45.23898" lon="6.45819">
        <ele>1016.1</ele>
        <time>2022-07-03T06:44:05.000Z</time>
      </trkpt>
      <trkpt lat="45.23906" lon="6.45812">
        <ele>1017.4</ele>
        <time>2022-07-03T06:44:11.000Z</time>
      </trkpt>
      <trkpt lat="45.23914" lon="6.45805">
        <ele>1018</ele>
        <time>2022-07-03T06:44:17.000Z</time>
      </trkpt>
      <trkpt lat="45.23923" lon="6.45802">
        <ele>1019.2</ele>
        <time>2022-07-03T06:44:23.000Z</time>
      </trkpt>
      <trkpt lat="45.23933" lon="6.45792">
        <ele>1019</ele>
        <time>2022-07-03T06:44:31.000Z</time>
      </trkpt>
      <trkpt lat="45.23945" lon="6.45793">
        <ele>1021.1</ele>
        <time>2022-07-03T06:44:37.000Z</time>
      </trkpt>
      <trkpt lat="45.23954" lon="6.45795">
        <ele>1022.3</ele>
        <time>2022-07-03T06:44:43.000Z</time>
      </trkpt>
      <trkpt lat="45.23966" lon="6.45797">
        <ele>1023.4</ele>
        <time>2022-07-03T06:44:51.000Z</time>
      </trkpt>
      <trkpt lat="45.23977" lon="6.45797">
        <ele>1024.4</ele>
        <time>2022-07-03T06:44:59.000Z</time>
      </trkpt>
      <trkpt lat="45.23987" lon="6.45798">
        <ele>1024.8</ele>
        <time>2022-07-03T06:45:07.000Z</time>
      </trkpt>
      <trkpt lat="45.23996" lon="6.45794">
        <ele>1024.4</ele>
        <time>2022-07-03T06:45:15.000Z</time>
      </trkpt>
      <trkpt lat="45.24005" lon="6.45788">
        <ele>1024.1</ele>
        <time>2022-07-03T06:45:21.000Z</time>
      </trkpt>
      <trkpt lat="45.24017" lon="6.45785">
        <ele>1024.9</ele>
        <time>2022-07-03T06:45:27.000Z</time>
      </trkpt>
      <trkpt lat="45.24026" lon="6.45797">
        <ele>1027.4</ele>
        <time>2022-07-03T06:45:33.000Z</time>
      </trkpt>
      <trkpt lat="45.24023" lon="6.4581">
        <ele>1029.5</ele>
        <time>2022-07-03T06:45:39.000Z</time>
      </trkpt>
      <trkpt lat="45.24011" lon="6.45814">
        <ele>1030.1</ele>
        <time>2022-07-03T06:45:45.000Z</time>
      </trkpt>
      <trkpt lat="45.24002" lon="6.45816">
        <ele>1029.8</ele>
        <time>2022-07-03T06:45:51.000Z</time>
      </trkpt>
      <trkpt lat="45.23993" lon="6.45821">
        <ele>1030.4</ele>
        <time>2022-07-03T06:45:57.000Z</time>
      </trkpt>
      <trkpt lat="45.23983" lon="6.45829">
        <ele>1031.5</ele>
        <time>2022-07-03T06:46:05.000Z</time>
      </trkpt>
      <trkpt lat="45.23974" lon="6.45836">
        <ele>1032.6</ele>
        <time>2022-07-03T06:46:11.000Z</time>
      </trkpt>
      <trkpt lat="45.23965" lon="6.45839">
        <ele>1033.1</ele>
        <time>2022-07-03T06:46:17.000Z</time>
      </trkpt>
      <trkpt lat="45.23957" lon="6.45845">
        <ele>1034.2</ele>
        <time>2022-07-03T06:46:23.000Z</time>
      </trkpt>
      <trkpt lat="45.23946" lon="6.45848">
        <ele>1034.7</ele>
        <time>2022-07-03T06:46:29.000Z</time>
      </trkpt>
      <trkpt lat="45.23938" lon="6.45855">
        <ele>1034.9</ele>
        <time>2022-07-03T06:46:35.000Z</time>
      </trkpt>
      <trkpt lat="45.23932" lon="6.45866">
        <ele>1035.3</ele>
        <time>2022-07-03T06:46:41.000Z</time>
      </trkpt>
      <trkpt lat="45.23927" lon="6.45879">
        <ele>1036.5</ele>
        <time>2022-07-03T06:46:47.000Z</time>
      </trkpt>
      <trkpt lat="45.23924" lon="6.45893">
        <ele>1038.4</ele>
        <time>2022-07-03T06:46:53.000Z</time>
      </trkpt>
      <trkpt lat="45.23916" lon="6.45905">
        <ele>1038.2</ele>
        <time>2022-07-03T06:46:59.000Z</time>
      </trkpt>
      <trkpt lat="45.23912" lon="6.45918">
        <ele>1039.2</ele>
        <time>2022-07-03T06:47:05.000Z</time>
      </trkpt>
      <trkpt lat="45.23907" lon="6.45931">
        <ele>1040.6</ele>
        <time>2022-07-03T06:47:11.000Z</time>
      </trkpt>
      <trkpt lat="45.23904" lon="6.45945">
        <ele>1042.5</ele>
        <time>2022-07-03T06:47:17.000Z</time>
      </trkpt>
      <trkpt lat="45.239" lon="6.45958">
        <ele>1044.9</ele>
        <time>2022-07-03T06:47:25.000Z</time>
      </trkpt>
      <trkpt lat="45.2389" lon="6.45962">
        <ele>1044.7</ele>
        <time>2022-07-03T06:47:31.000Z</time>
      </trkpt>
      <trkpt lat="45.23879" lon="6.45963">
        <ele>1044.7</ele>
        <time>2022-07-03T06:47:37.000Z</time>
      </trkpt>
      <trkpt lat="45.23868" lon="6.45964">
        <ele>1044.8</ele>
        <time>2022-07-03T06:47:43.000Z</time>
      </trkpt>
      <trkpt lat="45.23858" lon="6.45963">
        <ele>1044.8</ele>
        <time>2022-07-03T06:47:49.000Z</time>
      </trkpt>
      <trkpt lat="45.23848" lon="6.45961">
        <ele>1045.5</ele>
        <time>2022-07-03T06:47:55.000Z</time>
      </trkpt>
      <trkpt lat="45.23838" lon="6.45963">
        <ele>1046.9</ele>
        <time>2022-07-03T06:48:01.000Z</time>
      </trkpt>
      <trkpt lat="45.23828" lon="6.45966">
        <ele>1048</ele>
        <time>2022-07-03T06:48:07.000Z</time>
      </trkpt>
      <trkpt lat="45.23818" lon="6.45973">
        <ele>1049</ele>
        <time>2022-07-03T06:48:15.000Z</time>
      </trkpt>
      <trkpt lat="45.23809" lon="6.4598">
        <ele>1049.8</ele>
        <time>2022-07-03T06:48:21.000Z</time>
      </trkpt>
      <trkpt lat="45.23801" lon="6.45985">
        <ele>1050.5</ele>
        <time>2022-07-03T06:48:27.000Z</time>
      </trkpt>
      <trkpt lat="45.23791" lon="6.45988">
        <ele>1051</ele>
        <time>2022-07-03T06:48:33.000Z</time>
      </trkpt>
      <trkpt lat="45.2378" lon="6.45992">
        <ele>1051.4</ele>
        <time>2022-07-03T06:48:41.000Z</time>
      </trkpt>
      <trkpt lat="45.23772" lon="6.45997">
        <ele>1051.5</ele>
        <time>2022-07-03T06:48:47.000Z</time>
      </trkpt>
      <trkpt lat="45.23764" lon="6.46006">
        <ele>1051.1</ele>
        <time>2022-07-03T06:48:53.000Z</time>
      </trkpt>
      <trkpt lat="45.23759" lon="6.4602">
        <ele>1051.2</ele>
        <time>2022-07-03T06:48:59.000Z</time>
      </trkpt>
      <trkpt lat="45.23761" lon="6.46035">
        <ele>1052.6</ele>
        <time>2022-07-03T06:49:05.000Z</time>
      </trkpt>
      <trkpt lat="45.23765" lon="6.46048">
        <ele>1053.9</ele>
        <time>2022-07-03T06:49:11.000Z</time>
      </trkpt>
      <trkpt lat="45.23774" lon="6.46057">
        <ele>1055.4</ele>
        <time>2022-07-03T06:49:17.000Z</time>
      </trkpt>
      <trkpt lat="45.23785" lon="6.46065">
        <ele>1056.9</ele>
        <time>2022-07-03T06:49:23.000Z</time>
      </trkpt>
      <trkpt lat="45.23795" lon="6.46062">
        <ele>1058</ele>
        <time>2022-07-03T06:49:29.000Z</time>
      </trkpt>
      <trkpt lat="45.23804" lon="6.46058">
        <ele>1058.8</ele>
        <time>2022-07-03T06:49:35.000Z</time>
      </trkpt>
      <trkpt lat="45.23813" lon="6.46055">
        <ele>1059.4</ele>
        <time>2022-07-03T06:49:41.000Z</time>
      </trkpt>
      <trkpt lat="45.23821" lon="6.46049">
        <ele>1059.7</ele>
        <time>2022-07-03T06:49:47.000Z</time>
      </trkpt>
      <trkpt lat="45.23832" lon="6.46043">
        <ele>1060.3</ele>
        <time>2022-07-03T06:49:53.000Z</time>
      </trkpt>
      <trkpt lat="45.23842" lon="6.46032">
        <ele>1061.1</ele>
        <time>2022-07-03T06:49:59.000Z</time>
      </trkpt>
      <trkpt lat="45.23852" lon="6.46027">
        <ele>1061.7</ele>
        <time>2022-07-03T06:50:05.000Z</time>
      </trkpt>
      <trkpt lat="45.23861" lon="6.46024">
        <ele>1062.1</ele>
        <time>2022-07-03T06:50:11.000Z</time>
      </trkpt>
      <trkpt lat="45.2387" lon="6.46025">
        <ele>1063</ele>
        <time>2022-07-03T06:50:17.000Z</time>
      </trkpt>
      <trkpt lat="45.2388" lon="6.46028">
        <ele>1064.8</ele>
        <time>2022-07-03T06:50:23.000Z</time>
      </trkpt>
      <trkpt lat="45.23889" lon="6.4603">
        <ele>1066.2</ele>
        <time>2022-07-03T06:50:29.000Z</time>
      </trkpt>
      <trkpt lat="45.23899" lon="6.46032">
        <ele>1066.9</ele>
        <time>2022-07-03T06:50:35.000Z</time>
      </trkpt>
      <trkpt lat="45.23908" lon="6.46032">
        <ele>1067.5</ele>
        <time>2022-07-03T06:50:41.000Z</time>
      </trkpt>
      <trkpt lat="45.23917" lon="6.46032">
        <ele>1067.7</ele>
        <time>2022-07-03T06:50:47.000Z</time>
      </trkpt>
      <trkpt lat="45.23928" lon="6.4603">
        <ele>1067.8</ele>
        <time>2022-07-03T06:50:53.000Z</time>
      </trkpt>
      <trkpt lat="45.23938" lon="6.4603">
        <ele>1068.5</ele>
        <time>2022-07-03T06:50:59.000Z</time>
      </trkpt>
      <trkpt lat="45.23949" lon="6.46029">
        <ele>1068.7</ele>
        <time>2022-07-03T06:51:05.000Z</time>
      </trkpt>
      <trkpt lat="45.23959" lon="6.46027">
        <ele>1068.8</ele>
        <time>2022-07-03T06:51:11.000Z</time>
      </trkpt>
      <trkpt lat="45.23968" lon="6.46025">
        <ele>1069.3</ele>
        <time>2022-07-03T06:51:17.000Z</time>
      </trkpt>
      <trkpt lat="45.23978" lon="6.46022">
        <ele>1069.8</ele>
        <time>2022-07-03T06:51:23.000Z</time>
      </trkpt>
      <trkpt lat="45.23989" lon="6.46017">
        <ele>1070</ele>
        <time>2022-07-03T06:51:29.000Z</time>
      </trkpt>
      <trkpt lat="45.23998" lon="6.46014">
        <ele>1070</ele>
        <time>2022-07-03T06:51:35.000Z</time>
      </trkpt>
      <trkpt lat="45.24008" lon="6.46015">
        <ele>1070.7</ele>
        <time>2022-07-03T06:51:41.000Z</time>
      </trkpt>
      <trkpt lat="45.24019" lon="6.46014">
        <ele>1071.4</ele>
        <time>2022-07-03T06:51:47.000Z</time>
      </trkpt>
      <trkpt lat="45.2403" lon="6.46014">
        <ele>1072</ele>
        <time>2022-07-03T06:51:53.000Z</time>
      </trkpt>
      <trkpt lat="45.2404" lon="6.46014">
        <ele>1072.9</ele>
        <time>2022-07-03T06:51:59.000Z</time>
      </trkpt>
      <trkpt lat="45.2405" lon="6.46014">
        <ele>1074</ele>
        <time>2022-07-03T06:52:05.000Z</time>
      </trkpt>
      <trkpt lat="45.2406" lon="6.46016">
        <ele>1075.3</ele>
        <time>2022-07-03T06:52:11.000Z</time>
      </trkpt>
      <trkpt lat="45.24071" lon="6.46017">
        <ele>1076.6</ele>
        <time>2022-07-03T06:52:17.000Z</time>
      </trkpt>
      <trkpt lat="45.24081" lon="6.46016">
        <ele>1077.4</ele>
        <time>2022-07-03T06:52:23.000Z</time>
      </trkpt>
      <trkpt lat="45.24093" lon="6.46013">
        <ele>1078.3</ele>
        <time>2022-07-03T06:52:31.000Z</time>
      </trkpt>
      <trkpt lat="45.24101" lon="6.46009">
        <ele>1078.9</ele>
        <time>2022-07-03T06:52:37.000Z</time>
      </trkpt>
      <trkpt lat="45.2411" lon="6.46004">
        <ele>1079.2</ele>
        <time>2022-07-03T06:52:43.000Z</time>
      </trkpt>
      <trkpt lat="45.24118" lon="6.45997">
        <ele>1079.4</ele>
        <time>2022-07-03T06:52:49.000Z</time>
      </trkpt>
      <trkpt lat="45.24128" lon="6.45992">
        <ele>1079.9</ele>
        <time>2022-07-03T06:52:55.000Z</time>
      </trkpt>
      <trkpt lat="45.24137" lon="6.45983">
        <ele>1080.4</ele>
        <time>2022-07-03T06:53:01.000Z</time>
      </trkpt>
      <trkpt lat="45.24144" lon="6.45973">
        <ele>1080.8</ele>
        <time>2022-07-03T06:53:07.000Z</time>
      </trkpt>
      <trkpt lat="45.24149" lon="6.45962">
        <ele>1080.6</ele>
        <time>2022-07-03T06:53:13.000Z</time>
      </trkpt>
      <trkpt lat="45.24156" lon="6.45951">
        <ele>1081.1</ele>
        <time>2022-07-03T06:53:19.000Z</time>
      </trkpt>
      <trkpt lat="45.24162" lon="6.45938">
        <ele>1081.5</ele>
        <time>2022-07-03T06:53:25.000Z</time>
      </trkpt>
      <trkpt lat="45.24169" lon="6.45928">
        <ele>1082.4</ele>
        <time>2022-07-03T06:53:31.000Z</time>
      </trkpt>
      <trkpt lat="45.24178" lon="6.45921">
        <ele>1084.2</ele>
        <time>2022-07-03T06:53:37.000Z</time>
      </trkpt>
      <trkpt lat="45.24185" lon="6.45912">
        <ele>1085.6</ele>
        <time>2022-07-03T06:53:43.000Z</time>
      </trkpt>
      <trkpt lat="45.24192" lon="6.45902">
        <ele>1086.5</ele>
        <time>2022-07-03T06:53:49.000Z</time>
      </trkpt>
      <trkpt lat="45.242" lon="6.45893">
        <ele>1087.3</ele>
        <time>2022-07-03T06:53:55.000Z</time>
      </trkpt>
      <trkpt lat="45.24209" lon="6.45883">
        <ele>1087.9</ele>
        <time>2022-07-03T06:54:03.000Z</time>
      </trkpt>
      <trkpt lat="45.24217" lon="6.45875">
        <ele>1088.4</ele>
        <time>2022-07-03T06:54:09.000Z</time>
      </trkpt>
      <trkpt lat="45.24225" lon="6.45865">
        <ele>1089.1</ele>
        <time>2022-07-03T06:54:15.000Z</time>
      </trkpt>
      <trkpt lat="45.24232" lon="6.45856">
        <ele>1090.1</ele>
        <time>2022-07-03T06:54:21.000Z</time>
      </trkpt>
      <trkpt lat="45.2424" lon="6.45844">
        <ele>1091.5</ele>
        <time>2022-07-03T06:54:27.000Z</time>
      </trkpt>
      <trkpt lat="45.24242" lon="6.4583">
        <ele>1091.7</ele>
        <time>2022-07-03T06:54:35.000Z</time>
      </trkpt>
      <trkpt lat="45.24242" lon="6.45817">
        <ele>1091.6</ele>
        <time>2022-07-03T06:54:41.000Z</time>
      </trkpt>
      <trkpt lat="45.24241" lon="6.45802">
        <ele>1091.2</ele>
        <time>2022-07-03T06:54:47.000Z</time>
      </trkpt>
      <trkpt lat="45.24244" lon="6.45789">
        <ele>1091.9</ele>
        <time>2022-07-03T06:54:53.000Z</time>
      </trkpt>
      <trkpt lat="45.24254" lon="6.4579">
        <ele>1094.9</ele>
        <time>2022-07-03T06:54:59.000Z</time>
      </trkpt>
      <trkpt lat="45.24257" lon="6.45804">
        <ele>1096.6</ele>
        <time>2022-07-03T06:55:05.000Z</time>
      </trkpt>
      <trkpt lat="45.24256" lon="6.45819">
        <ele>1096.3</ele>
        <time>2022-07-03T06:55:11.000Z</time>
      </trkpt>
      <trkpt lat="45.24256" lon="6.45835">
        <ele>1096.2</ele>
        <time>2022-07-03T06:55:17.000Z</time>
      </trkpt>
      <trkpt lat="45.24257" lon="6.45849">
        <ele>1096.9</ele>
        <time>2022-07-03T06:55:23.000Z</time>
      </trkpt>
      <trkpt lat="45.24258" lon="6.45864">
        <ele>1097.8</ele>
        <time>2022-07-03T06:55:29.000Z</time>
      </trkpt>
      <trkpt lat="45.24259" lon="6.45878">
        <ele>1099.1</ele>
        <time>2022-07-03T06:55:35.000Z</time>
      </trkpt>
      <trkpt lat="45.24257" lon="6.45893">
        <ele>1100.1</ele>
        <time>2022-07-03T06:55:43.000Z</time>
      </trkpt>
      <trkpt lat="45.24254" lon="6.45909">
        <ele>1101</ele>
        <time>2022-07-03T06:55:51.000Z</time>
      </trkpt>
      <trkpt lat="45.24255" lon="6.45924">
        <ele>1102.3</ele>
        <time>2022-07-03T06:55:57.000Z</time>
      </trkpt>
      <trkpt lat="45.24255" lon="6.45939">
        <ele>1103.3</ele>
        <time>2022-07-03T06:56:03.000Z</time>
      </trkpt>
      <trkpt lat="45.24251" lon="6.45951">
        <ele>1103.2</ele>
        <time>2022-07-03T06:56:09.000Z</time>
      </trkpt>
      <trkpt lat="45.24247" lon="6.45963">
        <ele>1103.3</ele>
        <time>2022-07-03T06:56:15.000Z</time>
      </trkpt>
      <trkpt lat="45.24245" lon="6.45977">
        <ele>1104.3</ele>
        <time>2022-07-03T06:56:23.000Z</time>
      </trkpt>
      <trkpt lat="45.24245" lon="6.45994">
        <ele>1106.1</ele>
        <time>2022-07-03T06:56:31.000Z</time>
      </trkpt>
      <trkpt lat="45.24242" lon="6.46006">
        <ele>1106.6</ele>
        <time>2022-07-03T06:56:37.000Z</time>
      </trkpt>
      <trkpt lat="45.2424" lon="6.46019">
        <ele>1107</ele>
        <time>2022-07-03T06:56:43.000Z</time>
      </trkpt>
      <trkpt lat="45.24237" lon="6.46032">
        <ele>1107.4</ele>
        <time>2022-07-03T06:56:49.000Z</time>
      </trkpt>
      <trkpt lat="45.24234" lon="6.46044">
        <ele>1107.8</ele>
        <time>2022-07-03T06:56:55.000Z</time>
      </trkpt>
      <trkpt lat="45.2423" lon="6.46056">
        <ele>1107.9</ele>
        <time>2022-07-03T06:57:01.000Z</time>
      </trkpt>
      <trkpt lat="45.24223" lon="6.46067">
        <ele>1108</ele>
        <time>2022-07-03T06:57:07.000Z</time>
      </trkpt>
      <trkpt lat="45.24218" lon="6.46078">
        <ele>1108.2</ele>
        <time>2022-07-03T06:57:13.000Z</time>
      </trkpt>
      <trkpt lat="45.24221" lon="6.46092">
        <ele>1111.1</ele>
        <time>2022-07-03T06:57:19.000Z</time>
      </trkpt>
      <trkpt lat="45.2423" lon="6.46101">
        <ele>1116.2</ele>
        <time>2022-07-03T06:57:25.000Z</time>
      </trkpt>
      <trkpt lat="45.24239" lon="6.46094">
        <ele>1118.4</ele>
        <time>2022-07-03T06:57:31.000Z</time>
      </trkpt>
      <trkpt lat="45.24243" lon="6.4608">
        <ele>1116.6</ele>
        <time>2022-07-03T06:57:37.000Z</time>
      </trkpt>
      <trkpt lat="45.24245" lon="6.46066">
        <ele>1113.9</ele>
        <time>2022-07-03T06:58:01.000Z</time>
      </trkpt>
      <trkpt lat="45.24234" lon="6.46065">
        <ele>1111.1</ele>
        <time>2022-07-03T06:59:01.000Z</time>
      </trkpt>
      <trkpt lat="45.24242" lon="6.46058">
        <ele>1111.5</ele>
        <time>2022-07-03T06:59:23.000Z</time>
      </trkpt>
      <trkpt lat="45.24252" lon="6.46056">
        <ele>1113.9</ele>
        <time>2022-07-03T07:01:51.000Z</time>
      </trkpt>
      <trkpt lat="45.24258" lon="6.46043">
        <ele>1114.6</ele>
        <time>2022-07-03T07:01:59.000Z</time>
      </trkpt>
      <trkpt lat="45.24262" lon="6.46032">
        <ele>1115.1</ele>
        <time>2022-07-03T07:02:05.000Z</time>
      </trkpt>
      <trkpt lat="45.24267" lon="6.4602">
        <ele>1115.2</ele>
        <time>2022-07-03T07:02:11.000Z</time>
      </trkpt>
      <trkpt lat="45.24273" lon="6.46006">
        <ele>1115.8</ele>
        <time>2022-07-03T07:02:19.000Z</time>
      </trkpt>
      <trkpt lat="45.24278" lon="6.45996">
        <ele>1116.8</ele>
        <time>2022-07-03T07:02:25.000Z</time>
      </trkpt>
      <trkpt lat="45.24287" lon="6.45988">
        <ele>1118.9</ele>
        <time>2022-07-03T07:02:31.000Z</time>
      </trkpt>
      <trkpt lat="45.24294" lon="6.45976">
        <ele>1119.9</ele>
        <time>2022-07-03T07:02:39.000Z</time>
      </trkpt>
      <trkpt lat="45.24299" lon="6.45965">
        <ele>1120</ele>
        <time>2022-07-03T07:02:45.000Z</time>
      </trkpt>
      <trkpt lat="45.24305" lon="6.45955">
        <ele>1120.7</ele>
        <time>2022-07-03T07:02:51.000Z</time>
      </trkpt>
      <trkpt lat="45.24311" lon="6.4594">
        <ele>1120.7</ele>
        <time>2022-07-03T07:02:59.000Z</time>
      </trkpt>
      <trkpt lat="45.24315" lon="6.45929">
        <ele>1121</ele>
        <time>2022-07-03T07:03:05.000Z</time>
      </trkpt>
      <trkpt lat="45.24321" lon="6.45918">
        <ele>1121.9</ele>
        <time>2022-07-03T07:03:11.000Z</time>
      </trkpt>
      <trkpt lat="45.24328" lon="6.45907">
        <ele>1123.1</ele>
        <time>2022-07-03T07:03:19.000Z</time>
      </trkpt>
      <trkpt lat="45.24338" lon="6.45899">
        <ele>1124.9</ele>
        <time>2022-07-03T07:03:27.000Z</time>
      </trkpt>
      <trkpt lat="45.24348" lon="6.45893">
        <ele>1125.9</ele>
        <time>2022-07-03T07:03:33.000Z</time>
      </trkpt>
      <trkpt lat="45.24357" lon="6.45887">
        <ele>1126.8</ele>
        <time>2022-07-03T07:03:39.000Z</time>
      </trkpt>
      <trkpt lat="45.24366" lon="6.4588">
        <ele>1128</ele>
        <time>2022-07-03T07:03:45.000Z</time>
      </trkpt>
      <trkpt lat="45.24374" lon="6.45874">
        <ele>1128.8</ele>
        <time>2022-07-03T07:03:51.000Z</time>
      </trkpt>
      <trkpt lat="45.24384" lon="6.45865">
        <ele>1129.6</ele>
        <time>2022-07-03T07:03:59.000Z</time>
      </trkpt>
      <trkpt lat="45.24392" lon="6.45854">
        <ele>1130.5</ele>
        <time>2022-07-03T07:04:07.000Z</time>
      </trkpt>
      <trkpt lat="45.24397" lon="6.45842">
        <ele>1131.1</ele>
        <time>2022-07-03T07:04:15.000Z</time>
      </trkpt>
      <trkpt lat="45.24403" lon="6.45828">
        <ele>1132.3</ele>
        <time>2022-07-03T07:04:23.000Z</time>
      </trkpt>
      <trkpt lat="45.24411" lon="6.45821">
        <ele>1134</ele>
        <time>2022-07-03T07:04:29.000Z</time>
      </trkpt>
      <trkpt lat="45.2442" lon="6.45819">
        <ele>1135.8</ele>
        <time>2022-07-03T07:04:35.000Z</time>
      </trkpt>
      <trkpt lat="45.24429" lon="6.45815">
        <ele>1137</ele>
        <time>2022-07-03T07:04:41.000Z</time>
      </trkpt>
      <trkpt lat="45.24439" lon="6.45812">
        <ele>1138</ele>
        <time>2022-07-03T07:04:47.000Z</time>
      </trkpt>
      <trkpt lat="45.24448" lon="6.45808">
        <ele>1138.7</ele>
        <time>2022-07-03T07:04:53.000Z</time>
      </trkpt>
      <trkpt lat="45.24456" lon="6.45803">
        <ele>1138.3</ele>
        <time>2022-07-03T07:04:59.000Z</time>
      </trkpt>
      <trkpt lat="45.24465" lon="6.45803">
        <ele>1138.8</ele>
        <time>2022-07-03T07:05:05.000Z</time>
      </trkpt>
      <trkpt lat="45.24476" lon="6.45807">
        <ele>1141.1</ele>
        <time>2022-07-03T07:05:15.000Z</time>
      </trkpt>
      <trkpt lat="45.24485" lon="6.45811">
        <ele>1141.7</ele>
        <time>2022-07-03T07:05:23.000Z</time>
      </trkpt>
      <trkpt lat="45.24497" lon="6.45816">
        <ele>1142.2</ele>
        <time>2022-07-03T07:05:31.000Z</time>
      </trkpt>
      <trkpt lat="45.24506" lon="6.45821">
        <ele>1143.5</ele>
        <time>2022-07-03T07:05:37.000Z</time>
      </trkpt>
      <trkpt lat="45.24517" lon="6.45829">
        <ele>1145.7</ele>
        <time>2022-07-03T07:05:45.000Z</time>
      </trkpt>
      <trkpt lat="45.24525" lon="6.45836">
        <ele>1147.1</ele>
        <time>2022-07-03T07:05:51.000Z</time>
      </trkpt>
      <trkpt lat="45.24535" lon="6.45844">
        <ele>1147.9</ele>
        <time>2022-07-03T07:05:59.000Z</time>
      </trkpt>
      <trkpt lat="45.24545" lon="6.45853">
        <ele>1148.2</ele>
        <time>2022-07-03T07:06:05.000Z</time>
      </trkpt>
      <trkpt lat="45.24553" lon="6.45863">
        <ele>1148.4</ele>
        <time>2022-07-03T07:06:13.000Z</time>
      </trkpt>
      <trkpt lat="45.24562" lon="6.45872">
        <ele>1149.5</ele>
        <time>2022-07-03T07:06:21.000Z</time>
      </trkpt>
      <trkpt lat="45.24573" lon="6.45872">
        <ele>1150.3</ele>
        <time>2022-07-03T07:06:29.000Z</time>
      </trkpt>
      <trkpt lat="45.24584" lon="6.45871">
        <ele>1151.1</ele>
        <time>2022-07-03T07:06:35.000Z</time>
      </trkpt>
      <trkpt lat="45.24596" lon="6.45867">
        <ele>1152.2</ele>
        <time>2022-07-03T07:06:45.000Z</time>
      </trkpt>
      <trkpt lat="45.24607" lon="6.45865">
        <ele>1153.6</ele>
        <time>2022-07-03T07:06:53.000Z</time>
      </trkpt>
      <trkpt lat="45.24615" lon="6.45861">
        <ele>1154.5</ele>
        <time>2022-07-03T07:06:59.000Z</time>
      </trkpt>
      <trkpt lat="45.24626" lon="6.45856">
        <ele>1155.5</ele>
        <time>2022-07-03T07:07:07.000Z</time>
      </trkpt>
      <trkpt lat="45.24636" lon="6.45851">
        <ele>1156.1</ele>
        <time>2022-07-03T07:07:15.000Z</time>
      </trkpt>
      <trkpt lat="45.24646" lon="6.45847">
        <ele>1157.4</ele>
        <time>2022-07-03T07:07:23.000Z</time>
      </trkpt>
      <trkpt lat="45.24655" lon="6.45841">
        <ele>1158.7</ele>
        <time>2022-07-03T07:07:29.000Z</time>
      </trkpt>
      <trkpt lat="45.24663" lon="6.45835">
        <ele>1160.1</ele>
        <time>2022-07-03T07:07:35.000Z</time>
      </trkpt>
      <trkpt lat="45.24673" lon="6.45826">
        <ele>1160.7</ele>
        <time>2022-07-03T07:07:43.000Z</time>
      </trkpt>
      <trkpt lat="45.24683" lon="6.45818">
        <ele>1161.1</ele>
        <time>2022-07-03T07:07:51.000Z</time>
      </trkpt>
      <trkpt lat="45.24692" lon="6.45817">
        <ele>1163</ele>
        <time>2022-07-03T07:07:57.000Z</time>
      </trkpt>
      <trkpt lat="45.24702" lon="6.45818">
        <ele>1164</ele>
        <time>2022-07-03T07:08:03.000Z</time>
      </trkpt>
      <trkpt lat="45.2471" lon="6.45822">
        <ele>1164.5</ele>
        <time>2022-07-03T07:08:09.000Z</time>
      </trkpt>
      <trkpt lat="45.24717" lon="6.45835">
        <ele>1166.4</ele>
        <time>2022-07-03T07:08:17.000Z</time>
      </trkpt>
      <trkpt lat="45.2472" lon="6.45851">
        <ele>1168.4</ele>
        <time>2022-07-03T07:08:25.000Z</time>
      </trkpt>
      <trkpt lat="45.24717" lon="6.45866">
        <ele>1170.3</ele>
        <time>2022-07-03T07:08:33.000Z</time>
      </trkpt>
      <trkpt lat="45.24711" lon="6.45876">
        <ele>1171</ele>
        <time>2022-07-03T07:08:39.000Z</time>
      </trkpt>
      <trkpt lat="45.24706" lon="6.45888">
        <ele>1171.1</ele>
        <time>2022-07-03T07:08:45.000Z</time>
      </trkpt>
      <trkpt lat="45.247" lon="6.45903">
        <ele>1171.7</ele>
        <time>2022-07-03T07:08:53.000Z</time>
      </trkpt>
      <trkpt lat="45.24693" lon="6.45912">
        <ele>1172.2</ele>
        <time>2022-07-03T07:08:59.000Z</time>
      </trkpt>
      <trkpt lat="45.24684" lon="6.45922">
        <ele>1173.8</ele>
        <time>2022-07-03T07:09:07.000Z</time>
      </trkpt>
      <trkpt lat="45.24674" lon="6.45929">
        <ele>1175.1</ele>
        <time>2022-07-03T07:09:15.000Z</time>
      </trkpt>
      <trkpt lat="45.24663" lon="6.45933">
        <ele>1175.8</ele>
        <time>2022-07-03T07:09:23.000Z</time>
      </trkpt>
      <trkpt lat="45.24654" lon="6.45937">
        <ele>1176.2</ele>
        <time>2022-07-03T07:09:29.000Z</time>
      </trkpt>
      <trkpt lat="45.24644" lon="6.45944">
        <ele>1177.7</ele>
        <time>2022-07-03T07:09:35.000Z</time>
      </trkpt>
      <trkpt lat="45.24634" lon="6.45949">
        <ele>1179</ele>
        <time>2022-07-03T07:09:43.000Z</time>
      </trkpt>
      <trkpt lat="45.24625" lon="6.45946">
        <ele>1178.3</ele>
        <time>2022-07-03T07:09:51.000Z</time>
      </trkpt>
      <trkpt lat="45.24614" lon="6.45954">
        <ele>1180.5</ele>
        <time>2022-07-03T07:09:59.000Z</time>
      </trkpt>
      <trkpt lat="45.24604" lon="6.45959">
        <ele>1181</ele>
        <time>2022-07-03T07:10:07.000Z</time>
      </trkpt>
      <trkpt lat="45.24599" lon="6.45969">
        <ele>1182.7</ele>
        <time>2022-07-03T07:10:13.000Z</time>
      </trkpt>
      <trkpt lat="45.24591" lon="6.4598">
        <ele>1184</ele>
        <time>2022-07-03T07:10:19.000Z</time>
      </trkpt>
      <trkpt lat="45.24583" lon="6.45993">
        <ele>1186.1</ele>
        <time>2022-07-03T07:10:27.000Z</time>
      </trkpt>
      <trkpt lat="45.24575" lon="6.45999">
        <ele>1187.8</ele>
        <time>2022-07-03T07:10:33.000Z</time>
      </trkpt>
      <trkpt lat="45.24565" lon="6.46007">
        <ele>1190.1</ele>
        <time>2022-07-03T07:10:39.000Z</time>
      </trkpt>
      <trkpt lat="45.24555" lon="6.46005">
        <ele>1190.8</ele>
        <time>2022-07-03T07:10:47.000Z</time>
      </trkpt>
      <trkpt lat="45.24545" lon="6.46003">
        <ele>1190.6</ele>
        <time>2022-07-03T07:10:53.000Z</time>
      </trkpt>
      <trkpt lat="45.24536" lon="6.46001">
        <ele>1190.7</ele>
        <time>2022-07-03T07:10:59.000Z</time>
      </trkpt>
      <trkpt lat="45.24527" lon="6.46002">
        <ele>1191.5</ele>
        <time>2022-07-03T07:11:05.000Z</time>
      </trkpt>
      <trkpt lat="45.24516" lon="6.46004">
        <ele>1191.6</ele>
        <time>2022-07-03T07:11:11.000Z</time>
      </trkpt>
      <trkpt lat="45.24506" lon="6.46006">
        <ele>1192</ele>
        <time>2022-07-03T07:11:17.000Z</time>
      </trkpt>
      <trkpt lat="45.24496" lon="6.46009">
        <ele>1191.4</ele>
        <time>2022-07-03T07:11:23.000Z</time>
      </trkpt>
      <trkpt lat="45.24487" lon="6.46012">
        <ele>1189.6</ele>
        <time>2022-07-03T07:11:29.000Z</time>
      </trkpt>
      <trkpt lat="45.24482" lon="6.46025">
        <ele>1191.4</ele>
        <time>2022-07-03T07:11:35.000Z</time>
      </trkpt>
      <trkpt lat="45.24491" lon="6.46034">
        <ele>1193.3</ele>
        <time>2022-07-03T07:11:41.000Z</time>
      </trkpt>
      <trkpt lat="45.24502" lon="6.46035">
        <ele>1194.5</ele>
        <time>2022-07-03T07:11:47.000Z</time>
      </trkpt>
      <trkpt lat="45.24512" lon="6.46032">
        <ele>1195.4</ele>
        <time>2022-07-03T07:11:53.000Z</time>
      </trkpt>
      <trkpt lat="45.24521" lon="6.46031">
        <ele>1196.2</ele>
        <time>2022-07-03T07:11:59.000Z</time>
      </trkpt>
      <trkpt lat="45.24531" lon="6.46041">
        <ele>1196.6</ele>
        <time>2022-07-03T07:12:07.000Z</time>
      </trkpt>
      <trkpt lat="45.24536" lon="6.46053">
        <ele>1197.6</ele>
        <time>2022-07-03T07:12:13.000Z</time>
      </trkpt>
      <trkpt lat="45.24541" lon="6.46067">
        <ele>1198</ele>
        <time>2022-07-03T07:12:19.000Z</time>
      </trkpt>
      <trkpt lat="45.24546" lon="6.46081">
        <ele>1198</ele>
        <time>2022-07-03T07:12:25.000Z</time>
      </trkpt>
      <trkpt lat="45.2455" lon="6.46096">
        <ele>1198.3</ele>
        <time>2022-07-03T07:12:31.000Z</time>
      </trkpt>
      <trkpt lat="45.24551" lon="6.4611">
        <ele>1197.8</ele>
        <time>2022-07-03T07:12:37.000Z</time>
      </trkpt>
      <trkpt lat="45.24556" lon="6.46121">
        <ele>1198.1</ele>
        <time>2022-07-03T07:12:41.000Z</time>
      </trkpt>
      <trkpt lat="45.24561" lon="6.46134">
        <ele>1199.6</ele>
        <time>2022-07-03T07:12:47.000Z</time>
      </trkpt>
      <trkpt lat="45.24567" lon="6.46145">
        <ele>1201</ele>
        <time>2022-07-03T07:12:51.000Z</time>
      </trkpt>
      <trkpt lat="45.24571" lon="6.46158">
        <ele>1203.1</ele>
        <time>2022-07-03T07:12:57.000Z</time>
      </trkpt>
      <trkpt lat="45.24572" lon="6.46171">
        <ele>1203</ele>
        <time>2022-07-03T07:13:03.000Z</time>
      </trkpt>
      <trkpt lat="45.24574" lon="6.46184">
        <ele>1203.6</ele>
        <time>2022-07-03T07:13:09.000Z</time>
      </trkpt>
      <trkpt lat="45.24577" lon="6.46197">
        <ele>1204.4</ele>
        <time>2022-07-03T07:13:15.000Z</time>
      </trkpt>
      <trkpt lat="45.24582" lon="6.4621">
        <ele>1204.9</ele>
        <time>2022-07-03T07:13:21.000Z</time>
      </trkpt>
      <trkpt lat="45.24586" lon="6.46223">
        <ele>1205.4</ele>
        <time>2022-07-03T07:13:27.000Z</time>
      </trkpt>
      <trkpt lat="45.24589" lon="6.46238">
        <ele>1206.4</ele>
        <time>2022-07-03T07:13:35.000Z</time>
      </trkpt>
      <trkpt lat="45.24591" lon="6.46252">
        <ele>1207.1</ele>
        <time>2022-07-03T07:13:41.000Z</time>
      </trkpt>
      <trkpt lat="45.24592" lon="6.46269">
        <ele>1206.3</ele>
        <time>2022-07-03T07:13:49.000Z</time>
      </trkpt>
      <trkpt lat="45.24596" lon="6.46282">
        <ele>1207.2</ele>
        <time>2022-07-03T07:13:55.000Z</time>
      </trkpt>
      <trkpt lat="45.246" lon="6.46295">
        <ele>1208.6</ele>
        <time>2022-07-03T07:14:01.000Z</time>
      </trkpt>
      <trkpt lat="45.24603" lon="6.46313">
        <ele>1209.9</ele>
        <time>2022-07-03T07:14:07.000Z</time>
      </trkpt>
      <trkpt lat="45.24599" lon="6.46325">
        <ele>1210.5</ele>
        <time>2022-07-03T07:14:13.000Z</time>
      </trkpt>
      <trkpt lat="45.24594" lon="6.46337">
        <ele>1211</ele>
        <time>2022-07-03T07:14:19.000Z</time>
      </trkpt>
      <trkpt lat="45.24587" lon="6.46349">
        <ele>1211.7</ele>
        <time>2022-07-03T07:14:27.000Z</time>
      </trkpt>
      <trkpt lat="45.24581" lon="6.46358">
        <ele>1212.3</ele>
        <time>2022-07-03T07:14:33.000Z</time>
      </trkpt>
      <trkpt lat="45.24572" lon="6.46366">
        <ele>1212.8</ele>
        <time>2022-07-03T07:14:39.000Z</time>
      </trkpt>
      <trkpt lat="45.24566" lon="6.46376">
        <ele>1213.4</ele>
        <time>2022-07-03T07:14:45.000Z</time>
      </trkpt>
      <trkpt lat="45.24563" lon="6.46389">
        <ele>1214.7</ele>
        <time>2022-07-03T07:14:51.000Z</time>
      </trkpt>
      <trkpt lat="45.24566" lon="6.46404">
        <ele>1215.3</ele>
        <time>2022-07-03T07:14:59.000Z</time>
      </trkpt>
      <trkpt lat="45.24574" lon="6.46416">
        <ele>1216.4</ele>
        <time>2022-07-03T07:15:05.000Z</time>
      </trkpt>
      <trkpt lat="45.24581" lon="6.46424">
        <ele>1217.3</ele>
        <time>2022-07-03T07:15:11.000Z</time>
      </trkpt>
      <trkpt lat="45.24589" lon="6.46432">
        <ele>1218.1</ele>
        <time>2022-07-03T07:15:17.000Z</time>
      </trkpt>
      <trkpt lat="45.24599" lon="6.4644">
        <ele>1219.1</ele>
        <time>2022-07-03T07:15:23.000Z</time>
      </trkpt>
      <trkpt lat="45.24607" lon="6.46448">
        <ele>1220.2</ele>
        <time>2022-07-03T07:15:29.000Z</time>
      </trkpt>
      <trkpt lat="45.24614" lon="6.46457">
        <ele>1220.9</ele>
        <time>2022-07-03T07:15:35.000Z</time>
      </trkpt>
      <trkpt lat="45.24624" lon="6.46466">
        <ele>1221.7</ele>
        <time>2022-07-03T07:15:43.000Z</time>
      </trkpt>
      <trkpt lat="45.24634" lon="6.46476">
        <ele>1222.3</ele>
        <time>2022-07-03T07:15:51.000Z</time>
      </trkpt>
      <trkpt lat="45.24642" lon="6.46483">
        <ele>1223.4</ele>
        <time>2022-07-03T07:15:57.000Z</time>
      </trkpt>
      <trkpt lat="45.2465" lon="6.46493">
        <ele>1224.3</ele>
        <time>2022-07-03T07:16:05.000Z</time>
      </trkpt>
      <trkpt lat="45.24659" lon="6.46498">
        <ele>1225.1</ele>
        <time>2022-07-03T07:16:11.000Z</time>
      </trkpt>
      <trkpt lat="45.24667" lon="6.46506">
        <ele>1225.7</ele>
        <time>2022-07-03T07:16:17.000Z</time>
      </trkpt>
      <trkpt lat="45.24674" lon="6.46516">
        <ele>1226.5</ele>
        <time>2022-07-03T07:16:23.000Z</time>
      </trkpt>
      <trkpt lat="45.2468" lon="6.46528">
        <ele>1227.3</ele>
        <time>2022-07-03T07:16:29.000Z</time>
      </trkpt>
      <trkpt lat="45.24688" lon="6.4654">
        <ele>1226.7</ele>
        <time>2022-07-03T07:16:37.000Z</time>
      </trkpt>
      <trkpt lat="45.24696" lon="6.46547">
        <ele>1227.3</ele>
        <time>2022-07-03T07:16:43.000Z</time>
      </trkpt>
      <trkpt lat="45.24707" lon="6.46553">
        <ele>1228.4</ele>
        <time>2022-07-03T07:16:51.000Z</time>
      </trkpt>
      <trkpt lat="45.24717" lon="6.46557">
        <ele>1229.6</ele>
        <time>2022-07-03T07:16:57.000Z</time>
      </trkpt>
      <trkpt lat="45.24727" lon="6.46561">
        <ele>1230.7</ele>
        <time>2022-07-03T07:17:03.000Z</time>
      </trkpt>
      <trkpt lat="45.24737" lon="6.46566">
        <ele>1231.7</ele>
        <time>2022-07-03T07:17:11.000Z</time>
      </trkpt>
      <trkpt lat="45.24747" lon="6.46569">
        <ele>1232.9</ele>
        <time>2022-07-03T07:17:17.000Z</time>
      </trkpt>
      <trkpt lat="45.24759" lon="6.46571">
        <ele>1234.7</ele>
        <time>2022-07-03T07:17:25.000Z</time>
      </trkpt>
      <trkpt lat="45.2477" lon="6.46574">
        <ele>1236.3</ele>
        <time>2022-07-03T07:17:33.000Z</time>
      </trkpt>
      <trkpt lat="45.24779" lon="6.46577">
        <ele>1237.4</ele>
        <time>2022-07-03T07:17:39.000Z</time>
      </trkpt>
      <trkpt lat="45.24791" lon="6.46578">
        <ele>1238.4</ele>
        <time>2022-07-03T07:17:47.000Z</time>
      </trkpt>
      <trkpt lat="45.248" lon="6.46584">
        <ele>1238.4</ele>
        <time>2022-07-03T07:17:53.000Z</time>
      </trkpt>
      <trkpt lat="45.24808" lon="6.4659">
        <ele>1238.5</ele>
        <time>2022-07-03T07:17:59.000Z</time>
      </trkpt>
      <trkpt lat="45.24817" lon="6.46602">
        <ele>1239</ele>
        <time>2022-07-03T07:18:07.000Z</time>
      </trkpt>
      <trkpt lat="45.24823" lon="6.46614">
        <ele>1239.2</ele>
        <time>2022-07-03T07:18:13.000Z</time>
      </trkpt>
      <trkpt lat="45.2483" lon="6.46628">
        <ele>1240.3</ele>
        <time>2022-07-03T07:18:19.000Z</time>
      </trkpt>
      <trkpt lat="45.24837" lon="6.46638">
        <ele>1242.1</ele>
        <time>2022-07-03T07:18:25.000Z</time>
      </trkpt>
      <trkpt lat="45.24846" lon="6.46647">
        <ele>1243.1</ele>
        <time>2022-07-03T07:18:33.000Z</time>
      </trkpt>
      <trkpt lat="45.24856" lon="6.46657">
        <ele>1243.9</ele>
        <time>2022-07-03T07:18:41.000Z</time>
      </trkpt>
      <trkpt lat="45.24864" lon="6.46662">
        <ele>1244.6</ele>
        <time>2022-07-03T07:18:47.000Z</time>
      </trkpt>
      <trkpt lat="45.24874" lon="6.46668">
        <ele>1244.6</ele>
        <time>2022-07-03T07:18:53.000Z</time>
      </trkpt>
      <trkpt lat="45.24883" lon="6.46672">
        <ele>1245.6</ele>
        <time>2022-07-03T07:18:59.000Z</time>
      </trkpt>
      <trkpt lat="45.24891" lon="6.46677">
        <ele>1246.5</ele>
        <time>2022-07-03T07:19:05.000Z</time>
      </trkpt>
      <trkpt lat="45.249" lon="6.46684">
        <ele>1247.2</ele>
        <time>2022-07-03T07:19:11.000Z</time>
      </trkpt>
      <trkpt lat="45.24908" lon="6.46692">
        <ele>1247.8</ele>
        <time>2022-07-03T07:19:17.000Z</time>
      </trkpt>
      <trkpt lat="45.24915" lon="6.46702">
        <ele>1248.9</ele>
        <time>2022-07-03T07:19:23.000Z</time>
      </trkpt>
      <trkpt lat="45.24923" lon="6.46715">
        <ele>1250.3</ele>
        <time>2022-07-03T07:19:31.000Z</time>
      </trkpt>
      <trkpt lat="45.24925" lon="6.46728">
        <ele>1251.2</ele>
        <time>2022-07-03T07:19:37.000Z</time>
      </trkpt>
      <trkpt lat="45.24922" lon="6.46741">
        <ele>1251.8</ele>
        <time>2022-07-03T07:19:43.000Z</time>
      </trkpt>
      <trkpt lat="45.24916" lon="6.46752">
        <ele>1251.9</ele>
        <time>2022-07-03T07:19:49.000Z</time>
      </trkpt>
      <trkpt lat="45.24913" lon="6.46768">
        <ele>1251.7</ele>
        <time>2022-07-03T07:19:57.000Z</time>
      </trkpt>
      <trkpt lat="45.24917" lon="6.46779">
        <ele>1252.6</ele>
        <time>2022-07-03T07:20:03.000Z</time>
      </trkpt>
      <trkpt lat="45.24927" lon="6.46779">
        <ele>1253.9</ele>
        <time>2022-07-03T07:20:09.000Z</time>
      </trkpt>
      <trkpt lat="45.24934" lon="6.46769">
        <ele>1254.9</ele>
        <time>2022-07-03T07:20:15.000Z</time>
      </trkpt>
      <trkpt lat="45.24941" lon="6.46759">
        <ele>1255.2</ele>
        <time>2022-07-03T07:20:21.000Z</time>
      </trkpt>
      <trkpt lat="45.24949" lon="6.46748">
        <ele>1255.4</ele>
        <time>2022-07-03T07:20:27.000Z</time>
      </trkpt>
      <trkpt lat="45.24958" lon="6.46738">
        <ele>1256.4</ele>
        <time>2022-07-03T07:20:33.000Z</time>
      </trkpt>
      <trkpt lat="45.24966" lon="6.4673">
        <ele>1257.6</ele>
        <time>2022-07-03T07:20:39.000Z</time>
      </trkpt>
      <trkpt lat="45.2497" lon="6.46717">
        <ele>1258.6</ele>
        <time>2022-07-03T07:20:45.000Z</time>
      </trkpt>
      <trkpt lat="45.24972" lon="6.46703">
        <ele>1260.1</ele>
        <time>2022-07-03T07:20:51.000Z</time>
      </trkpt>
      <trkpt lat="45.24968" lon="6.46692">
        <ele>1260</ele>
        <time>2022-07-03T07:20:57.000Z</time>
      </trkpt>
      <trkpt lat="45.24963" lon="6.46679">
        <ele>1260.4</ele>
        <time>2022-07-03T07:21:03.000Z</time>
      </trkpt>
      <trkpt lat="45.24957" lon="6.46667">
        <ele>1260.7</ele>
        <time>2022-07-03T07:21:09.000Z</time>
      </trkpt>
      <trkpt lat="45.24952" lon="6.46651">
        <ele>1262</ele>
        <time>2022-07-03T07:21:17.000Z</time>
      </trkpt>
      <trkpt lat="45.24948" lon="6.46638">
        <ele>1263.6</ele>
        <time>2022-07-03T07:21:23.000Z</time>
      </trkpt>
      <trkpt lat="45.24941" lon="6.46626">
        <ele>1264.6</ele>
        <time>2022-07-03T07:21:31.000Z</time>
      </trkpt>
      <trkpt lat="45.24933" lon="6.46617">
        <ele>1265.4</ele>
        <time>2022-07-03T07:21:37.000Z</time>
      </trkpt>
      <trkpt lat="45.24925" lon="6.46609">
        <ele>1266.3</ele>
        <time>2022-07-03T07:21:45.000Z</time>
      </trkpt>
      <trkpt lat="45.24919" lon="6.46596">
        <ele>1267.4</ele>
        <time>2022-07-03T07:21:51.000Z</time>
      </trkpt>
      <trkpt lat="45.24915" lon="6.46581">
        <ele>1268.5</ele>
        <time>2022-07-03T07:21:59.000Z</time>
      </trkpt>
      <trkpt lat="45.24911" lon="6.46568">
        <ele>1268.6</ele>
        <time>2022-07-03T07:22:05.000Z</time>
      </trkpt>
      <trkpt lat="45.24907" lon="6.46554">
        <ele>1268.8</ele>
        <time>2022-07-03T07:22:11.000Z</time>
      </trkpt>
      <trkpt lat="45.24905" lon="6.46539">
        <ele>1269.8</ele>
        <time>2022-07-03T07:22:17.000Z</time>
      </trkpt>
      <trkpt lat="45.24902" lon="6.46525">
        <ele>1270.5</ele>
        <time>2022-07-03T07:22:23.000Z</time>
      </trkpt>
      <trkpt lat="45.24899" lon="6.4651">
        <ele>1272.2</ele>
        <time>2022-07-03T07:22:31.000Z</time>
      </trkpt>
      <trkpt lat="45.24896" lon="6.46496">
        <ele>1273.6</ele>
        <time>2022-07-03T07:22:37.000Z</time>
      </trkpt>
      <trkpt lat="45.24891" lon="6.46481">
        <ele>1274.1</ele>
        <time>2022-07-03T07:22:43.000Z</time>
      </trkpt>
      <trkpt lat="45.24883" lon="6.46472">
        <ele>1273.5</ele>
        <time>2022-07-03T07:22:49.000Z</time>
      </trkpt>
      <trkpt lat="45.24876" lon="6.46462">
        <ele>1272.7</ele>
        <time>2022-07-03T07:22:55.000Z</time>
      </trkpt>
      <trkpt lat="45.24868" lon="6.46452">
        <ele>1273.1</ele>
        <time>2022-07-03T07:23:01.000Z</time>
      </trkpt>
      <trkpt lat="45.24868" lon="6.46437">
        <ele>1275</ele>
        <time>2022-07-03T07:23:07.000Z</time>
      </trkpt>
      <trkpt lat="45.24877" lon="6.46437">
        <ele>1276.6</ele>
        <time>2022-07-03T07:23:13.000Z</time>
      </trkpt>
      <trkpt lat="45.24884" lon="6.46449">
        <ele>1276.9</ele>
        <time>2022-07-03T07:23:19.000Z</time>
      </trkpt>
      <trkpt lat="45.24891" lon="6.4646">
        <ele>1276.6</ele>
        <time>2022-07-03T07:23:25.000Z</time>
      </trkpt>
      <trkpt lat="45.24899" lon="6.46469">
        <ele>1276.7</ele>
        <time>2022-07-03T07:23:31.000Z</time>
      </trkpt>
      <trkpt lat="45.24907" lon="6.4648">
        <ele>1277.8</ele>
        <time>2022-07-03T07:23:39.000Z</time>
      </trkpt>
      <trkpt lat="45.24914" lon="6.46492">
        <ele>1279</ele>
        <time>2022-07-03T07:23:45.000Z</time>
      </trkpt>
      <trkpt lat="45.24918" lon="6.46504">
        <ele>1279.5</ele>
        <time>2022-07-03T07:23:51.000Z</time>
      </trkpt>
      <trkpt lat="45.24925" lon="6.46515">
        <ele>1279.4</ele>
        <time>2022-07-03T07:23:57.000Z</time>
      </trkpt>
      <trkpt lat="45.24932" lon="6.46526">
        <ele>1280</ele>
        <time>2022-07-03T07:24:03.000Z</time>
      </trkpt>
      <trkpt lat="45.24939" lon="6.46536">
        <ele>1281.3</ele>
        <time>2022-07-03T07:24:09.000Z</time>
      </trkpt>
      <trkpt lat="45.24946" lon="6.46545">
        <ele>1282.8</ele>
        <time>2022-07-03T07:24:15.000Z</time>
      </trkpt>
      <trkpt lat="45.24952" lon="6.46555">
        <ele>1283.5</ele>
        <time>2022-07-03T07:24:21.000Z</time>
      </trkpt>
      <trkpt lat="45.24959" lon="6.46566">
        <ele>1283.4</ele>
        <time>2022-07-03T07:24:27.000Z</time>
      </trkpt>
      <trkpt lat="45.24968" lon="6.46575">
        <ele>1284.4</ele>
        <time>2022-07-03T07:24:33.000Z</time>
      </trkpt>
      <trkpt lat="45.24977" lon="6.46585">
        <ele>1285.7</ele>
        <time>2022-07-03T07:24:39.000Z</time>
      </trkpt>
      <trkpt lat="45.24986" lon="6.46591">
        <ele>1286.1</ele>
        <time>2022-07-03T07:24:45.000Z</time>
      </trkpt>
      <trkpt lat="45.24995" lon="6.46598">
        <ele>1287.1</ele>
        <time>2022-07-03T07:24:51.000Z</time>
      </trkpt>
      <trkpt lat="45.25005" lon="6.46608">
        <ele>1287.7</ele>
        <time>2022-07-03T07:24:57.000Z</time>
      </trkpt>
      <trkpt lat="45.25014" lon="6.46617">
        <ele>1287.7</ele>
        <time>2022-07-03T07:25:03.000Z</time>
      </trkpt>
      <trkpt lat="45.2502" lon="6.46628">
        <ele>1287.8</ele>
        <time>2022-07-03T07:25:09.000Z</time>
      </trkpt>
      <trkpt lat="45.25028" lon="6.4664">
        <ele>1289.3</ele>
        <time>2022-07-03T07:25:15.000Z</time>
      </trkpt>
      <trkpt lat="45.2504" lon="6.46644">
        <ele>1291.8</ele>
        <time>2022-07-03T07:25:21.000Z</time>
      </trkpt>
      <trkpt lat="45.25047" lon="6.46633">
        <ele>1295.9</ele>
        <time>2022-07-03T07:25:27.000Z</time>
      </trkpt>
      <trkpt lat="45.25046" lon="6.46619">
        <ele>1296.4</ele>
        <time>2022-07-03T07:25:31.000Z</time>
      </trkpt>
      <trkpt lat="45.25037" lon="6.46608">
        <ele>1294.8</ele>
        <time>2022-07-03T07:25:37.000Z</time>
      </trkpt>
      <trkpt lat="45.25026" lon="6.46602">
        <ele>1293.4</ele>
        <time>2022-07-03T07:25:43.000Z</time>
      </trkpt>
      <trkpt lat="45.25018" lon="6.46591">
        <ele>1293.5</ele>
        <time>2022-07-03T07:25:49.000Z</time>
      </trkpt>
      <trkpt lat="45.25008" lon="6.46579">
        <ele>1293.7</ele>
        <time>2022-07-03T07:25:55.000Z</time>
      </trkpt>
      <trkpt lat="45.24999" lon="6.46568">
        <ele>1293.4</ele>
        <time>2022-07-03T07:26:01.000Z</time>
      </trkpt>
      <trkpt lat="45.24996" lon="6.46555">
        <ele>1293.8</ele>
        <time>2022-07-03T07:26:07.000Z</time>
      </trkpt>
      <trkpt lat="45.25006" lon="6.46549">
        <ele>1293.7</ele>
        <time>2022-07-03T07:26:13.000Z</time>
      </trkpt>
      <trkpt lat="45.25004" lon="6.46561">
        <ele>1294.3</ele>
        <time>2022-07-03T07:29:53.000Z</time>
      </trkpt>
      <trkpt lat="45.25011" lon="6.46554">
        <ele>1294</ele>
        <time>2022-07-03T07:33:11.000Z</time>
      </trkpt>
      <trkpt lat="45.25019" lon="6.4656">
        <ele>1293.9</ele>
        <time>2022-07-03T07:33:17.000Z</time>
      </trkpt>
      <trkpt lat="45.25024" lon="6.46572">
        <ele>1294.9</ele>
        <time>2022-07-03T07:33:23.000Z</time>
      </trkpt>
      <trkpt lat="45.25032" lon="6.46584">
        <ele>1296.3</ele>
        <time>2022-07-03T07:33:31.000Z</time>
      </trkpt>
      <trkpt lat="45.25037" lon="6.46595">
        <ele>1295.2</ele>
        <time>2022-07-03T07:33:37.000Z</time>
      </trkpt>
      <trkpt lat="45.25043" lon="6.46606">
        <ele>1295.5</ele>
        <time>2022-07-03T07:33:43.000Z</time>
      </trkpt>
      <trkpt lat="45.2505" lon="6.46615">
        <ele>1297.2</ele>
        <time>2022-07-03T07:33:49.000Z</time>
      </trkpt>
      <trkpt lat="45.25057" lon="6.46624">
        <ele>1298.8</ele>
        <time>2022-07-03T07:33:55.000Z</time>
      </trkpt>
      <trkpt lat="45.25064" lon="6.46636">
        <ele>1300.3</ele>
        <time>2022-07-03T07:34:03.000Z</time>
      </trkpt>
      <trkpt lat="45.25071" lon="6.46647">
        <ele>1301.1</ele>
        <time>2022-07-03T07:34:11.000Z</time>
      </trkpt>
      <trkpt lat="45.25078" lon="6.46659">
        <ele>1301.7</ele>
        <time>2022-07-03T07:34:19.000Z</time>
      </trkpt>
      <trkpt lat="45.25084" lon="6.4667">
        <ele>1302.9</ele>
        <time>2022-07-03T07:34:25.000Z</time>
      </trkpt>
      <trkpt lat="45.25089" lon="6.46685">
        <ele>1304.4</ele>
        <time>2022-07-03T07:34:33.000Z</time>
      </trkpt>
      <trkpt lat="45.25091" lon="6.46702">
        <ele>1305.1</ele>
        <time>2022-07-03T07:34:41.000Z</time>
      </trkpt>
      <trkpt lat="45.25093" lon="6.46716">
        <ele>1305.7</ele>
        <time>2022-07-03T07:34:47.000Z</time>
      </trkpt>
      <trkpt lat="45.25093" lon="6.46733">
        <ele>1305.8</ele>
        <time>2022-07-03T07:34:53.000Z</time>
      </trkpt>
      <trkpt lat="45.25096" lon="6.46747">
        <ele>1307</ele>
        <time>2022-07-03T07:34:59.000Z</time>
      </trkpt>
      <trkpt lat="45.25097" lon="6.46762">
        <ele>1307.9</ele>
        <time>2022-07-03T07:35:07.000Z</time>
      </trkpt>
      <trkpt lat="45.25098" lon="6.46778">
        <ele>1308.9</ele>
        <time>2022-07-03T07:35:17.000Z</time>
      </trkpt>
      <trkpt lat="45.25098" lon="6.46795">
        <ele>1310.2</ele>
        <time>2022-07-03T07:35:25.000Z</time>
      </trkpt>
      <trkpt lat="45.251" lon="6.46809">
        <ele>1312</ele>
        <time>2022-07-03T07:35:33.000Z</time>
      </trkpt>
      <trkpt lat="45.25098" lon="6.46824">
        <ele>1313</ele>
        <time>2022-07-03T07:35:41.000Z</time>
      </trkpt>
      <trkpt lat="45.251" lon="6.46841">
        <ele>1314.5</ele>
        <time>2022-07-03T07:35:49.000Z</time>
      </trkpt>
      <trkpt lat="45.25102" lon="6.46857">
        <ele>1314.8</ele>
        <time>2022-07-03T07:35:57.000Z</time>
      </trkpt>
      <trkpt lat="45.25106" lon="6.4687">
        <ele>1315.7</ele>
        <time>2022-07-03T07:36:03.000Z</time>
      </trkpt>
      <trkpt lat="45.25109" lon="6.46883">
        <ele>1316.8</ele>
        <time>2022-07-03T07:36:11.000Z</time>
      </trkpt>
      <trkpt lat="45.25116" lon="6.46896">
        <ele>1318.3</ele>
        <time>2022-07-03T07:36:19.000Z</time>
      </trkpt>
      <trkpt lat="45.25124" lon="6.46908">
        <ele>1319.2</ele>
        <time>2022-07-03T07:36:27.000Z</time>
      </trkpt>
      <trkpt lat="45.25131" lon="6.46919">
        <ele>1320.3</ele>
        <time>2022-07-03T07:36:33.000Z</time>
      </trkpt>
      <trkpt lat="45.25139" lon="6.46931">
        <ele>1321.3</ele>
        <time>2022-07-03T07:36:41.000Z</time>
      </trkpt>
      <trkpt lat="45.25143" lon="6.46943">
        <ele>1321.6</ele>
        <time>2022-07-03T07:36:47.000Z</time>
      </trkpt>
      <trkpt lat="45.25146" lon="6.46956">
        <ele>1321.7</ele>
        <time>2022-07-03T07:36:53.000Z</time>
      </trkpt>
      <trkpt lat="45.25149" lon="6.46972">
        <ele>1321.7</ele>
        <time>2022-07-03T07:37:01.000Z</time>
      </trkpt>
      <trkpt lat="45.2515" lon="6.46985">
        <ele>1321.6</ele>
        <time>2022-07-03T07:37:08.000Z</time>
      </trkpt>
      <trkpt lat="45.25154" lon="6.47">
        <ele>1322.4</ele>
        <time>2022-07-03T07:37:15.000Z</time>
      </trkpt>
      <trkpt lat="45.25158" lon="6.47014">
        <ele>1323.4</ele>
        <time>2022-07-03T07:37:23.000Z</time>
      </trkpt>
      <trkpt lat="45.25163" lon="6.47025">
        <ele>1324.7</ele>
        <time>2022-07-03T07:37:29.000Z</time>
      </trkpt>
      <trkpt lat="45.25168" lon="6.47036">
        <ele>1325.9</ele>
        <time>2022-07-03T07:37:35.000Z</time>
      </trkpt>
      <trkpt lat="45.25171" lon="6.4705">
        <ele>1326.5</ele>
        <time>2022-07-03T07:37:41.000Z</time>
      </trkpt>
      <trkpt lat="45.25177" lon="6.47062">
        <ele>1327</ele>
        <time>2022-07-03T07:37:47.000Z</time>
      </trkpt>
      <trkpt lat="45.25183" lon="6.47075">
        <ele>1327.5</ele>
        <time>2022-07-03T07:37:55.000Z</time>
      </trkpt>
      <trkpt lat="45.25189" lon="6.47086">
        <ele>1328.1</ele>
        <time>2022-07-03T07:38:01.000Z</time>
      </trkpt>
      <trkpt lat="45.25194" lon="6.47099">
        <ele>1329.1</ele>
        <time>2022-07-03T07:38:07.000Z</time>
      </trkpt>
      <trkpt lat="45.25199" lon="6.47112">
        <ele>1329.9</ele>
        <time>2022-07-03T07:38:13.000Z</time>
      </trkpt>
      <trkpt lat="45.25203" lon="6.47125">
        <ele>1330.7</ele>
        <time>2022-07-03T07:38:19.000Z</time>
      </trkpt>
      <trkpt lat="45.25206" lon="6.47139">
        <ele>1331</ele>
        <time>2022-07-03T07:38:25.000Z</time>
      </trkpt>
      <trkpt lat="45.25207" lon="6.47154">
        <ele>1331.4</ele>
        <time>2022-07-03T07:38:31.000Z</time>
      </trkpt>
      <trkpt lat="45.25208" lon="6.47168">
        <ele>1331.9</ele>
        <time>2022-07-03T07:38:37.000Z</time>
      </trkpt>
      <trkpt lat="45.25209" lon="6.47183">
        <ele>1332.7</ele>
        <time>2022-07-03T07:38:45.000Z</time>
      </trkpt>
      <trkpt lat="45.25207" lon="6.47199">
        <ele>1332.5</ele>
        <time>2022-07-03T07:38:53.000Z</time>
      </trkpt>
      <trkpt lat="45.25202" lon="6.47211">
        <ele>1330.6</ele>
        <time>2022-07-03T07:38:59.000Z</time>
      </trkpt>
      <trkpt lat="45.25194" lon="6.4722">
        <ele>1328.4</ele>
        <time>2022-07-03T07:39:05.000Z</time>
      </trkpt>
      <trkpt lat="45.25185" lon="6.47228">
        <ele>1331.7</ele>
        <time>2022-07-03T07:39:11.000Z</time>
      </trkpt>
      <trkpt lat="45.25175" lon="6.47227">
        <ele>1334.4</ele>
        <time>2022-07-03T07:39:17.000Z</time>
      </trkpt>
      <trkpt lat="45.25165" lon="6.4722">
        <ele>1334.4</ele>
        <time>2022-07-03T07:39:23.000Z</time>
      </trkpt>
      <trkpt lat="45.25157" lon="6.47212">
        <ele>1334.4</ele>
        <time>2022-07-03T07:39:29.000Z</time>
      </trkpt>
      <trkpt lat="45.25148" lon="6.47204">
        <ele>1334.3</ele>
        <time>2022-07-03T07:39:35.000Z</time>
      </trkpt>
      <trkpt lat="45.25138" lon="6.47199">
        <ele>1336</ele>
        <time>2022-07-03T07:39:41.000Z</time>
      </trkpt>
      <trkpt lat="45.25128" lon="6.47201">
        <ele>1336.5</ele>
        <time>2022-07-03T07:39:47.000Z</time>
      </trkpt>
      <trkpt lat="45.2512" lon="6.47213">
        <ele>1338.4</ele>
        <time>2022-07-03T07:39:55.000Z</time>
      </trkpt>
      <trkpt lat="45.25115" lon="6.47224">
        <ele>1339.7</ele>
        <time>2022-07-03T07:40:01.000Z</time>
      </trkpt>
      <trkpt lat="45.25108" lon="6.47234">
        <ele>1341</ele>
        <time>2022-07-03T07:40:07.000Z</time>
      </trkpt>
      <trkpt lat="45.25097" lon="6.47237">
        <ele>1342.4</ele>
        <time>2022-07-03T07:40:15.000Z</time>
      </trkpt>
      <trkpt lat="45.25087" lon="6.47234">
        <ele>1342.4</ele>
        <time>2022-07-03T07:40:21.000Z</time>
      </trkpt>
      <trkpt lat="45.25077" lon="6.47234">
        <ele>1342.3</ele>
        <time>2022-07-03T07:40:29.000Z</time>
      </trkpt>
      <trkpt lat="45.25068" lon="6.47241">
        <ele>1343.1</ele>
        <time>2022-07-03T07:40:35.000Z</time>
      </trkpt>
      <trkpt lat="45.25061" lon="6.4725">
        <ele>1344.2</ele>
        <time>2022-07-03T07:40:41.000Z</time>
      </trkpt>
      <trkpt lat="45.25053" lon="6.4726">
        <ele>1344.9</ele>
        <time>2022-07-03T07:40:47.000Z</time>
      </trkpt>
      <trkpt lat="45.25045" lon="6.47271">
        <ele>1345.3</ele>
        <time>2022-07-03T07:40:53.000Z</time>
      </trkpt>
      <trkpt lat="45.25039" lon="6.47281">
        <ele>1345.4</ele>
        <time>2022-07-03T07:40:59.000Z</time>
      </trkpt>
      <trkpt lat="45.25035" lon="6.47294">
        <ele>1345.4</ele>
        <time>2022-07-03T07:41:05.000Z</time>
      </trkpt>
      <trkpt lat="45.25031" lon="6.47311">
        <ele>1345.6</ele>
        <time>2022-07-03T07:41:13.000Z</time>
      </trkpt>
      <trkpt lat="45.2503" lon="6.47328">
        <ele>1346.7</ele>
        <time>2022-07-03T07:41:21.000Z</time>
      </trkpt>
      <trkpt lat="45.25026" lon="6.47342">
        <ele>1347.4</ele>
        <time>2022-07-03T07:41:27.000Z</time>
      </trkpt>
      <trkpt lat="45.2502" lon="6.47352">
        <ele>1348.3</ele>
        <time>2022-07-03T07:41:33.000Z</time>
      </trkpt>
      <trkpt lat="45.25011" lon="6.47356">
        <ele>1348.8</ele>
        <time>2022-07-03T07:41:39.000Z</time>
      </trkpt>
      <trkpt lat="45.25001" lon="6.47355">
        <ele>1349</ele>
        <time>2022-07-03T07:41:45.000Z</time>
      </trkpt>
      <trkpt lat="45.24991" lon="6.47357">
        <ele>1349.6</ele>
        <time>2022-07-03T07:41:51.000Z</time>
      </trkpt>
      <trkpt lat="45.24982" lon="6.47359">
        <ele>1350.7</ele>
        <time>2022-07-03T07:41:57.000Z</time>
      </trkpt>
      <trkpt lat="45.24971" lon="6.47361">
        <ele>1351.8</ele>
        <time>2022-07-03T07:42:05.000Z</time>
      </trkpt>
      <trkpt lat="45.24962" lon="6.47366">
        <ele>1352.4</ele>
        <time>2022-07-03T07:42:11.000Z</time>
      </trkpt>
      <trkpt lat="45.24952" lon="6.47372">
        <ele>1353.3</ele>
        <time>2022-07-03T07:42:17.000Z</time>
      </trkpt>
      <trkpt lat="45.24941" lon="6.47376">
        <ele>1353.9</ele>
        <time>2022-07-03T07:42:23.000Z</time>
      </trkpt>
      <trkpt lat="45.24932" lon="6.47379">
        <ele>1354.6</ele>
        <time>2022-07-03T07:42:31.000Z</time>
      </trkpt>
      <trkpt lat="45.24924" lon="6.47386">
        <ele>1356.3</ele>
        <time>2022-07-03T07:42:39.000Z</time>
      </trkpt>
      <trkpt lat="45.24915" lon="6.47391">
        <ele>1357.1</ele>
        <time>2022-07-03T07:42:45.000Z</time>
      </trkpt>
      <trkpt lat="45.24905" lon="6.47399">
        <ele>1357.7</ele>
        <time>2022-07-03T07:42:51.000Z</time>
      </trkpt>
      <trkpt lat="45.24896" lon="6.47404">
        <ele>1358.4</ele>
        <time>2022-07-03T07:42:57.000Z</time>
      </trkpt>
      <trkpt lat="45.24886" lon="6.4741">
        <ele>1359.1</ele>
        <time>2022-07-03T07:43:05.000Z</time>
      </trkpt>
      <trkpt lat="45.24877" lon="6.47415">
        <ele>1360.2</ele>
        <time>2022-07-03T07:43:11.000Z</time>
      </trkpt>
      <trkpt lat="45.24867" lon="6.47417">
        <ele>1361.2</ele>
        <time>2022-07-03T07:43:17.000Z</time>
      </trkpt>
      <trkpt lat="45.24858" lon="6.47418">
        <ele>1361.4</ele>
        <time>2022-07-03T07:43:23.000Z</time>
      </trkpt>
      <trkpt lat="45.24848" lon="6.47416">
        <ele>1361.2</ele>
        <time>2022-07-03T07:43:29.000Z</time>
      </trkpt>
      <trkpt lat="45.24839" lon="6.4742">
        <ele>1362.6</ele>
        <time>2022-07-03T07:43:37.000Z</time>
      </trkpt>
      <trkpt lat="45.2483" lon="6.47425">
        <ele>1364</ele>
        <time>2022-07-03T07:43:43.000Z</time>
      </trkpt>
      <trkpt lat="45.24821" lon="6.47428">
        <ele>1365.3</ele>
        <time>2022-07-03T07:43:49.000Z</time>
      </trkpt>
      <trkpt lat="45.24811" lon="6.47432">
        <ele>1366.3</ele>
        <time>2022-07-03T07:43:55.000Z</time>
      </trkpt>
      <trkpt lat="45.24801" lon="6.47431">
        <ele>1367.2</ele>
        <time>2022-07-03T07:44:01.000Z</time>
      </trkpt>
      <trkpt lat="45.24792" lon="6.47428">
        <ele>1368.5</ele>
        <time>2022-07-03T07:44:07.000Z</time>
      </trkpt>
      <trkpt lat="45.24782" lon="6.47421">
        <ele>1369.3</ele>
        <time>2022-07-03T07:44:13.000Z</time>
      </trkpt>
      <trkpt lat="45.24774" lon="6.47416">
        <ele>1369.3</ele>
        <time>2022-07-03T07:44:19.000Z</time>
      </trkpt>
      <trkpt lat="45.24764" lon="6.47411">
        <ele>1369.4</ele>
        <time>2022-07-03T07:44:25.000Z</time>
      </trkpt>
      <trkpt lat="45.24754" lon="6.47409">
        <ele>1370.4</ele>
        <time>2022-07-03T07:44:31.000Z</time>
      </trkpt>
      <trkpt lat="45.24744" lon="6.47409">
        <ele>1370.9</ele>
        <time>2022-07-03T07:44:37.000Z</time>
      </trkpt>
      <trkpt lat="45.24734" lon="6.47408">
        <ele>1370.7</ele>
        <time>2022-07-03T07:44:43.000Z</time>
      </trkpt>
      <trkpt lat="45.24723" lon="6.47412">
        <ele>1371.3</ele>
        <time>2022-07-03T07:44:51.000Z</time>
      </trkpt>
      <trkpt lat="45.24714" lon="6.47419">
        <ele>1371.9</ele>
        <time>2022-07-03T07:45:01.000Z</time>
      </trkpt>
      <trkpt lat="45.24704" lon="6.47431">
        <ele>1373.2</ele>
        <time>2022-07-03T07:45:07.000Z</time>
      </trkpt>
      <trkpt lat="45.24696" lon="6.47439">
        <ele>1374.1</ele>
        <time>2022-07-03T07:45:15.000Z</time>
      </trkpt>
      <trkpt lat="45.24686" lon="6.47451">
        <ele>1375.4</ele>
        <time>2022-07-03T07:45:23.000Z</time>
      </trkpt>
      <trkpt lat="45.24677" lon="6.47458">
        <ele>1376.3</ele>
        <time>2022-07-03T07:45:29.000Z</time>
      </trkpt>
      <trkpt lat="45.24666" lon="6.47462">
        <ele>1376.8</ele>
        <time>2022-07-03T07:45:35.000Z</time>
      </trkpt>
      <trkpt lat="45.24654" lon="6.47462">
        <ele>1377.8</ele>
        <time>2022-07-03T07:45:41.000Z</time>
      </trkpt>
      <trkpt lat="45.24643" lon="6.47462">
        <ele>1378.7</ele>
        <time>2022-07-03T07:45:49.000Z</time>
      </trkpt>
      <trkpt lat="45.2463" lon="6.47464">
        <ele>1380.4</ele>
        <time>2022-07-03T07:45:57.000Z</time>
      </trkpt>
      <trkpt lat="45.2462" lon="6.47464">
        <ele>1381.8</ele>
        <time>2022-07-03T07:46:03.000Z</time>
      </trkpt>
      <trkpt lat="45.24608" lon="6.47471">
        <ele>1384.2</ele>
        <time>2022-07-03T07:46:11.000Z</time>
      </trkpt>
      <trkpt lat="45.24601" lon="6.47482">
        <ele>1385</ele>
        <time>2022-07-03T07:46:17.000Z</time>
      </trkpt>
      <trkpt lat="45.24595" lon="6.47492">
        <ele>1385.8</ele>
        <time>2022-07-03T07:46:23.000Z</time>
      </trkpt>
      <trkpt lat="45.24593" lon="6.47506">
        <ele>1387.3</ele>
        <time>2022-07-03T07:46:33.000Z</time>
      </trkpt>
      <trkpt lat="45.24585" lon="6.47519">
        <ele>1387.9</ele>
        <time>2022-07-03T07:46:41.000Z</time>
      </trkpt>
      <trkpt lat="45.2458" lon="6.4753">
        <ele>1388.7</ele>
        <time>2022-07-03T07:46:47.000Z</time>
      </trkpt>
      <trkpt lat="45.24574" lon="6.47543">
        <ele>1390.1</ele>
        <time>2022-07-03T07:46:53.000Z</time>
      </trkpt>
      <trkpt lat="45.24568" lon="6.47557">
        <ele>1391.1</ele>
        <time>2022-07-03T07:47:01.000Z</time>
      </trkpt>
      <trkpt lat="45.24563" lon="6.47572">
        <ele>1392.1</ele>
        <time>2022-07-03T07:47:09.000Z</time>
      </trkpt>
      <trkpt lat="45.24561" lon="6.47589">
        <ele>1394</ele>
        <time>2022-07-03T07:47:17.000Z</time>
      </trkpt>
      <trkpt lat="45.24556" lon="6.47602">
        <ele>1395</ele>
        <time>2022-07-03T07:47:25.000Z</time>
      </trkpt>
      <trkpt lat="45.24549" lon="6.47615">
        <ele>1396.4</ele>
        <time>2022-07-03T07:47:33.000Z</time>
      </trkpt>
      <trkpt lat="45.2454" lon="6.47624">
        <ele>1397.6</ele>
        <time>2022-07-03T07:47:41.000Z</time>
      </trkpt>
      <trkpt lat="45.24533" lon="6.4763">
        <ele>1398.7</ele>
        <time>2022-07-03T07:47:47.000Z</time>
      </trkpt>
      <trkpt lat="45.24522" lon="6.47633">
        <ele>1399.9</ele>
        <time>2022-07-03T07:47:55.000Z</time>
      </trkpt>
      <trkpt lat="45.2451" lon="6.47634">
        <ele>1401.1</ele>
        <time>2022-07-03T07:48:03.000Z</time>
      </trkpt>
      <trkpt lat="45.24499" lon="6.47641">
        <ele>1402.9</ele>
        <time>2022-07-03T07:48:11.000Z</time>
      </trkpt>
      <trkpt lat="45.24492" lon="6.4765">
        <ele>1403.2</ele>
        <time>2022-07-03T07:48:17.000Z</time>
      </trkpt>
      <trkpt lat="45.24488" lon="6.47662">
        <ele>1404.5</ele>
        <time>2022-07-03T07:48:23.000Z</time>
      </trkpt>
      <trkpt lat="45.24482" lon="6.47677">
        <ele>1407</ele>
        <time>2022-07-03T07:48:31.000Z</time>
      </trkpt>
      <trkpt lat="45.24474" lon="6.47685">
        <ele>1408.7</ele>
        <time>2022-07-03T07:48:37.000Z</time>
      </trkpt>
      <trkpt lat="45.24465" lon="6.47693">
        <ele>1410.4</ele>
        <time>2022-07-03T07:48:45.000Z</time>
      </trkpt>
      <trkpt lat="45.24453" lon="6.47697">
        <ele>1411.3</ele>
        <time>2022-07-03T07:48:55.000Z</time>
      </trkpt>
      <trkpt lat="45.24444" lon="6.47699">
        <ele>1411.9</ele>
        <time>2022-07-03T07:49:01.000Z</time>
      </trkpt>
      <trkpt lat="45.24432" lon="6.47702">
        <ele>1413.5</ele>
        <time>2022-07-03T07:49:09.000Z</time>
      </trkpt>
      <trkpt lat="45.24423" lon="6.47703">
        <ele>1414.1</ele>
        <time>2022-07-03T07:49:15.000Z</time>
      </trkpt>
      <trkpt lat="45.24411" lon="6.47702">
        <ele>1414.8</ele>
        <time>2022-07-03T07:49:23.000Z</time>
      </trkpt>
      <trkpt lat="45.24401" lon="6.47702">
        <ele>1415.9</ele>
        <time>2022-07-03T07:49:29.000Z</time>
      </trkpt>
      <trkpt lat="45.2439" lon="6.47705">
        <ele>1418</ele>
        <time>2022-07-03T07:49:37.000Z</time>
      </trkpt>
      <trkpt lat="45.24379" lon="6.4771">
        <ele>1418.5</ele>
        <time>2022-07-03T07:49:43.000Z</time>
      </trkpt>
      <trkpt lat="45.24371" lon="6.47715">
        <ele>1418.8</ele>
        <time>2022-07-03T07:49:49.000Z</time>
      </trkpt>
      <trkpt lat="45.24361" lon="6.47718">
        <ele>1418.5</ele>
        <time>2022-07-03T07:49:57.000Z</time>
      </trkpt>
      <trkpt lat="45.24352" lon="6.47722">
        <ele>1418.1</ele>
        <time>2022-07-03T07:50:03.000Z</time>
      </trkpt>
      <trkpt lat="45.24342" lon="6.47729">
        <ele>1418</ele>
        <time>2022-07-03T07:50:09.000Z</time>
      </trkpt>
      <trkpt lat="45.2433" lon="6.47736">
        <ele>1417.4</ele>
        <time>2022-07-03T07:50:15.000Z</time>
      </trkpt>
      <trkpt lat="45.24313" lon="6.47749">
        <ele>1416.6</ele>
        <time>2022-07-03T07:50:19.000Z</time>
      </trkpt>
      <trkpt lat="45.24303" lon="6.47756">
        <ele>1415.9</ele>
        <time>2022-07-03T07:50:21.000Z</time>
      </trkpt>
      <trkpt lat="45.24292" lon="6.47762">
        <ele>1415.7</ele>
        <time>2022-07-03T07:50:23.000Z</time>
      </trkpt>
      <trkpt lat="45.24278" lon="6.47763">
        <ele>1414.8</ele>
        <time>2022-07-03T07:50:25.000Z</time>
      </trkpt>
      <trkpt lat="45.24264" lon="6.47763">
        <ele>1413.9</ele>
        <time>2022-07-03T07:50:27.000Z</time>
      </trkpt>
      <trkpt lat="45.24249" lon="6.47768">
        <ele>1413.2</ele>
        <time>2022-07-03T07:50:29.000Z</time>
      </trkpt>
      <trkpt lat="45.24238" lon="6.47769">
        <ele>1413.3</ele>
        <time>2022-07-03T07:50:31.000Z</time>
      </trkpt>
      <trkpt lat="45.24223" lon="6.47774">
        <ele>1414</ele>
        <time>2022-07-03T07:50:35.000Z</time>
      </trkpt>
      <trkpt lat="45.24214" lon="6.47778">
        <ele>1414.4</ele>
        <time>2022-07-03T07:50:41.000Z</time>
      </trkpt>
      <trkpt lat="45.24205" lon="6.47782">
        <ele>1414.2</ele>
        <time>2022-07-03T07:50:47.000Z</time>
      </trkpt>
      <trkpt lat="45.24196" lon="6.47793">
        <ele>1414.6</ele>
        <time>2022-07-03T07:50:55.000Z</time>
      </trkpt>
      <trkpt lat="45.24197" lon="6.47806">
        <ele>1415.9</ele>
        <time>2022-07-03T07:51:01.000Z</time>
      </trkpt>
      <trkpt lat="45.24204" lon="6.47817">
        <ele>1417</ele>
        <time>2022-07-03T07:51:07.000Z</time>
      </trkpt>
      <trkpt lat="45.24214" lon="6.4782">
        <ele>1418.2</ele>
        <time>2022-07-03T07:51:13.000Z</time>
      </trkpt>
      <trkpt lat="45.24224" lon="6.47818">
        <ele>1418.9</ele>
        <time>2022-07-03T07:51:19.000Z</time>
      </trkpt>
      <trkpt lat="45.24234" lon="6.47817">
        <ele>1419.6</ele>
        <time>2022-07-03T07:51:25.000Z</time>
      </trkpt>
      <trkpt lat="45.24244" lon="6.47815">
        <ele>1420.1</ele>
        <time>2022-07-03T07:51:31.000Z</time>
      </trkpt>
      <trkpt lat="45.24255" lon="6.47815">
        <ele>1421.2</ele>
        <time>2022-07-03T07:51:39.000Z</time>
      </trkpt>
      <trkpt lat="45.24265" lon="6.47813">
        <ele>1422.2</ele>
        <time>2022-07-03T07:51:45.000Z</time>
      </trkpt>
      <trkpt lat="45.24277" lon="6.4781">
        <ele>1423</ele>
        <time>2022-07-03T07:51:53.000Z</time>
      </trkpt>
      <trkpt lat="45.24287" lon="6.47807">
        <ele>1423.1</ele>
        <time>2022-07-03T07:51:59.000Z</time>
      </trkpt>
      <trkpt lat="45.24296" lon="6.47804">
        <ele>1423</ele>
        <time>2022-07-03T07:52:05.000Z</time>
      </trkpt>
      <trkpt lat="45.24305" lon="6.478">
        <ele>1423</ele>
        <time>2022-07-03T07:52:11.000Z</time>
      </trkpt>
      <trkpt lat="45.24314" lon="6.47795">
        <ele>1423.4</ele>
        <time>2022-07-03T07:52:17.000Z</time>
      </trkpt>
      <trkpt lat="45.24326" lon="6.47791">
        <ele>1424.5</ele>
        <time>2022-07-03T07:52:25.000Z</time>
      </trkpt>
      <trkpt lat="45.24336" lon="6.47789">
        <ele>1425.8</ele>
        <time>2022-07-03T07:52:31.000Z</time>
      </trkpt>
      <trkpt lat="45.24348" lon="6.47787">
        <ele>1427.1</ele>
        <time>2022-07-03T07:52:39.000Z</time>
      </trkpt>
      <trkpt lat="45.24359" lon="6.47789">
        <ele>1428.7</ele>
        <time>2022-07-03T07:52:47.000Z</time>
      </trkpt>
      <trkpt lat="45.2437" lon="6.47789">
        <ele>1430</ele>
        <time>2022-07-03T07:52:53.000Z</time>
      </trkpt>
      <trkpt lat="45.24381" lon="6.47787">
        <ele>1431</ele>
        <time>2022-07-03T07:53:01.000Z</time>
      </trkpt>
      <trkpt lat="45.2439" lon="6.47788">
        <ele>1432</ele>
        <time>2022-07-03T07:53:07.000Z</time>
      </trkpt>
      <trkpt lat="45.24399" lon="6.47788">
        <ele>1432.6</ele>
        <time>2022-07-03T07:53:13.000Z</time>
      </trkpt>
      <trkpt lat="45.2441" lon="6.47789">
        <ele>1433.1</ele>
        <time>2022-07-03T07:53:21.000Z</time>
      </trkpt>
      <trkpt lat="45.24419" lon="6.4779">
        <ele>1433.6</ele>
        <time>2022-07-03T07:53:27.000Z</time>
      </trkpt>
      <trkpt lat="45.24429" lon="6.47791">
        <ele>1434.4</ele>
        <time>2022-07-03T07:53:33.000Z</time>
      </trkpt>
      <trkpt lat="45.2444" lon="6.47792">
        <ele>1435.2</ele>
        <time>2022-07-03T07:53:41.000Z</time>
      </trkpt>
      <trkpt lat="45.24449" lon="6.47794">
        <ele>1436</ele>
        <time>2022-07-03T07:53:47.000Z</time>
      </trkpt>
      <trkpt lat="45.24461" lon="6.47796">
        <ele>1436.5</ele>
        <time>2022-07-03T07:53:55.000Z</time>
      </trkpt>
      <trkpt lat="45.24472" lon="6.47798">
        <ele>1437.1</ele>
        <time>2022-07-03T07:54:03.000Z</time>
      </trkpt>
      <trkpt lat="45.2448" lon="6.47805">
        <ele>1438</ele>
        <time>2022-07-03T07:54:09.000Z</time>
      </trkpt>
      <trkpt lat="45.24489" lon="6.4781">
        <ele>1438.8</ele>
        <time>2022-07-03T07:54:15.000Z</time>
      </trkpt>
      <trkpt lat="45.24496" lon="6.47817">
        <ele>1440</ele>
        <time>2022-07-03T07:54:21.000Z</time>
      </trkpt>
      <trkpt lat="45.24505" lon="6.47824">
        <ele>1441.1</ele>
        <time>2022-07-03T07:54:27.000Z</time>
      </trkpt>
      <trkpt lat="45.24513" lon="6.47831">
        <ele>1442.1</ele>
        <time>2022-07-03T07:54:33.000Z</time>
      </trkpt>
      <trkpt lat="45.24522" lon="6.47836">
        <ele>1443.1</ele>
        <time>2022-07-03T07:54:39.000Z</time>
      </trkpt>
      <trkpt lat="45.24531" lon="6.47843">
        <ele>1444.2</ele>
        <time>2022-07-03T07:54:45.000Z</time>
      </trkpt>
      <trkpt lat="45.2454" lon="6.47844">
        <ele>1445.7</ele>
        <time>2022-07-03T07:54:51.000Z</time>
      </trkpt>
      <trkpt lat="45.2455" lon="6.47841">
        <ele>1446.5</ele>
        <time>2022-07-03T07:54:57.000Z</time>
      </trkpt>
      <trkpt lat="45.24561" lon="6.47838">
        <ele>1446.9</ele>
        <time>2022-07-03T07:55:05.000Z</time>
      </trkpt>
      <trkpt lat="45.24572" lon="6.4784">
        <ele>1447.9</ele>
        <time>2022-07-03T07:55:11.000Z</time>
      </trkpt>
      <trkpt lat="45.24582" lon="6.47841">
        <ele>1448.8</ele>
        <time>2022-07-03T07:55:17.000Z</time>
      </trkpt>
      <trkpt lat="45.24592" lon="6.4784">
        <ele>1449.6</ele>
        <time>2022-07-03T07:55:25.000Z</time>
      </trkpt>
      <trkpt lat="45.24602" lon="6.47839">
        <ele>1450.2</ele>
        <time>2022-07-03T07:55:33.000Z</time>
      </trkpt>
      <trkpt lat="45.24613" lon="6.47839">
        <ele>1451.1</ele>
        <time>2022-07-03T07:55:41.000Z</time>
      </trkpt>
      <trkpt lat="45.24623" lon="6.47839">
        <ele>1451.3</ele>
        <time>2022-07-03T07:55:47.000Z</time>
      </trkpt>
      <trkpt lat="45.24634" lon="6.47841">
        <ele>1451.9</ele>
        <time>2022-07-03T07:55:53.000Z</time>
      </trkpt>
      <trkpt lat="45.24644" lon="6.47843">
        <ele>1452.6</ele>
        <time>2022-07-03T07:55:59.000Z</time>
      </trkpt>
      <trkpt lat="45.24654" lon="6.47844">
        <ele>1453.4</ele>
        <time>2022-07-03T07:56:05.000Z</time>
      </trkpt>
      <trkpt lat="45.24664" lon="6.47845">
        <ele>1454.2</ele>
        <time>2022-07-03T07:56:11.000Z</time>
      </trkpt>
      <trkpt lat="45.24673" lon="6.47845">
        <ele>1454.9</ele>
        <time>2022-07-03T07:56:17.000Z</time>
      </trkpt>
      <trkpt lat="45.24683" lon="6.47845">
        <ele>1455.7</ele>
        <time>2022-07-03T07:56:23.000Z</time>
      </trkpt>
      <trkpt lat="45.24694" lon="6.47845">
        <ele>1456.6</ele>
        <time>2022-07-03T07:56:31.000Z</time>
      </trkpt>
      <trkpt lat="45.24704" lon="6.47842">
        <ele>1457.7</ele>
        <time>2022-07-03T07:56:37.000Z</time>
      </trkpt>
      <trkpt lat="45.24714" lon="6.47837">
        <ele>1459</ele>
        <time>2022-07-03T07:56:45.000Z</time>
      </trkpt>
      <trkpt lat="45.24722" lon="6.4783">
        <ele>1459.4</ele>
        <time>2022-07-03T07:56:51.000Z</time>
      </trkpt>
      <trkpt lat="45.2473" lon="6.47819">
        <ele>1459.8</ele>
        <time>2022-07-03T07:56:59.000Z</time>
      </trkpt>
      <trkpt lat="45.24736" lon="6.47809">
        <ele>1460.3</ele>
        <time>2022-07-03T07:57:05.000Z</time>
      </trkpt>
      <trkpt lat="45.24745" lon="6.47802">
        <ele>1461.7</ele>
        <time>2022-07-03T07:57:11.000Z</time>
      </trkpt>
      <trkpt lat="45.24752" lon="6.47793">
        <ele>1462.7</ele>
        <time>2022-07-03T07:57:17.000Z</time>
      </trkpt>
      <trkpt lat="45.24761" lon="6.47784">
        <ele>1463.9</ele>
        <time>2022-07-03T07:57:25.000Z</time>
      </trkpt>
      <trkpt lat="45.24768" lon="6.47774">
        <ele>1464.5</ele>
        <time>2022-07-03T07:57:31.000Z</time>
      </trkpt>
      <trkpt lat="45.24777" lon="6.47764">
        <ele>1465.6</ele>
        <time>2022-07-03T07:57:39.000Z</time>
      </trkpt>
      <trkpt lat="45.24787" lon="6.47758">
        <ele>1466.5</ele>
        <time>2022-07-03T07:57:47.000Z</time>
      </trkpt>
      <trkpt lat="45.24796" lon="6.47753">
        <ele>1467.2</ele>
        <time>2022-07-03T07:57:53.000Z</time>
      </trkpt>
      <trkpt lat="45.24807" lon="6.4775">
        <ele>1467.9</ele>
        <time>2022-07-03T07:57:59.000Z</time>
      </trkpt>
      <trkpt lat="45.24818" lon="6.47753">
        <ele>1468.7</ele>
        <time>2022-07-03T07:58:07.000Z</time>
      </trkpt>
      <trkpt lat="45.24827" lon="6.47758">
        <ele>1469.6</ele>
        <time>2022-07-03T07:58:13.000Z</time>
      </trkpt>
      <trkpt lat="45.24838" lon="6.47765">
        <ele>1470.8</ele>
        <time>2022-07-03T07:58:21.000Z</time>
      </trkpt>
      <trkpt lat="45.24847" lon="6.47772">
        <ele>1471.4</ele>
        <time>2022-07-03T07:58:27.000Z</time>
      </trkpt>
      <trkpt lat="45.24856" lon="6.47781">
        <ele>1472.7</ele>
        <time>2022-07-03T07:58:33.000Z</time>
      </trkpt>
      <trkpt lat="45.24865" lon="6.4779">
        <ele>1473.3</ele>
        <time>2022-07-03T07:58:39.000Z</time>
      </trkpt>
      <trkpt lat="45.24871" lon="6.47803">
        <ele>1474</ele>
        <time>2022-07-03T07:58:47.000Z</time>
      </trkpt>
      <trkpt lat="45.24872" lon="6.47806">
        <ele>1474.5</ele>
        <time>2022-07-03T08:00:40.000Z</time>
      </trkpt>
      <trkpt lat="45.24876" lon="6.4782">
        <ele>1475.9</ele>
        <time>2022-07-03T08:04:35.000Z</time>
      </trkpt>
      <trkpt lat="45.24881" lon="6.47833">
        <ele>1477</ele>
        <time>2022-07-03T08:04:43.000Z</time>
      </trkpt>
      <trkpt lat="45.24887" lon="6.47844">
        <ele>1477.8</ele>
        <time>2022-07-03T08:04:51.000Z</time>
      </trkpt>
      <trkpt lat="45.24894" lon="6.47853">
        <ele>1478.6</ele>
        <time>2022-07-03T08:04:57.000Z</time>
      </trkpt>
      <trkpt lat="45.24904" lon="6.47863">
        <ele>1479.6</ele>
        <time>2022-07-03T08:05:05.000Z</time>
      </trkpt>
      <trkpt lat="45.24914" lon="6.47869">
        <ele>1480.1</ele>
        <time>2022-07-03T08:05:13.000Z</time>
      </trkpt>
      <trkpt lat="45.24925" lon="6.47866">
        <ele>1480.5</ele>
        <time>2022-07-03T08:05:21.000Z</time>
      </trkpt>
      <trkpt lat="45.24934" lon="6.47863">
        <ele>1481.5</ele>
        <time>2022-07-03T08:05:27.000Z</time>
      </trkpt>
      <trkpt lat="45.24942" lon="6.47855">
        <ele>1482</ele>
        <time>2022-07-03T08:05:39.000Z</time>
      </trkpt>
      <trkpt lat="45.24949" lon="6.47842">
        <ele>1482.4</ele>
        <time>2022-07-03T08:05:45.000Z</time>
      </trkpt>
      <trkpt lat="45.24957" lon="6.47833">
        <ele>1483.9</ele>
        <time>2022-07-03T08:05:51.000Z</time>
      </trkpt>
      <trkpt lat="45.24966" lon="6.47823">
        <ele>1484.8</ele>
        <time>2022-07-03T08:05:59.000Z</time>
      </trkpt>
      <trkpt lat="45.24974" lon="6.47814">
        <ele>1485.2</ele>
        <time>2022-07-03T08:06:05.000Z</time>
      </trkpt>
      <trkpt lat="45.24983" lon="6.47809">
        <ele>1485.8</ele>
        <time>2022-07-03T08:06:11.000Z</time>
      </trkpt>
      <trkpt lat="45.24992" lon="6.47804">
        <ele>1486.8</ele>
        <time>2022-07-03T08:06:19.000Z</time>
      </trkpt>
      <trkpt lat="45.25004" lon="6.47798">
        <ele>1487.5</ele>
        <time>2022-07-03T08:06:27.000Z</time>
      </trkpt>
      <trkpt lat="45.25013" lon="6.47796">
        <ele>1487.5</ele>
        <time>2022-07-03T08:06:33.000Z</time>
      </trkpt>
      <trkpt lat="45.25023" lon="6.47796">
        <ele>1488.1</ele>
        <time>2022-07-03T08:06:39.000Z</time>
      </trkpt>
      <trkpt lat="45.25034" lon="6.47801">
        <ele>1489.3</ele>
        <time>2022-07-03T08:06:47.000Z</time>
      </trkpt>
      <trkpt lat="45.25044" lon="6.47809">
        <ele>1490.4</ele>
        <time>2022-07-03T08:06:55.000Z</time>
      </trkpt>
      <trkpt lat="45.25052" lon="6.47817">
        <ele>1491.1</ele>
        <time>2022-07-03T08:07:01.000Z</time>
      </trkpt>
      <trkpt lat="45.25058" lon="6.47827">
        <ele>1492.4</ele>
        <time>2022-07-03T08:07:07.000Z</time>
      </trkpt>
      <trkpt lat="45.25065" lon="6.47836">
        <ele>1493.6</ele>
        <time>2022-07-03T08:07:13.000Z</time>
      </trkpt>
      <trkpt lat="45.25072" lon="6.47847">
        <ele>1494.7</ele>
        <time>2022-07-03T08:07:21.000Z</time>
      </trkpt>
      <trkpt lat="45.25081" lon="6.47854">
        <ele>1495</ele>
        <time>2022-07-03T08:07:27.000Z</time>
      </trkpt>
      <trkpt lat="45.25089" lon="6.47861">
        <ele>1495.8</ele>
        <time>2022-07-03T08:07:33.000Z</time>
      </trkpt>
      <trkpt lat="45.25099" lon="6.47869">
        <ele>1497</ele>
        <time>2022-07-03T08:07:41.000Z</time>
      </trkpt>
      <trkpt lat="45.25108" lon="6.47872">
        <ele>1497.5</ele>
        <time>2022-07-03T08:07:47.000Z</time>
      </trkpt>
      <trkpt lat="45.25117" lon="6.4788">
        <ele>1498.4</ele>
        <time>2022-07-03T08:07:53.000Z</time>
      </trkpt>
      <trkpt lat="45.25127" lon="6.47885">
        <ele>1499.1</ele>
        <time>2022-07-03T08:07:59.000Z</time>
      </trkpt>
      <trkpt lat="45.25135" lon="6.47888">
        <ele>1499.7</ele>
        <time>2022-07-03T08:08:05.000Z</time>
      </trkpt>
      <trkpt lat="45.25143" lon="6.47898">
        <ele>1500.4</ele>
        <time>2022-07-03T08:08:13.000Z</time>
      </trkpt>
      <trkpt lat="45.25147" lon="6.47914">
        <ele>1502.1</ele>
        <time>2022-07-03T08:08:21.000Z</time>
      </trkpt>
      <trkpt lat="45.25159" lon="6.47925">
        <ele>1503.8</ele>
        <time>2022-07-03T08:08:29.000Z</time>
      </trkpt>
      <trkpt lat="45.25168" lon="6.47934">
        <ele>1504.9</ele>
        <time>2022-07-03T08:08:36.000Z</time>
      </trkpt>
      <trkpt lat="45.25178" lon="6.4794">
        <ele>1505.1</ele>
        <time>2022-07-03T08:08:42.000Z</time>
      </trkpt>
      <trkpt lat="45.25188" lon="6.47943">
        <ele>1505.1</ele>
        <time>2022-07-03T08:08:48.000Z</time>
      </trkpt>
      <trkpt lat="45.25197" lon="6.47948">
        <ele>1505.1</ele>
        <time>2022-07-03T08:08:54.000Z</time>
      </trkpt>
      <trkpt lat="45.25208" lon="6.47951">
        <ele>1505.1</ele>
        <time>2022-07-03T08:09:02.000Z</time>
      </trkpt>
      <trkpt lat="45.25217" lon="6.47962">
        <ele>1506.9</ele>
        <time>2022-07-03T08:09:10.000Z</time>
      </trkpt>
      <trkpt lat="45.25208" lon="6.47967">
        <ele>1507.7</ele>
        <time>2022-07-03T08:10:16.000Z</time>
      </trkpt>
      <trkpt lat="45.25198" lon="6.47967">
        <ele>1507.1</ele>
        <time>2022-07-03T08:10:28.000Z</time>
      </trkpt>
      <trkpt lat="45.25189" lon="6.47961">
        <ele>1507.2</ele>
        <time>2022-07-03T08:10:38.000Z</time>
      </trkpt>
      <trkpt lat="45.25178" lon="6.47959">
        <ele>1509</ele>
        <time>2022-07-03T08:10:48.000Z</time>
      </trkpt>
      <trkpt lat="45.25167" lon="6.47961">
        <ele>1511.3</ele>
        <time>2022-07-03T08:10:56.000Z</time>
      </trkpt>
      <trkpt lat="45.25158" lon="6.47962">
        <ele>1512</ele>
        <time>2022-07-03T08:11:02.000Z</time>
      </trkpt>
      <trkpt lat="45.25149" lon="6.47964">
        <ele>1512.5</ele>
        <time>2022-07-03T08:11:08.000Z</time>
      </trkpt>
      <trkpt lat="45.25139" lon="6.47965">
        <ele>1512.5</ele>
        <time>2022-07-03T08:11:14.000Z</time>
      </trkpt>
      <trkpt lat="45.25129" lon="6.47965">
        <ele>1512.6</ele>
        <time>2022-07-03T08:11:22.000Z</time>
      </trkpt>
      <trkpt lat="45.2512" lon="6.47969">
        <ele>1513.1</ele>
        <time>2022-07-03T08:11:28.000Z</time>
      </trkpt>
      <trkpt lat="45.25111" lon="6.47972">
        <ele>1513.9</ele>
        <time>2022-07-03T08:11:34.000Z</time>
      </trkpt>
      <trkpt lat="45.25102" lon="6.47975">
        <ele>1514.9</ele>
        <time>2022-07-03T08:11:40.000Z</time>
      </trkpt>
      <trkpt lat="45.25092" lon="6.47978">
        <ele>1515.8</ele>
        <time>2022-07-03T08:11:46.000Z</time>
      </trkpt>
      <trkpt lat="45.25081" lon="6.47983">
        <ele>1516.8</ele>
        <time>2022-07-03T08:11:54.000Z</time>
      </trkpt>
      <trkpt lat="45.25071" lon="6.47985">
        <ele>1517.7</ele>
        <time>2022-07-03T08:12:02.000Z</time>
      </trkpt>
      <trkpt lat="45.25058" lon="6.47985">
        <ele>1518.1</ele>
        <time>2022-07-03T08:12:10.000Z</time>
      </trkpt>
      <trkpt lat="45.25049" lon="6.47988">
        <ele>1518.7</ele>
        <time>2022-07-03T08:12:16.000Z</time>
      </trkpt>
      <trkpt lat="45.25039" lon="6.47993">
        <ele>1519.6</ele>
        <time>2022-07-03T08:12:24.000Z</time>
      </trkpt>
      <trkpt lat="45.2503" lon="6.47997">
        <ele>1520.9</ele>
        <time>2022-07-03T08:12:30.000Z</time>
      </trkpt>
      <trkpt lat="45.25019" lon="6.48">
        <ele>1521.9</ele>
        <time>2022-07-03T08:12:38.000Z</time>
      </trkpt>
      <trkpt lat="45.25007" lon="6.48003">
        <ele>1522.3</ele>
        <time>2022-07-03T08:12:46.000Z</time>
      </trkpt>
      <trkpt lat="45.24997" lon="6.4801">
        <ele>1522.3</ele>
        <time>2022-07-03T08:12:54.000Z</time>
      </trkpt>
      <trkpt lat="45.24992" lon="6.48024">
        <ele>1522.9</ele>
        <time>2022-07-03T08:13:02.000Z</time>
      </trkpt>
      <trkpt lat="45.24995" lon="6.48037">
        <ele>1526.3</ele>
        <time>2022-07-03T08:13:08.000Z</time>
      </trkpt>
      <trkpt lat="45.25005" lon="6.48042">
        <ele>1528.1</ele>
        <time>2022-07-03T08:13:14.000Z</time>
      </trkpt>
      <trkpt lat="45.25017" lon="6.4804">
        <ele>1528.4</ele>
        <time>2022-07-03T08:13:22.000Z</time>
      </trkpt>
      <trkpt lat="45.25028" lon="6.48036">
        <ele>1528.2</ele>
        <time>2022-07-03T08:13:28.000Z</time>
      </trkpt>
      <trkpt lat="45.25038" lon="6.48028">
        <ele>1526.9</ele>
        <time>2022-07-03T08:13:36.000Z</time>
      </trkpt>
      <trkpt lat="45.25047" lon="6.48027">
        <ele>1527.1</ele>
        <time>2022-07-03T08:13:42.000Z</time>
      </trkpt>
      <trkpt lat="45.25056" lon="6.48026">
        <ele>1527.6</ele>
        <time>2022-07-03T08:13:48.000Z</time>
      </trkpt>
      <trkpt lat="45.25067" lon="6.48028">
        <ele>1528.8</ele>
        <time>2022-07-03T08:13:56.000Z</time>
      </trkpt>
      <trkpt lat="45.25077" lon="6.48031">
        <ele>1530.1</ele>
        <time>2022-07-03T08:14:04.000Z</time>
      </trkpt>
      <trkpt lat="45.25087" lon="6.48032">
        <ele>1531.1</ele>
        <time>2022-07-03T08:14:10.000Z</time>
      </trkpt>
      <trkpt lat="45.25099" lon="6.48031">
        <ele>1531.6</ele>
        <time>2022-07-03T08:14:18.000Z</time>
      </trkpt>
      <trkpt lat="45.25109" lon="6.4803">
        <ele>1532.1</ele>
        <time>2022-07-03T08:14:24.000Z</time>
      </trkpt>
      <trkpt lat="45.25118" lon="6.48027">
        <ele>1532.1</ele>
        <time>2022-07-03T08:14:30.000Z</time>
      </trkpt>
      <trkpt lat="45.25128" lon="6.48027">
        <ele>1532.2</ele>
        <time>2022-07-03T08:14:36.000Z</time>
      </trkpt>
      <trkpt lat="45.25134" lon="6.48036">
        <ele>1534</ele>
        <time>2022-07-03T08:14:42.000Z</time>
      </trkpt>
      <trkpt lat="45.25127" lon="6.48045">
        <ele>1535.3</ele>
        <time>2022-07-03T08:14:48.000Z</time>
      </trkpt>
      <trkpt lat="45.25119" lon="6.48052">
        <ele>1535.9</ele>
        <time>2022-07-03T08:14:54.000Z</time>
      </trkpt>
      <trkpt lat="45.25109" lon="6.48057">
        <ele>1536.3</ele>
        <time>2022-07-03T08:15:00.000Z</time>
      </trkpt>
      <trkpt lat="45.25099" lon="6.48061">
        <ele>1537.5</ele>
        <time>2022-07-03T08:15:06.000Z</time>
      </trkpt>
      <trkpt lat="45.25089" lon="6.48062">
        <ele>1537.8</ele>
        <time>2022-07-03T08:15:12.000Z</time>
      </trkpt>
      <trkpt lat="45.25079" lon="6.48066">
        <ele>1538</ele>
        <time>2022-07-03T08:15:18.000Z</time>
      </trkpt>
      <trkpt lat="45.2507" lon="6.48071">
        <ele>1538.4</ele>
        <time>2022-07-03T08:15:24.000Z</time>
      </trkpt>
      <trkpt lat="45.25058" lon="6.48071">
        <ele>1537.5</ele>
        <time>2022-07-03T08:15:30.000Z</time>
      </trkpt>
      <trkpt lat="45.25048" lon="6.48073">
        <ele>1537.1</ele>
        <time>2022-07-03T08:15:36.000Z</time>
      </trkpt>
      <trkpt lat="45.25039" lon="6.48083">
        <ele>1538.4</ele>
        <time>2022-07-03T08:15:44.000Z</time>
      </trkpt>
      <trkpt lat="45.25043" lon="6.48097">
        <ele>1542.5</ele>
        <time>2022-07-03T08:15:50.000Z</time>
      </trkpt>
      <trkpt lat="45.25053" lon="6.48098">
        <ele>1543.7</ele>
        <time>2022-07-03T08:15:56.000Z</time>
      </trkpt>
      <trkpt lat="45.25062" lon="6.48094">
        <ele>1543.8</ele>
        <time>2022-07-03T08:16:02.000Z</time>
      </trkpt>
      <trkpt lat="45.25072" lon="6.4809">
        <ele>1543.8</ele>
        <time>2022-07-03T08:16:08.000Z</time>
      </trkpt>
      <trkpt lat="45.25084" lon="6.48088">
        <ele>1544.5</ele>
        <time>2022-07-03T08:16:16.000Z</time>
      </trkpt>
      <trkpt lat="45.25094" lon="6.48088">
        <ele>1545.4</ele>
        <time>2022-07-03T08:16:22.000Z</time>
      </trkpt>
      <trkpt lat="45.25104" lon="6.48087">
        <ele>1546.1</ele>
        <time>2022-07-03T08:16:28.000Z</time>
      </trkpt>
      <trkpt lat="45.25113" lon="6.48086">
        <ele>1546.7</ele>
        <time>2022-07-03T08:16:34.000Z</time>
      </trkpt>
      <trkpt lat="45.25123" lon="6.48085">
        <ele>1547.4</ele>
        <time>2022-07-03T08:16:40.000Z</time>
      </trkpt>
      <trkpt lat="45.25132" lon="6.48084">
        <ele>1547.6</ele>
        <time>2022-07-03T08:16:46.000Z</time>
      </trkpt>
      <trkpt lat="45.25141" lon="6.48084">
        <ele>1548.3</ele>
        <time>2022-07-03T08:16:52.000Z</time>
      </trkpt>
      <trkpt lat="45.2515" lon="6.48084">
        <ele>1549.4</ele>
        <time>2022-07-03T08:16:58.000Z</time>
      </trkpt>
      <trkpt lat="45.25162" lon="6.48079">
        <ele>1549</ele>
        <time>2022-07-03T08:17:06.000Z</time>
      </trkpt>
      <trkpt lat="45.25172" lon="6.48081">
        <ele>1550.2</ele>
        <time>2022-07-03T08:17:12.000Z</time>
      </trkpt>
      <trkpt lat="45.25183" lon="6.48081">
        <ele>1549.8</ele>
        <time>2022-07-03T08:17:20.000Z</time>
      </trkpt>
      <trkpt lat="45.25192" lon="6.48087">
        <ele>1552.4</ele>
        <time>2022-07-03T08:17:26.000Z</time>
      </trkpt>
      <trkpt lat="45.25201" lon="6.4809">
        <ele>1554.2</ele>
        <time>2022-07-03T08:17:32.000Z</time>
      </trkpt>
      <trkpt lat="45.25212" lon="6.48094">
        <ele>1556.2</ele>
        <time>2022-07-03T08:17:40.000Z</time>
      </trkpt>
      <trkpt lat="45.25221" lon="6.48094">
        <ele>1555.9</ele>
        <time>2022-07-03T08:17:46.000Z</time>
      </trkpt>
      <trkpt lat="45.25233" lon="6.48094">
        <ele>1556.9</ele>
        <time>2022-07-03T08:17:54.000Z</time>
      </trkpt>
      <trkpt lat="45.25243" lon="6.48089">
        <ele>1556.8</ele>
        <time>2022-07-03T08:18:02.000Z</time>
      </trkpt>
      <trkpt lat="45.25252" lon="6.48086">
        <ele>1557.5</ele>
        <time>2022-07-03T08:18:08.000Z</time>
      </trkpt>
      <trkpt lat="45.25263" lon="6.48085">
        <ele>1558.4</ele>
        <time>2022-07-03T08:18:14.000Z</time>
      </trkpt>
      <trkpt lat="45.25273" lon="6.4809">
        <ele>1559.7</ele>
        <time>2022-07-03T08:18:20.000Z</time>
      </trkpt>
      <trkpt lat="45.25274" lon="6.48105">
        <ele>1560.6</ele>
        <time>2022-07-03T08:18:30.000Z</time>
      </trkpt>
      <trkpt lat="45.25265" lon="6.48114">
        <ele>1561.7</ele>
        <time>2022-07-03T08:18:36.000Z</time>
      </trkpt>
      <trkpt lat="45.25255" lon="6.48119">
        <ele>1563</ele>
        <time>2022-07-03T08:18:42.000Z</time>
      </trkpt>
      <trkpt lat="45.25247" lon="6.48125">
        <ele>1564.6</ele>
        <time>2022-07-03T08:18:48.000Z</time>
      </trkpt>
      <trkpt lat="45.25238" lon="6.48126">
        <ele>1565.8</ele>
        <time>2022-07-03T08:18:56.000Z</time>
      </trkpt>
      <trkpt lat="45.25227" lon="6.48126">
        <ele>1566</ele>
        <time>2022-07-03T08:19:02.000Z</time>
      </trkpt>
      <trkpt lat="45.25217" lon="6.48127">
        <ele>1566.9</ele>
        <time>2022-07-03T08:19:08.000Z</time>
      </trkpt>
      <trkpt lat="45.25208" lon="6.48127">
        <ele>1568.3</ele>
        <time>2022-07-03T08:19:14.000Z</time>
      </trkpt>
      <trkpt lat="45.25196" lon="6.48126">
        <ele>1569.5</ele>
        <time>2022-07-03T08:19:24.000Z</time>
      </trkpt>
      <trkpt lat="45.25186" lon="6.48127">
        <ele>1570.4</ele>
        <time>2022-07-03T08:19:30.000Z</time>
      </trkpt>
      <trkpt lat="45.25177" lon="6.4813">
        <ele>1571.8</ele>
        <time>2022-07-03T08:19:36.000Z</time>
      </trkpt>
      <trkpt lat="45.25166" lon="6.48133">
        <ele>1573.2</ele>
        <time>2022-07-03T08:19:42.000Z</time>
      </trkpt>
      <trkpt lat="45.25157" lon="6.48138">
        <ele>1574.1</ele>
        <time>2022-07-03T08:19:48.000Z</time>
      </trkpt>
      <trkpt lat="45.25149" lon="6.48143">
        <ele>1576.3</ele>
        <time>2022-07-03T08:19:54.000Z</time>
      </trkpt>
      <trkpt lat="45.2514" lon="6.48146">
        <ele>1577.2</ele>
        <time>2022-07-03T08:20:00.000Z</time>
      </trkpt>
      <trkpt lat="45.25129" lon="6.48149">
        <ele>1577.2</ele>
        <time>2022-07-03T08:20:06.000Z</time>
      </trkpt>
      <trkpt lat="45.2512" lon="6.48152">
        <ele>1577.2</ele>
        <time>2022-07-03T08:20:12.000Z</time>
      </trkpt>
      <trkpt lat="45.25111" lon="6.48156">
        <ele>1577.2</ele>
        <time>2022-07-03T08:20:18.000Z</time>
      </trkpt>
      <trkpt lat="45.251" lon="6.48161">
        <ele>1577.8</ele>
        <time>2022-07-03T08:20:28.000Z</time>
      </trkpt>
      <trkpt lat="45.25091" lon="6.48163">
        <ele>1576.7</ele>
        <time>2022-07-03T08:20:34.000Z</time>
      </trkpt>
      <trkpt lat="45.25082" lon="6.48169">
        <ele>1577.7</ele>
        <time>2022-07-03T08:20:40.000Z</time>
      </trkpt>
      <trkpt lat="45.25072" lon="6.48173">
        <ele>1578.3</ele>
        <time>2022-07-03T08:20:48.000Z</time>
      </trkpt>
      <trkpt lat="45.25061" lon="6.48177">
        <ele>1578.5</ele>
        <time>2022-07-03T08:20:56.000Z</time>
      </trkpt>
      <trkpt lat="45.25051" lon="6.48182">
        <ele>1579.4</ele>
        <time>2022-07-03T08:21:04.000Z</time>
      </trkpt>
      <trkpt lat="45.2504" lon="6.48186">
        <ele>1580.7</ele>
        <time>2022-07-03T08:21:12.000Z</time>
      </trkpt>
      <trkpt lat="45.25033" lon="6.48194">
        <ele>1583.4</ele>
        <time>2022-07-03T08:21:18.000Z</time>
      </trkpt>
      <trkpt lat="45.25023" lon="6.48199">
        <ele>1584.4</ele>
        <time>2022-07-03T08:21:24.000Z</time>
      </trkpt>
      <trkpt lat="45.25014" lon="6.48203">
        <ele>1584.5</ele>
        <time>2022-07-03T08:21:32.000Z</time>
      </trkpt>
      <trkpt lat="45.25003" lon="6.48207">
        <ele>1584.8</ele>
        <time>2022-07-03T08:21:38.000Z</time>
      </trkpt>
      <trkpt lat="45.24993" lon="6.48211">
        <ele>1586.7</ele>
        <time>2022-07-03T08:21:46.000Z</time>
      </trkpt>
      <trkpt lat="45.24982" lon="6.48209">
        <ele>1588.7</ele>
        <time>2022-07-03T08:21:52.000Z</time>
      </trkpt>
      <trkpt lat="45.24974" lon="6.48203">
        <ele>1589.8</ele>
        <time>2022-07-03T08:21:58.000Z</time>
      </trkpt>
      <trkpt lat="45.24967" lon="6.48191">
        <ele>1590.4</ele>
        <time>2022-07-03T08:22:06.000Z</time>
      </trkpt>
      <trkpt lat="45.24962" lon="6.48178">
        <ele>1590.1</ele>
        <time>2022-07-03T08:22:14.000Z</time>
      </trkpt>
      <trkpt lat="45.24954" lon="6.48169">
        <ele>1590.8</ele>
        <time>2022-07-03T08:22:20.000Z</time>
      </trkpt>
      <trkpt lat="45.24948" lon="6.48159">
        <ele>1591.2</ele>
        <time>2022-07-03T08:22:26.000Z</time>
      </trkpt>
      <trkpt lat="45.24937" lon="6.48162">
        <ele>1592.8</ele>
        <time>2022-07-03T08:22:34.000Z</time>
      </trkpt>
      <trkpt lat="45.24928" lon="6.48169">
        <ele>1594.8</ele>
        <time>2022-07-03T08:22:40.000Z</time>
      </trkpt>
      <trkpt lat="45.2492" lon="6.48175">
        <ele>1596.7</ele>
        <time>2022-07-03T08:22:46.000Z</time>
      </trkpt>
      <trkpt lat="45.24911" lon="6.48182">
        <ele>1597.5</ele>
        <time>2022-07-03T08:22:52.000Z</time>
      </trkpt>
      <trkpt lat="45.249" lon="6.48187">
        <ele>1596.9</ele>
        <time>2022-07-03T08:22:58.000Z</time>
      </trkpt>
      <trkpt lat="45.24892" lon="6.48194">
        <ele>1597.2</ele>
        <time>2022-07-03T08:23:04.000Z</time>
      </trkpt>
      <trkpt lat="45.24882" lon="6.482">
        <ele>1596.7</ele>
        <time>2022-07-03T08:23:10.000Z</time>
      </trkpt>
      <trkpt lat="45.24874" lon="6.48207">
        <ele>1596.8</ele>
        <time>2022-07-03T08:23:16.000Z</time>
      </trkpt>
      <trkpt lat="45.24864" lon="6.48215">
        <ele>1596.8</ele>
        <time>2022-07-03T08:23:24.000Z</time>
      </trkpt>
      <trkpt lat="45.24854" lon="6.48221">
        <ele>1597.6</ele>
        <time>2022-07-03T08:23:32.000Z</time>
      </trkpt>
      <trkpt lat="45.24844" lon="6.48227">
        <ele>1598.6</ele>
        <time>2022-07-03T08:23:38.000Z</time>
      </trkpt>
      <trkpt lat="45.24834" lon="6.48231">
        <ele>1599.2</ele>
        <time>2022-07-03T08:23:44.000Z</time>
      </trkpt>
      <trkpt lat="45.24826" lon="6.48242">
        <ele>1600.2</ele>
        <time>2022-07-03T08:23:50.000Z</time>
      </trkpt>
      <trkpt lat="45.24827" lon="6.48258">
        <ele>1601.8</ele>
        <time>2022-07-03T08:23:58.000Z</time>
      </trkpt>
      <trkpt lat="45.24832" lon="6.48269">
        <ele>1602.6</ele>
        <time>2022-07-03T08:24:04.000Z</time>
      </trkpt>
      <trkpt lat="45.24843" lon="6.48272">
        <ele>1603.6</ele>
        <time>2022-07-03T08:24:10.000Z</time>
      </trkpt>
      <trkpt lat="45.24854" lon="6.4827">
        <ele>1604.6</ele>
        <time>2022-07-03T08:24:16.000Z</time>
      </trkpt>
      <trkpt lat="45.24863" lon="6.48271">
        <ele>1605.5</ele>
        <time>2022-07-03T08:24:22.000Z</time>
      </trkpt>
      <trkpt lat="45.24873" lon="6.48272">
        <ele>1606.4</ele>
        <time>2022-07-03T08:24:28.000Z</time>
      </trkpt>
      <trkpt lat="45.24877" lon="6.48285">
        <ele>1607.6</ele>
        <time>2022-07-03T08:24:34.000Z</time>
      </trkpt>
      <trkpt lat="45.24873" lon="6.48273">
        <ele>1606.5</ele>
        <time>2022-07-03T08:25:42.000Z</time>
      </trkpt>
      <trkpt lat="45.24873" lon="6.48285">
        <ele>1607.5</ele>
        <time>2022-07-03T08:26:54.000Z</time>
      </trkpt>
      <trkpt lat="45.24874" lon="6.48298">
        <ele>1608.6</ele>
        <time>2022-07-03T08:27:00.000Z</time>
      </trkpt>
      <trkpt lat="45.24878" lon="6.4831">
        <ele>1610.6</ele>
        <time>2022-07-03T08:27:06.000Z</time>
      </trkpt>
      <trkpt lat="45.24888" lon="6.4832">
        <ele>1614</ele>
        <time>2022-07-03T08:27:14.000Z</time>
      </trkpt>
      <trkpt lat="45.24898" lon="6.48324">
        <ele>1615.6</ele>
        <time>2022-07-03T08:27:22.000Z</time>
      </trkpt>
      <trkpt lat="45.24909" lon="6.48327">
        <ele>1616.3</ele>
        <time>2022-07-03T08:27:29.000Z</time>
      </trkpt>
      <trkpt lat="45.24918" lon="6.4833">
        <ele>1616.8</ele>
        <time>2022-07-03T08:27:35.000Z</time>
      </trkpt>
      <trkpt lat="45.24927" lon="6.4833">
        <ele>1618.7</ele>
        <time>2022-07-03T08:27:41.000Z</time>
      </trkpt>
      <trkpt lat="45.24938" lon="6.48331">
        <ele>1621.3</ele>
        <time>2022-07-03T08:27:47.000Z</time>
      </trkpt>
      <trkpt lat="45.24948" lon="6.48327">
        <ele>1622.4</ele>
        <time>2022-07-03T08:27:55.000Z</time>
      </trkpt>
      <trkpt lat="45.24959" lon="6.48326">
        <ele>1621.6</ele>
        <time>2022-07-03T08:28:05.000Z</time>
      </trkpt>
      <trkpt lat="45.2497" lon="6.48334">
        <ele>1624.6</ele>
        <time>2022-07-03T08:28:14.000Z</time>
      </trkpt>
      <trkpt lat="45.24979" lon="6.48338">
        <ele>1626.6</ele>
        <time>2022-07-03T08:38:43.000Z</time>
      </trkpt>
      <trkpt lat="45.24989" lon="6.4834">
        <ele>1628</ele>
        <time>2022-07-03T08:38:51.000Z</time>
      </trkpt>
      <trkpt lat="45.24998" lon="6.48341">
        <ele>1628.9</ele>
        <time>2022-07-03T08:38:59.000Z</time>
      </trkpt>
      <trkpt lat="45.25009" lon="6.48342">
        <ele>1630</ele>
        <time>2022-07-03T08:39:07.000Z</time>
      </trkpt>
      <trkpt lat="45.25018" lon="6.4834">
        <ele>1630.6</ele>
        <time>2022-07-03T08:39:15.000Z</time>
      </trkpt>
      <trkpt lat="45.25029" lon="6.48344">
        <ele>1632.8</ele>
        <time>2022-07-03T08:39:25.000Z</time>
      </trkpt>
      <trkpt lat="45.25039" lon="6.48346">
        <ele>1634.7</ele>
        <time>2022-07-03T08:39:33.000Z</time>
      </trkpt>
      <trkpt lat="45.25049" lon="6.48346">
        <ele>1635.7</ele>
        <time>2022-07-03T08:39:39.000Z</time>
      </trkpt>
      <trkpt lat="45.25058" lon="6.48343">
        <ele>1636.3</ele>
        <time>2022-07-03T08:39:47.000Z</time>
      </trkpt>
      <trkpt lat="45.25067" lon="6.48337">
        <ele>1636.6</ele>
        <time>2022-07-03T08:39:57.000Z</time>
      </trkpt>
      <trkpt lat="45.25078" lon="6.48335">
        <ele>1638.1</ele>
        <time>2022-07-03T08:40:05.000Z</time>
      </trkpt>
      <trkpt lat="45.25087" lon="6.48338">
        <ele>1640.9</ele>
        <time>2022-07-03T08:40:13.000Z</time>
      </trkpt>
      <trkpt lat="45.25098" lon="6.48341">
        <ele>1643.5</ele>
        <time>2022-07-03T08:40:21.000Z</time>
      </trkpt>
      <trkpt lat="45.25108" lon="6.48339">
        <ele>1644.4</ele>
        <time>2022-07-03T08:40:29.000Z</time>
      </trkpt>
      <trkpt lat="45.25118" lon="6.4834">
        <ele>1645.7</ele>
        <time>2022-07-03T08:40:37.000Z</time>
      </trkpt>
      <trkpt lat="45.25129" lon="6.48342">
        <ele>1647.2</ele>
        <time>2022-07-03T08:40:47.000Z</time>
      </trkpt>
      <trkpt lat="45.25138" lon="6.48342">
        <ele>1648</ele>
        <time>2022-07-03T08:40:55.000Z</time>
      </trkpt>
      <trkpt lat="45.25149" lon="6.48334">
        <ele>1646.8</ele>
        <time>2022-07-03T08:41:03.000Z</time>
      </trkpt>
      <trkpt lat="45.25158" lon="6.48333">
        <ele>1646.7</ele>
        <time>2022-07-03T08:41:09.000Z</time>
      </trkpt>
      <trkpt lat="45.25169" lon="6.48335">
        <ele>1647.6</ele>
        <time>2022-07-03T08:41:17.000Z</time>
      </trkpt>
      <trkpt lat="45.2518" lon="6.48338">
        <ele>1649.2</ele>
        <time>2022-07-03T08:41:25.000Z</time>
      </trkpt>
      <trkpt lat="45.25192" lon="6.48338">
        <ele>1650.2</ele>
        <time>2022-07-03T08:41:33.000Z</time>
      </trkpt>
      <trkpt lat="45.25203" lon="6.48334">
        <ele>1651</ele>
        <time>2022-07-03T08:41:41.000Z</time>
      </trkpt>
      <trkpt lat="45.25212" lon="6.48331">
        <ele>1651.3</ele>
        <time>2022-07-03T08:41:47.000Z</time>
      </trkpt>
      <trkpt lat="45.25222" lon="6.48336">
        <ele>1653.2</ele>
        <time>2022-07-03T08:41:55.000Z</time>
      </trkpt>
      <trkpt lat="45.2523" lon="6.48346">
        <ele>1655.5</ele>
        <time>2022-07-03T08:42:03.000Z</time>
      </trkpt>
      <trkpt lat="45.25241" lon="6.48351">
        <ele>1657.1</ele>
        <time>2022-07-03T08:42:11.000Z</time>
      </trkpt>
      <trkpt lat="45.25252" lon="6.48353">
        <ele>1658</ele>
        <time>2022-07-03T08:42:19.000Z</time>
      </trkpt>
      <trkpt lat="45.25262" lon="6.48352">
        <ele>1658.4</ele>
        <time>2022-07-03T08:42:27.000Z</time>
      </trkpt>
      <trkpt lat="45.25273" lon="6.48353">
        <ele>1659</ele>
        <time>2022-07-03T08:42:35.000Z</time>
      </trkpt>
      <trkpt lat="45.25283" lon="6.48357">
        <ele>1659.9</ele>
        <time>2022-07-03T08:42:43.000Z</time>
      </trkpt>
      <trkpt lat="45.25293" lon="6.48364">
        <ele>1660.3</ele>
        <time>2022-07-03T08:42:51.000Z</time>
      </trkpt>
      <trkpt lat="45.25303" lon="6.48372">
        <ele>1660.7</ele>
        <time>2022-07-03T08:42:59.000Z</time>
      </trkpt>
      <trkpt lat="45.2531" lon="6.48382">
        <ele>1661.8</ele>
        <time>2022-07-03T08:43:07.000Z</time>
      </trkpt>
      <trkpt lat="45.25316" lon="6.48393">
        <ele>1663.4</ele>
        <time>2022-07-03T08:43:15.000Z</time>
      </trkpt>
      <trkpt lat="45.25323" lon="6.48402">
        <ele>1663.9</ele>
        <time>2022-07-03T08:43:22.000Z</time>
      </trkpt>
      <trkpt lat="45.25333" lon="6.48413">
        <ele>1663.8</ele>
        <time>2022-07-03T08:43:30.000Z</time>
      </trkpt>
      <trkpt lat="45.25342" lon="6.48418">
        <ele>1664.7</ele>
        <time>2022-07-03T08:43:36.000Z</time>
      </trkpt>
      <trkpt lat="45.25352" lon="6.48419">
        <ele>1665.7</ele>
        <time>2022-07-03T08:43:42.000Z</time>
      </trkpt>
      <trkpt lat="45.25363" lon="6.4842">
        <ele>1666.8</ele>
        <time>2022-07-03T08:43:50.000Z</time>
      </trkpt>
      <trkpt lat="45.25374" lon="6.48418">
        <ele>1666.9</ele>
        <time>2022-07-03T08:43:58.000Z</time>
      </trkpt>
      <trkpt lat="45.25383" lon="6.48426">
        <ele>1670.3</ele>
        <time>2022-07-03T08:44:42.000Z</time>
      </trkpt>
      <trkpt lat="45.25393" lon="6.48427">
        <ele>1672.2</ele>
        <time>2022-07-03T08:44:50.000Z</time>
      </trkpt>
      <trkpt lat="45.25402" lon="6.48425">
        <ele>1671.6</ele>
        <time>2022-07-03T08:44:56.000Z</time>
      </trkpt>
      <trkpt lat="45.25413" lon="6.48425">
        <ele>1671.8</ele>
        <time>2022-07-03T08:45:04.000Z</time>
      </trkpt>
      <trkpt lat="45.25422" lon="6.48431">
        <ele>1674.1</ele>
        <time>2022-07-03T08:45:12.000Z</time>
      </trkpt>
      <trkpt lat="45.25433" lon="6.48438">
        <ele>1676.9</ele>
        <time>2022-07-03T08:45:20.000Z</time>
      </trkpt>
      <trkpt lat="45.25442" lon="6.48443">
        <ele>1678.5</ele>
        <time>2022-07-03T08:45:28.000Z</time>
      </trkpt>
      <trkpt lat="45.25452" lon="6.48444">
        <ele>1680.3</ele>
        <time>2022-07-03T08:45:36.000Z</time>
      </trkpt>
      <trkpt lat="45.25461" lon="6.48442">
        <ele>1681.6</ele>
        <time>2022-07-03T08:45:44.000Z</time>
      </trkpt>
      <trkpt lat="45.25471" lon="6.4844">
        <ele>1683</ele>
        <time>2022-07-03T08:45:54.000Z</time>
      </trkpt>
      <trkpt lat="45.25482" lon="6.48438">
        <ele>1685.2</ele>
        <time>2022-07-03T08:46:02.000Z</time>
      </trkpt>
      <trkpt lat="45.25492" lon="6.48438">
        <ele>1688.3</ele>
        <time>2022-07-03T08:46:26.000Z</time>
      </trkpt>
      <trkpt lat="45.25501" lon="6.48435">
        <ele>1689.4</ele>
        <time>2022-07-03T08:46:38.000Z</time>
      </trkpt>
      <trkpt lat="45.2551" lon="6.48431">
        <ele>1690.1</ele>
        <time>2022-07-03T08:46:50.000Z</time>
      </trkpt>
      <trkpt lat="45.25521" lon="6.48433">
        <ele>1693.3</ele>
        <time>2022-07-03T08:47:04.000Z</time>
      </trkpt>
      <trkpt lat="45.2553" lon="6.48432">
        <ele>1695.6</ele>
        <time>2022-07-03T08:47:18.000Z</time>
      </trkpt>
      <trkpt lat="45.2554" lon="6.48435">
        <ele>1698.6</ele>
        <time>2022-07-03T08:47:32.000Z</time>
      </trkpt>
      <trkpt lat="45.25549" lon="6.48435">
        <ele>1700.5</ele>
        <time>2022-07-03T08:47:46.000Z</time>
      </trkpt>
      <trkpt lat="45.25559" lon="6.4843">
        <ele>1700.4</ele>
        <time>2022-07-03T08:47:58.000Z</time>
      </trkpt>
      <trkpt lat="45.2557" lon="6.48427">
        <ele>1700.6</ele>
        <time>2022-07-03T08:48:16.000Z</time>
      </trkpt>
      <trkpt lat="45.25579" lon="6.48429">
        <ele>1702.7</ele>
        <time>2022-07-03T08:48:28.000Z</time>
      </trkpt>
      <trkpt lat="45.25589" lon="6.48426">
        <ele>1703.8</ele>
        <time>2022-07-03T08:48:42.000Z</time>
      </trkpt>
      <trkpt lat="45.25599" lon="6.48422">
        <ele>1704.8</ele>
        <time>2022-07-03T08:48:53.000Z</time>
      </trkpt>
      <trkpt lat="45.25607" lon="6.48417">
        <ele>1705.3</ele>
        <time>2022-07-03T08:49:06.000Z</time>
      </trkpt>
      <trkpt lat="45.25616" lon="6.48411">
        <ele>1705.4</ele>
        <time>2022-07-03T08:49:20.000Z</time>
      </trkpt>
      <trkpt lat="45.25625" lon="6.48406">
        <ele>1706.3</ele>
        <time>2022-07-03T08:49:34.000Z</time>
      </trkpt>
      <trkpt lat="45.2564" lon="6.48401">
        <ele>1708.5</ele>
        <time>2022-07-03T08:49:51.000Z</time>
      </trkpt>
      <trkpt lat="45.25646" lon="6.48414">
        <ele>1712.9</ele>
        <time>2022-07-03T08:50:16.000Z</time>
      </trkpt>
      <trkpt lat="45.25653" lon="6.48421">
        <ele>1716.5</ele>
        <time>2022-07-03T08:50:37.000Z</time>
      </trkpt>
      <trkpt lat="45.25662" lon="6.48417">
        <ele>1716.4</ele>
        <time>2022-07-03T08:50:51.000Z</time>
      </trkpt>
      <trkpt lat="45.25673" lon="6.48417">
        <ele>1718.8</ele>
        <time>2022-07-03T08:51:05.000Z</time>
      </trkpt>
      <trkpt lat="45.25682" lon="6.48418">
        <ele>1722.4</ele>
        <time>2022-07-03T08:51:39.000Z</time>
      </trkpt>
      <trkpt lat="45.25692" lon="6.48411">
        <ele>1723.2</ele>
        <time>2022-07-03T08:52:03.000Z</time>
      </trkpt>
      <trkpt lat="45.25702" lon="6.48404">
        <ele>1725.6</ele>
        <time>2022-07-03T08:52:15.000Z</time>
      </trkpt>
      <trkpt lat="45.25711" lon="6.48401">
        <ele>1729.6</ele>
        <time>2022-07-03T08:52:27.000Z</time>
      </trkpt>
      <trkpt lat="45.25708" lon="6.48385">
        <ele>1725.7</ele>
        <time>2022-07-03T08:52:43.000Z</time>
      </trkpt>
      <trkpt lat="45.25707" lon="6.48366">
        <ele>1725.3</ele>
        <time>2022-07-03T08:52:47.000Z</time>
      </trkpt>
      <trkpt lat="45.2571" lon="6.48351">
        <ele>1727.9</ele>
        <time>2022-07-03T08:52:51.000Z</time>
      </trkpt>
      <trkpt lat="45.25712" lon="6.48336">
        <ele>1730.7</ele>
        <time>2022-07-03T08:52:57.000Z</time>
      </trkpt>
      <trkpt lat="45.25712" lon="6.48321">
        <ele>1731.7</ele>
        <time>2022-07-03T08:53:03.000Z</time>
      </trkpt>
      <trkpt lat="45.25709" lon="6.48306">
        <ele>1730.4</ele>
        <time>2022-07-03T08:53:09.000Z</time>
      </trkpt>
      <trkpt lat="45.25717" lon="6.48297">
        <ele>1731.9</ele>
        <time>2022-07-03T08:53:25.000Z</time>
      </trkpt>
      <trkpt lat="45.25727" lon="6.48296">
        <ele>1735.5</ele>
        <time>2022-07-03T08:53:33.000Z</time>
      </trkpt>
      <trkpt lat="45.25736" lon="6.48291">
        <ele>1737.1</ele>
        <time>2022-07-03T08:53:39.000Z</time>
      </trkpt>
      <trkpt lat="45.25739" lon="6.48277">
        <ele>1734.3</ele>
        <time>2022-07-03T08:53:45.000Z</time>
      </trkpt>
      <trkpt lat="45.25744" lon="6.48266">
        <ele>1733.4</ele>
        <time>2022-07-03T08:53:57.000Z</time>
      </trkpt>
      <trkpt lat="45.2575" lon="6.48256">
        <ele>1735.8</ele>
        <time>2022-07-03T08:54:25.000Z</time>
      </trkpt>
      <trkpt lat="45.2576" lon="6.48249">
        <ele>1739.2</ele>
        <time>2022-07-03T08:55:17.000Z</time>
      </trkpt>
      <trkpt lat="45.2577" lon="6.48243">
        <ele>1743.7</ele>
        <time>2022-07-03T08:55:31.000Z</time>
      </trkpt>
      <trkpt lat="45.25775" lon="6.48232">
        <ele>1745.9</ele>
        <time>2022-07-03T08:56:06.000Z</time>
      </trkpt>
      <trkpt lat="45.25781" lon="6.48222">
        <ele>1747.6</ele>
        <time>2022-07-03T08:56:23.000Z</time>
      </trkpt>
      <trkpt lat="45.25789" lon="6.48214">
        <ele>1748.8</ele>
        <time>2022-07-03T08:56:33.000Z</time>
      </trkpt>
      <trkpt lat="45.25797" lon="6.48206">
        <ele>1750.3</ele>
        <time>2022-07-03T08:56:45.000Z</time>
      </trkpt>
      <trkpt lat="45.25805" lon="6.48213">
        <ele>1752.5</ele>
        <time>2022-07-03T08:56:57.000Z</time>
      </trkpt>
      <trkpt lat="45.25815" lon="6.48217">
        <ele>1753.8</ele>
        <time>2022-07-03T08:57:09.000Z</time>
      </trkpt>
      <trkpt lat="45.25823" lon="6.48208">
        <ele>1754.1</ele>
        <time>2022-07-03T08:57:19.000Z</time>
      </trkpt>
      <trkpt lat="45.25833" lon="6.48203">
        <ele>1754.2</ele>
        <time>2022-07-03T08:57:29.000Z</time>
      </trkpt>
      <trkpt lat="45.25842" lon="6.48197">
        <ele>1756.4</ele>
        <time>2022-07-03T08:57:41.000Z</time>
      </trkpt>
      <trkpt lat="45.25852" lon="6.4819">
        <ele>1758.5</ele>
        <time>2022-07-03T08:57:55.000Z</time>
      </trkpt>
      <trkpt lat="45.25858" lon="6.48179">
        <ele>1758.4</ele>
        <time>2022-07-03T08:58:07.000Z</time>
      </trkpt>
      <trkpt lat="45.25864" lon="6.48167">
        <ele>1757.5</ele>
        <time>2022-07-03T08:58:15.000Z</time>
      </trkpt>
      <trkpt lat="45.25872" lon="6.48161">
        <ele>1759.5</ele>
        <time>2022-07-03T08:58:43.000Z</time>
      </trkpt>
      <trkpt lat="45.25882" lon="6.48156">
        <ele>1762.8</ele>
        <time>2022-07-03T08:59:04.000Z</time>
      </trkpt>
      <trkpt lat="45.2589" lon="6.48148">
        <ele>1764.9</ele>
        <time>2022-07-03T08:59:16.000Z</time>
      </trkpt>
      <trkpt lat="45.259" lon="6.48141">
        <ele>1767.9</ele>
        <time>2022-07-03T08:59:33.000Z</time>
      </trkpt>
      <trkpt lat="45.25908" lon="6.48135">
        <ele>1770.7</ele>
        <time>2022-07-03T09:01:12.000Z</time>
      </trkpt>
      <trkpt lat="45.25916" lon="6.48128">
        <ele>1772.8</ele>
        <time>2022-07-03T09:01:26.000Z</time>
      </trkpt>
      <trkpt lat="45.25924" lon="6.48122">
        <ele>1776.8</ele>
        <time>2022-07-03T09:01:46.000Z</time>
      </trkpt>
      <trkpt lat="45.2593" lon="6.4811">
        <ele>1778.7</ele>
        <time>2022-07-03T09:02:18.000Z</time>
      </trkpt>
      <trkpt lat="45.25937" lon="6.48101">
        <ele>1781.4</ele>
        <time>2022-07-03T09:02:40.000Z</time>
      </trkpt>
      <trkpt lat="45.25946" lon="6.48097">
        <ele>1786</ele>
        <time>2022-07-03T09:02:58.000Z</time>
      </trkpt>
      <trkpt lat="45.25954" lon="6.48091">
        <ele>1786.5</ele>
        <time>2022-07-03T09:03:11.000Z</time>
      </trkpt>
      <trkpt lat="45.25957" lon="6.48103">
        <ele>1789.5</ele>
        <time>2022-07-03T09:04:02.000Z</time>
      </trkpt>
      <trkpt lat="45.25967" lon="6.48108">
        <ele>1792.2</ele>
        <time>2022-07-03T09:04:18.000Z</time>
      </trkpt>
      <trkpt lat="45.25977" lon="6.48108">
        <ele>1793.6</ele>
        <time>2022-07-03T09:04:30.000Z</time>
      </trkpt>
      <trkpt lat="45.25985" lon="6.48115">
        <ele>1795.4</ele>
        <time>2022-07-03T09:04:52.000Z</time>
      </trkpt>
      <trkpt lat="45.25987" lon="6.48127">
        <ele>1797.5</ele>
        <time>2022-07-03T09:05:08.000Z</time>
      </trkpt>
      <trkpt lat="45.25991" lon="6.48139">
        <ele>1799.1</ele>
        <time>2022-07-03T09:05:18.000Z</time>
      </trkpt>
      <trkpt lat="45.25996" lon="6.48153">
        <ele>1800.6</ele>
        <time>2022-07-03T09:05:42.000Z</time>
      </trkpt>
      <trkpt lat="45.25998" lon="6.48165">
        <ele>1802</ele>
        <time>2022-07-03T09:05:54.000Z</time>
      </trkpt>
      <trkpt lat="45.26006" lon="6.48171">
        <ele>1804.7</ele>
        <time>2022-07-03T09:06:18.000Z</time>
      </trkpt>
      <trkpt lat="45.25996" lon="6.48173">
        <ele>1803.9</ele>
        <time>2022-07-03T09:06:36.000Z</time>
      </trkpt>
      <trkpt lat="45.25987" lon="6.4818">
        <ele>1806.5</ele>
        <time>2022-07-03T09:06:54.000Z</time>
      </trkpt>
      <trkpt lat="45.25978" lon="6.48181">
        <ele>1808.3</ele>
        <time>2022-07-03T09:07:10.000Z</time>
      </trkpt>
      <trkpt lat="45.25971" lon="6.4819">
        <ele>1811.8</ele>
        <time>2022-07-03T09:07:30.000Z</time>
      </trkpt>
      <trkpt lat="45.25961" lon="6.48196">
        <ele>1813.5</ele>
        <time>2022-07-03T09:08:26.000Z</time>
      </trkpt>
      <trkpt lat="45.25957" lon="6.48209">
        <ele>1816.1</ele>
        <time>2022-07-03T09:08:38.000Z</time>
      </trkpt>
      <trkpt lat="45.25954" lon="6.48221">
        <ele>1818.6</ele>
        <time>2022-07-03T09:08:52.000Z</time>
      </trkpt>
      <trkpt lat="45.25954" lon="6.48235">
        <ele>1821.1</ele>
        <time>2022-07-03T09:09:06.000Z</time>
      </trkpt>
      <trkpt lat="45.25947" lon="6.48242">
        <ele>1821.7</ele>
        <time>2022-07-03T09:09:24.000Z</time>
      </trkpt>
      <trkpt lat="45.25941" lon="6.48254">
        <ele>1822</ele>
        <time>2022-07-03T09:09:32.000Z</time>
      </trkpt>
      <trkpt lat="45.25934" lon="6.48262">
        <ele>1820.3</ele>
        <time>2022-07-03T09:09:42.000Z</time>
      </trkpt>
      <trkpt lat="45.25929" lon="6.48274">
        <ele>1820.8</ele>
        <time>2022-07-03T09:10:00.000Z</time>
      </trkpt>
      <trkpt lat="45.25927" lon="6.48287">
        <ele>1824.5</ele>
        <time>2022-07-03T09:10:08.000Z</time>
      </trkpt>
      <trkpt lat="45.25921" lon="6.48301">
        <ele>1828</ele>
        <time>2022-07-03T09:10:22.000Z</time>
      </trkpt>
      <trkpt lat="45.25918" lon="6.48316">
        <ele>1831.7</ele>
        <time>2022-07-03T09:10:32.000Z</time>
      </trkpt>
      <trkpt lat="45.25915" lon="6.48329">
        <ele>1833.1</ele>
        <time>2022-07-03T09:10:50.000Z</time>
      </trkpt>
      <trkpt lat="45.25915" lon="6.48343">
        <ele>1834.7</ele>
        <time>2022-07-03T09:11:12.000Z</time>
      </trkpt>
      <trkpt lat="45.25915" lon="6.4836">
        <ele>1835.4</ele>
        <time>2022-07-03T09:11:21.000Z</time>
      </trkpt>
      <trkpt lat="45.25912" lon="6.48373">
        <ele>1836.8</ele>
        <time>2022-07-03T09:11:39.000Z</time>
      </trkpt>
      <trkpt lat="45.25907" lon="6.48385">
        <ele>1837.3</ele>
        <time>2022-07-03T09:11:54.000Z</time>
      </trkpt>
      <trkpt lat="45.25901" lon="6.48397">
        <ele>1837.2</ele>
        <time>2022-07-03T09:12:08.000Z</time>
      </trkpt>
      <trkpt lat="45.25905" lon="6.48409">
        <ele>1840.9</ele>
        <time>2022-07-03T09:12:16.000Z</time>
      </trkpt>
      <trkpt lat="45.25905" lon="6.48424">
        <ele>1844.4</ele>
        <time>2022-07-03T09:12:30.000Z</time>
      </trkpt>
      <trkpt lat="45.25902" lon="6.48438">
        <ele>1846.6</ele>
        <time>2022-07-03T09:12:46.000Z</time>
      </trkpt>
      <trkpt lat="45.25898" lon="6.4845">
        <ele>1847.8</ele>
        <time>2022-07-03T09:13:02.000Z</time>
      </trkpt>
      <trkpt lat="45.25893" lon="6.4846">
        <ele>1847.5</ele>
        <time>2022-07-03T09:13:38.000Z</time>
      </trkpt>
      <trkpt lat="45.25893" lon="6.48473">
        <ele>1850.8</ele>
        <time>2022-07-03T09:13:50.000Z</time>
      </trkpt>
      <trkpt lat="45.25887" lon="6.48484">
        <ele>1848.7</ele>
        <time>2022-07-03T09:14:12.000Z</time>
      </trkpt>
      <trkpt lat="45.25888" lon="6.48497">
        <ele>1850.7</ele>
        <time>2022-07-03T09:14:20.000Z</time>
      </trkpt>
      <trkpt lat="45.25887" lon="6.48512">
        <ele>1853.3</ele>
        <time>2022-07-03T09:14:32.000Z</time>
      </trkpt>
      <trkpt lat="45.25886" lon="6.48526">
        <ele>1855.2</ele>
        <time>2022-07-03T09:14:46.000Z</time>
      </trkpt>
      <trkpt lat="45.25893" lon="6.48535">
        <ele>1860.4</ele>
        <time>2022-07-03T09:14:58.000Z</time>
      </trkpt>
      <trkpt lat="45.25896" lon="6.48548">
        <ele>1862.7</ele>
        <time>2022-07-03T09:15:50.000Z</time>
      </trkpt>
      <trkpt lat="45.259" lon="6.4856">
        <ele>1865.1</ele>
        <time>2022-07-03T09:16:10.000Z</time>
      </trkpt>
      <trkpt lat="45.25909" lon="6.48582">
        <ele>1869</ele>
        <time>2022-07-03T09:16:29.000Z</time>
      </trkpt>
      <trkpt lat="45.25913" lon="6.48595">
        <ele>1872.5</ele>
        <time>2022-07-03T09:16:36.000Z</time>
      </trkpt>
      <trkpt lat="45.25892" lon="6.48569">
        <ele>1864.4</ele>
        <time>2022-07-03T09:20:44.000Z</time>
      </trkpt>
      <trkpt lat="45.25898" lon="6.48578">
        <ele>1864.1</ele>
        <time>2022-07-03T09:20:48.000Z</time>
      </trkpt>
      <trkpt lat="45.25906" lon="6.48585">
        <ele>1868.6</ele>
        <time>2022-07-03T09:20:58.000Z</time>
      </trkpt>
      <trkpt lat="45.25898" lon="6.4858">
        <ele>1864.4</ele>
        <time>2022-07-03T09:21:54.000Z</time>
      </trkpt>
      <trkpt lat="45.25905" lon="6.48588">
        <ele>1867.7</ele>
        <time>2022-07-03T09:22:50.000Z</time>
      </trkpt>
      <trkpt lat="45.25911" lon="6.48601">
        <ele>1871.7</ele>
        <time>2022-07-03T09:22:56.000Z</time>
      </trkpt>
      <trkpt lat="45.259" lon="6.48611">
        <ele>1869.5</ele>
        <time>2022-07-03T09:23:00.000Z</time>
      </trkpt>
      <trkpt lat="45.2591" lon="6.48614">
        <ele>1872.6</ele>
        <time>2022-07-03T09:23:10.000Z</time>
      </trkpt>
      <trkpt lat="45.25909" lon="6.486">
        <ele>1871.5</ele>
        <time>2022-07-03T09:23:22.000Z</time>
      </trkpt>
      <trkpt lat="45.25915" lon="6.48584">
        <ele>1873.4</ele>
        <time>2022-07-03T09:25:01.000Z</time>
      </trkpt>
      <trkpt lat="45.25911" lon="6.48567">
        <ele>1871</ele>
        <time>2022-07-03T09:25:05.000Z</time>
      </trkpt>
      <trkpt lat="45.25907" lon="6.48551">
        <ele>1869</ele>
        <time>2022-07-03T09:25:09.000Z</time>
      </trkpt>
      <trkpt lat="45.25905" lon="6.48533">
        <ele>1867.2</ele>
        <time>2022-07-03T09:25:13.000Z</time>
      </trkpt>
      <trkpt lat="45.25906" lon="6.48517">
        <ele>1865.8</ele>
        <time>2022-07-03T09:25:17.000Z</time>
      </trkpt>
      <trkpt lat="45.25913" lon="6.48503">
        <ele>1866.6</ele>
        <time>2022-07-03T09:25:23.000Z</time>
      </trkpt>
      <trkpt lat="45.25921" lon="6.48491">
        <ele>1868.5</ele>
        <time>2022-07-03T09:25:29.000Z</time>
      </trkpt>
      <trkpt lat="45.25932" lon="6.48479">
        <ele>1872.2</ele>
        <time>2022-07-03T09:25:35.000Z</time>
      </trkpt>
      <trkpt lat="45.25938" lon="6.48466">
        <ele>1873</ele>
        <time>2022-07-03T09:25:39.000Z</time>
      </trkpt>
      <trkpt lat="45.25937" lon="6.48448">
        <ele>1869.9</ele>
        <time>2022-07-03T09:25:43.000Z</time>
      </trkpt>
      <trkpt lat="45.25943" lon="6.48436">
        <ele>1869.8</ele>
        <time>2022-07-03T09:25:47.000Z</time>
      </trkpt>
      <trkpt lat="45.25945" lon="6.48418">
        <ele>1866.8</ele>
        <time>2022-07-03T09:25:51.000Z</time>
      </trkpt>
      <trkpt lat="45.25949" lon="6.48394">
        <ele>1863.8</ele>
        <time>2022-07-03T09:25:55.000Z</time>
      </trkpt>
      <trkpt lat="45.2596" lon="6.48374">
        <ele>1864.4</ele>
        <time>2022-07-03T09:25:59.000Z</time>
      </trkpt>
      <trkpt lat="45.25967" lon="6.48366">
        <ele>1866.4</ele>
        <time>2022-07-03T09:26:03.000Z</time>
      </trkpt>
      <trkpt lat="45.25974" lon="6.48355">
        <ele>1866.8</ele>
        <time>2022-07-03T09:26:09.000Z</time>
      </trkpt>
      <trkpt lat="45.25985" lon="6.4835">
        <ele>1867.9</ele>
        <time>2022-07-03T09:26:15.000Z</time>
      </trkpt>
      <trkpt lat="45.25997" lon="6.48344">
        <ele>1868.7</ele>
        <time>2022-07-03T09:26:19.000Z</time>
      </trkpt>
      <trkpt lat="45.2601" lon="6.48344">
        <ele>1870.6</ele>
        <time>2022-07-03T09:26:25.000Z</time>
      </trkpt>
      <trkpt lat="45.26024" lon="6.48339">
        <ele>1870.4</ele>
        <time>2022-07-03T09:26:29.000Z</time>
      </trkpt>
      <trkpt lat="45.26035" lon="6.48338">
        <ele>1869.9</ele>
        <time>2022-07-03T09:26:33.000Z</time>
      </trkpt>
      <trkpt lat="45.26046" lon="6.48333">
        <ele>1866.5</ele>
        <time>2022-07-03T09:26:37.000Z</time>
      </trkpt>
      <trkpt lat="45.26055" lon="6.48329">
        <ele>1863.2</ele>
        <time>2022-07-03T09:26:41.000Z</time>
      </trkpt>
      <trkpt lat="45.26065" lon="6.48323">
        <ele>1859.3</ele>
        <time>2022-07-03T09:26:45.000Z</time>
      </trkpt>
      <trkpt lat="45.26078" lon="6.48319">
        <ele>1856</ele>
        <time>2022-07-03T09:26:49.000Z</time>
      </trkpt>
      <trkpt lat="45.26088" lon="6.48319">
        <ele>1855.6</ele>
        <time>2022-07-03T09:26:51.000Z</time>
      </trkpt>
      <trkpt lat="45.26101" lon="6.48316">
        <ele>1856.1</ele>
        <time>2022-07-03T09:26:55.000Z</time>
      </trkpt>
      <trkpt lat="45.26113" lon="6.4832">
        <ele>1858</ele>
        <time>2022-07-03T09:27:01.000Z</time>
      </trkpt>
      <trkpt lat="45.26123" lon="6.48319">
        <ele>1858.7</ele>
        <time>2022-07-03T09:27:17.000Z</time>
      </trkpt>
      <trkpt lat="45.26133" lon="6.48322">
        <ele>1859.8</ele>
        <time>2022-07-03T09:27:23.000Z</time>
      </trkpt>
      <trkpt lat="45.26142" lon="6.48324">
        <ele>1860.6</ele>
        <time>2022-07-03T09:27:29.000Z</time>
      </trkpt>
      <trkpt lat="45.26154" lon="6.4833">
        <ele>1861</ele>
        <time>2022-07-03T09:27:53.000Z</time>
      </trkpt>
      <trkpt lat="45.26164" lon="6.48333">
        <ele>1861.1</ele>
        <time>2022-07-03T09:27:59.000Z</time>
      </trkpt>
      <trkpt lat="45.26176" lon="6.48337">
        <ele>1860.7</ele>
        <time>2022-07-03T09:28:05.000Z</time>
      </trkpt>
      <trkpt lat="45.26188" lon="6.4835">
        <ele>1860.8</ele>
        <time>2022-07-03T09:28:09.000Z</time>
      </trkpt>
      <trkpt lat="45.262" lon="6.48347">
        <ele>1860.4</ele>
        <time>2022-07-03T09:28:15.000Z</time>
      </trkpt>
      <trkpt lat="45.26211" lon="6.48343">
        <ele>1860.6</ele>
        <time>2022-07-03T09:28:21.000Z</time>
      </trkpt>
      <trkpt lat="45.26221" lon="6.48339">
        <ele>1860.7</ele>
        <time>2022-07-03T09:28:27.000Z</time>
      </trkpt>
      <trkpt lat="45.26233" lon="6.4834">
        <ele>1861.9</ele>
        <time>2022-07-03T09:28:35.000Z</time>
      </trkpt>
      <trkpt lat="45.26242" lon="6.48341">
        <ele>1863.2</ele>
        <time>2022-07-03T09:28:41.000Z</time>
      </trkpt>
      <trkpt lat="45.26252" lon="6.48344">
        <ele>1864.3</ele>
        <time>2022-07-03T09:28:47.000Z</time>
      </trkpt>
      <trkpt lat="45.26262" lon="6.48347">
        <ele>1864.8</ele>
        <time>2022-07-03T09:28:55.000Z</time>
      </trkpt>
      <trkpt lat="45.26271" lon="6.48351">
        <ele>1865.3</ele>
        <time>2022-07-03T09:29:01.000Z</time>
      </trkpt>
      <trkpt lat="45.26281" lon="6.48354">
        <ele>1865.7</ele>
        <time>2022-07-03T09:29:07.000Z</time>
      </trkpt>
      <trkpt lat="45.26291" lon="6.48353">
        <ele>1865.7</ele>
        <time>2022-07-03T09:29:13.000Z</time>
      </trkpt>
      <trkpt lat="45.263" lon="6.48355">
        <ele>1866</ele>
        <time>2022-07-03T09:29:19.000Z</time>
      </trkpt>
      <trkpt lat="45.26311" lon="6.48357">
        <ele>1866.7</ele>
        <time>2022-07-03T09:29:25.000Z</time>
      </trkpt>
      <trkpt lat="45.2632" lon="6.48357">
        <ele>1867.3</ele>
        <time>2022-07-03T09:29:31.000Z</time>
      </trkpt>
      <trkpt lat="45.2633" lon="6.48346">
        <ele>1866.2</ele>
        <time>2022-07-03T09:29:39.000Z</time>
      </trkpt>
      <trkpt lat="45.26341" lon="6.48339">
        <ele>1865.8</ele>
        <time>2022-07-03T09:29:43.000Z</time>
      </trkpt>
      <trkpt lat="45.26349" lon="6.48328">
        <ele>1865.4</ele>
        <time>2022-07-03T09:29:49.000Z</time>
      </trkpt>
      <trkpt lat="45.26353" lon="6.48314">
        <ele>1865.1</ele>
        <time>2022-07-03T09:29:55.000Z</time>
      </trkpt>
      <trkpt lat="45.26359" lon="6.48299">
        <ele>1865.1</ele>
        <time>2022-07-03T09:30:01.000Z</time>
      </trkpt>
      <trkpt lat="45.26363" lon="6.48286">
        <ele>1865.2</ele>
        <time>2022-07-03T09:30:07.000Z</time>
      </trkpt>
      <trkpt lat="45.26366" lon="6.48274">
        <ele>1864.9</ele>
        <time>2022-07-03T09:30:13.000Z</time>
      </trkpt>
      <trkpt lat="45.2637" lon="6.4826">
        <ele>1864.1</ele>
        <time>2022-07-03T09:30:19.000Z</time>
      </trkpt>
      <trkpt lat="45.26377" lon="6.48246">
        <ele>1863</ele>
        <time>2022-07-03T09:30:27.000Z</time>
      </trkpt>
      <trkpt lat="45.26387" lon="6.48241">
        <ele>1862.9</ele>
        <time>2022-07-03T09:30:31.000Z</time>
      </trkpt>
      <trkpt lat="45.26396" lon="6.48232">
        <ele>1860.7</ele>
        <time>2022-07-03T09:30:39.000Z</time>
      </trkpt>
      <trkpt lat="45.26405" lon="6.48233">
        <ele>1860.4</ele>
        <time>2022-07-03T09:30:45.000Z</time>
      </trkpt>
      <trkpt lat="45.26412" lon="6.48242">
        <ele>1863.9</ele>
        <time>2022-07-03T09:31:01.000Z</time>
      </trkpt>
      <trkpt lat="45.26426" lon="6.48242">
        <ele>1863.8</ele>
        <time>2022-07-03T09:31:13.000Z</time>
      </trkpt>
      <trkpt lat="45.2644" lon="6.4824">
        <ele>1862.4</ele>
        <time>2022-07-03T09:31:17.000Z</time>
      </trkpt>
      <trkpt lat="45.26449" lon="6.48237">
        <ele>1861.2</ele>
        <time>2022-07-03T09:31:23.000Z</time>
      </trkpt>
      <trkpt lat="45.2646" lon="6.48231">
        <ele>1860.3</ele>
        <time>2022-07-03T09:31:31.000Z</time>
      </trkpt>
      <trkpt lat="45.26471" lon="6.48227">
        <ele>1860</ele>
        <time>2022-07-03T09:31:37.000Z</time>
      </trkpt>
      <trkpt lat="45.26484" lon="6.48227">
        <ele>1859.9</ele>
        <time>2022-07-03T09:31:43.000Z</time>
      </trkpt>
      <trkpt lat="45.26497" lon="6.48224">
        <ele>1859.1</ele>
        <time>2022-07-03T09:31:49.000Z</time>
      </trkpt>
      <trkpt lat="45.26507" lon="6.48223">
        <ele>1859.6</ele>
        <time>2022-07-03T09:31:53.000Z</time>
      </trkpt>
      <trkpt lat="45.26515" lon="6.48218">
        <ele>1860.2</ele>
        <time>2022-07-03T09:31:59.000Z</time>
      </trkpt>
      <trkpt lat="45.26525" lon="6.4821">
        <ele>1859.4</ele>
        <time>2022-07-03T09:32:03.000Z</time>
      </trkpt>
      <trkpt lat="45.26533" lon="6.48205">
        <ele>1859.1</ele>
        <time>2022-07-03T09:32:07.000Z</time>
      </trkpt>
      <trkpt lat="45.26544" lon="6.48205">
        <ele>1860.1</ele>
        <time>2022-07-03T09:32:15.000Z</time>
      </trkpt>
      <trkpt lat="45.26553" lon="6.48194">
        <ele>1859.2</ele>
        <time>2022-07-03T09:32:45.000Z</time>
      </trkpt>
      <trkpt lat="45.26561" lon="6.48185">
        <ele>1859.7</ele>
        <time>2022-07-03T09:32:51.000Z</time>
      </trkpt>
      <trkpt lat="45.26567" lon="6.48171">
        <ele>1858.8</ele>
        <time>2022-07-03T09:32:59.000Z</time>
      </trkpt>
      <trkpt lat="45.26577" lon="6.48164">
        <ele>1859.2</ele>
        <time>2022-07-03T09:33:05.000Z</time>
      </trkpt>
      <trkpt lat="45.26586" lon="6.48164">
        <ele>1860.5</ele>
        <time>2022-07-03T09:33:09.000Z</time>
      </trkpt>
      <trkpt lat="45.26596" lon="6.48162">
        <ele>1861</ele>
        <time>2022-07-03T09:33:15.000Z</time>
      </trkpt>
      <trkpt lat="45.26607" lon="6.48156">
        <ele>1861.1</ele>
        <time>2022-07-03T09:33:23.000Z</time>
      </trkpt>
      <trkpt lat="45.26615" lon="6.48142">
        <ele>1860</ele>
        <time>2022-07-03T09:33:31.000Z</time>
      </trkpt>
      <trkpt lat="45.26624" lon="6.48132">
        <ele>1859.5</ele>
        <time>2022-07-03T09:33:35.000Z</time>
      </trkpt>
      <trkpt lat="45.26633" lon="6.48127">
        <ele>1860.1</ele>
        <time>2022-07-03T09:33:39.000Z</time>
      </trkpt>
      <trkpt lat="45.26643" lon="6.48121">
        <ele>1861.4</ele>
        <time>2022-07-03T09:33:45.000Z</time>
      </trkpt>
      <trkpt lat="45.26653" lon="6.48112">
        <ele>1862.9</ele>
        <time>2022-07-03T09:33:53.000Z</time>
      </trkpt>
      <trkpt lat="45.26662" lon="6.48103">
        <ele>1863.6</ele>
        <time>2022-07-03T09:34:01.000Z</time>
      </trkpt>
      <trkpt lat="45.26673" lon="6.48103">
        <ele>1864.5</ele>
        <time>2022-07-03T09:34:09.000Z</time>
      </trkpt>
      <trkpt lat="45.26682" lon="6.48107">
        <ele>1864.6</ele>
        <time>2022-07-03T09:34:17.000Z</time>
      </trkpt>
      <trkpt lat="45.26692" lon="6.48109">
        <ele>1864.7</ele>
        <time>2022-07-03T09:34:25.000Z</time>
      </trkpt>
      <trkpt lat="45.26702" lon="6.48107">
        <ele>1865.6</ele>
        <time>2022-07-03T09:34:59.000Z</time>
      </trkpt>
      <trkpt lat="45.26709" lon="6.481">
        <ele>1865.6</ele>
        <time>2022-07-03T09:35:13.000Z</time>
      </trkpt>
      <trkpt lat="45.26716" lon="6.4809">
        <ele>1864.7</ele>
        <time>2022-07-03T09:35:23.000Z</time>
      </trkpt>
      <trkpt lat="45.26726" lon="6.48088">
        <ele>1865.4</ele>
        <time>2022-07-03T09:35:37.000Z</time>
      </trkpt>
      <trkpt lat="45.26738" lon="6.48085">
        <ele>1866.1</ele>
        <time>2022-07-03T09:35:49.000Z</time>
      </trkpt>
      <trkpt lat="45.26747" lon="6.48083">
        <ele>1866.5</ele>
        <time>2022-07-03T09:35:55.000Z</time>
      </trkpt>
      <trkpt lat="45.26756" lon="6.48081">
        <ele>1866.8</ele>
        <time>2022-07-03T09:36:01.000Z</time>
      </trkpt>
      <trkpt lat="45.26765" lon="6.48078">
        <ele>1866.8</ele>
        <time>2022-07-03T09:38:28.000Z</time>
      </trkpt>
      <trkpt lat="45.26778" lon="6.48078">
        <ele>1867.7</ele>
        <time>2022-07-03T09:38:34.000Z</time>
      </trkpt>
      <trkpt lat="45.26785" lon="6.4807">
        <ele>1867.9</ele>
        <time>2022-07-03T09:38:40.000Z</time>
      </trkpt>
      <trkpt lat="45.26791" lon="6.48059">
        <ele>1866.4</ele>
        <time>2022-07-03T09:38:46.000Z</time>
      </trkpt>
      <trkpt lat="45.26798" lon="6.48049">
        <ele>1863.1</ele>
        <time>2022-07-03T09:38:54.000Z</time>
      </trkpt>
      <trkpt lat="45.26789" lon="6.48042">
        <ele>1858.9</ele>
        <time>2022-07-03T09:39:00.000Z</time>
      </trkpt>
      <trkpt lat="45.26777" lon="6.48041">
        <ele>1856.5</ele>
        <time>2022-07-03T09:39:04.000Z</time>
      </trkpt>
      <trkpt lat="45.26789" lon="6.48035">
        <ele>1854.5</ele>
        <time>2022-07-03T09:39:16.000Z</time>
      </trkpt>
      <trkpt lat="45.26803" lon="6.48028">
        <ele>1853</ele>
        <time>2022-07-03T09:39:20.000Z</time>
      </trkpt>
      <trkpt lat="45.26815" lon="6.4803">
        <ele>1851.4</ele>
        <time>2022-07-03T09:39:24.000Z</time>
      </trkpt>
      <trkpt lat="45.26827" lon="6.48036">
        <ele>1850.6</ele>
        <time>2022-07-03T09:39:28.000Z</time>
      </trkpt>
      <trkpt lat="45.26843" lon="6.48046">
        <ele>1851.3</ele>
        <time>2022-07-03T09:39:32.000Z</time>
      </trkpt>
      <trkpt lat="45.26854" lon="6.4805">
        <ele>1851.5</ele>
        <time>2022-07-03T09:39:36.000Z</time>
      </trkpt>
      <trkpt lat="45.26864" lon="6.48046">
        <ele>1849.3</ele>
        <time>2022-07-03T09:39:40.000Z</time>
      </trkpt>
      <trkpt lat="45.26877" lon="6.48049">
        <ele>1849.9</ele>
        <time>2022-07-03T09:39:46.000Z</time>
      </trkpt>
      <trkpt lat="45.26889" lon="6.48043">
        <ele>1849.3</ele>
        <time>2022-07-03T09:39:52.000Z</time>
      </trkpt>
      <trkpt lat="45.26902" lon="6.4804">
        <ele>1848.1</ele>
        <time>2022-07-03T09:39:56.000Z</time>
      </trkpt>
      <trkpt lat="45.26916" lon="6.48038">
        <ele>1846.8</ele>
        <time>2022-07-03T09:40:00.000Z</time>
      </trkpt>
      <trkpt lat="45.26925" lon="6.4804">
        <ele>1847.7</ele>
        <time>2022-07-03T09:40:06.000Z</time>
      </trkpt>
      <trkpt lat="45.26934" lon="6.48047">
        <ele>1850.2</ele>
        <time>2022-07-03T09:40:22.000Z</time>
      </trkpt>
      <trkpt lat="45.26943" lon="6.48048">
        <ele>1851.7</ele>
        <time>2022-07-03T09:40:34.000Z</time>
      </trkpt>
      <trkpt lat="45.26953" lon="6.48039">
        <ele>1852.2</ele>
        <time>2022-07-03T09:40:50.000Z</time>
      </trkpt>
      <trkpt lat="45.2696" lon="6.48026">
        <ele>1850.5</ele>
        <time>2022-07-03T09:40:56.000Z</time>
      </trkpt>
      <trkpt lat="45.26968" lon="6.48019">
        <ele>1849.1</ele>
        <time>2022-07-03T09:41:02.000Z</time>
      </trkpt>
      <trkpt lat="45.26977" lon="6.48023">
        <ele>1852.5</ele>
        <time>2022-07-03T09:41:20.000Z</time>
      </trkpt>
      <trkpt lat="45.26986" lon="6.48021">
        <ele>1853.1</ele>
        <time>2022-07-03T09:41:30.000Z</time>
      </trkpt>
      <trkpt lat="45.26996" lon="6.48021">
        <ele>1854.7</ele>
        <time>2022-07-03T09:41:40.000Z</time>
      </trkpt>
      <trkpt lat="45.27005" lon="6.48018">
        <ele>1855.8</ele>
        <time>2022-07-03T09:41:54.000Z</time>
      </trkpt>
      <trkpt lat="45.27014" lon="6.48016">
        <ele>1858.7</ele>
        <time>2022-07-03T09:42:04.000Z</time>
      </trkpt>
      <trkpt lat="45.2702" lon="6.48007">
        <ele>1859.8</ele>
        <time>2022-07-03T09:42:16.000Z</time>
      </trkpt>
      <trkpt lat="45.27022" lon="6.47992">
        <ele>1857.5</ele>
        <time>2022-07-03T09:42:26.000Z</time>
      </trkpt>
      <trkpt lat="45.27031" lon="6.47985">
        <ele>1859.3</ele>
        <time>2022-07-03T09:42:44.000Z</time>
      </trkpt>
      <trkpt lat="45.27041" lon="6.47988">
        <ele>1861.7</ele>
        <time>2022-07-03T09:43:10.000Z</time>
      </trkpt>
      <trkpt lat="45.27051" lon="6.47984">
        <ele>1862.4</ele>
        <time>2022-07-03T09:43:16.000Z</time>
      </trkpt>
      <trkpt lat="45.27062" lon="6.47983">
        <ele>1864.1</ele>
        <time>2022-07-03T09:43:22.000Z</time>
      </trkpt>
      <trkpt lat="45.27074" lon="6.47983">
        <ele>1865.8</ele>
        <time>2022-07-03T09:43:28.000Z</time>
      </trkpt>
      <trkpt lat="45.27083" lon="6.47979">
        <ele>1866.7</ele>
        <time>2022-07-03T09:43:34.000Z</time>
      </trkpt>
      <trkpt lat="45.27091" lon="6.4797">
        <ele>1866.7</ele>
        <time>2022-07-03T09:43:40.000Z</time>
      </trkpt>
      <trkpt lat="45.27096" lon="6.47957">
        <ele>1866.9</ele>
        <time>2022-07-03T09:43:48.000Z</time>
      </trkpt>
      <trkpt lat="45.271" lon="6.47944">
        <ele>1866.7</ele>
        <time>2022-07-03T09:44:02.000Z</time>
      </trkpt>
      <trkpt lat="45.27096" lon="6.47931">
        <ele>1866.6</ele>
        <time>2022-07-03T09:44:22.000Z</time>
      </trkpt>
      <trkpt lat="45.27093" lon="6.47918">
        <ele>1866.8</ele>
        <time>2022-07-03T09:44:28.000Z</time>
      </trkpt>
      <trkpt lat="45.27099" lon="6.47903">
        <ele>1867.2</ele>
        <time>2022-07-03T09:44:32.000Z</time>
      </trkpt>
      <trkpt lat="45.27101" lon="6.47888">
        <ele>1866.8</ele>
        <time>2022-07-03T09:44:38.000Z</time>
      </trkpt>
      <trkpt lat="45.27102" lon="6.47874">
        <ele>1867.7</ele>
        <time>2022-07-03T09:44:44.000Z</time>
      </trkpt>
      <trkpt lat="45.27103" lon="6.47858">
        <ele>1868.7</ele>
        <time>2022-07-03T09:44:50.000Z</time>
      </trkpt>
      <trkpt lat="45.27106" lon="6.47846">
        <ele>1868.4</ele>
        <time>2022-07-03T09:44:56.000Z</time>
      </trkpt>
      <trkpt lat="45.27112" lon="6.47833">
        <ele>1868.3</ele>
        <time>2022-07-03T09:45:02.000Z</time>
      </trkpt>
      <trkpt lat="45.27119" lon="6.47821">
        <ele>1868</ele>
        <time>2022-07-03T09:45:08.000Z</time>
      </trkpt>
      <trkpt lat="45.27121" lon="6.47808">
        <ele>1865.6</ele>
        <time>2022-07-03T09:45:12.000Z</time>
      </trkpt>
      <trkpt lat="45.27125" lon="6.47792">
        <ele>1861.1</ele>
        <time>2022-07-03T09:45:18.000Z</time>
      </trkpt>
      <trkpt lat="45.27134" lon="6.47784">
        <ele>1859.7</ele>
        <time>2022-07-03T09:45:20.000Z</time>
      </trkpt>
      <trkpt lat="45.27144" lon="6.47777">
        <ele>1858.6</ele>
        <time>2022-07-03T09:45:24.000Z</time>
      </trkpt>
      <trkpt lat="45.27153" lon="6.47771">
        <ele>1858.9</ele>
        <time>2022-07-03T09:45:40.000Z</time>
      </trkpt>
      <trkpt lat="45.27163" lon="6.47765">
        <ele>1859.9</ele>
        <time>2022-07-03T09:45:54.000Z</time>
      </trkpt>
      <trkpt lat="45.27171" lon="6.47756">
        <ele>1859.9</ele>
        <time>2022-07-03T09:46:00.000Z</time>
      </trkpt>
      <trkpt lat="45.27174" lon="6.47742">
        <ele>1856.9</ele>
        <time>2022-07-03T09:46:04.000Z</time>
      </trkpt>
      <trkpt lat="45.27179" lon="6.47727">
        <ele>1854.7</ele>
        <time>2022-07-03T09:46:08.000Z</time>
      </trkpt>
      <trkpt lat="45.27186" lon="6.47714">
        <ele>1854.3</ele>
        <time>2022-07-03T09:46:12.000Z</time>
      </trkpt>
      <trkpt lat="45.27197" lon="6.47704">
        <ele>1855.2</ele>
        <time>2022-07-03T09:46:16.000Z</time>
      </trkpt>
      <trkpt lat="45.27204" lon="6.47697">
        <ele>1856.9</ele>
        <time>2022-07-03T09:46:22.000Z</time>
      </trkpt>
      <trkpt lat="45.27213" lon="6.47679">
        <ele>1854.4</ele>
        <time>2022-07-03T09:46:28.000Z</time>
      </trkpt>
      <trkpt lat="45.27223" lon="6.4767">
        <ele>1853.1</ele>
        <time>2022-07-03T09:46:32.000Z</time>
      </trkpt>
      <trkpt lat="45.27232" lon="6.47664">
        <ele>1851.6</ele>
        <time>2022-07-03T09:46:36.000Z</time>
      </trkpt>
      <trkpt lat="45.27248" lon="6.47659">
        <ele>1852.1</ele>
        <time>2022-07-03T09:46:42.000Z</time>
      </trkpt>
      <trkpt lat="45.27258" lon="6.47643">
        <ele>1850.2</ele>
        <time>2022-07-03T09:46:46.000Z</time>
      </trkpt>
      <trkpt lat="45.27261" lon="6.4763">
        <ele>1849.5</ele>
        <time>2022-07-03T09:46:58.000Z</time>
      </trkpt>
      <trkpt lat="45.27266" lon="6.47617">
        <ele>1851.5</ele>
        <time>2022-07-03T09:47:14.000Z</time>
      </trkpt>
      <trkpt lat="45.27269" lon="6.47604">
        <ele>1852.7</ele>
        <time>2022-07-03T09:47:26.000Z</time>
      </trkpt>
      <trkpt lat="45.27274" lon="6.47592">
        <ele>1853.9</ele>
        <time>2022-07-03T09:47:38.000Z</time>
      </trkpt>
      <trkpt lat="45.27281" lon="6.47583">
        <ele>1855.7</ele>
        <time>2022-07-03T09:47:50.000Z</time>
      </trkpt>
      <trkpt lat="45.27287" lon="6.4757">
        <ele>1857.3</ele>
        <time>2022-07-03T09:48:02.000Z</time>
      </trkpt>
      <trkpt lat="45.27294" lon="6.47562">
        <ele>1859.1</ele>
        <time>2022-07-03T09:48:12.000Z</time>
      </trkpt>
      <trkpt lat="45.27299" lon="6.47551">
        <ele>1860.7</ele>
        <time>2022-07-03T09:48:26.000Z</time>
      </trkpt>
      <trkpt lat="45.27303" lon="6.47537">
        <ele>1862</ele>
        <time>2022-07-03T09:48:54.000Z</time>
      </trkpt>
      <trkpt lat="45.27313" lon="6.47533">
        <ele>1863.6</ele>
        <time>2022-07-03T09:49:14.000Z</time>
      </trkpt>
      <trkpt lat="45.27319" lon="6.47523">
        <ele>1864</ele>
        <time>2022-07-03T09:49:24.000Z</time>
      </trkpt>
      <trkpt lat="45.27325" lon="6.47513">
        <ele>1863.8</ele>
        <time>2022-07-03T09:49:36.000Z</time>
      </trkpt>
      <trkpt lat="45.27334" lon="6.47503">
        <ele>1864.2</ele>
        <time>2022-07-03T09:50:02.000Z</time>
      </trkpt>
      <trkpt lat="45.27342" lon="6.47494">
        <ele>1864.2</ele>
        <time>2022-07-03T09:50:08.000Z</time>
      </trkpt>
      <trkpt lat="45.27351" lon="6.47486">
        <ele>1864.2</ele>
        <time>2022-07-03T09:50:12.000Z</time>
      </trkpt>
      <trkpt lat="45.27359" lon="6.47475">
        <ele>1863.5</ele>
        <time>2022-07-03T09:50:16.000Z</time>
      </trkpt>
      <trkpt lat="45.27367" lon="6.47467">
        <ele>1863.1</ele>
        <time>2022-07-03T09:50:20.000Z</time>
      </trkpt>
      <trkpt lat="45.27373" lon="6.47454">
        <ele>1862.1</ele>
        <time>2022-07-03T09:50:32.000Z</time>
      </trkpt>
      <trkpt lat="45.27381" lon="6.47443">
        <ele>1861.6</ele>
        <time>2022-07-03T09:50:40.000Z</time>
      </trkpt>
      <trkpt lat="45.27388" lon="6.47432">
        <ele>1860.6</ele>
        <time>2022-07-03T09:51:02.000Z</time>
      </trkpt>
      <trkpt lat="45.27395" lon="6.47425">
        <ele>1859.9</ele>
        <time>2022-07-03T09:51:08.000Z</time>
      </trkpt>
      <trkpt lat="45.27402" lon="6.47411">
        <ele>1858.2</ele>
        <time>2022-07-03T09:51:12.000Z</time>
      </trkpt>
      <trkpt lat="45.27409" lon="6.47397">
        <ele>1856.7</ele>
        <time>2022-07-03T09:51:16.000Z</time>
      </trkpt>
      <trkpt lat="45.27417" lon="6.47381">
        <ele>1855</ele>
        <time>2022-07-03T09:51:22.000Z</time>
      </trkpt>
      <trkpt lat="45.27426" lon="6.47376">
        <ele>1853.6</ele>
        <time>2022-07-03T09:51:26.000Z</time>
      </trkpt>
      <trkpt lat="45.27439" lon="6.47381">
        <ele>1853.9</ele>
        <time>2022-07-03T09:51:30.000Z</time>
      </trkpt>
      <trkpt lat="45.2745" lon="6.47386">
        <ele>1855.4</ele>
        <time>2022-07-03T09:51:36.000Z</time>
      </trkpt>
      <trkpt lat="45.2746" lon="6.47383">
        <ele>1856.9</ele>
        <time>2022-07-03T09:51:42.000Z</time>
      </trkpt>
      <trkpt lat="45.27468" lon="6.47374">
        <ele>1857.6</ele>
        <time>2022-07-03T09:51:48.000Z</time>
      </trkpt>
      <trkpt lat="45.27473" lon="6.47363">
        <ele>1857.6</ele>
        <time>2022-07-03T09:52:04.000Z</time>
      </trkpt>
      <trkpt lat="45.27481" lon="6.47354">
        <ele>1859.3</ele>
        <time>2022-07-03T09:52:20.000Z</time>
      </trkpt>
      <trkpt lat="45.27489" lon="6.47348">
        <ele>1861.9</ele>
        <time>2022-07-03T09:52:36.000Z</time>
      </trkpt>
      <trkpt lat="45.27496" lon="6.47338">
        <ele>1863.8</ele>
        <time>2022-07-03T09:53:04.000Z</time>
      </trkpt>
      <trkpt lat="45.27505" lon="6.47333">
        <ele>1866.1</ele>
        <time>2022-07-03T09:53:18.000Z</time>
      </trkpt>
      <trkpt lat="45.27511" lon="6.47344">
        <ele>1868.4</ele>
        <time>2022-07-03T09:53:36.000Z</time>
      </trkpt>
      <trkpt lat="45.2752" lon="6.47347">
        <ele>1871.2</ele>
        <time>2022-07-03T09:53:52.000Z</time>
      </trkpt>
      <trkpt lat="45.27527" lon="6.47338">
        <ele>1872.1</ele>
        <time>2022-07-03T09:54:02.000Z</time>
      </trkpt>
      <trkpt lat="45.27536" lon="6.47332">
        <ele>1873.8</ele>
        <time>2022-07-03T09:54:16.000Z</time>
      </trkpt>
      <trkpt lat="45.27545" lon="6.47324">
        <ele>1875.1</ele>
        <time>2022-07-03T09:54:30.000Z</time>
      </trkpt>
      <trkpt lat="45.27552" lon="6.47317">
        <ele>1876.3</ele>
        <time>2022-07-03T09:54:48.000Z</time>
      </trkpt>
      <trkpt lat="45.27557" lon="6.4733">
        <ele>1878.6</ele>
        <time>2022-07-03T10:00:46.000Z</time>
      </trkpt>
      <trkpt lat="45.27566" lon="6.47337">
        <ele>1880.6</ele>
        <time>2022-07-03T10:00:54.000Z</time>
      </trkpt>
      <trkpt lat="45.27576" lon="6.47334">
        <ele>1881.4</ele>
        <time>2022-07-03T10:01:02.000Z</time>
      </trkpt>
      <trkpt lat="45.27584" lon="6.47326">
        <ele>1881.7</ele>
        <time>2022-07-03T10:01:10.000Z</time>
      </trkpt>
      <trkpt lat="45.27594" lon="6.47322">
        <ele>1882.3</ele>
        <time>2022-07-03T10:01:18.000Z</time>
      </trkpt>
      <trkpt lat="45.27605" lon="6.47316">
        <ele>1882.9</ele>
        <time>2022-07-03T10:01:26.000Z</time>
      </trkpt>
      <trkpt lat="45.27616" lon="6.47317">
        <ele>1883.7</ele>
        <time>2022-07-03T10:01:34.000Z</time>
      </trkpt>
      <trkpt lat="45.27626" lon="6.47323">
        <ele>1884.6</ele>
        <time>2022-07-03T10:01:42.000Z</time>
      </trkpt>
      <trkpt lat="45.27636" lon="6.47331">
        <ele>1885.6</ele>
        <time>2022-07-03T10:01:50.000Z</time>
      </trkpt>
      <trkpt lat="45.27645" lon="6.47338">
        <ele>1886.6</ele>
        <time>2022-07-03T10:01:58.000Z</time>
      </trkpt>
      <trkpt lat="45.27653" lon="6.47345">
        <ele>1887.4</ele>
        <time>2022-07-03T10:02:06.000Z</time>
      </trkpt>
      <trkpt lat="45.27662" lon="6.47352">
        <ele>1887.8</ele>
        <time>2022-07-03T10:02:14.000Z</time>
      </trkpt>
      <trkpt lat="45.27671" lon="6.47359">
        <ele>1888.2</ele>
        <time>2022-07-03T10:02:22.000Z</time>
      </trkpt>
      <trkpt lat="45.27682" lon="6.47364">
        <ele>1888.6</ele>
        <time>2022-07-03T10:02:32.000Z</time>
      </trkpt>
      <trkpt lat="45.27691" lon="6.4737">
        <ele>1889.1</ele>
        <time>2022-07-03T10:02:40.000Z</time>
      </trkpt>
      <trkpt lat="45.27701" lon="6.47368">
        <ele>1890</ele>
        <time>2022-07-03T10:02:48.000Z</time>
      </trkpt>
      <trkpt lat="45.27712" lon="6.47369">
        <ele>1891.2</ele>
        <time>2022-07-03T10:02:56.000Z</time>
      </trkpt>
      <trkpt lat="45.27722" lon="6.47371">
        <ele>1892.1</ele>
        <time>2022-07-03T10:03:04.000Z</time>
      </trkpt>
      <trkpt lat="45.27733" lon="6.47371">
        <ele>1893</ele>
        <time>2022-07-03T10:03:12.000Z</time>
      </trkpt>
      <trkpt lat="45.27745" lon="6.47371">
        <ele>1893.9</ele>
        <time>2022-07-03T10:03:20.000Z</time>
      </trkpt>
      <trkpt lat="45.27755" lon="6.47369">
        <ele>1894.6</ele>
        <time>2022-07-03T10:03:26.000Z</time>
      </trkpt>
      <trkpt lat="45.27767" lon="6.4737">
        <ele>1895.6</ele>
        <time>2022-07-03T10:03:34.000Z</time>
      </trkpt>
      <trkpt lat="45.27778" lon="6.47371">
        <ele>1896.6</ele>
        <time>2022-07-03T10:03:42.000Z</time>
      </trkpt>
      <trkpt lat="45.2779" lon="6.47371">
        <ele>1896.8</ele>
        <time>2022-07-03T10:03:50.000Z</time>
      </trkpt>
      <trkpt lat="45.27801" lon="6.47372">
        <ele>1897.1</ele>
        <time>2022-07-03T10:04:00.000Z</time>
      </trkpt>
      <trkpt lat="45.2781" lon="6.4737">
        <ele>1897.6</ele>
        <time>2022-07-03T10:04:08.000Z</time>
      </trkpt>
      <trkpt lat="45.27819" lon="6.4736">
        <ele>1898.8</ele>
        <time>2022-07-03T10:04:16.000Z</time>
      </trkpt>
      <trkpt lat="45.27822" lon="6.47344">
        <ele>1901</ele>
        <time>2022-07-03T10:04:24.000Z</time>
      </trkpt>
      <trkpt lat="45.27819" lon="6.47329">
        <ele>1901.7</ele>
        <time>2022-07-03T10:04:32.000Z</time>
      </trkpt>
      <trkpt lat="45.27816" lon="6.47315">
        <ele>1902.3</ele>
        <time>2022-07-03T10:04:40.000Z</time>
      </trkpt>
      <trkpt lat="45.27813" lon="6.47303">
        <ele>1902.9</ele>
        <time>2022-07-03T10:04:50.000Z</time>
      </trkpt>
      <trkpt lat="45.27814" lon="6.47289">
        <ele>1903.4</ele>
        <time>2022-07-03T10:04:56.000Z</time>
      </trkpt>
      <trkpt lat="45.27818" lon="6.47276">
        <ele>1905.4</ele>
        <time>2022-07-03T10:05:02.000Z</time>
      </trkpt>
      <trkpt lat="45.27821" lon="6.47261">
        <ele>1907.5</ele>
        <time>2022-07-03T10:05:08.000Z</time>
      </trkpt>
      <trkpt lat="45.27823" lon="6.47247">
        <ele>1908.7</ele>
        <time>2022-07-03T10:05:16.000Z</time>
      </trkpt>
      <trkpt lat="45.27823" lon="6.47232">
        <ele>1908.3</ele>
        <time>2022-07-03T10:05:26.000Z</time>
      </trkpt>
      <trkpt lat="45.27828" lon="6.47219">
        <ele>1909.1</ele>
        <time>2022-07-03T10:05:36.000Z</time>
      </trkpt>
      <trkpt lat="45.27835" lon="6.47211">
        <ele>1910.7</ele>
        <time>2022-07-03T10:05:44.000Z</time>
      </trkpt>
      <trkpt lat="45.27842" lon="6.47199">
        <ele>1912.5</ele>
        <time>2022-07-03T10:05:52.000Z</time>
      </trkpt>
      <trkpt lat="45.27845" lon="6.47183">
        <ele>1913.2</ele>
        <time>2022-07-03T10:06:00.000Z</time>
      </trkpt>
      <trkpt lat="45.27848" lon="6.47168">
        <ele>1913.6</ele>
        <time>2022-07-03T10:06:08.000Z</time>
      </trkpt>
      <trkpt lat="45.27855" lon="6.47157">
        <ele>1914</ele>
        <time>2022-07-03T10:06:16.000Z</time>
      </trkpt>
      <trkpt lat="45.27864" lon="6.47155">
        <ele>1915.6</ele>
        <time>2022-07-03T10:06:24.000Z</time>
      </trkpt>
      <trkpt lat="45.27874" lon="6.47157">
        <ele>1916.8</ele>
        <time>2022-07-03T10:06:32.000Z</time>
      </trkpt>
      <trkpt lat="45.27884" lon="6.4716">
        <ele>1918.3</ele>
        <time>2022-07-03T10:06:42.000Z</time>
      </trkpt>
      <trkpt lat="45.27893" lon="6.47167">
        <ele>1920.6</ele>
        <time>2022-07-03T10:06:50.000Z</time>
      </trkpt>
      <trkpt lat="45.279" lon="6.47178">
        <ele>1921.5</ele>
        <time>2022-07-03T10:06:58.000Z</time>
      </trkpt>
      <trkpt lat="45.27907" lon="6.47189">
        <ele>1922.2</ele>
        <time>2022-07-03T10:07:06.000Z</time>
      </trkpt>
      <trkpt lat="45.27912" lon="6.472">
        <ele>1923.2</ele>
        <time>2022-07-03T10:07:14.000Z</time>
      </trkpt>
      <trkpt lat="45.27919" lon="6.4721">
        <ele>1925.4</ele>
        <time>2022-07-03T10:07:22.000Z</time>
      </trkpt>
      <trkpt lat="45.27924" lon="6.47224">
        <ele>1927.5</ele>
        <time>2022-07-03T10:07:30.000Z</time>
      </trkpt>
      <trkpt lat="45.27928" lon="6.47236">
        <ele>1928.1</ele>
        <time>2022-07-03T10:07:36.000Z</time>
      </trkpt>
      <trkpt lat="45.27933" lon="6.47249">
        <ele>1928.7</ele>
        <time>2022-07-03T10:07:44.000Z</time>
      </trkpt>
      <trkpt lat="45.27939" lon="6.47262">
        <ele>1929.9</ele>
        <time>2022-07-03T10:07:54.000Z</time>
      </trkpt>
      <trkpt lat="45.27938" lon="6.47276">
        <ele>1931.9</ele>
        <time>2022-07-03T10:08:04.000Z</time>
      </trkpt>
      <trkpt lat="45.27935" lon="6.4729">
        <ele>1933.7</ele>
        <time>2022-07-03T10:08:14.000Z</time>
      </trkpt>
      <trkpt lat="45.27935" lon="6.47303">
        <ele>1936</ele>
        <time>2022-07-03T10:08:22.000Z</time>
      </trkpt>
      <trkpt lat="45.27941" lon="6.47316">
        <ele>1938</ele>
        <time>2022-07-03T10:08:30.000Z</time>
      </trkpt>
      <trkpt lat="45.27949" lon="6.47327">
        <ele>1939.8</ele>
        <time>2022-07-03T10:08:40.000Z</time>
      </trkpt>
      <trkpt lat="45.27954" lon="6.47339">
        <ele>1941.5</ele>
        <time>2022-07-03T10:08:50.000Z</time>
      </trkpt>
      <trkpt lat="45.27957" lon="6.47354">
        <ele>1942.5</ele>
        <time>2022-07-03T10:09:00.000Z</time>
      </trkpt>
      <trkpt lat="45.27958" lon="6.47371">
        <ele>1943.4</ele>
        <time>2022-07-03T10:09:08.000Z</time>
      </trkpt>
      <trkpt lat="45.27955" lon="6.47386">
        <ele>1944.3</ele>
        <time>2022-07-03T10:09:18.000Z</time>
      </trkpt>
      <trkpt lat="45.27956" lon="6.47401">
        <ele>1945.3</ele>
        <time>2022-07-03T10:09:26.000Z</time>
      </trkpt>
      <trkpt lat="45.27958" lon="6.47414">
        <ele>1946.6</ele>
        <time>2022-07-03T10:09:34.000Z</time>
      </trkpt>
      <trkpt lat="45.27961" lon="6.47427">
        <ele>1948.5</ele>
        <time>2022-07-03T10:09:42.000Z</time>
      </trkpt>
      <trkpt lat="45.27964" lon="6.47442">
        <ele>1950.9</ele>
        <time>2022-07-03T10:09:50.000Z</time>
      </trkpt>
      <trkpt lat="45.27967" lon="6.47456">
        <ele>1952.5</ele>
        <time>2022-07-03T10:09:58.000Z</time>
      </trkpt>
      <trkpt lat="45.27967" lon="6.47469">
        <ele>1952.8</ele>
        <time>2022-07-03T10:10:06.000Z</time>
      </trkpt>
      <trkpt lat="45.27973" lon="6.47483">
        <ele>1954.5</ele>
        <time>2022-07-03T10:10:16.000Z</time>
      </trkpt>
      <trkpt lat="45.27981" lon="6.4749">
        <ele>1956.4</ele>
        <time>2022-07-03T10:10:24.000Z</time>
      </trkpt>
      <trkpt lat="45.27991" lon="6.47497">
        <ele>1958.9</ele>
        <time>2022-07-03T10:10:32.000Z</time>
      </trkpt>
      <trkpt lat="45.27995" lon="6.4751">
        <ele>1960.6</ele>
        <time>2022-07-03T10:10:40.000Z</time>
      </trkpt>
      <trkpt lat="45.27998" lon="6.47524">
        <ele>1961.8</ele>
        <time>2022-07-03T10:10:48.000Z</time>
      </trkpt>
      <trkpt lat="45.28" lon="6.47539">
        <ele>1962.8</ele>
        <time>2022-07-03T10:10:58.000Z</time>
      </trkpt>
      <trkpt lat="45.28003" lon="6.47555">
        <ele>1964.1</ele>
        <time>2022-07-03T10:11:06.000Z</time>
      </trkpt>
      <trkpt lat="45.28006" lon="6.4757">
        <ele>1965.7</ele>
        <time>2022-07-03T10:11:14.000Z</time>
      </trkpt>
      <trkpt lat="45.28009" lon="6.47585">
        <ele>1966.8</ele>
        <time>2022-07-03T10:11:22.000Z</time>
      </trkpt>
      <trkpt lat="45.28011" lon="6.47599">
        <ele>1967.3</ele>
        <time>2022-07-03T10:11:30.000Z</time>
      </trkpt>
      <trkpt lat="45.28012" lon="6.47612">
        <ele>1967.4</ele>
        <time>2022-07-03T10:11:38.000Z</time>
      </trkpt>
      <trkpt lat="45.28017" lon="6.47626">
        <ele>1968.2</ele>
        <time>2022-07-03T10:11:46.000Z</time>
      </trkpt>
      <trkpt lat="45.28027" lon="6.47631">
        <ele>1971.5</ele>
        <time>2022-07-03T10:11:56.000Z</time>
      </trkpt>
      <trkpt lat="45.28031" lon="6.47618">
        <ele>1973.9</ele>
        <time>2022-07-03T10:12:04.000Z</time>
      </trkpt>
      <trkpt lat="45.2803" lon="6.47602">
        <ele>1974.2</ele>
        <time>2022-07-03T10:12:12.000Z</time>
      </trkpt>
      <trkpt lat="45.28029" lon="6.47588">
        <ele>1974.9</ele>
        <time>2022-07-03T10:12:20.000Z</time>
      </trkpt>
      <trkpt lat="45.28034" lon="6.47577">
        <ele>1976.3</ele>
        <time>2022-07-03T10:12:28.000Z</time>
      </trkpt>
      <trkpt lat="45.28043" lon="6.47585">
        <ele>1978.7</ele>
        <time>2022-07-03T10:12:36.000Z</time>
      </trkpt>
      <trkpt lat="45.28045" lon="6.47599">
        <ele>1979.2</ele>
        <time>2022-07-03T10:12:44.000Z</time>
      </trkpt>
      <trkpt lat="45.28053" lon="6.4761">
        <ele>1981.7</ele>
        <time>2022-07-03T10:12:54.000Z</time>
      </trkpt>
      <trkpt lat="45.28054" lon="6.47624">
        <ele>1982.4</ele>
        <time>2022-07-03T10:14:06.000Z</time>
      </trkpt>
      <trkpt lat="45.28056" lon="6.47637">
        <ele>1983.1</ele>
        <time>2022-07-03T10:14:14.000Z</time>
      </trkpt>
      <trkpt lat="45.2806" lon="6.47651">
        <ele>1984.1</ele>
        <time>2022-07-03T10:14:20.000Z</time>
      </trkpt>
      <trkpt lat="45.28064" lon="6.47664">
        <ele>1985</ele>
        <time>2022-07-03T10:14:26.000Z</time>
      </trkpt>
      <trkpt lat="45.28068" lon="6.47679">
        <ele>1987</ele>
        <time>2022-07-03T10:14:34.000Z</time>
      </trkpt>
      <trkpt lat="45.28072" lon="6.47692">
        <ele>1989.9</ele>
        <time>2022-07-03T10:14:42.000Z</time>
      </trkpt>
      <trkpt lat="45.28071" lon="6.47705">
        <ele>1990.8</ele>
        <time>2022-07-03T10:14:50.000Z</time>
      </trkpt>
      <trkpt lat="45.28072" lon="6.47719">
        <ele>1991.9</ele>
        <time>2022-07-03T10:14:58.000Z</time>
      </trkpt>
      <trkpt lat="45.28073" lon="6.47733">
        <ele>1993.1</ele>
        <time>2022-07-03T10:15:06.000Z</time>
      </trkpt>
      <trkpt lat="45.28072" lon="6.47747">
        <ele>1993.6</ele>
        <time>2022-07-03T10:15:14.000Z</time>
      </trkpt>
      <trkpt lat="45.28073" lon="6.47762">
        <ele>1995.4</ele>
        <time>2022-07-03T10:15:24.000Z</time>
      </trkpt>
      <trkpt lat="45.28079" lon="6.47774">
        <ele>1997.7</ele>
        <time>2022-07-03T10:15:32.000Z</time>
      </trkpt>
      <trkpt lat="45.28085" lon="6.47787">
        <ele>2000.2</ele>
        <time>2022-07-03T10:15:42.000Z</time>
      </trkpt>
      <trkpt lat="45.28094" lon="6.47794">
        <ele>2002.9</ele>
        <time>2022-07-03T10:15:56.000Z</time>
      </trkpt>
      <trkpt lat="45.281" lon="6.47805">
        <ele>2004.3</ele>
        <time>2022-07-03T10:16:06.000Z</time>
      </trkpt>
      <trkpt lat="45.28107" lon="6.47813">
        <ele>2005.5</ele>
        <time>2022-07-03T10:16:16.000Z</time>
      </trkpt>
      <trkpt lat="45.28115" lon="6.4782">
        <ele>2006.4</ele>
        <time>2022-07-03T10:16:24.000Z</time>
      </trkpt>
      <trkpt lat="45.28124" lon="6.47827">
        <ele>2007.5</ele>
        <time>2022-07-03T10:16:34.000Z</time>
      </trkpt>
      <trkpt lat="45.28133" lon="6.47831">
        <ele>2008.4</ele>
        <time>2022-07-03T10:16:42.000Z</time>
      </trkpt>
      <trkpt lat="45.28142" lon="6.47836">
        <ele>2009.6</ele>
        <time>2022-07-03T10:16:50.000Z</time>
      </trkpt>
      <trkpt lat="45.28151" lon="6.47841">
        <ele>2011.2</ele>
        <time>2022-07-03T10:16:58.000Z</time>
      </trkpt>
      <trkpt lat="45.28159" lon="6.47836">
        <ele>2013.1</ele>
        <time>2022-07-03T10:17:08.000Z</time>
      </trkpt>
      <trkpt lat="45.28164" lon="6.47822">
        <ele>2014.7</ele>
        <time>2022-07-03T10:17:16.000Z</time>
      </trkpt>
      <trkpt lat="45.28164" lon="6.47807">
        <ele>2015.4</ele>
        <time>2022-07-03T10:17:24.000Z</time>
      </trkpt>
      <trkpt lat="45.28162" lon="6.47794">
        <ele>2017.1</ele>
        <time>2022-07-03T10:17:32.000Z</time>
      </trkpt>
      <trkpt lat="45.28157" lon="6.47783">
        <ele>2018.3</ele>
        <time>2022-07-03T10:17:40.000Z</time>
      </trkpt>
      <trkpt lat="45.28153" lon="6.4777">
        <ele>2018.7</ele>
        <time>2022-07-03T10:17:48.000Z</time>
      </trkpt>
      <trkpt lat="45.28155" lon="6.47754">
        <ele>2019.1</ele>
        <time>2022-07-03T10:17:56.000Z</time>
      </trkpt>
      <trkpt lat="45.28165" lon="6.47753">
        <ele>2020.6</ele>
        <time>2022-07-03T10:18:04.000Z</time>
      </trkpt>
      <trkpt lat="45.28175" lon="6.47759">
        <ele>2022.2</ele>
        <time>2022-07-03T10:18:12.000Z</time>
      </trkpt>
      <trkpt lat="45.28183" lon="6.47766">
        <ele>2024.1</ele>
        <time>2022-07-03T10:18:20.000Z</time>
      </trkpt>
      <trkpt lat="45.28192" lon="6.47766">
        <ele>2026.2</ele>
        <time>2022-07-03T10:18:28.000Z</time>
      </trkpt>
      <trkpt lat="45.28201" lon="6.47762">
        <ele>2027.6</ele>
        <time>2022-07-03T10:18:36.000Z</time>
      </trkpt>
      <trkpt lat="45.28211" lon="6.47756">
        <ele>2029.1</ele>
        <time>2022-07-03T10:18:44.000Z</time>
      </trkpt>
      <trkpt lat="45.28219" lon="6.47746">
        <ele>2029.9</ele>
        <time>2022-07-03T10:18:52.000Z</time>
      </trkpt>
      <trkpt lat="45.28227" lon="6.47735">
        <ele>2031.1</ele>
        <time>2022-07-03T10:19:00.000Z</time>
      </trkpt>
      <trkpt lat="45.28235" lon="6.47724">
        <ele>2032.2</ele>
        <time>2022-07-03T10:19:08.000Z</time>
      </trkpt>
      <trkpt lat="45.28244" lon="6.47719">
        <ele>2033.7</ele>
        <time>2022-07-03T10:19:16.000Z</time>
      </trkpt>
      <trkpt lat="45.28252" lon="6.47727">
        <ele>2036.8</ele>
        <time>2022-07-03T10:19:24.000Z</time>
      </trkpt>
      <trkpt lat="45.28255" lon="6.4774">
        <ele>2039.2</ele>
        <time>2022-07-03T10:19:30.000Z</time>
      </trkpt>
      <trkpt lat="45.28256" lon="6.47755">
        <ele>2040.9</ele>
        <time>2022-07-03T10:19:40.000Z</time>
      </trkpt>
      <trkpt lat="45.28256" lon="6.47769">
        <ele>2042.6</ele>
        <time>2022-07-03T10:19:48.000Z</time>
      </trkpt>
      <trkpt lat="45.28263" lon="6.4778">
        <ele>2044.9</ele>
        <time>2022-07-03T10:19:58.000Z</time>
      </trkpt>
      <trkpt lat="45.28268" lon="6.47792">
        <ele>2045.7</ele>
        <time>2022-07-03T10:20:08.000Z</time>
      </trkpt>
      <trkpt lat="45.28276" lon="6.47798">
        <ele>2047.6</ele>
        <time>2022-07-03T10:20:54.000Z</time>
      </trkpt>
      <trkpt lat="45.28284" lon="6.47808">
        <ele>2049.3</ele>
        <time>2022-07-03T10:21:02.000Z</time>
      </trkpt>
      <trkpt lat="45.28294" lon="6.47805">
        <ele>2052.2</ele>
        <time>2022-07-03T10:21:10.000Z</time>
      </trkpt>
      <trkpt lat="45.283" lon="6.47795">
        <ele>2054.3</ele>
        <time>2022-07-03T10:21:18.000Z</time>
      </trkpt>
      <trkpt lat="45.28305" lon="6.47782">
        <ele>2055.7</ele>
        <time>2022-07-03T10:21:26.000Z</time>
      </trkpt>
      <trkpt lat="45.2831" lon="6.4777">
        <ele>2056.5</ele>
        <time>2022-07-03T10:21:34.000Z</time>
      </trkpt>
      <trkpt lat="45.28317" lon="6.47758">
        <ele>2057.6</ele>
        <time>2022-07-03T10:21:44.000Z</time>
      </trkpt>
      <trkpt lat="45.28322" lon="6.47745">
        <ele>2058.4</ele>
        <time>2022-07-03T10:21:52.000Z</time>
      </trkpt>
      <trkpt lat="45.28326" lon="6.47731">
        <ele>2058.8</ele>
        <time>2022-07-03T10:22:00.000Z</time>
      </trkpt>
      <trkpt lat="45.2833" lon="6.47719">
        <ele>2059.1</ele>
        <time>2022-07-03T10:22:06.000Z</time>
      </trkpt>
      <trkpt lat="45.28336" lon="6.47706">
        <ele>2060</ele>
        <time>2022-07-03T10:22:14.000Z</time>
      </trkpt>
      <trkpt lat="45.28341" lon="6.47695">
        <ele>2061.2</ele>
        <time>2022-07-03T10:22:22.000Z</time>
      </trkpt>
      <trkpt lat="45.28348" lon="6.47685">
        <ele>2062</ele>
        <time>2022-07-03T10:22:30.000Z</time>
      </trkpt>
      <trkpt lat="45.28354" lon="6.47673">
        <ele>2062.7</ele>
        <time>2022-07-03T10:22:38.000Z</time>
      </trkpt>
      <trkpt lat="45.2836" lon="6.47658">
        <ele>2063</ele>
        <time>2022-07-03T10:22:46.000Z</time>
      </trkpt>
      <trkpt lat="45.28365" lon="6.47648">
        <ele>2064.4</ele>
        <time>2022-07-03T10:22:52.000Z</time>
      </trkpt>
      <trkpt lat="45.28372" lon="6.47636">
        <ele>2066.5</ele>
        <time>2022-07-03T10:23:00.000Z</time>
      </trkpt>
      <trkpt lat="45.28379" lon="6.47625">
        <ele>2067.2</ele>
        <time>2022-07-03T10:23:08.000Z</time>
      </trkpt>
      <trkpt lat="45.28387" lon="6.47613">
        <ele>2067.4</ele>
        <time>2022-07-03T10:23:16.000Z</time>
      </trkpt>
      <trkpt lat="45.28392" lon="6.47601">
        <ele>2068.2</ele>
        <time>2022-07-03T10:23:24.000Z</time>
      </trkpt>
      <trkpt lat="45.28396" lon="6.47588">
        <ele>2068.1</ele>
        <time>2022-07-03T10:23:30.000Z</time>
      </trkpt>
      <trkpt lat="45.28399" lon="6.47572">
        <ele>2069.5</ele>
        <time>2022-07-03T10:23:38.000Z</time>
      </trkpt>
      <trkpt lat="45.28396" lon="6.47556">
        <ele>2069.8</ele>
        <time>2022-07-03T10:23:46.000Z</time>
      </trkpt>
      <trkpt lat="45.28394" lon="6.47542">
        <ele>2068.3</ele>
        <time>2022-07-03T10:23:52.000Z</time>
      </trkpt>
      <trkpt lat="45.28399" lon="6.47521">
        <ele>2068.1</ele>
        <time>2022-07-03T10:23:56.000Z</time>
      </trkpt>
      <trkpt lat="45.28402" lon="6.47506">
        <ele>2067.9</ele>
        <time>2022-07-03T10:23:58.000Z</time>
      </trkpt>
      <trkpt lat="45.28404" lon="6.47488">
        <ele>2069</ele>
        <time>2022-07-03T10:24:00.000Z</time>
      </trkpt>
      <trkpt lat="45.28405" lon="6.47474">
        <ele>2070.6</ele>
        <time>2022-07-03T10:24:02.000Z</time>
      </trkpt>
      <trkpt lat="45.28404" lon="6.47456">
        <ele>2070.8</ele>
        <time>2022-07-03T10:24:06.000Z</time>
      </trkpt>
      <trkpt lat="45.28403" lon="6.47437">
        <ele>2070.6</ele>
        <time>2022-07-03T10:24:12.000Z</time>
      </trkpt>
      <trkpt lat="45.28399" lon="6.47425">
        <ele>2070</ele>
        <time>2022-07-03T10:24:20.000Z</time>
      </trkpt>
      <trkpt lat="45.28397" lon="6.47412">
        <ele>2070.9</ele>
        <time>2022-07-03T10:24:26.000Z</time>
      </trkpt>
      <trkpt lat="45.28393" lon="6.47397">
        <ele>2071.9</ele>
        <time>2022-07-03T10:24:36.000Z</time>
      </trkpt>
      <trkpt lat="45.28389" lon="6.47384">
        <ele>2072.8</ele>
        <time>2022-07-03T10:24:44.000Z</time>
      </trkpt>
      <trkpt lat="45.28387" lon="6.47369">
        <ele>2074.3</ele>
        <time>2022-07-03T10:24:52.000Z</time>
      </trkpt>
      <trkpt lat="45.28385" lon="6.47357">
        <ele>2075.5</ele>
        <time>2022-07-03T10:25:00.000Z</time>
      </trkpt>
      <trkpt lat="45.28381" lon="6.47341">
        <ele>2077.5</ele>
        <time>2022-07-03T10:25:10.000Z</time>
      </trkpt>
      <trkpt lat="45.28377" lon="6.47328">
        <ele>2079.3</ele>
        <time>2022-07-03T10:25:18.000Z</time>
      </trkpt>
      <trkpt lat="45.28371" lon="6.47318">
        <ele>2080.2</ele>
        <time>2022-07-03T10:25:26.000Z</time>
      </trkpt>
      <trkpt lat="45.28363" lon="6.47308">
        <ele>2080.5</ele>
        <time>2022-07-03T10:25:36.000Z</time>
      </trkpt>
      <trkpt lat="45.28356" lon="6.47295">
        <ele>2081.9</ele>
        <time>2022-07-03T10:25:46.000Z</time>
      </trkpt>
      <trkpt lat="45.28354" lon="6.47282">
        <ele>2083.8</ele>
        <time>2022-07-03T10:25:52.000Z</time>
      </trkpt>
      <trkpt lat="45.2835" lon="6.47269">
        <ele>2085.1</ele>
        <time>2022-07-03T10:26:00.000Z</time>
      </trkpt>
      <trkpt lat="45.28345" lon="6.47258">
        <ele>2085.3</ele>
        <time>2022-07-03T10:26:06.000Z</time>
      </trkpt>
      <trkpt lat="45.28339" lon="6.47246">
        <ele>2085</ele>
        <time>2022-07-03T10:26:14.000Z</time>
      </trkpt>
      <trkpt lat="45.28333" lon="6.47235">
        <ele>2084.1</ele>
        <time>2022-07-03T10:26:20.000Z</time>
      </trkpt>
      <trkpt lat="45.28332" lon="6.47222">
        <ele>2084.4</ele>
        <time>2022-07-03T10:26:26.000Z</time>
      </trkpt>
      <trkpt lat="45.28341" lon="6.47218">
        <ele>2085.4</ele>
        <time>2022-07-03T10:26:32.000Z</time>
      </trkpt>
      <trkpt lat="45.28349" lon="6.47224">
        <ele>2087.5</ele>
        <time>2022-07-03T10:26:38.000Z</time>
      </trkpt>
      <trkpt lat="45.2836" lon="6.47227">
        <ele>2089.7</ele>
        <time>2022-07-03T10:26:46.000Z</time>
      </trkpt>
      <trkpt lat="45.28364" lon="6.47239">
        <ele>2091.4</ele>
        <time>2022-07-03T10:33:27.000Z</time>
      </trkpt>
      <trkpt lat="45.28371" lon="6.47249">
        <ele>2093.2</ele>
        <time>2022-07-03T10:33:35.000Z</time>
      </trkpt>
      <trkpt lat="45.2838" lon="6.47252">
        <ele>2095.2</ele>
        <time>2022-07-03T10:33:45.000Z</time>
      </trkpt>
      <trkpt lat="45.28389" lon="6.47258">
        <ele>2096.7</ele>
        <time>2022-07-03T10:33:53.000Z</time>
      </trkpt>
      <trkpt lat="45.28398" lon="6.47262">
        <ele>2098.1</ele>
        <time>2022-07-03T10:34:03.000Z</time>
      </trkpt>
      <trkpt lat="45.28407" lon="6.47268">
        <ele>2099.4</ele>
        <time>2022-07-03T10:34:13.000Z</time>
      </trkpt>
      <trkpt lat="45.28417" lon="6.4727">
        <ele>2101.3</ele>
        <time>2022-07-03T10:34:21.000Z</time>
      </trkpt>
      <trkpt lat="45.28426" lon="6.47274">
        <ele>2103.4</ele>
        <time>2022-07-03T10:34:31.000Z</time>
      </trkpt>
      <trkpt lat="45.28435" lon="6.47278">
        <ele>2105.9</ele>
        <time>2022-07-03T10:34:41.000Z</time>
      </trkpt>
      <trkpt lat="45.28445" lon="6.47282">
        <ele>2108.1</ele>
        <time>2022-07-03T10:34:53.000Z</time>
      </trkpt>
      <trkpt lat="45.28454" lon="6.4729">
        <ele>2108.9</ele>
        <time>2022-07-03T10:35:03.000Z</time>
      </trkpt>
      <trkpt lat="45.2846" lon="6.473">
        <ele>2109.3</ele>
        <time>2022-07-03T10:35:57.000Z</time>
      </trkpt>
      <trkpt lat="45.2847" lon="6.47303">
        <ele>2112.1</ele>
        <time>2022-07-03T10:36:05.000Z</time>
      </trkpt>
      <trkpt lat="45.28479" lon="6.47312">
        <ele>2113.8</ele>
        <time>2022-07-03T10:36:13.000Z</time>
      </trkpt>
      <trkpt lat="45.28489" lon="6.47315">
        <ele>2116</ele>
        <time>2022-07-03T10:36:23.000Z</time>
      </trkpt>
      <trkpt lat="45.28497" lon="6.47322">
        <ele>2118.2</ele>
        <time>2022-07-03T10:37:02.000Z</time>
      </trkpt>
      <trkpt lat="45.28505" lon="6.47332">
        <ele>2120.8</ele>
        <time>2022-07-03T10:37:16.000Z</time>
      </trkpt>
      <trkpt lat="45.28514" lon="6.47336">
        <ele>2123.3</ele>
        <time>2022-07-03T10:37:30.000Z</time>
      </trkpt>
      <trkpt lat="45.28521" lon="6.47345">
        <ele>2125.4</ele>
        <time>2022-07-03T10:37:50.000Z</time>
      </trkpt>
      <trkpt lat="45.28527" lon="6.47356">
        <ele>2127.5</ele>
        <time>2022-07-03T10:38:07.000Z</time>
      </trkpt>
      <trkpt lat="45.28536" lon="6.4736">
        <ele>2128.8</ele>
        <time>2022-07-03T10:38:18.000Z</time>
      </trkpt>
      <trkpt lat="45.28544" lon="6.47367">
        <ele>2130.6</ele>
        <time>2022-07-03T10:38:36.000Z</time>
      </trkpt>
      <trkpt lat="45.28554" lon="6.47375">
        <ele>2132.9</ele>
        <time>2022-07-03T10:39:12.000Z</time>
      </trkpt>
      <trkpt lat="45.28563" lon="6.47379">
        <ele>2134.3</ele>
        <time>2022-07-03T10:39:20.000Z</time>
      </trkpt>
      <trkpt lat="45.28572" lon="6.47388">
        <ele>2137</ele>
        <time>2022-07-03T10:39:32.000Z</time>
      </trkpt>
      <trkpt lat="45.28581" lon="6.47394">
        <ele>2138.2</ele>
        <time>2022-07-03T10:39:40.000Z</time>
      </trkpt>
      <trkpt lat="45.28591" lon="6.474">
        <ele>2139.2</ele>
        <time>2022-07-03T10:39:48.000Z</time>
      </trkpt>
      <trkpt lat="45.28603" lon="6.47398">
        <ele>2140.3</ele>
        <time>2022-07-03T10:39:56.000Z</time>
      </trkpt>
      <trkpt lat="45.28613" lon="6.47403">
        <ele>2142.9</ele>
        <time>2022-07-03T10:40:06.000Z</time>
      </trkpt>
      <trkpt lat="45.28623" lon="6.47405">
        <ele>2144.6</ele>
        <time>2022-07-03T10:40:16.000Z</time>
      </trkpt>
      <trkpt lat="45.28634" lon="6.47404">
        <ele>2145</ele>
        <time>2022-07-03T10:40:24.000Z</time>
      </trkpt>
      <trkpt lat="45.28644" lon="6.47403">
        <ele>2145.4</ele>
        <time>2022-07-03T10:40:32.000Z</time>
      </trkpt>
      <trkpt lat="45.28654" lon="6.47403">
        <ele>2145.7</ele>
        <time>2022-07-03T10:40:40.000Z</time>
      </trkpt>
      <trkpt lat="45.28666" lon="6.47401">
        <ele>2145.8</ele>
        <time>2022-07-03T10:40:48.000Z</time>
      </trkpt>
      <trkpt lat="45.28676" lon="6.47403">
        <ele>2148.7</ele>
        <time>2022-07-03T10:40:56.000Z</time>
      </trkpt>
      <trkpt lat="45.28687" lon="6.47399">
        <ele>2150.9</ele>
        <time>2022-07-03T10:41:04.000Z</time>
      </trkpt>
      <trkpt lat="45.28695" lon="6.47389">
        <ele>2151.2</ele>
        <time>2022-07-03T10:41:12.000Z</time>
      </trkpt>
      <trkpt lat="45.287" lon="6.47377">
        <ele>2150.3</ele>
        <time>2022-07-03T10:41:20.000Z</time>
      </trkpt>
      <trkpt lat="45.28707" lon="6.47368">
        <ele>2149.9</ele>
        <time>2022-07-03T10:41:28.000Z</time>
      </trkpt>
      <trkpt lat="45.28717" lon="6.47363">
        <ele>2151.6</ele>
        <time>2022-07-03T10:41:36.000Z</time>
      </trkpt>
      <trkpt lat="45.28727" lon="6.47369">
        <ele>2153.9</ele>
        <time>2022-07-03T10:41:46.000Z</time>
      </trkpt>
      <trkpt lat="45.28733" lon="6.47379">
        <ele>2154.9</ele>
        <time>2022-07-03T10:41:54.000Z</time>
      </trkpt>
      <trkpt lat="45.28744" lon="6.47381">
        <ele>2154.7</ele>
        <time>2022-07-03T10:42:02.000Z</time>
      </trkpt>
      <trkpt lat="45.28758" lon="6.47381">
        <ele>2154.4</ele>
        <time>2022-07-03T10:42:08.000Z</time>
      </trkpt>
      <trkpt lat="45.28772" lon="6.47381">
        <ele>2155.2</ele>
        <time>2022-07-03T10:42:12.000Z</time>
      </trkpt>
      <trkpt lat="45.28787" lon="6.47375">
        <ele>2155.3</ele>
        <time>2022-07-03T10:42:16.000Z</time>
      </trkpt>
      <trkpt lat="45.28797" lon="6.47368">
        <ele>2155</ele>
        <time>2022-07-03T10:42:22.000Z</time>
      </trkpt>
      <trkpt lat="45.28807" lon="6.47357">
        <ele>2155.2</ele>
        <time>2022-07-03T10:42:30.000Z</time>
      </trkpt>
      <trkpt lat="45.28817" lon="6.47349">
        <ele>2156.8</ele>
        <time>2022-07-03T10:42:36.000Z</time>
      </trkpt>
      <trkpt lat="45.28824" lon="6.47337">
        <ele>2159.2</ele>
        <time>2022-07-03T10:42:44.000Z</time>
      </trkpt>
      <trkpt lat="45.2882" lon="6.47324">
        <ele>2161.5</ele>
        <time>2022-07-03T10:42:52.000Z</time>
      </trkpt>
      <trkpt lat="45.28813" lon="6.47316">
        <ele>2162.2</ele>
        <time>2022-07-03T10:43:00.000Z</time>
      </trkpt>
      <trkpt lat="45.28807" lon="6.47306">
        <ele>2164</ele>
        <time>2022-07-03T10:43:08.000Z</time>
      </trkpt>
      <trkpt lat="45.28805" lon="6.4729">
        <ele>2164.4</ele>
        <time>2022-07-03T10:43:16.000Z</time>
      </trkpt>
      <trkpt lat="45.28807" lon="6.47276">
        <ele>2165.3</ele>
        <time>2022-07-03T10:43:24.000Z</time>
      </trkpt>
      <trkpt lat="45.28808" lon="6.47263">
        <ele>2165.7</ele>
        <time>2022-07-03T10:43:32.000Z</time>
      </trkpt>
      <trkpt lat="45.2881" lon="6.47251">
        <ele>2166.1</ele>
        <time>2022-07-03T10:43:40.000Z</time>
      </trkpt>
      <trkpt lat="45.28819" lon="6.47244">
        <ele>2168.9</ele>
        <time>2022-07-03T10:43:48.000Z</time>
      </trkpt>
      <trkpt lat="45.28829" lon="6.47247">
        <ele>2171.2</ele>
        <time>2022-07-03T10:43:56.000Z</time>
      </trkpt>
      <trkpt lat="45.28835" lon="6.47258">
        <ele>2172.8</ele>
        <time>2022-07-03T10:44:04.000Z</time>
      </trkpt>
      <trkpt lat="45.28838" lon="6.47274">
        <ele>2174.6</ele>
        <time>2022-07-03T10:44:32.000Z</time>
      </trkpt>
      <trkpt lat="45.28846" lon="6.47282">
        <ele>2175.9</ele>
        <time>2022-07-03T10:44:42.000Z</time>
      </trkpt>
      <trkpt lat="45.28856" lon="6.47281">
        <ele>2177.9</ele>
        <time>2022-07-03T10:44:50.000Z</time>
      </trkpt>
      <trkpt lat="45.28866" lon="6.4728">
        <ele>2180.1</ele>
        <time>2022-07-03T10:45:04.000Z</time>
      </trkpt>
      <trkpt lat="45.28871" lon="6.47269">
        <ele>2181.7</ele>
        <time>2022-07-03T10:45:12.000Z</time>
      </trkpt>
      <trkpt lat="45.28875" lon="6.47255">
        <ele>2183.3</ele>
        <time>2022-07-03T10:45:20.000Z</time>
      </trkpt>
      <trkpt lat="45.28876" lon="6.47242">
        <ele>2184.6</ele>
        <time>2022-07-03T10:45:30.000Z</time>
      </trkpt>
      <trkpt lat="45.28875" lon="6.47229">
        <ele>2185.2</ele>
        <time>2022-07-03T10:45:36.000Z</time>
      </trkpt>
      <trkpt lat="45.28868" lon="6.4722">
        <ele>2184.9</ele>
        <time>2022-07-03T10:45:42.000Z</time>
      </trkpt>
      <trkpt lat="45.28858" lon="6.47212">
        <ele>2185.6</ele>
        <time>2022-07-03T10:45:52.000Z</time>
      </trkpt>
      <trkpt lat="45.28848" lon="6.47205">
        <ele>2185.3</ele>
        <time>2022-07-03T10:45:56.000Z</time>
      </trkpt>
      <trkpt lat="45.28841" lon="6.47193">
        <ele>2186.4</ele>
        <time>2022-07-03T10:46:02.000Z</time>
      </trkpt>
      <trkpt lat="45.28832" lon="6.47182">
        <ele>2187.4</ele>
        <time>2022-07-03T10:46:10.000Z</time>
      </trkpt>
      <trkpt lat="45.28824" lon="6.47171">
        <ele>2188.8</ele>
        <time>2022-07-03T10:46:18.000Z</time>
      </trkpt>
      <trkpt lat="45.28817" lon="6.47161">
        <ele>2190.7</ele>
        <time>2022-07-03T10:46:26.000Z</time>
      </trkpt>
      <trkpt lat="45.28809" lon="6.47155">
        <ele>2191.3</ele>
        <time>2022-07-03T10:46:32.000Z</time>
      </trkpt>
      <trkpt lat="45.28801" lon="6.47147">
        <ele>2192.1</ele>
        <time>2022-07-03T10:46:40.000Z</time>
      </trkpt>
      <trkpt lat="45.28793" lon="6.47139">
        <ele>2192.4</ele>
        <time>2022-07-03T10:46:48.000Z</time>
      </trkpt>
      <trkpt lat="45.28785" lon="6.47128">
        <ele>2191.5</ele>
        <time>2022-07-03T10:46:56.000Z</time>
      </trkpt>
      <trkpt lat="45.28779" lon="6.47116">
        <ele>2192.2</ele>
        <time>2022-07-03T10:47:04.000Z</time>
      </trkpt>
      <trkpt lat="45.28771" lon="6.47106">
        <ele>2192.2</ele>
        <time>2022-07-03T10:47:10.000Z</time>
      </trkpt>
      <trkpt lat="45.28762" lon="6.47096">
        <ele>2192.7</ele>
        <time>2022-07-03T10:47:18.000Z</time>
      </trkpt>
      <trkpt lat="45.28755" lon="6.47086">
        <ele>2193.8</ele>
        <time>2022-07-03T10:47:26.000Z</time>
      </trkpt>
      <trkpt lat="45.28749" lon="6.47076">
        <ele>2194</ele>
        <time>2022-07-03T10:47:36.000Z</time>
      </trkpt>
      <trkpt lat="45.28746" lon="6.4706">
        <ele>2195.7</ele>
        <time>2022-07-03T10:47:44.000Z</time>
      </trkpt>
      <trkpt lat="45.28749" lon="6.47048">
        <ele>2197.7</ele>
        <time>2022-07-03T10:47:50.000Z</time>
      </trkpt>
      <trkpt lat="45.28751" lon="6.47034">
        <ele>2197.6</ele>
        <time>2022-07-03T10:47:58.000Z</time>
      </trkpt>
      <trkpt lat="45.28753" lon="6.47022">
        <ele>2199.2</ele>
        <time>2022-07-03T10:48:06.000Z</time>
      </trkpt>
      <trkpt lat="45.28753" lon="6.47005">
        <ele>2200.1</ele>
        <time>2022-07-03T10:48:16.000Z</time>
      </trkpt>
      <trkpt lat="45.28752" lon="6.4699">
        <ele>2200.5</ele>
        <time>2022-07-03T10:48:24.000Z</time>
      </trkpt>
      <trkpt lat="45.28749" lon="6.46973">
        <ele>2198.5</ele>
        <time>2022-07-03T10:48:32.000Z</time>
      </trkpt>
      <trkpt lat="45.28748" lon="6.46958">
        <ele>2198</ele>
        <time>2022-07-03T10:48:36.000Z</time>
      </trkpt>
      <trkpt lat="45.28749" lon="6.46945">
        <ele>2198.3</ele>
        <time>2022-07-03T10:48:40.000Z</time>
      </trkpt>
      <trkpt lat="45.2875" lon="6.4693">
        <ele>2198.4</ele>
        <time>2022-07-03T10:48:44.000Z</time>
      </trkpt>
      <trkpt lat="45.28747" lon="6.46917">
        <ele>2197.8</ele>
        <time>2022-07-03T10:48:48.000Z</time>
      </trkpt>
      <trkpt lat="45.2874" lon="6.4691">
        <ele>2197.8</ele>
        <time>2022-07-03T10:48:54.000Z</time>
      </trkpt>
      <trkpt lat="45.28735" lon="6.46898">
        <ele>2198</ele>
        <time>2022-07-03T10:49:01.000Z</time>
      </trkpt>
      <trkpt lat="45.28731" lon="6.46887">
        <ele>2196.9</ele>
        <time>2022-07-03T10:49:21.000Z</time>
      </trkpt>
      <trkpt lat="45.28728" lon="6.46875">
        <ele>2195.6</ele>
        <time>2022-07-03T10:49:35.000Z</time>
      </trkpt>
      <trkpt lat="45.28726" lon="6.46888">
        <ele>2195.3</ele>
        <time>2022-07-03T10:50:13.000Z</time>
      </trkpt>
      <trkpt lat="45.28731" lon="6.46898">
        <ele>2196.7</ele>
        <time>2022-07-03T10:50:25.000Z</time>
      </trkpt>
      <trkpt lat="45.2874" lon="6.46895">
        <ele>2199.4</ele>
        <time>2022-07-03T10:50:47.000Z</time>
      </trkpt>
      <trkpt lat="45.2875" lon="6.46901">
        <ele>2201.4</ele>
        <time>2022-07-03T10:50:59.000Z</time>
      </trkpt>
      <trkpt lat="45.28757" lon="6.46911">
        <ele>2202.8</ele>
        <time>2022-07-03T10:51:07.000Z</time>
      </trkpt>
      <trkpt lat="45.2876" lon="6.46925">
        <ele>2203.5</ele>
        <time>2022-07-03T10:51:15.000Z</time>
      </trkpt>
      <trkpt lat="45.28759" lon="6.46939">
        <ele>2204.2</ele>
        <time>2022-07-03T10:51:23.000Z</time>
      </trkpt>
      <trkpt lat="45.28758" lon="6.46953">
        <ele>2203.8</ele>
        <time>2022-07-03T10:51:31.000Z</time>
      </trkpt>
      <trkpt lat="45.28761" lon="6.46965">
        <ele>2205.6</ele>
        <time>2022-07-03T10:51:39.000Z</time>
      </trkpt>
      <trkpt lat="45.28766" lon="6.46978">
        <ele>2209.5</ele>
        <time>2022-07-03T10:51:47.000Z</time>
      </trkpt>
      <trkpt lat="45.28766" lon="6.46991">
        <ele>2209.5</ele>
        <time>2022-07-03T10:51:55.000Z</time>
      </trkpt>
      <trkpt lat="45.28767" lon="6.47011">
        <ele>2209.1</ele>
        <time>2022-07-03T10:52:01.000Z</time>
      </trkpt>
      <trkpt lat="45.28769" lon="6.47027">
        <ele>2208.4</ele>
        <time>2022-07-03T10:52:07.000Z</time>
      </trkpt>
      <trkpt lat="45.28771" lon="6.47039">
        <ele>2208.5</ele>
        <time>2022-07-03T10:52:15.000Z</time>
      </trkpt>
      <trkpt lat="45.28775" lon="6.47052">
        <ele>2209.1</ele>
        <time>2022-07-03T10:52:23.000Z</time>
      </trkpt>
      <trkpt lat="45.28782" lon="6.4706">
        <ele>2209.4</ele>
        <time>2022-07-03T10:52:31.000Z</time>
      </trkpt>
      <trkpt lat="45.28792" lon="6.47057">
        <ele>2210.6</ele>
        <time>2022-07-03T10:52:39.000Z</time>
      </trkpt>
      <trkpt lat="45.288" lon="6.47052">
        <ele>2212.2</ele>
        <time>2022-07-03T10:52:45.000Z</time>
      </trkpt>
      <trkpt lat="45.2881" lon="6.47052">
        <ele>2214.9</ele>
        <time>2022-07-03T10:52:53.000Z</time>
      </trkpt>
      <trkpt lat="45.28818" lon="6.47059">
        <ele>2217.6</ele>
        <time>2022-07-03T10:53:01.000Z</time>
      </trkpt>
      <trkpt lat="45.28822" lon="6.47074">
        <ele>2217.9</ele>
        <time>2022-07-03T10:53:09.000Z</time>
      </trkpt>
      <trkpt lat="45.28828" lon="6.47085">
        <ele>2218.5</ele>
        <time>2022-07-03T10:53:19.000Z</time>
      </trkpt>
      <trkpt lat="45.28836" lon="6.47094">
        <ele>2218.2</ele>
        <time>2022-07-03T10:54:19.000Z</time>
      </trkpt>
      <trkpt lat="45.28847" lon="6.47098">
        <ele>2219.2</ele>
        <time>2022-07-03T10:54:27.000Z</time>
      </trkpt>
      <trkpt lat="45.28857" lon="6.47096">
        <ele>2221.1</ele>
        <time>2022-07-03T10:54:35.000Z</time>
      </trkpt>
      <trkpt lat="45.28867" lon="6.47093">
        <ele>2223.6</ele>
        <time>2022-07-03T10:54:43.000Z</time>
      </trkpt>
      <trkpt lat="45.28877" lon="6.4709">
        <ele>2226.2</ele>
        <time>2022-07-03T10:54:51.000Z</time>
      </trkpt>
      <trkpt lat="45.28886" lon="6.47084">
        <ele>2229</ele>
        <time>2022-07-03T10:55:03.000Z</time>
      </trkpt>
      <trkpt lat="45.28885" lon="6.47068">
        <ele>2231.4</ele>
        <time>2022-07-03T10:55:11.000Z</time>
      </trkpt>
      <trkpt lat="45.28879" lon="6.47056">
        <ele>2232.5</ele>
        <time>2022-07-03T10:55:21.000Z</time>
      </trkpt>
      <trkpt lat="45.28874" lon="6.47044">
        <ele>2234.1</ele>
        <time>2022-07-03T10:55:31.000Z</time>
      </trkpt>
      <trkpt lat="45.2887" lon="6.47031">
        <ele>2235.4</ele>
        <time>2022-07-03T10:55:43.000Z</time>
      </trkpt>
      <trkpt lat="45.28863" lon="6.47021">
        <ele>2235.9</ele>
        <time>2022-07-03T10:55:51.000Z</time>
      </trkpt>
      <trkpt lat="45.28855" lon="6.47014">
        <ele>2236.9</ele>
        <time>2022-07-03T10:56:01.000Z</time>
      </trkpt>
      <trkpt lat="45.28848" lon="6.47005">
        <ele>2238.1</ele>
        <time>2022-07-03T10:56:09.000Z</time>
      </trkpt>
      <trkpt lat="45.28842" lon="6.46994">
        <ele>2238.4</ele>
        <time>2022-07-03T10:56:17.000Z</time>
      </trkpt>
      <trkpt lat="45.28839" lon="6.46981">
        <ele>2238.8</ele>
        <time>2022-07-03T10:56:25.000Z</time>
      </trkpt>
      <trkpt lat="45.28837" lon="6.46968">
        <ele>2239.8</ele>
        <time>2022-07-03T10:56:33.000Z</time>
      </trkpt>
      <trkpt lat="45.28837" lon="6.46952">
        <ele>2240.8</ele>
        <time>2022-07-03T10:56:43.000Z</time>
      </trkpt>
      <trkpt lat="45.28834" lon="6.46939">
        <ele>2241</ele>
        <time>2022-07-03T10:56:51.000Z</time>
      </trkpt>
      <trkpt lat="45.28836" lon="6.46925">
        <ele>2240.9</ele>
        <time>2022-07-03T10:56:59.000Z</time>
      </trkpt>
      <trkpt lat="45.28844" lon="6.46919">
        <ele>2242.9</ele>
        <time>2022-07-03T10:57:07.000Z</time>
      </trkpt>
      <trkpt lat="45.28855" lon="6.4692">
        <ele>2245.9</ele>
        <time>2022-07-03T10:57:15.000Z</time>
      </trkpt>
      <trkpt lat="45.28865" lon="6.46927">
        <ele>2248.9</ele>
        <time>2022-07-03T10:57:25.000Z</time>
      </trkpt>
      <trkpt lat="45.28872" lon="6.46939">
        <ele>2250.8</ele>
        <time>2022-07-03T10:57:35.000Z</time>
      </trkpt>
      <trkpt lat="45.28877" lon="6.4695">
        <ele>2251.9</ele>
        <time>2022-07-03T10:59:21.000Z</time>
      </trkpt>
      <trkpt lat="45.2888" lon="6.46963">
        <ele>2252.4</ele>
        <time>2022-07-03T10:59:27.000Z</time>
      </trkpt>
      <trkpt lat="45.28885" lon="6.46977">
        <ele>2252.6</ele>
        <time>2022-07-03T10:59:35.000Z</time>
      </trkpt>
      <trkpt lat="45.2889" lon="6.4699">
        <ele>2252.4</ele>
        <time>2022-07-03T10:59:43.000Z</time>
      </trkpt>
      <trkpt lat="45.28894" lon="6.47002">
        <ele>2251.8</ele>
        <time>2022-07-03T10:59:53.000Z</time>
      </trkpt>
      <trkpt lat="45.28903" lon="6.4701">
        <ele>2252.1</ele>
        <time>2022-07-03T11:00:04.000Z</time>
      </trkpt>
      <trkpt lat="45.28912" lon="6.47008">
        <ele>2255.2</ele>
        <time>2022-07-03T11:00:14.000Z</time>
      </trkpt>
      <trkpt lat="45.28914" lon="6.46995">
        <ele>2258.3</ele>
        <time>2022-07-03T11:00:32.000Z</time>
      </trkpt>
      <trkpt lat="45.28916" lon="6.46982">
        <ele>2262.1</ele>
        <time>2022-07-03T11:00:48.000Z</time>
      </trkpt>
      <trkpt lat="45.28924" lon="6.46973">
        <ele>2265.3</ele>
        <time>2022-07-03T11:01:06.000Z</time>
      </trkpt>
      <trkpt lat="45.28934" lon="6.46972">
        <ele>2266.3</ele>
        <time>2022-07-03T11:01:22.000Z</time>
      </trkpt>
      <trkpt lat="45.28943" lon="6.46969">
        <ele>2267.8</ele>
        <time>2022-07-03T11:01:40.000Z</time>
      </trkpt>
      <trkpt lat="45.2894" lon="6.46957">
        <ele>2271.4</ele>
        <time>2022-07-03T11:01:50.000Z</time>
      </trkpt>
      <trkpt lat="45.2893" lon="6.46955">
        <ele>2271.6</ele>
        <time>2022-07-03T11:02:00.000Z</time>
      </trkpt>
      <trkpt lat="45.28921" lon="6.46952">
        <ele>2271.9</ele>
        <time>2022-07-03T11:02:14.000Z</time>
      </trkpt>
      <trkpt lat="45.28928" lon="6.4694">
        <ele>2275.8</ele>
        <time>2022-07-03T11:02:34.000Z</time>
      </trkpt>
      <trkpt lat="45.28933" lon="6.46929">
        <ele>2279.5</ele>
        <time>2022-07-03T11:03:10.000Z</time>
      </trkpt>
      <trkpt lat="45.28943" lon="6.46926">
        <ele>2281.5</ele>
        <time>2022-07-03T11:03:24.000Z</time>
      </trkpt>
      <trkpt lat="45.28952" lon="6.46929">
        <ele>2282.5</ele>
        <time>2022-07-03T11:03:40.000Z</time>
      </trkpt>
      <trkpt lat="45.28958" lon="6.46919">
        <ele>2286.9</ele>
        <time>2022-07-03T11:04:16.000Z</time>
      </trkpt>
      <trkpt lat="45.28961" lon="6.46907">
        <ele>2289.6</ele>
        <time>2022-07-03T11:04:36.000Z</time>
      </trkpt>
      <trkpt lat="45.28966" lon="6.46895">
        <ele>2292.5</ele>
        <time>2022-07-03T11:04:54.000Z</time>
      </trkpt>
      <trkpt lat="45.28968" lon="6.46882">
        <ele>2294.5</ele>
        <time>2022-07-03T11:05:04.000Z</time>
      </trkpt>
      <trkpt lat="45.2897" lon="6.46869">
        <ele>2296.6</ele>
        <time>2022-07-03T11:05:24.000Z</time>
      </trkpt>
      <trkpt lat="45.28976" lon="6.46857">
        <ele>2300.2</ele>
        <time>2022-07-03T11:05:44.000Z</time>
      </trkpt>
      <trkpt lat="45.28976" lon="6.46844">
        <ele>2300.9</ele>
        <time>2022-07-03T11:07:28.000Z</time>
      </trkpt>
      <trkpt lat="45.28967" lon="6.46834">
        <ele>2298.8</ele>
        <time>2022-07-03T11:07:36.000Z</time>
      </trkpt>
      <trkpt lat="45.28959" lon="6.46825">
        <ele>2300</ele>
        <time>2022-07-03T11:07:42.000Z</time>
      </trkpt>
      <trkpt lat="45.28957" lon="6.46811">
        <ele>2302.6</ele>
        <time>2022-07-03T11:07:50.000Z</time>
      </trkpt>
      <trkpt lat="45.28966" lon="6.46806">
        <ele>2304.2</ele>
        <time>2022-07-03T11:07:56.000Z</time>
      </trkpt>
      <trkpt lat="45.28976" lon="6.46801">
        <ele>2305.9</ele>
        <time>2022-07-03T11:08:06.000Z</time>
      </trkpt>
      <trkpt lat="45.28984" lon="6.46795">
        <ele>2308.6</ele>
        <time>2022-07-03T11:08:16.000Z</time>
      </trkpt>
      <trkpt lat="45.28995" lon="6.46795">
        <ele>2311.4</ele>
        <time>2022-07-03T11:08:28.000Z</time>
      </trkpt>
      <trkpt lat="45.29" lon="6.46807">
        <ele>2312.1</ele>
        <time>2022-07-03T11:08:40.000Z</time>
      </trkpt>
      <trkpt lat="45.28999" lon="6.46821">
        <ele>2312.5</ele>
        <time>2022-07-03T11:09:18.000Z</time>
      </trkpt>
      <trkpt lat="45.29002" lon="6.46835">
        <ele>2315.3</ele>
        <time>2022-07-03T11:09:26.000Z</time>
      </trkpt>
      <trkpt lat="45.29004" lon="6.46849">
        <ele>2317.3</ele>
        <time>2022-07-03T11:09:36.000Z</time>
      </trkpt>
      <trkpt lat="45.29007" lon="6.46864">
        <ele>2318.8</ele>
        <time>2022-07-03T11:09:46.000Z</time>
      </trkpt>
      <trkpt lat="45.29013" lon="6.46874">
        <ele>2319.3</ele>
        <time>2022-07-03T11:09:54.000Z</time>
      </trkpt>
      <trkpt lat="45.29022" lon="6.4688">
        <ele>2321.8</ele>
        <time>2022-07-03T11:10:04.000Z</time>
      </trkpt>
      <trkpt lat="45.29031" lon="6.46884">
        <ele>2323.9</ele>
        <time>2022-07-03T11:10:32.000Z</time>
      </trkpt>
      <trkpt lat="45.29038" lon="6.46893">
        <ele>2324.3</ele>
        <time>2022-07-03T11:10:50.000Z</time>
      </trkpt>
      <trkpt lat="45.29046" lon="6.46902">
        <ele>2325.5</ele>
        <time>2022-07-03T11:11:02.000Z</time>
      </trkpt>
      <trkpt lat="45.29054" lon="6.46909">
        <ele>2327.6</ele>
        <time>2022-07-03T11:11:14.000Z</time>
      </trkpt>
      <trkpt lat="45.29059" lon="6.46898">
        <ele>2332.1</ele>
        <time>2022-07-03T11:11:38.000Z</time>
      </trkpt>
      <trkpt lat="45.29057" lon="6.46884">
        <ele>2334</ele>
        <time>2022-07-03T11:12:00.000Z</time>
      </trkpt>
      <trkpt lat="45.29051" lon="6.46869">
        <ele>2337.1</ele>
        <time>2022-07-03T11:12:10.000Z</time>
      </trkpt>
      <trkpt lat="45.29044" lon="6.46859">
        <ele>2337.7</ele>
        <time>2022-07-03T11:12:18.000Z</time>
      </trkpt>
      <trkpt lat="45.29043" lon="6.46847">
        <ele>2337.3</ele>
        <time>2022-07-03T11:12:26.000Z</time>
      </trkpt>
      <trkpt lat="45.29044" lon="6.46832">
        <ele>2338.3</ele>
        <time>2022-07-03T11:12:36.000Z</time>
      </trkpt>
      <trkpt lat="45.29042" lon="6.46819">
        <ele>2336.9</ele>
        <time>2022-07-03T11:12:44.000Z</time>
      </trkpt>
      <trkpt lat="45.2905" lon="6.46808">
        <ele>2338.9</ele>
        <time>2022-07-03T11:12:54.000Z</time>
      </trkpt>
      <trkpt lat="45.29056" lon="6.4682">
        <ele>2342</ele>
        <time>2022-07-03T11:13:02.000Z</time>
      </trkpt>
      <trkpt lat="45.29058" lon="6.46834">
        <ele>2342.5</ele>
        <time>2022-07-03T11:13:10.000Z</time>
      </trkpt>
      <trkpt lat="45.29062" lon="6.46848">
        <ele>2343.3</ele>
        <time>2022-07-03T11:13:18.000Z</time>
      </trkpt>
      <trkpt lat="45.29068" lon="6.4686">
        <ele>2344.2</ele>
        <time>2022-07-03T11:13:28.000Z</time>
      </trkpt>
      <trkpt lat="45.29076" lon="6.46871">
        <ele>2344.3</ele>
        <time>2022-07-03T11:13:36.000Z</time>
      </trkpt>
      <trkpt lat="45.29085" lon="6.46875">
        <ele>2346.3</ele>
        <time>2022-07-03T11:14:02.000Z</time>
      </trkpt>
      <trkpt lat="45.29094" lon="6.4688">
        <ele>2348.9</ele>
        <time>2022-07-03T11:14:16.000Z</time>
      </trkpt>
      <trkpt lat="45.29103" lon="6.46886">
        <ele>2351.4</ele>
        <time>2022-07-03T11:14:32.000Z</time>
      </trkpt>
      <trkpt lat="45.29113" lon="6.46887">
        <ele>2354.6</ele>
        <time>2022-07-03T11:14:52.000Z</time>
      </trkpt>
      <trkpt lat="45.29123" lon="6.46891">
        <ele>2357.2</ele>
        <time>2022-07-03T11:15:06.000Z</time>
      </trkpt>
      <trkpt lat="45.29133" lon="6.4689">
        <ele>2360</ele>
        <time>2022-07-03T11:15:36.000Z</time>
      </trkpt>
      <trkpt lat="45.29142" lon="6.46893">
        <ele>2362.1</ele>
        <time>2022-07-03T11:15:52.000Z</time>
      </trkpt>
      <trkpt lat="45.29151" lon="6.46891">
        <ele>2362.6</ele>
        <time>2022-07-03T11:16:06.000Z</time>
      </trkpt>
      <trkpt lat="45.2916" lon="6.46889">
        <ele>2363.5</ele>
        <time>2022-07-03T11:16:20.000Z</time>
      </trkpt>
      <trkpt lat="45.2917" lon="6.46886">
        <ele>2365.3</ele>
        <time>2022-07-03T11:16:32.000Z</time>
      </trkpt>
      <trkpt lat="45.2918" lon="6.46887">
        <ele>2367.6</ele>
        <time>2022-07-03T11:16:48.000Z</time>
      </trkpt>
      <trkpt lat="45.2919" lon="6.46885">
        <ele>2370.6</ele>
        <time>2022-07-03T11:17:02.000Z</time>
      </trkpt>
      <trkpt lat="45.29199" lon="6.46886">
        <ele>2372.2</ele>
        <time>2022-07-03T11:17:16.000Z</time>
      </trkpt>
      <trkpt lat="45.29206" lon="6.46897">
        <ele>2371.1</ele>
        <time>2022-07-03T11:17:24.000Z</time>
      </trkpt>
      <trkpt lat="45.29215" lon="6.46905">
        <ele>2370.9</ele>
        <time>2022-07-03T11:17:28.000Z</time>
      </trkpt>
      <trkpt lat="45.29223" lon="6.46899">
        <ele>2372.5</ele>
        <time>2022-07-03T11:18:06.000Z</time>
      </trkpt>
      <trkpt lat="45.29231" lon="6.46892">
        <ele>2373.1</ele>
        <time>2022-07-03T11:29:27.000Z</time>
      </trkpt>
      <trkpt lat="45.2924" lon="6.46884">
        <ele>2374.1</ele>
        <time>2022-07-03T11:29:35.000Z</time>
      </trkpt>
      <trkpt lat="45.29248" lon="6.46874">
        <ele>2375.6</ele>
        <time>2022-07-03T11:29:45.000Z</time>
      </trkpt>
      <trkpt lat="45.29255" lon="6.46861">
        <ele>2377.4</ele>
        <time>2022-07-03T11:29:59.000Z</time>
      </trkpt>
      <trkpt lat="45.29258" lon="6.46847">
        <ele>2377.9</ele>
        <time>2022-07-03T11:30:07.000Z</time>
      </trkpt>
      <trkpt lat="45.2926" lon="6.46831">
        <ele>2378.3</ele>
        <time>2022-07-03T11:30:15.000Z</time>
      </trkpt>
      <trkpt lat="45.2926" lon="6.46818">
        <ele>2378.1</ele>
        <time>2022-07-03T11:30:23.000Z</time>
      </trkpt>
      <trkpt lat="45.29259" lon="6.46803">
        <ele>2378</ele>
        <time>2022-07-03T11:30:31.000Z</time>
      </trkpt>
      <trkpt lat="45.29258" lon="6.46789">
        <ele>2378.1</ele>
        <time>2022-07-03T11:30:37.000Z</time>
      </trkpt>
      <trkpt lat="45.29258" lon="6.46775">
        <ele>2378.4</ele>
        <time>2022-07-03T11:30:41.000Z</time>
      </trkpt>
      <trkpt lat="45.29265" lon="6.46765">
        <ele>2379.4</ele>
        <time>2022-07-03T11:30:49.000Z</time>
      </trkpt>
      <trkpt lat="45.29273" lon="6.46758">
        <ele>2379.9</ele>
        <time>2022-07-03T11:30:55.000Z</time>
      </trkpt>
      <trkpt lat="45.29281" lon="6.4675">
        <ele>2380.8</ele>
        <time>2022-07-03T11:31:03.000Z</time>
      </trkpt>
      <trkpt lat="45.2929" lon="6.4674">
        <ele>2382.5</ele>
        <time>2022-07-03T11:31:11.000Z</time>
      </trkpt>
      <trkpt lat="45.293" lon="6.46738">
        <ele>2382.9</ele>
        <time>2022-07-03T11:31:19.000Z</time>
      </trkpt>
      <trkpt lat="45.29311" lon="6.46737">
        <ele>2383.3</ele>
        <time>2022-07-03T11:31:31.000Z</time>
      </trkpt>
      <trkpt lat="45.29322" lon="6.46732">
        <ele>2385</ele>
        <time>2022-07-03T11:31:39.000Z</time>
      </trkpt>
      <trkpt lat="45.29333" lon="6.46731">
        <ele>2385.7</ele>
        <time>2022-07-03T11:31:47.000Z</time>
      </trkpt>
      <trkpt lat="45.29342" lon="6.46725">
        <ele>2386.1</ele>
        <time>2022-07-03T11:31:55.000Z</time>
      </trkpt>
      <trkpt lat="45.29351" lon="6.46717">
        <ele>2385.8</ele>
        <time>2022-07-03T11:32:01.000Z</time>
      </trkpt>
      <trkpt lat="45.29358" lon="6.46708">
        <ele>2385.9</ele>
        <time>2022-07-03T11:32:05.000Z</time>
      </trkpt>
      <trkpt lat="45.29366" lon="6.467">
        <ele>2385.8</ele>
        <time>2022-07-03T11:32:09.000Z</time>
      </trkpt>
      <trkpt lat="45.29377" lon="6.46692">
        <ele>2385.2</ele>
        <time>2022-07-03T11:32:13.000Z</time>
      </trkpt>
      <trkpt lat="45.29382" lon="6.46681">
        <ele>2383.3</ele>
        <time>2022-07-03T11:32:21.000Z</time>
      </trkpt>
      <trkpt lat="45.29377" lon="6.46665">
        <ele>2383.3</ele>
        <time>2022-07-03T11:32:27.000Z</time>
      </trkpt>
      <trkpt lat="45.29369" lon="6.46655">
        <ele>2383.4</ele>
        <time>2022-07-03T11:32:29.000Z</time>
      </trkpt>
      <trkpt lat="45.29361" lon="6.46633">
        <ele>2381.2</ele>
        <time>2022-07-03T11:32:33.000Z</time>
      </trkpt>
      <trkpt lat="45.29353" lon="6.46614">
        <ele>2378.9</ele>
        <time>2022-07-03T11:32:37.000Z</time>
      </trkpt>
      <trkpt lat="45.29346" lon="6.46594">
        <ele>2377.1</ele>
        <time>2022-07-03T11:32:41.000Z</time>
      </trkpt>
      <trkpt lat="45.2934" lon="6.46577">
        <ele>2375.4</ele>
        <time>2022-07-03T11:32:45.000Z</time>
      </trkpt>
      <trkpt lat="45.29337" lon="6.46558">
        <ele>2373.4</ele>
        <time>2022-07-03T11:32:49.000Z</time>
      </trkpt>
      <trkpt lat="45.29334" lon="6.46541">
        <ele>2372.8</ele>
        <time>2022-07-03T11:32:53.000Z</time>
      </trkpt>
      <trkpt lat="45.29333" lon="6.46522">
        <ele>2371.7</ele>
        <time>2022-07-03T11:32:57.000Z</time>
      </trkpt>
      <trkpt lat="45.29329" lon="6.46503">
        <ele>2369.5</ele>
        <time>2022-07-03T11:33:01.000Z</time>
      </trkpt>
      <trkpt lat="45.29324" lon="6.46491">
        <ele>2366.8</ele>
        <time>2022-07-03T11:33:11.000Z</time>
      </trkpt>
      <trkpt lat="45.29326" lon="6.46476">
        <ele>2364.4</ele>
        <time>2022-07-03T11:55:07.000Z</time>
      </trkpt>
      <trkpt lat="45.29329" lon="6.46454">
        <ele>2362.2</ele>
        <time>2022-07-03T11:55:11.000Z</time>
      </trkpt>
      <trkpt lat="45.29342" lon="6.46439">
        <ele>2362.5</ele>
        <time>2022-07-03T11:55:15.000Z</time>
      </trkpt>
      <trkpt lat="45.29352" lon="6.46433">
        <ele>2363.1</ele>
        <time>2022-07-03T11:55:19.000Z</time>
      </trkpt>
      <trkpt lat="45.29363" lon="6.46429">
        <ele>2365.3</ele>
        <time>2022-07-03T11:55:23.000Z</time>
      </trkpt>
      <trkpt lat="45.29375" lon="6.46417">
        <ele>2366.4</ele>
        <time>2022-07-03T11:55:31.000Z</time>
      </trkpt>
      <trkpt lat="45.29384" lon="6.46404">
        <ele>2363.8</ele>
        <time>2022-07-03T11:55:35.000Z</time>
      </trkpt>
      <trkpt lat="45.29394" lon="6.46388">
        <ele>2361.4</ele>
        <time>2022-07-03T11:55:39.000Z</time>
      </trkpt>
      <trkpt lat="45.29405" lon="6.46374">
        <ele>2359.4</ele>
        <time>2022-07-03T11:55:43.000Z</time>
      </trkpt>
      <trkpt lat="45.29414" lon="6.4636">
        <ele>2358.1</ele>
        <time>2022-07-03T11:55:47.000Z</time>
      </trkpt>
      <trkpt lat="45.29407" lon="6.46344">
        <ele>2354.2</ele>
        <time>2022-07-03T11:55:51.000Z</time>
      </trkpt>
      <trkpt lat="45.29401" lon="6.46333">
        <ele>2350</ele>
        <time>2022-07-03T11:55:55.000Z</time>
      </trkpt>
      <trkpt lat="45.29413" lon="6.46332">
        <ele>2350.6</ele>
        <time>2022-07-03T11:55:59.000Z</time>
      </trkpt>
      <trkpt lat="45.29428" lon="6.46336">
        <ele>2350.1</ele>
        <time>2022-07-03T11:56:03.000Z</time>
      </trkpt>
      <trkpt lat="45.29442" lon="6.46338">
        <ele>2347.5</ele>
        <time>2022-07-03T11:56:07.000Z</time>
      </trkpt>
      <trkpt lat="45.29436" lon="6.46321">
        <ele>2343.7</ele>
        <time>2022-07-03T11:56:13.000Z</time>
      </trkpt>
      <trkpt lat="45.29424" lon="6.46302">
        <ele>2340.9</ele>
        <time>2022-07-03T11:56:17.000Z</time>
      </trkpt>
      <trkpt lat="45.29419" lon="6.46284">
        <ele>2338.9</ele>
        <time>2022-07-03T11:56:21.000Z</time>
      </trkpt>
      <trkpt lat="45.29417" lon="6.46269">
        <ele>2336.2</ele>
        <time>2022-07-03T11:56:25.000Z</time>
      </trkpt>
      <trkpt lat="45.29416" lon="6.46252">
        <ele>2332.2</ele>
        <time>2022-07-03T11:56:29.000Z</time>
      </trkpt>
      <trkpt lat="45.29417" lon="6.46235">
        <ele>2330.9</ele>
        <time>2022-07-03T11:56:33.000Z</time>
      </trkpt>
      <trkpt lat="45.29418" lon="6.46222">
        <ele>2330.4</ele>
        <time>2022-07-03T11:58:33.000Z</time>
      </trkpt>
      <trkpt lat="45.29411" lon="6.46213">
        <ele>2330.5</ele>
        <time>2022-07-03T12:01:28.000Z</time>
      </trkpt>
      <trkpt lat="45.29408" lon="6.46201">
        <ele>2330.9</ele>
        <time>2022-07-03T12:01:42.000Z</time>
      </trkpt>
      <trkpt lat="45.29416" lon="6.46194">
        <ele>2334.5</ele>
        <time>2022-07-03T12:01:54.000Z</time>
      </trkpt>
      <trkpt lat="45.29412" lon="6.46182">
        <ele>2337.4</ele>
        <time>2022-07-03T12:02:14.000Z</time>
      </trkpt>
      <trkpt lat="45.29405" lon="6.46171">
        <ele>2338.1</ele>
        <time>2022-07-03T12:02:28.000Z</time>
      </trkpt>
      <trkpt lat="45.29402" lon="6.46157">
        <ele>2342.2</ele>
        <time>2022-07-03T12:02:46.000Z</time>
      </trkpt>
      <trkpt lat="45.2941" lon="6.4615">
        <ele>2348.5</ele>
        <time>2022-07-03T12:03:28.000Z</time>
      </trkpt>
      <trkpt lat="45.2942" lon="6.4615">
        <ele>2349.2</ele>
        <time>2022-07-03T12:03:42.000Z</time>
      </trkpt>
      <trkpt lat="45.29424" lon="6.46138">
        <ele>2352.5</ele>
        <time>2022-07-03T12:03:58.000Z</time>
      </trkpt>
      <trkpt lat="45.2943" lon="6.46127">
        <ele>2354.6</ele>
        <time>2022-07-03T12:04:22.000Z</time>
      </trkpt>
      <trkpt lat="45.29432" lon="6.46113">
        <ele>2360.3</ele>
        <time>2022-07-03T12:04:44.000Z</time>
      </trkpt>
      <trkpt lat="45.29424" lon="6.46104">
        <ele>2363.5</ele>
        <time>2022-07-03T12:05:18.000Z</time>
      </trkpt>
      <trkpt lat="45.29428" lon="6.46091">
        <ele>2364.8</ele>
        <time>2022-07-03T12:05:42.000Z</time>
      </trkpt>
      <trkpt lat="45.2943" lon="6.46078">
        <ele>2365.8</ele>
        <time>2022-07-03T12:06:00.000Z</time>
      </trkpt>
      <trkpt lat="45.29428" lon="6.46064">
        <ele>2367</ele>
        <time>2022-07-03T12:06:12.000Z</time>
      </trkpt>
      <trkpt lat="45.29424" lon="6.46052">
        <ele>2368.6</ele>
        <time>2022-07-03T12:06:26.000Z</time>
      </trkpt>
      <trkpt lat="45.29423" lon="6.46039">
        <ele>2370.5</ele>
        <time>2022-07-03T12:06:40.000Z</time>
      </trkpt>
      <trkpt lat="45.29421" lon="6.46026">
        <ele>2373</ele>
        <time>2022-07-03T12:06:54.000Z</time>
      </trkpt>
      <trkpt lat="45.29421" lon="6.46013">
        <ele>2371.9</ele>
        <time>2022-07-03T12:07:06.000Z</time>
      </trkpt>
      <trkpt lat="45.29417" lon="6.46">
        <ele>2374.4</ele>
        <time>2022-07-03T12:07:18.000Z</time>
      </trkpt>
      <trkpt lat="45.29406" lon="6.45985">
        <ele>2370.8</ele>
        <time>2022-07-03T12:07:26.000Z</time>
      </trkpt>
      <trkpt lat="45.29406" lon="6.45964">
        <ele>2367.8</ele>
        <time>2022-07-03T12:07:30.000Z</time>
      </trkpt>
      <trkpt lat="45.2941" lon="6.45952">
        <ele>2370.4</ele>
        <time>2022-07-03T12:07:42.000Z</time>
      </trkpt>
      <trkpt lat="45.29409" lon="6.45938">
        <ele>2374.3</ele>
        <time>2022-07-03T12:07:58.000Z</time>
      </trkpt>
      <trkpt lat="45.2941" lon="6.45924">
        <ele>2380.1</ele>
        <time>2022-07-03T12:08:28.000Z</time>
      </trkpt>
      <trkpt lat="45.29418" lon="6.45916">
        <ele>2383.8</ele>
        <time>2022-07-03T12:08:40.000Z</time>
      </trkpt>
      <trkpt lat="45.29426" lon="6.45909">
        <ele>2384.5</ele>
        <time>2022-07-03T12:08:52.000Z</time>
      </trkpt>
      <trkpt lat="45.2942" lon="6.45899">
        <ele>2386.9</ele>
        <time>2022-07-03T12:09:06.000Z</time>
      </trkpt>
      <trkpt lat="45.29416" lon="6.45885">
        <ele>2389.3</ele>
        <time>2022-07-03T12:09:22.000Z</time>
      </trkpt>
      <trkpt lat="45.2941" lon="6.45876">
        <ele>2390.7</ele>
        <time>2022-07-03T12:09:34.000Z</time>
      </trkpt>
      <trkpt lat="45.29403" lon="6.45866">
        <ele>2391.7</ele>
        <time>2022-07-03T12:09:56.000Z</time>
      </trkpt>
      <trkpt lat="45.29394" lon="6.45857">
        <ele>2392.2</ele>
        <time>2022-07-03T12:10:08.000Z</time>
      </trkpt>
      <trkpt lat="45.29384" lon="6.45857">
        <ele>2391.7</ele>
        <time>2022-07-03T12:10:18.000Z</time>
      </trkpt>
      <trkpt lat="45.29375" lon="6.4585">
        <ele>2391.3</ele>
        <time>2022-07-03T12:10:30.000Z</time>
      </trkpt>
      <trkpt lat="45.29369" lon="6.45841">
        <ele>2391.1</ele>
        <time>2022-07-03T12:10:40.000Z</time>
      </trkpt>
      <trkpt lat="45.29362" lon="6.45831">
        <ele>2391.3</ele>
        <time>2022-07-03T12:10:50.000Z</time>
      </trkpt>
      <trkpt lat="45.29354" lon="6.45824">
        <ele>2392</ele>
        <time>2022-07-03T12:11:00.000Z</time>
      </trkpt>
      <trkpt lat="45.29346" lon="6.45817">
        <ele>2393.4</ele>
        <time>2022-07-03T12:11:12.000Z</time>
      </trkpt>
      <trkpt lat="45.29337" lon="6.45812">
        <ele>2395</ele>
        <time>2022-07-03T12:11:24.000Z</time>
      </trkpt>
      <trkpt lat="45.29328" lon="6.45805">
        <ele>2396</ele>
        <time>2022-07-03T12:11:40.000Z</time>
      </trkpt>
      <trkpt lat="45.29321" lon="6.45797">
        <ele>2397.5</ele>
        <time>2022-07-03T12:11:56.000Z</time>
      </trkpt>
      <trkpt lat="45.29314" lon="6.45786">
        <ele>2400.9</ele>
        <time>2022-07-03T12:12:16.000Z</time>
      </trkpt>
      <trkpt lat="45.29308" lon="6.45777">
        <ele>2405</ele>
        <time>2022-07-03T12:12:30.000Z</time>
      </trkpt>
      <trkpt lat="45.29301" lon="6.45766">
        <ele>2408.7</ele>
        <time>2022-07-03T12:12:52.000Z</time>
      </trkpt>
      <trkpt lat="45.29291" lon="6.45763">
        <ele>2409.2</ele>
        <time>2022-07-03T12:13:10.000Z</time>
      </trkpt>
      <trkpt lat="45.29281" lon="6.45763">
        <ele>2408.6</ele>
        <time>2022-07-03T12:13:22.000Z</time>
      </trkpt>
      <trkpt lat="45.29275" lon="6.45753">
        <ele>2412.4</ele>
        <time>2022-07-03T12:13:44.000Z</time>
      </trkpt>
      <trkpt lat="45.29267" lon="6.45746">
        <ele>2414.7</ele>
        <time>2022-07-03T12:14:02.000Z</time>
      </trkpt>
      <trkpt lat="45.29261" lon="6.45736">
        <ele>2417.5</ele>
        <time>2022-07-03T12:14:14.000Z</time>
      </trkpt>
      <trkpt lat="45.29253" lon="6.45728">
        <ele>2418.9</ele>
        <time>2022-07-03T12:14:30.000Z</time>
      </trkpt>
      <trkpt lat="45.29246" lon="6.4572">
        <ele>2419.6</ele>
        <time>2022-07-03T12:15:02.000Z</time>
      </trkpt>
      <trkpt lat="45.29238" lon="6.45711">
        <ele>2419.7</ele>
        <time>2022-07-03T12:15:20.000Z</time>
      </trkpt>
      <trkpt lat="45.29233" lon="6.45697">
        <ele>2421.5</ele>
        <time>2022-07-03T12:15:32.000Z</time>
      </trkpt>
      <trkpt lat="45.2923" lon="6.45684">
        <ele>2424.1</ele>
        <time>2022-07-03T12:15:44.000Z</time>
      </trkpt>
      <trkpt lat="45.29224" lon="6.45672">
        <ele>2424.7</ele>
        <time>2022-07-03T12:16:00.000Z</time>
      </trkpt>
      <trkpt lat="45.29219" lon="6.45659">
        <ele>2427</ele>
        <time>2022-07-03T12:16:30.000Z</time>
      </trkpt>
      <trkpt lat="45.29211" lon="6.45651">
        <ele>2428.9</ele>
        <time>2022-07-03T12:16:58.000Z</time>
      </trkpt>
      <trkpt lat="45.29206" lon="6.45639">
        <ele>2431.1</ele>
        <time>2022-07-03T12:17:26.000Z</time>
      </trkpt>
      <trkpt lat="45.29203" lon="6.45627">
        <ele>2432.1</ele>
        <time>2022-07-03T12:17:38.000Z</time>
      </trkpt>
      <trkpt lat="45.29198" lon="6.45616">
        <ele>2432</ele>
        <time>2022-07-03T12:17:48.000Z</time>
      </trkpt>
      <trkpt lat="45.29198" lon="6.45602">
        <ele>2434.3</ele>
        <time>2022-07-03T12:18:10.000Z</time>
      </trkpt>
      <trkpt lat="45.29199" lon="6.45589">
        <ele>2437.4</ele>
        <time>2022-07-03T12:18:36.000Z</time>
      </trkpt>
      <trkpt lat="45.29191" lon="6.45577">
        <ele>2437</ele>
        <time>2022-07-03T12:19:04.000Z</time>
      </trkpt>
      <trkpt lat="45.29184" lon="6.45568">
        <ele>2437.6</ele>
        <time>2022-07-03T12:19:18.000Z</time>
      </trkpt>
      <trkpt lat="45.29178" lon="6.45556">
        <ele>2438.1</ele>
        <time>2022-07-03T12:19:34.000Z</time>
      </trkpt>
      <trkpt lat="45.29174" lon="6.45545">
        <ele>2440.6</ele>
        <time>2022-07-03T12:20:00.000Z</time>
      </trkpt>
      <trkpt lat="45.29166" lon="6.45536">
        <ele>2440.2</ele>
        <time>2022-07-03T12:20:12.000Z</time>
      </trkpt>
      <trkpt lat="45.29158" lon="6.45527">
        <ele>2439.8</ele>
        <time>2022-07-03T12:20:30.000Z</time>
      </trkpt>
      <trkpt lat="45.29153" lon="6.45514">
        <ele>2442.1</ele>
        <time>2022-07-03T12:20:46.000Z</time>
      </trkpt>
      <trkpt lat="45.29145" lon="6.45506">
        <ele>2441.5</ele>
        <time>2022-07-03T12:20:58.000Z</time>
      </trkpt>
      <trkpt lat="45.29139" lon="6.45497">
        <ele>2442.2</ele>
        <time>2022-07-03T12:21:20.000Z</time>
      </trkpt>
      <trkpt lat="45.2913" lon="6.45489">
        <ele>2442.7</ele>
        <time>2022-07-03T12:21:40.000Z</time>
      </trkpt>
      <trkpt lat="45.29122" lon="6.45484">
        <ele>2442.8</ele>
        <time>2022-07-03T12:21:52.000Z</time>
      </trkpt>
      <trkpt lat="45.29114" lon="6.45475">
        <ele>2443.9</ele>
        <time>2022-07-03T12:22:08.000Z</time>
      </trkpt>
      <trkpt lat="45.29106" lon="6.45467">
        <ele>2445.8</ele>
        <time>2022-07-03T12:22:26.000Z</time>
      </trkpt>
      <trkpt lat="45.29101" lon="6.45456">
        <ele>2449.9</ele>
        <time>2022-07-03T12:22:42.000Z</time>
      </trkpt>
      <trkpt lat="45.29096" lon="6.45445">
        <ele>2452.4</ele>
        <time>2022-07-03T12:23:22.000Z</time>
      </trkpt>
      <trkpt lat="45.29091" lon="6.45433">
        <ele>2453.9</ele>
        <time>2022-07-03T12:24:10.000Z</time>
      </trkpt>
      <trkpt lat="45.29087" lon="6.4542">
        <ele>2456.1</ele>
        <time>2022-07-03T12:24:38.000Z</time>
      </trkpt>
      <trkpt lat="45.29088" lon="6.45406">
        <ele>2459.5</ele>
        <time>2022-07-03T12:25:20.000Z</time>
      </trkpt>
      <trkpt lat="45.29086" lon="6.45392">
        <ele>2461.4</ele>
        <time>2022-07-03T12:25:44.000Z</time>
      </trkpt>
      <trkpt lat="45.29084" lon="6.45378">
        <ele>2462.5</ele>
        <time>2022-07-03T12:25:56.000Z</time>
      </trkpt>
      <trkpt lat="45.29083" lon="6.45364">
        <ele>2464.5</ele>
        <time>2022-07-03T12:26:12.000Z</time>
      </trkpt>
      <trkpt lat="45.29081" lon="6.4535">
        <ele>2466.7</ele>
        <time>2022-07-03T12:26:26.000Z</time>
      </trkpt>
      <trkpt lat="45.29078" lon="6.45336">
        <ele>2469.2</ele>
        <time>2022-07-03T12:26:48.000Z</time>
      </trkpt>
      <trkpt lat="45.29081" lon="6.45323">
        <ele>2473.8</ele>
        <time>2022-07-03T12:27:30.000Z</time>
      </trkpt>
      <trkpt lat="45.29089" lon="6.45316">
        <ele>2478.5</ele>
        <time>2022-07-03T12:28:16.000Z</time>
      </trkpt>
      <trkpt lat="45.29098" lon="6.45311">
        <ele>2481.8</ele>
        <time>2022-07-03T12:29:22.000Z</time>
      </trkpt>
      <trkpt lat="45.29107" lon="6.45309">
        <ele>2484.4</ele>
        <time>2022-07-03T12:29:58.000Z</time>
      </trkpt>
      <trkpt lat="45.29114" lon="6.453">
        <ele>2487.5</ele>
        <time>2022-07-03T12:30:12.000Z</time>
      </trkpt>
      <trkpt lat="45.29118" lon="6.45288">
        <ele>2490.2</ele>
        <time>2022-07-03T12:30:56.000Z</time>
      </trkpt>
      <trkpt lat="45.29127" lon="6.45284">
        <ele>2493.2</ele>
        <time>2022-07-03T12:31:12.000Z</time>
      </trkpt>
      <trkpt lat="45.29135" lon="6.45289">
        <ele>2495.1</ele>
        <time>2022-07-03T12:31:28.000Z</time>
      </trkpt>
      <trkpt lat="45.29143" lon="6.45282">
        <ele>2497.6</ele>
        <time>2022-07-03T12:31:44.000Z</time>
      </trkpt>
      <trkpt lat="45.29152" lon="6.4528">
        <ele>2500.3</ele>
        <time>2022-07-03T12:32:56.000Z</time>
      </trkpt>
      <trkpt lat="45.29161" lon="6.45285">
        <ele>2502.5</ele>
        <time>2022-07-03T12:33:16.000Z</time>
      </trkpt>
      <trkpt lat="45.2917" lon="6.45279">
        <ele>2504.5</ele>
        <time>2022-07-03T12:33:28.000Z</time>
      </trkpt>
      <trkpt lat="45.29178" lon="6.45286">
        <ele>2506.3</ele>
        <time>2022-07-03T12:33:58.000Z</time>
      </trkpt>
      <trkpt lat="45.29187" lon="6.45282">
        <ele>2508.1</ele>
        <time>2022-07-03T12:34:32.000Z</time>
      </trkpt>
      <trkpt lat="45.29197" lon="6.45285">
        <ele>2510.5</ele>
        <time>2022-07-03T12:34:46.000Z</time>
      </trkpt>
      <trkpt lat="45.29205" lon="6.45293">
        <ele>2513.5</ele>
        <time>2022-07-03T12:35:20.000Z</time>
      </trkpt>
      <trkpt lat="45.29213" lon="6.45301">
        <ele>2515.1</ele>
        <time>2022-07-03T12:35:38.000Z</time>
      </trkpt>
      <trkpt lat="45.2922" lon="6.45312">
        <ele>2516.7</ele>
        <time>2022-07-03T12:35:52.000Z</time>
      </trkpt>
      <trkpt lat="45.29227" lon="6.45322">
        <ele>2519.5</ele>
        <time>2022-07-03T12:36:12.000Z</time>
      </trkpt>
      <trkpt lat="45.29235" lon="6.45331">
        <ele>2521.9</ele>
        <time>2022-07-03T12:36:54.000Z</time>
      </trkpt>
      <trkpt lat="45.29244" lon="6.45332">
        <ele>2523.3</ele>
        <time>2022-07-03T12:37:30.000Z</time>
      </trkpt>
      <trkpt lat="45.29254" lon="6.45333">
        <ele>2524.8</ele>
        <time>2022-07-03T12:37:46.000Z</time>
      </trkpt>
      <trkpt lat="45.29264" lon="6.45331">
        <ele>2526.8</ele>
        <time>2022-07-03T12:38:02.000Z</time>
      </trkpt>
      <trkpt lat="45.29273" lon="6.45336">
        <ele>2529.3</ele>
        <time>2022-07-03T12:38:40.000Z</time>
      </trkpt>
      <trkpt lat="45.29282" lon="6.45336">
        <ele>2531.6</ele>
        <time>2022-07-03T12:39:10.000Z</time>
      </trkpt>
      <trkpt lat="45.29291" lon="6.45334">
        <ele>2534</ele>
        <time>2022-07-03T12:39:26.000Z</time>
      </trkpt>
      <trkpt lat="45.29299" lon="6.45328">
        <ele>2535.7</ele>
        <time>2022-07-03T12:40:02.000Z</time>
      </trkpt>
      <trkpt lat="45.29307" lon="6.45321">
        <ele>2537.8</ele>
        <time>2022-07-03T12:40:16.000Z</time>
      </trkpt>
      <trkpt lat="45.29309" lon="6.45334">
        <ele>2539.9</ele>
        <time>2022-07-03T12:40:42.000Z</time>
      </trkpt>
      <trkpt lat="45.29307" lon="6.45346">
        <ele>2541</ele>
        <time>2022-07-03T12:40:56.000Z</time>
      </trkpt>
      <trkpt lat="45.29317" lon="6.45342">
        <ele>2545.1</ele>
        <time>2022-07-03T12:42:10.000Z</time>
      </trkpt>
      <trkpt lat="45.29327" lon="6.4534">
        <ele>2549.5</ele>
        <time>2022-07-03T12:42:32.000Z</time>
      </trkpt>
      <trkpt lat="45.29335" lon="6.45333">
        <ele>2552.4</ele>
        <time>2022-07-03T12:43:10.000Z</time>
      </trkpt>
      <trkpt lat="45.29343" lon="6.45341">
        <ele>2556.6</ele>
        <time>2022-07-03T12:43:34.000Z</time>
      </trkpt>
      <trkpt lat="45.29343" lon="6.45355">
        <ele>2558.5</ele>
        <time>2022-07-03T12:43:56.000Z</time>
      </trkpt>
      <trkpt lat="45.29352" lon="6.45352">
        <ele>2561.5</ele>
        <time>2022-07-03T12:45:04.000Z</time>
      </trkpt>
      <trkpt lat="45.29361" lon="6.4536">
        <ele>2565.5</ele>
        <time>2022-07-03T12:45:20.000Z</time>
      </trkpt>
      <trkpt lat="45.29371" lon="6.45357">
        <ele>2567.4</ele>
        <time>2022-07-03T12:45:36.000Z</time>
      </trkpt>
      <trkpt lat="45.29378" lon="6.45347">
        <ele>2568.6</ele>
        <time>2022-07-03T12:45:50.000Z</time>
      </trkpt>
      <trkpt lat="45.29385" lon="6.45337">
        <ele>2570.5</ele>
        <time>2022-07-03T12:46:04.000Z</time>
      </trkpt>
      <trkpt lat="45.29394" lon="6.45334">
        <ele>2572</ele>
        <time>2022-07-03T12:46:38.000Z</time>
      </trkpt>
      <trkpt lat="45.29396" lon="6.45319">
        <ele>2573.4</ele>
        <time>2022-07-03T12:53:06.000Z</time>
      </trkpt>
      <trkpt lat="45.29397" lon="6.45304">
        <ele>2575.4</ele>
        <time>2022-07-03T12:53:18.000Z</time>
      </trkpt>
      <trkpt lat="45.29395" lon="6.45291">
        <ele>2576.9</ele>
        <time>2022-07-03T12:53:32.000Z</time>
      </trkpt>
      <trkpt lat="45.29394" lon="6.45278">
        <ele>2577.9</ele>
        <time>2022-07-03T12:53:44.000Z</time>
      </trkpt>
      <trkpt lat="45.29395" lon="6.45265">
        <ele>2579.9</ele>
        <time>2022-07-03T12:53:56.000Z</time>
      </trkpt>
      <trkpt lat="45.29397" lon="6.4525">
        <ele>2582.3</ele>
        <time>2022-07-03T12:54:10.000Z</time>
      </trkpt>
      <trkpt lat="45.29391" lon="6.45239">
        <ele>2583.3</ele>
        <time>2022-07-03T12:54:22.000Z</time>
      </trkpt>
      <trkpt lat="45.29383" lon="6.45233">
        <ele>2582.2</ele>
        <time>2022-07-03T12:54:32.000Z</time>
      </trkpt>
      <trkpt lat="45.29376" lon="6.45223">
        <ele>2583.5</ele>
        <time>2022-07-03T12:55:02.000Z</time>
      </trkpt>
      <trkpt lat="45.2937" lon="6.45213">
        <ele>2584.8</ele>
        <time>2022-07-03T12:55:24.000Z</time>
      </trkpt>
      <trkpt lat="45.29362" lon="6.45204">
        <ele>2586</ele>
        <time>2022-07-03T12:55:38.000Z</time>
      </trkpt>
      <trkpt lat="45.29355" lon="6.45196">
        <ele>2587.1</ele>
        <time>2022-07-03T12:55:52.000Z</time>
      </trkpt>
      <trkpt lat="45.29347" lon="6.45188">
        <ele>2588.5</ele>
        <time>2022-07-03T12:56:08.000Z</time>
      </trkpt>
      <trkpt lat="45.2934" lon="6.4518">
        <ele>2590.9</ele>
        <time>2022-07-03T12:56:44.000Z</time>
      </trkpt>
      <trkpt lat="45.29333" lon="6.45169">
        <ele>2594.6</ele>
        <time>2022-07-03T12:57:06.000Z</time>
      </trkpt>
      <trkpt lat="45.29328" lon="6.45158">
        <ele>2596.4</ele>
        <time>2022-07-03T12:57:24.000Z</time>
      </trkpt>
      <trkpt lat="45.29324" lon="6.45144">
        <ele>2600.4</ele>
        <time>2022-07-03T12:57:42.000Z</time>
      </trkpt>
      <trkpt lat="45.29319" lon="6.45132">
        <ele>2603</ele>
        <time>2022-07-03T12:57:54.000Z</time>
      </trkpt>
      <trkpt lat="45.29311" lon="6.45125">
        <ele>2602.6</ele>
        <time>2022-07-03T12:58:08.000Z</time>
      </trkpt>
      <trkpt lat="45.29303" lon="6.45117">
        <ele>2603.2</ele>
        <time>2022-07-03T12:58:20.000Z</time>
      </trkpt>
      <trkpt lat="45.29297" lon="6.45106">
        <ele>2607.2</ele>
        <time>2022-07-03T12:58:36.000Z</time>
      </trkpt>
      <trkpt lat="45.29288" lon="6.45103">
        <ele>2606.8</ele>
        <time>2022-07-03T12:59:16.000Z</time>
      </trkpt>
      <trkpt lat="45.29279" lon="6.45097">
        <ele>2607.6</ele>
        <time>2022-07-03T12:59:54.000Z</time>
      </trkpt>
      <trkpt lat="45.29283" lon="6.45086">
        <ele>2614.6</ele>
        <time>2022-07-03T13:00:34.000Z</time>
      </trkpt>
      <trkpt lat="45.29277" lon="6.45076">
        <ele>2616.8</ele>
        <time>2022-07-03T13:01:02.000Z</time>
      </trkpt>
      <trkpt lat="45.29271" lon="6.45065">
        <ele>2617.7</ele>
        <time>2022-07-03T13:01:20.000Z</time>
      </trkpt>
      <trkpt lat="45.29274" lon="6.45051">
        <ele>2623.7</ele>
        <time>2022-07-03T13:01:58.000Z</time>
      </trkpt>
      <trkpt lat="45.2927" lon="6.4504">
        <ele>2627.2</ele>
        <time>2022-07-03T13:02:44.000Z</time>
      </trkpt>
      <trkpt lat="45.29261" lon="6.45033">
        <ele>2627.4</ele>
        <time>2022-07-03T13:03:24.000Z</time>
      </trkpt>
      <trkpt lat="45.29259" lon="6.4502">
        <ele>2631.9</ele>
        <time>2022-07-03T13:04:12.000Z</time>
      </trkpt>
      <trkpt lat="45.29261" lon="6.45007">
        <ele>2637.2</ele>
        <time>2022-07-03T13:04:38.000Z</time>
      </trkpt>
      <trkpt lat="45.29267" lon="6.44995">
        <ele>2641.1</ele>
        <time>2022-07-03T13:05:32.000Z</time>
      </trkpt>
      <trkpt lat="45.29271" lon="6.44983">
        <ele>2643.6</ele>
        <time>2022-07-03T13:05:46.000Z</time>
      </trkpt>
      <trkpt lat="45.29278" lon="6.44972">
        <ele>2645.1</ele>
        <time>2022-07-03T13:06:18.000Z</time>
      </trkpt>
      <trkpt lat="45.29287" lon="6.44974">
        <ele>2648.2</ele>
        <time>2022-07-03T13:07:32.000Z</time>
      </trkpt>
      <trkpt lat="45.29295" lon="6.44982">
        <ele>2650.2</ele>
        <time>2022-07-03T13:07:48.000Z</time>
      </trkpt>
      <trkpt lat="45.29303" lon="6.44988">
        <ele>2652.5</ele>
        <time>2022-07-03T13:08:12.000Z</time>
      </trkpt>
      <trkpt lat="45.29305" lon="6.44974">
        <ele>2655.6</ele>
        <time>2022-07-03T13:08:44.000Z</time>
      </trkpt>
      <trkpt lat="45.29304" lon="6.44961">
        <ele>2653.4</ele>
        <time>2022-07-03T13:08:58.000Z</time>
      </trkpt>
      <trkpt lat="45.29314" lon="6.44965">
        <ele>2657.1</ele>
        <time>2022-07-03T13:09:16.000Z</time>
      </trkpt>
      <trkpt lat="45.29321" lon="6.44975">
        <ele>2661.1</ele>
        <time>2022-07-03T13:09:32.000Z</time>
      </trkpt>
      <trkpt lat="45.2933" lon="6.44975">
        <ele>2664.4</ele>
        <time>2022-07-03T13:10:38.000Z</time>
      </trkpt>
      <trkpt lat="45.29338" lon="6.44968">
        <ele>2665.7</ele>
        <time>2022-07-03T13:11:00.000Z</time>
      </trkpt>
      <trkpt lat="45.29346" lon="6.44974">
        <ele>2670.4</ele>
        <time>2022-07-03T13:11:14.000Z</time>
      </trkpt>
      <trkpt lat="45.29354" lon="6.44981">
        <ele>2672.9</ele>
        <time>2022-07-03T13:11:42.000Z</time>
      </trkpt>
      <trkpt lat="45.29364" lon="6.44984">
        <ele>2675.7</ele>
        <time>2022-07-03T13:11:58.000Z</time>
      </trkpt>
      <trkpt lat="45.29374" lon="6.44986">
        <ele>2676.6</ele>
        <time>2022-07-03T13:12:16.000Z</time>
      </trkpt>
      <trkpt lat="45.29383" lon="6.44983">
        <ele>2677.5</ele>
        <time>2022-07-03T13:12:28.000Z</time>
      </trkpt>
      <trkpt lat="45.29392" lon="6.44978">
        <ele>2678.4</ele>
        <time>2022-07-03T13:12:38.000Z</time>
      </trkpt>
      <trkpt lat="45.29399" lon="6.44969">
        <ele>2679.8</ele>
        <time>2022-07-03T13:12:52.000Z</time>
      </trkpt>
      <trkpt lat="45.29409" lon="6.44964">
        <ele>2682.2</ele>
        <time>2022-07-03T13:13:06.000Z</time>
      </trkpt>
      <trkpt lat="45.29419" lon="6.44969">
        <ele>2685.2</ele>
        <time>2022-07-03T13:13:22.000Z</time>
      </trkpt>
      <trkpt lat="45.29429" lon="6.4497">
        <ele>2686.2</ele>
        <time>2022-07-03T13:13:38.000Z</time>
      </trkpt>
      <trkpt lat="45.29438" lon="6.44968">
        <ele>2686.3</ele>
        <time>2022-07-03T13:13:54.000Z</time>
      </trkpt>
      <trkpt lat="45.29448" lon="6.44972">
        <ele>2689.9</ele>
        <time>2022-07-03T13:14:46.000Z</time>
      </trkpt>
      <trkpt lat="45.29457" lon="6.44973">
        <ele>2693.7</ele>
        <time>2022-07-03T13:15:06.000Z</time>
      </trkpt>
      <trkpt lat="45.29467" lon="6.44975">
        <ele>2697.5</ele>
        <time>2022-07-03T13:15:32.000Z</time>
      </trkpt>
      <trkpt lat="45.29476" lon="6.44977">
        <ele>2699.7</ele>
        <time>2022-07-03T13:15:52.000Z</time>
      </trkpt>
      <trkpt lat="45.29486" lon="6.44976">
        <ele>2703.1</ele>
        <time>2022-07-03T13:16:32.000Z</time>
      </trkpt>
      <trkpt lat="45.29496" lon="6.44976">
        <ele>2706.3</ele>
        <time>2022-07-03T13:17:02.000Z</time>
      </trkpt>
      <trkpt lat="45.29506" lon="6.44977">
        <ele>2709.3</ele>
        <time>2022-07-03T13:17:52.000Z</time>
      </trkpt>
      <trkpt lat="45.29514" lon="6.44972">
        <ele>2713.8</ele>
        <time>2022-07-03T13:18:16.000Z</time>
      </trkpt>
      <trkpt lat="45.29524" lon="6.44969">
        <ele>2715.8</ele>
        <time>2022-07-03T13:18:40.000Z</time>
      </trkpt>
      <trkpt lat="45.29534" lon="6.44967">
        <ele>2718</ele>
        <time>2022-07-03T13:19:16.000Z</time>
      </trkpt>
      <trkpt lat="45.29542" lon="6.44971">
        <ele>2723</ele>
        <time>2022-07-03T13:19:46.000Z</time>
      </trkpt>
      <trkpt lat="45.29551" lon="6.44976">
        <ele>2725.4</ele>
        <time>2022-07-03T13:20:02.000Z</time>
      </trkpt>
      <trkpt lat="45.29559" lon="6.44982">
        <ele>2727.8</ele>
        <time>2022-07-03T13:20:24.000Z</time>
      </trkpt>
      <trkpt lat="45.29566" lon="6.44972">
        <ele>2732.7</ele>
        <time>2022-07-03T13:20:52.000Z</time>
      </trkpt>
      <trkpt lat="45.29575" lon="6.44977">
        <ele>2736.7</ele>
        <time>2022-07-03T13:21:42.000Z</time>
      </trkpt>
      <trkpt lat="45.29584" lon="6.44981">
        <ele>2741.1</ele>
        <time>2022-07-03T13:22:00.000Z</time>
      </trkpt>
      <trkpt lat="45.29593" lon="6.44983">
        <ele>2745.9</ele>
        <time>2022-07-03T13:23:52.000Z</time>
      </trkpt>
      <trkpt lat="45.29603" lon="6.44982">
        <ele>2751.2</ele>
        <time>2022-07-03T13:24:22.000Z</time>
      </trkpt>
      <trkpt lat="45.29612" lon="6.4498">
        <ele>2756.3</ele>
        <time>2022-07-03T13:25:14.000Z</time>
      </trkpt>
      <trkpt lat="45.29619" lon="6.44987">
        <ele>2760.5</ele>
        <time>2022-07-03T13:25:44.000Z</time>
      </trkpt>
      <trkpt lat="45.29629" lon="6.44991">
        <ele>2765.7</ele>
        <time>2022-07-03T13:26:10.000Z</time>
      </trkpt>
      <trkpt lat="45.29638" lon="6.44997">
        <ele>2770.8</ele>
        <time>2022-07-03T13:26:52.000Z</time>
      </trkpt>
      <trkpt lat="45.29647" lon="6.45001">
        <ele>2776.7</ele>
        <time>2022-07-03T13:27:22.000Z</time>
      </trkpt>
      <trkpt lat="45.29656" lon="6.45007">
        <ele>2780.3</ele>
        <time>2022-07-03T13:27:48.000Z</time>
      </trkpt>
      <trkpt lat="45.29664" lon="6.45012">
        <ele>2782.6</ele>
        <time>2022-07-03T13:28:10.000Z</time>
      </trkpt>
      <trkpt lat="45.29673" lon="6.45016">
        <ele>2786.8</ele>
        <time>2022-07-03T13:28:32.000Z</time>
      </trkpt>
      <trkpt lat="45.29683" lon="6.45017">
        <ele>2793.4</ele>
        <time>2022-07-03T13:29:16.000Z</time>
      </trkpt>
      <trkpt lat="45.29692" lon="6.45016">
        <ele>2800.2</ele>
        <time>2022-07-03T13:29:50.000Z</time>
      </trkpt>
      <trkpt lat="45.297" lon="6.45022">
        <ele>2802.7</ele>
        <time>2022-07-03T13:30:52.000Z</time>
      </trkpt>
      <trkpt lat="45.29709" lon="6.45018">
        <ele>2806.8</ele>
        <time>2022-07-03T13:31:22.000Z</time>
      </trkpt>
      <trkpt lat="45.29718" lon="6.45018">
        <ele>2809.9</ele>
        <time>2022-07-03T13:32:02.000Z</time>
      </trkpt>
      <trkpt lat="45.29725" lon="6.45025">
        <ele>2815.2</ele>
        <time>2022-07-03T13:33:02.000Z</time>
      </trkpt>
      <trkpt lat="45.29734" lon="6.45031">
        <ele>2815.2</ele>
        <time>2022-07-03T13:33:34.000Z</time>
      </trkpt>
      <trkpt lat="45.29725" lon="6.45026">
        <ele>2815.7</ele>
        <time>2022-07-03T13:46:45.000Z</time>
      </trkpt>
      <trkpt lat="45.29716" lon="6.45021">
        <ele>2810.5</ele>
        <time>2022-07-03T13:47:17.000Z</time>
      </trkpt>
      <trkpt lat="45.29706" lon="6.4502">
        <ele>2805.9</ele>
        <time>2022-07-03T13:47:41.000Z</time>
      </trkpt>
      <trkpt lat="45.29697" lon="6.45016">
        <ele>2803.3</ele>
        <time>2022-07-03T13:48:28.000Z</time>
      </trkpt>
      <trkpt lat="45.29688" lon="6.45014">
        <ele>2799</ele>
        <time>2022-07-03T13:48:45.000Z</time>
      </trkpt>
      <trkpt lat="45.29679" lon="6.45013">
        <ele>2793.1</ele>
        <time>2022-07-03T13:48:59.000Z</time>
      </trkpt>
      <trkpt lat="45.2967" lon="6.45012">
        <ele>2786.7</ele>
        <time>2022-07-03T13:49:13.000Z</time>
      </trkpt>
      <trkpt lat="45.2966" lon="6.45006">
        <ele>2783.1</ele>
        <time>2022-07-03T13:49:29.000Z</time>
      </trkpt>
      <trkpt lat="45.29652" lon="6.45">
        <ele>2781.2</ele>
        <time>2022-07-03T13:49:47.000Z</time>
      </trkpt>
      <trkpt lat="45.29642" lon="6.44997">
        <ele>2774.4</ele>
        <time>2022-07-03T13:50:09.000Z</time>
      </trkpt>
      <trkpt lat="45.29632" lon="6.44995">
        <ele>2768.2</ele>
        <time>2022-07-03T13:50:27.000Z</time>
      </trkpt>
      <trkpt lat="45.29624" lon="6.4499">
        <ele>2763.2</ele>
        <time>2022-07-03T13:50:51.000Z</time>
      </trkpt>
      <trkpt lat="45.29615" lon="6.44985">
        <ele>2758.3</ele>
        <time>2022-07-03T13:51:11.000Z</time>
      </trkpt>
      <trkpt lat="45.29606" lon="6.44987">
        <ele>2753.2</ele>
        <time>2022-07-03T13:51:33.000Z</time>
      </trkpt>
      <trkpt lat="45.29597" lon="6.44984">
        <ele>2748.3</ele>
        <time>2022-07-03T13:51:57.000Z</time>
      </trkpt>
      <trkpt lat="45.29588" lon="6.44984">
        <ele>2743.3</ele>
        <time>2022-07-03T13:52:15.000Z</time>
      </trkpt>
      <trkpt lat="45.29577" lon="6.44985">
        <ele>2737.4</ele>
        <time>2022-07-03T13:52:33.000Z</time>
      </trkpt>
      <trkpt lat="45.29568" lon="6.44978">
        <ele>2733.8</ele>
        <time>2022-07-03T13:52:47.000Z</time>
      </trkpt>
      <trkpt lat="45.29559" lon="6.44977">
        <ele>2728.7</ele>
        <time>2022-07-03T13:53:19.000Z</time>
      </trkpt>
      <trkpt lat="45.2955" lon="6.44972">
        <ele>2726.2</ele>
        <time>2022-07-03T13:53:37.000Z</time>
      </trkpt>
      <trkpt lat="45.29541" lon="6.44967">
        <ele>2721.5</ele>
        <time>2022-07-03T13:53:49.000Z</time>
      </trkpt>
      <trkpt lat="45.29533" lon="6.44973">
        <ele>2720.5</ele>
        <time>2022-07-03T13:54:01.000Z</time>
      </trkpt>
      <trkpt lat="45.29523" lon="6.44973">
        <ele>2716.9</ele>
        <time>2022-07-03T13:54:23.000Z</time>
      </trkpt>
      <trkpt lat="45.29513" lon="6.44976">
        <ele>2712.6</ele>
        <time>2022-07-03T13:54:37.000Z</time>
      </trkpt>
      <trkpt lat="45.29503" lon="6.44982">
        <ele>2707.1</ele>
        <time>2022-07-03T13:55:05.000Z</time>
      </trkpt>
      <trkpt lat="45.29494" lon="6.4498">
        <ele>2704.3</ele>
        <time>2022-07-03T13:55:19.000Z</time>
      </trkpt>
      <trkpt lat="45.29484" lon="6.44977">
        <ele>2702.6</ele>
        <time>2022-07-03T13:55:35.000Z</time>
      </trkpt>
      <trkpt lat="45.29475" lon="6.44979">
        <ele>2698.9</ele>
        <time>2022-07-03T13:55:55.000Z</time>
      </trkpt>
      <trkpt lat="45.29466" lon="6.44976">
        <ele>2696.7</ele>
        <time>2022-07-03T13:56:15.000Z</time>
      </trkpt>
      <trkpt lat="45.29457" lon="6.44977">
        <ele>2692.5</ele>
        <time>2022-07-03T13:56:33.000Z</time>
      </trkpt>
      <trkpt lat="45.29448" lon="6.44973">
        <ele>2690.4</ele>
        <time>2022-07-03T13:56:43.000Z</time>
      </trkpt>
      <trkpt lat="45.29438" lon="6.44968">
        <ele>2686.4</ele>
        <time>2022-07-03T13:56:53.000Z</time>
      </trkpt>
      <trkpt lat="45.29427" lon="6.4497">
        <ele>2686.3</ele>
        <time>2022-07-03T14:07:12.000Z</time>
      </trkpt>
      <trkpt lat="45.29412" lon="6.44966">
        <ele>2684.1</ele>
        <time>2022-07-03T14:07:16.000Z</time>
      </trkpt>
      <trkpt lat="45.29393" lon="6.44973">
        <ele>2679.7</ele>
        <time>2022-07-03T14:07:20.000Z</time>
      </trkpt>
      <trkpt lat="45.29384" lon="6.44979">
        <ele>2678.2</ele>
        <time>2022-07-03T14:07:22.000Z</time>
      </trkpt>
      <trkpt lat="45.29369" lon="6.44986">
        <ele>2676.5</ele>
        <time>2022-07-03T14:07:26.000Z</time>
      </trkpt>
      <trkpt lat="45.29354" lon="6.44981">
        <ele>2673.7</ele>
        <time>2022-07-03T14:07:30.000Z</time>
      </trkpt>
      <trkpt lat="45.29343" lon="6.44974">
        <ele>2670.2</ele>
        <time>2022-07-03T14:07:34.000Z</time>
      </trkpt>
      <trkpt lat="45.29333" lon="6.44971">
        <ele>2665.9</ele>
        <time>2022-07-03T14:07:38.000Z</time>
      </trkpt>
      <trkpt lat="45.29323" lon="6.44974">
        <ele>2662.6</ele>
        <time>2022-07-03T14:07:46.000Z</time>
      </trkpt>
      <trkpt lat="45.29315" lon="6.44968">
        <ele>2658.4</ele>
        <time>2022-07-03T14:08:02.000Z</time>
      </trkpt>
      <trkpt lat="45.29308" lon="6.44979">
        <ele>2655.9</ele>
        <time>2022-07-03T14:08:14.000Z</time>
      </trkpt>
      <trkpt lat="45.29299" lon="6.44986">
        <ele>2651.8</ele>
        <time>2022-07-03T14:08:22.000Z</time>
      </trkpt>
      <trkpt lat="45.29291" lon="6.44978">
        <ele>2649.8</ele>
        <time>2022-07-03T14:08:26.000Z</time>
      </trkpt>
      <trkpt lat="45.29282" lon="6.44971">
        <ele>2647.1</ele>
        <time>2022-07-03T14:08:30.000Z</time>
      </trkpt>
      <trkpt lat="45.29273" lon="6.44981">
        <ele>2644.3</ele>
        <time>2022-07-03T14:08:36.000Z</time>
      </trkpt>
      <trkpt lat="45.29269" lon="6.44995">
        <ele>2641.9</ele>
        <time>2022-07-03T14:08:40.000Z</time>
      </trkpt>
      <trkpt lat="45.29262" lon="6.4501">
        <ele>2637.1</ele>
        <time>2022-07-03T14:08:46.000Z</time>
      </trkpt>
      <trkpt lat="45.29262" lon="6.45024">
        <ele>2631.9</ele>
        <time>2022-07-03T14:08:52.000Z</time>
      </trkpt>
      <trkpt lat="45.2927" lon="6.45035">
        <ele>2629.3</ele>
        <time>2022-07-03T14:09:02.000Z</time>
      </trkpt>
      <trkpt lat="45.29277" lon="6.45049">
        <ele>2626.9</ele>
        <time>2022-07-03T14:09:08.000Z</time>
      </trkpt>
      <trkpt lat="45.29279" lon="6.45065">
        <ele>2622.1</ele>
        <time>2022-07-03T14:09:14.000Z</time>
      </trkpt>
      <trkpt lat="45.29281" lon="6.45079">
        <ele>2618.3</ele>
        <time>2022-07-03T14:09:20.000Z</time>
      </trkpt>
      <trkpt lat="45.2928" lon="6.45092">
        <ele>2611.6</ele>
        <time>2022-07-03T14:09:30.000Z</time>
      </trkpt>
      <trkpt lat="45.29284" lon="6.45105">
        <ele>2605.5</ele>
        <time>2022-07-03T14:09:42.000Z</time>
      </trkpt>
      <trkpt lat="45.29294" lon="6.45104">
        <ele>2607.6</ele>
        <time>2022-07-03T14:09:50.000Z</time>
      </trkpt>
      <trkpt lat="45.29303" lon="6.45112">
        <ele>2606.3</ele>
        <time>2022-07-03T14:09:54.000Z</time>
      </trkpt>
      <trkpt lat="45.29313" lon="6.45127">
        <ele>2603.5</ele>
        <time>2022-07-03T14:09:58.000Z</time>
      </trkpt>
      <trkpt lat="45.29322" lon="6.45141">
        <ele>2601.4</ele>
        <time>2022-07-03T14:10:02.000Z</time>
      </trkpt>
      <trkpt lat="45.29329" lon="6.45154">
        <ele>2599.2</ele>
        <time>2022-07-03T14:10:06.000Z</time>
      </trkpt>
      <trkpt lat="45.29338" lon="6.45162">
        <ele>2599.2</ele>
        <time>2022-07-03T14:10:12.000Z</time>
      </trkpt>
      <trkpt lat="45.29345" lon="6.45175">
        <ele>2595</ele>
        <time>2022-07-03T14:10:16.000Z</time>
      </trkpt>
      <trkpt lat="45.29354" lon="6.4519">
        <ele>2590.4</ele>
        <time>2022-07-03T14:10:20.000Z</time>
      </trkpt>
      <trkpt lat="45.29366" lon="6.45202">
        <ele>2588.3</ele>
        <time>2022-07-03T14:10:24.000Z</time>
      </trkpt>
      <trkpt lat="45.29376" lon="6.45216">
        <ele>2586.6</ele>
        <time>2022-07-03T14:10:28.000Z</time>
      </trkpt>
      <trkpt lat="45.29386" lon="6.45232">
        <ele>2584.2</ele>
        <time>2022-07-03T14:10:32.000Z</time>
      </trkpt>
      <trkpt lat="45.29396" lon="6.45244">
        <ele>2583.9</ele>
        <time>2022-07-03T14:10:36.000Z</time>
      </trkpt>
      <trkpt lat="45.29401" lon="6.45255">
        <ele>2584.1</ele>
        <time>2022-07-03T14:10:40.000Z</time>
      </trkpt>
      <trkpt lat="45.294" lon="6.45275">
        <ele>2581.6</ele>
        <time>2022-07-03T14:10:46.000Z</time>
      </trkpt>
      <trkpt lat="45.29401" lon="6.45292">
        <ele>2579.2</ele>
        <time>2022-07-03T14:10:50.000Z</time>
      </trkpt>
      <trkpt lat="45.29404" lon="6.45315">
        <ele>2576.3</ele>
        <time>2022-07-03T14:10:54.000Z</time>
      </trkpt>
      <trkpt lat="45.29398" lon="6.45337">
        <ele>2572.3</ele>
        <time>2022-07-03T14:10:58.000Z</time>
      </trkpt>
      <trkpt lat="45.29384" lon="6.45345">
        <ele>2571</ele>
        <time>2022-07-03T14:11:00.000Z</time>
      </trkpt>
      <trkpt lat="45.29371" lon="6.45359">
        <ele>2568.2</ele>
        <time>2022-07-03T14:11:04.000Z</time>
      </trkpt>
      <trkpt lat="45.29357" lon="6.4536">
        <ele>2565.3</ele>
        <time>2022-07-03T14:11:08.000Z</time>
      </trkpt>
      <trkpt lat="45.29347" lon="6.4536">
        <ele>2561.5</ele>
        <time>2022-07-03T14:11:12.000Z</time>
      </trkpt>
      <trkpt lat="45.29343" lon="6.45343">
        <ele>2557.5</ele>
        <time>2022-07-03T14:11:20.000Z</time>
      </trkpt>
      <trkpt lat="45.29341" lon="6.4533">
        <ele>2555.2</ele>
        <time>2022-07-03T14:11:26.000Z</time>
      </trkpt>
      <trkpt lat="45.29332" lon="6.45338">
        <ele>2552.7</ele>
        <time>2022-07-03T14:11:30.000Z</time>
      </trkpt>
      <trkpt lat="45.29325" lon="6.45346">
        <ele>2550.2</ele>
        <time>2022-07-03T14:11:36.000Z</time>
      </trkpt>
      <trkpt lat="45.29315" lon="6.45355">
        <ele>2546.9</ele>
        <time>2022-07-03T14:11:44.000Z</time>
      </trkpt>
      <trkpt lat="45.29304" lon="6.45361">
        <ele>2543.1</ele>
        <time>2022-07-03T14:11:50.000Z</time>
      </trkpt>
      <trkpt lat="45.29294" lon="6.45362">
        <ele>2540.8</ele>
        <time>2022-07-03T14:11:54.000Z</time>
      </trkpt>
      <trkpt lat="45.29284" lon="6.45362">
        <ele>2538.3</ele>
        <time>2022-07-03T14:11:58.000Z</time>
      </trkpt>
      <trkpt lat="45.29274" lon="6.45368">
        <ele>2537.1</ele>
        <time>2022-07-03T14:12:02.000Z</time>
      </trkpt>
      <trkpt lat="45.29263" lon="6.45373">
        <ele>2535.5</ele>
        <time>2022-07-03T14:12:06.000Z</time>
      </trkpt>
      <trkpt lat="45.29252" lon="6.45378">
        <ele>2533.4</ele>
        <time>2022-07-03T14:12:10.000Z</time>
      </trkpt>
      <trkpt lat="45.29242" lon="6.45385">
        <ele>2531.3</ele>
        <time>2022-07-03T14:12:14.000Z</time>
      </trkpt>
      <trkpt lat="45.29232" lon="6.45386">
        <ele>2529.3</ele>
        <time>2022-07-03T14:12:20.000Z</time>
      </trkpt>
      <trkpt lat="45.29222" lon="6.4538">
        <ele>2527</ele>
        <time>2022-07-03T14:12:26.000Z</time>
      </trkpt>
      <trkpt lat="45.29214" lon="6.45372">
        <ele>2526</ele>
        <time>2022-07-03T14:12:38.000Z</time>
      </trkpt>
      <trkpt lat="45.29207" lon="6.45357">
        <ele>2525.3</ele>
        <time>2022-07-03T14:12:42.000Z</time>
      </trkpt>
      <trkpt lat="45.29204" lon="6.45343">
        <ele>2522.3</ele>
        <time>2022-07-03T14:12:48.000Z</time>
      </trkpt>
      <trkpt lat="45.29213" lon="6.45332">
        <ele>2520.4</ele>
        <time>2022-07-03T14:13:16.000Z</time>
      </trkpt>
      <trkpt lat="45.29215" lon="6.45319">
        <ele>2518.3</ele>
        <time>2022-07-03T14:13:20.000Z</time>
      </trkpt>
      <trkpt lat="45.29211" lon="6.45305">
        <ele>2515.4</ele>
        <time>2022-07-03T14:13:24.000Z</time>
      </trkpt>
      <trkpt lat="45.29208" lon="6.45292">
        <ele>2514.4</ele>
        <time>2022-07-03T14:13:30.000Z</time>
      </trkpt>
      <trkpt lat="45.29198" lon="6.45282">
        <ele>2511.4</ele>
        <time>2022-07-03T14:13:38.000Z</time>
      </trkpt>
      <trkpt lat="45.29186" lon="6.45284">
        <ele>2508.3</ele>
        <time>2022-07-03T14:13:44.000Z</time>
      </trkpt>
      <trkpt lat="45.29174" lon="6.45288">
        <ele>2506</ele>
        <time>2022-07-03T14:14:10.000Z</time>
      </trkpt>
      <trkpt lat="45.29164" lon="6.45291">
        <ele>2503.8</ele>
        <time>2022-07-03T14:14:14.000Z</time>
      </trkpt>
      <trkpt lat="45.29154" lon="6.45287">
        <ele>2500.7</ele>
        <time>2022-07-03T14:14:20.000Z</time>
      </trkpt>
      <trkpt lat="45.29143" lon="6.45292">
        <ele>2498</ele>
        <time>2022-07-03T14:14:24.000Z</time>
      </trkpt>
      <trkpt lat="45.29132" lon="6.45296">
        <ele>2494</ele>
        <time>2022-07-03T14:14:30.000Z</time>
      </trkpt>
      <trkpt lat="45.2912" lon="6.45299">
        <ele>2490.6</ele>
        <time>2022-07-03T14:14:34.000Z</time>
      </trkpt>
      <trkpt lat="45.29113" lon="6.4531">
        <ele>2486.5</ele>
        <time>2022-07-03T14:14:38.000Z</time>
      </trkpt>
      <trkpt lat="45.29103" lon="6.45316">
        <ele>2482.2</ele>
        <time>2022-07-03T14:14:44.000Z</time>
      </trkpt>
      <trkpt lat="45.2909" lon="6.45318">
        <ele>2478.6</ele>
        <time>2022-07-03T14:14:54.000Z</time>
      </trkpt>
      <trkpt lat="45.29081" lon="6.45322">
        <ele>2475.1</ele>
        <time>2022-07-03T14:15:00.000Z</time>
      </trkpt>
      <trkpt lat="45.29081" lon="6.45338">
        <ele>2470</ele>
        <time>2022-07-03T14:15:06.000Z</time>
      </trkpt>
      <trkpt lat="45.29085" lon="6.45355">
        <ele>2467.2</ele>
        <time>2022-07-03T14:15:10.000Z</time>
      </trkpt>
      <trkpt lat="45.29087" lon="6.45372">
        <ele>2465.1</ele>
        <time>2022-07-03T14:15:14.000Z</time>
      </trkpt>
      <trkpt lat="45.29088" lon="6.45389">
        <ele>2462.9</ele>
        <time>2022-07-03T14:15:18.000Z</time>
      </trkpt>
      <trkpt lat="45.2909" lon="6.45406">
        <ele>2460.6</ele>
        <time>2022-07-03T14:15:24.000Z</time>
      </trkpt>
      <trkpt lat="45.29094" lon="6.45419">
        <ele>2459.3</ele>
        <time>2022-07-03T14:15:40.000Z</time>
      </trkpt>
      <trkpt lat="45.29094" lon="6.45435">
        <ele>2454.9</ele>
        <time>2022-07-03T14:15:50.000Z</time>
      </trkpt>
      <trkpt lat="45.29102" lon="6.45448">
        <ele>2453.4</ele>
        <time>2022-07-03T14:16:02.000Z</time>
      </trkpt>
      <trkpt lat="45.29108" lon="6.45459">
        <ele>2450.9</ele>
        <time>2022-07-03T14:16:06.000Z</time>
      </trkpt>
      <trkpt lat="45.29116" lon="6.45468">
        <ele>2447.9</ele>
        <time>2022-07-03T14:16:10.000Z</time>
      </trkpt>
      <trkpt lat="45.29128" lon="6.45473">
        <ele>2447.7</ele>
        <time>2022-07-03T14:16:16.000Z</time>
      </trkpt>
      <trkpt lat="45.29136" lon="6.4548">
        <ele>2447.4</ele>
        <time>2022-07-03T14:16:30.000Z</time>
      </trkpt>
      <trkpt lat="45.29144" lon="6.4549">
        <ele>2447</ele>
        <time>2022-07-03T14:16:48.000Z</time>
      </trkpt>
      <trkpt lat="45.29152" lon="6.45501">
        <ele>2446.2</ele>
        <time>2022-07-03T14:16:54.000Z</time>
      </trkpt>
      <trkpt lat="45.2916" lon="6.45517">
        <ele>2444.3</ele>
        <time>2022-07-03T14:17:00.000Z</time>
      </trkpt>
      <trkpt lat="45.29165" lon="6.45529">
        <ele>2442.1</ele>
        <time>2022-07-03T14:17:04.000Z</time>
      </trkpt>
      <trkpt lat="45.29173" lon="6.45536">
        <ele>2443.2</ele>
        <time>2022-07-03T14:17:08.000Z</time>
      </trkpt>
      <trkpt lat="45.29181" lon="6.45544">
        <ele>2443.8</ele>
        <time>2022-07-03T14:17:12.000Z</time>
      </trkpt>
      <trkpt lat="45.29186" lon="6.45556">
        <ele>2441.5</ele>
        <time>2022-07-03T14:17:16.000Z</time>
      </trkpt>
      <trkpt lat="45.29194" lon="6.45565">
        <ele>2441.1</ele>
        <time>2022-07-03T14:17:20.000Z</time>
      </trkpt>
      <trkpt lat="45.292" lon="6.45575">
        <ele>2441.9</ele>
        <time>2022-07-03T14:17:24.000Z</time>
      </trkpt>
      <trkpt lat="45.29206" lon="6.45589">
        <ele>2441.8</ele>
        <time>2022-07-03T14:17:30.000Z</time>
      </trkpt>
      <trkpt lat="45.29205" lon="6.45604">
        <ele>2437.6</ele>
        <time>2022-07-03T14:17:36.000Z</time>
      </trkpt>
      <trkpt lat="45.29209" lon="6.4562">
        <ele>2434.7</ele>
        <time>2022-07-03T14:17:46.000Z</time>
      </trkpt>
      <trkpt lat="45.29213" lon="6.45635">
        <ele>2433.1</ele>
        <time>2022-07-03T14:17:52.000Z</time>
      </trkpt>
      <trkpt lat="45.2922" lon="6.45649">
        <ele>2430.5</ele>
        <time>2022-07-03T14:17:58.000Z</time>
      </trkpt>
      <trkpt lat="45.29226" lon="6.45662">
        <ele>2428.9</ele>
        <time>2022-07-03T14:18:02.000Z</time>
      </trkpt>
      <trkpt lat="45.29231" lon="6.45678">
        <ele>2427.1</ele>
        <time>2022-07-03T14:18:06.000Z</time>
      </trkpt>
      <trkpt lat="45.29235" lon="6.45691">
        <ele>2424.6</ele>
        <time>2022-07-03T14:18:10.000Z</time>
      </trkpt>
      <trkpt lat="45.29237" lon="6.45704">
        <ele>2421.9</ele>
        <time>2022-07-03T14:18:14.000Z</time>
      </trkpt>
      <trkpt lat="45.29248" lon="6.45719">
        <ele>2420.4</ele>
        <time>2022-07-03T14:18:20.000Z</time>
      </trkpt>
      <trkpt lat="45.29256" lon="6.45732">
        <ele>2418.7</ele>
        <time>2022-07-03T14:18:24.000Z</time>
      </trkpt>
      <trkpt lat="45.29262" lon="6.45744">
        <ele>2415.6</ele>
        <time>2022-07-03T14:18:28.000Z</time>
      </trkpt>
      <trkpt lat="45.29272" lon="6.45753">
        <ele>2412.4</ele>
        <time>2022-07-03T14:18:34.000Z</time>
      </trkpt>
      <trkpt lat="45.29284" lon="6.45757">
        <ele>2411.5</ele>
        <time>2022-07-03T14:18:40.000Z</time>
      </trkpt>
      <trkpt lat="45.29296" lon="6.45765">
        <ele>2409.4</ele>
        <time>2022-07-03T14:18:44.000Z</time>
      </trkpt>
      <trkpt lat="45.29304" lon="6.4577">
        <ele>2408</ele>
        <time>2022-07-03T14:18:48.000Z</time>
      </trkpt>
      <trkpt lat="45.29313" lon="6.45782">
        <ele>2404</ele>
        <time>2022-07-03T14:18:52.000Z</time>
      </trkpt>
      <trkpt lat="45.29321" lon="6.45796">
        <ele>2398.9</ele>
        <time>2022-07-03T14:18:56.000Z</time>
      </trkpt>
      <trkpt lat="45.29331" lon="6.45812">
        <ele>2395.3</ele>
        <time>2022-07-03T14:19:00.000Z</time>
      </trkpt>
      <trkpt lat="45.29347" lon="6.45818">
        <ele>2393.6</ele>
        <time>2022-07-03T14:19:04.000Z</time>
      </trkpt>
      <trkpt lat="45.29364" lon="6.45829">
        <ele>2391.9</ele>
        <time>2022-07-03T14:19:08.000Z</time>
      </trkpt>
      <trkpt lat="45.29374" lon="6.45845">
        <ele>2391.3</ele>
        <time>2022-07-03T14:19:12.000Z</time>
      </trkpt>
      <trkpt lat="45.29383" lon="6.45854">
        <ele>2391.6</ele>
        <time>2022-07-03T14:19:18.000Z</time>
      </trkpt>
      <trkpt lat="45.29395" lon="6.45859">
        <ele>2392.1</ele>
        <time>2022-07-03T14:19:26.000Z</time>
      </trkpt>
      <trkpt lat="45.29405" lon="6.45867">
        <ele>2391.7</ele>
        <time>2022-07-03T14:19:32.000Z</time>
      </trkpt>
      <trkpt lat="45.29415" lon="6.45877">
        <ele>2390.6</ele>
        <time>2022-07-03T14:19:38.000Z</time>
      </trkpt>
      <trkpt lat="45.29419" lon="6.45889">
        <ele>2389.3</ele>
        <time>2022-07-03T14:19:42.000Z</time>
      </trkpt>
      <trkpt lat="45.29426" lon="6.459">
        <ele>2387.2</ele>
        <time>2022-07-03T14:19:46.000Z</time>
      </trkpt>
      <trkpt lat="45.29421" lon="6.45911">
        <ele>2384.8</ele>
        <time>2022-07-03T14:19:54.000Z</time>
      </trkpt>
      <trkpt lat="45.29413" lon="6.45926">
        <ele>2381.1</ele>
        <time>2022-07-03T14:19:58.000Z</time>
      </trkpt>
      <trkpt lat="45.29412" lon="6.45946">
        <ele>2373.7</ele>
        <time>2022-07-03T14:20:02.000Z</time>
      </trkpt>
      <trkpt lat="45.29414" lon="6.45962">
        <ele>2370.5</ele>
        <time>2022-07-03T14:20:04.000Z</time>
      </trkpt>
      <trkpt lat="45.29412" lon="6.45975">
        <ele>2368.3</ele>
        <time>2022-07-03T14:20:06.000Z</time>
      </trkpt>
      <trkpt lat="45.29414" lon="6.45993">
        <ele>2371.9</ele>
        <time>2022-07-03T14:20:10.000Z</time>
      </trkpt>
      <trkpt lat="45.29421" lon="6.46006">
        <ele>2371.2</ele>
        <time>2022-07-03T14:20:16.000Z</time>
      </trkpt>
      <trkpt lat="45.29424" lon="6.46023">
        <ele>2371</ele>
        <time>2022-07-03T14:20:22.000Z</time>
      </trkpt>
      <trkpt lat="45.29426" lon="6.46039">
        <ele>2370.3</ele>
        <time>2022-07-03T14:20:26.000Z</time>
      </trkpt>
      <trkpt lat="45.29427" lon="6.46052">
        <ele>2368.6</ele>
        <time>2022-07-03T14:20:30.000Z</time>
      </trkpt>
      <trkpt lat="45.29429" lon="6.46067">
        <ele>2367.1</ele>
        <time>2022-07-03T14:20:34.000Z</time>
      </trkpt>
      <trkpt lat="45.29429" lon="6.46082">
        <ele>2365.8</ele>
        <time>2022-07-03T14:21:00.000Z</time>
      </trkpt>
      <trkpt lat="45.29427" lon="6.46097">
        <ele>2364.2</ele>
        <time>2022-07-03T14:21:10.000Z</time>
      </trkpt>
      <trkpt lat="45.29429" lon="6.46111">
        <ele>2362.7</ele>
        <time>2022-07-03T14:21:18.000Z</time>
      </trkpt>
      <trkpt lat="45.29429" lon="6.46124">
        <ele>2356.5</ele>
        <time>2022-07-03T14:21:28.000Z</time>
      </trkpt>
      <trkpt lat="45.29424" lon="6.46136">
        <ele>2353.3</ele>
        <time>2022-07-03T14:21:34.000Z</time>
      </trkpt>
      <trkpt lat="45.29421" lon="6.46149">
        <ele>2349.8</ele>
        <time>2022-07-03T14:21:42.000Z</time>
      </trkpt>
      <trkpt lat="45.29412" lon="6.46154">
        <ele>2348.2</ele>
        <time>2022-07-03T14:21:56.000Z</time>
      </trkpt>
      <trkpt lat="45.29403" lon="6.46156">
        <ele>2344.2</ele>
        <time>2022-07-03T14:22:04.000Z</time>
      </trkpt>
      <trkpt lat="45.29407" lon="6.46169">
        <ele>2340.3</ele>
        <time>2022-07-03T14:22:08.000Z</time>
      </trkpt>
      <trkpt lat="45.29411" lon="6.46183">
        <ele>2337</ele>
        <time>2022-07-03T14:22:12.000Z</time>
      </trkpt>
      <trkpt lat="45.29415" lon="6.46194">
        <ele>2335.1</ele>
        <time>2022-07-03T14:22:16.000Z</time>
      </trkpt>
      <trkpt lat="45.2941" lon="6.46213">
        <ele>2331.1</ele>
        <time>2022-07-03T14:22:20.000Z</time>
      </trkpt>
      <trkpt lat="45.29417" lon="6.46229">
        <ele>2330.5</ele>
        <time>2022-07-03T14:22:24.000Z</time>
      </trkpt>
      <trkpt lat="45.29419" lon="6.46242">
        <ele>2329.6</ele>
        <time>2022-07-03T14:23:04.000Z</time>
      </trkpt>
      <trkpt lat="45.29406" lon="6.46238">
        <ele>2328</ele>
        <time>2022-07-03T14:23:10.000Z</time>
      </trkpt>
      <trkpt lat="45.29395" lon="6.46236">
        <ele>2324.9</ele>
        <time>2022-07-03T14:23:14.000Z</time>
      </trkpt>
      <trkpt lat="45.29383" lon="6.46236">
        <ele>2320.6</ele>
        <time>2022-07-03T14:23:18.000Z</time>
      </trkpt>
      <trkpt lat="45.29369" lon="6.46222">
        <ele>2314.9</ele>
        <time>2022-07-03T14:23:22.000Z</time>
      </trkpt>
      <trkpt lat="45.29359" lon="6.46208">
        <ele>2310.2</ele>
        <time>2022-07-03T14:23:26.000Z</time>
      </trkpt>
      <trkpt lat="45.2935" lon="6.46196">
        <ele>2306.5</ele>
        <time>2022-07-03T14:23:30.000Z</time>
      </trkpt>
      <trkpt lat="45.2934" lon="6.46187">
        <ele>2302.9</ele>
        <time>2022-07-03T14:23:34.000Z</time>
      </trkpt>
      <trkpt lat="45.29329" lon="6.46174">
        <ele>2299.1</ele>
        <time>2022-07-03T14:23:38.000Z</time>
      </trkpt>
      <trkpt lat="45.29317" lon="6.46164">
        <ele>2295.7</ele>
        <time>2022-07-03T14:23:42.000Z</time>
      </trkpt>
      <trkpt lat="45.29306" lon="6.46162">
        <ele>2292.2</ele>
        <time>2022-07-03T14:23:46.000Z</time>
      </trkpt>
      <trkpt lat="45.29293" lon="6.46155">
        <ele>2288.9</ele>
        <time>2022-07-03T14:23:50.000Z</time>
      </trkpt>
      <trkpt lat="45.29282" lon="6.46149">
        <ele>2286.3</ele>
        <time>2022-07-03T14:23:54.000Z</time>
      </trkpt>
      <trkpt lat="45.29273" lon="6.46146">
        <ele>2283.9</ele>
        <time>2022-07-03T14:23:58.000Z</time>
      </trkpt>
      <trkpt lat="45.29263" lon="6.46143">
        <ele>2281.4</ele>
        <time>2022-07-03T14:24:02.000Z</time>
      </trkpt>
      <trkpt lat="45.29254" lon="6.46143">
        <ele>2278.5</ele>
        <time>2022-07-03T14:24:06.000Z</time>
      </trkpt>
      <trkpt lat="45.29243" lon="6.46138">
        <ele>2275.4</ele>
        <time>2022-07-03T14:24:10.000Z</time>
      </trkpt>
      <trkpt lat="45.29228" lon="6.46135">
        <ele>2271</ele>
        <time>2022-07-03T14:24:14.000Z</time>
      </trkpt>
      <trkpt lat="45.29212" lon="6.46128">
        <ele>2267.7</ele>
        <time>2022-07-03T14:24:18.000Z</time>
      </trkpt>
      <trkpt lat="45.29201" lon="6.46131">
        <ele>2264.1</ele>
        <time>2022-07-03T14:24:22.000Z</time>
      </trkpt>
      <trkpt lat="45.29188" lon="6.4613">
        <ele>2260.4</ele>
        <time>2022-07-03T14:24:26.000Z</time>
      </trkpt>
      <trkpt lat="45.29178" lon="6.46131">
        <ele>2257.5</ele>
        <time>2022-07-03T14:24:30.000Z</time>
      </trkpt>
      <trkpt lat="45.2917" lon="6.46143">
        <ele>2253.6</ele>
        <time>2022-07-03T14:24:34.000Z</time>
      </trkpt>
      <trkpt lat="45.29164" lon="6.46163">
        <ele>2250.4</ele>
        <time>2022-07-03T14:24:38.000Z</time>
      </trkpt>
      <trkpt lat="45.29158" lon="6.46173">
        <ele>2247.7</ele>
        <time>2022-07-03T14:24:42.000Z</time>
      </trkpt>
      <trkpt lat="45.29144" lon="6.46177">
        <ele>2243.7</ele>
        <time>2022-07-03T14:24:46.000Z</time>
      </trkpt>
      <trkpt lat="45.29134" lon="6.46169">
        <ele>2240.3</ele>
        <time>2022-07-03T14:24:50.000Z</time>
      </trkpt>
      <trkpt lat="45.29126" lon="6.46152">
        <ele>2237</ele>
        <time>2022-07-03T14:24:56.000Z</time>
      </trkpt>
      <trkpt lat="45.29117" lon="6.46137">
        <ele>2234.3</ele>
        <time>2022-07-03T14:25:00.000Z</time>
      </trkpt>
      <trkpt lat="45.29107" lon="6.46149">
        <ele>2229.5</ele>
        <time>2022-07-03T14:25:06.000Z</time>
      </trkpt>
      <trkpt lat="45.29097" lon="6.46159">
        <ele>2226.1</ele>
        <time>2022-07-03T14:25:10.000Z</time>
      </trkpt>
      <trkpt lat="45.29088" lon="6.46173">
        <ele>2222.1</ele>
        <time>2022-07-03T14:25:14.000Z</time>
      </trkpt>
      <trkpt lat="45.29081" lon="6.46192">
        <ele>2217.8</ele>
        <time>2022-07-03T14:25:18.000Z</time>
      </trkpt>
      <trkpt lat="45.29071" lon="6.46207">
        <ele>2214.8</ele>
        <time>2022-07-03T14:25:22.000Z</time>
      </trkpt>
      <trkpt lat="45.29061" lon="6.46209">
        <ele>2212.5</ele>
        <time>2022-07-03T14:25:26.000Z</time>
      </trkpt>
      <trkpt lat="45.2905" lon="6.46214">
        <ele>2208.7</ele>
        <time>2022-07-03T14:25:32.000Z</time>
      </trkpt>
      <trkpt lat="45.2904" lon="6.4622">
        <ele>2203.7</ele>
        <time>2022-07-03T14:25:40.000Z</time>
      </trkpt>
      <trkpt lat="45.29031" lon="6.46209">
        <ele>2200.9</ele>
        <time>2022-07-03T14:25:46.000Z</time>
      </trkpt>
      <trkpt lat="45.29026" lon="6.46225">
        <ele>2196.5</ele>
        <time>2022-07-03T14:26:00.000Z</time>
      </trkpt>
      <trkpt lat="45.29012" lon="6.46235">
        <ele>2192.4</ele>
        <time>2022-07-03T14:26:06.000Z</time>
      </trkpt>
      <trkpt lat="45.29007" lon="6.46248">
        <ele>2188.9</ele>
        <time>2022-07-03T14:26:10.000Z</time>
      </trkpt>
      <trkpt lat="45.29007" lon="6.46262">
        <ele>2185.9</ele>
        <time>2022-07-03T14:26:14.000Z</time>
      </trkpt>
      <trkpt lat="45.29008" lon="6.46275">
        <ele>2183.2</ele>
        <time>2022-07-03T14:26:18.000Z</time>
      </trkpt>
      <trkpt lat="45.29005" lon="6.4629">
        <ele>2182.1</ele>
        <time>2022-07-03T14:26:22.000Z</time>
      </trkpt>
      <trkpt lat="45.28997" lon="6.46297">
        <ele>2180.7</ele>
        <time>2022-07-03T14:26:26.000Z</time>
      </trkpt>
      <trkpt lat="45.28982" lon="6.46307">
        <ele>2178.4</ele>
        <time>2022-07-03T14:26:30.000Z</time>
      </trkpt>
      <trkpt lat="45.28969" lon="6.46319">
        <ele>2175.2</ele>
        <time>2022-07-03T14:26:34.000Z</time>
      </trkpt>
      <trkpt lat="45.28958" lon="6.46319">
        <ele>2172.4</ele>
        <time>2022-07-03T14:26:38.000Z</time>
      </trkpt>
      <trkpt lat="45.28944" lon="6.4632">
        <ele>2169.5</ele>
        <time>2022-07-03T14:26:42.000Z</time>
      </trkpt>
      <trkpt lat="45.2893" lon="6.46325">
        <ele>2167</ele>
        <time>2022-07-03T14:26:46.000Z</time>
      </trkpt>
      <trkpt lat="45.28915" lon="6.46335">
        <ele>2164</ele>
        <time>2022-07-03T14:26:50.000Z</time>
      </trkpt>
      <trkpt lat="45.28903" lon="6.46344">
        <ele>2159.9</ele>
        <time>2022-07-03T14:26:54.000Z</time>
      </trkpt>
      <trkpt lat="45.28891" lon="6.46357">
        <ele>2156.3</ele>
        <time>2022-07-03T14:26:58.000Z</time>
      </trkpt>
      <trkpt lat="45.28886" lon="6.4637">
        <ele>2153.7</ele>
        <time>2022-07-03T14:27:02.000Z</time>
      </trkpt>
      <trkpt lat="45.2888" lon="6.46386">
        <ele>2150.2</ele>
        <time>2022-07-03T14:27:06.000Z</time>
      </trkpt>
      <trkpt lat="45.28882" lon="6.46399">
        <ele>2149</ele>
        <time>2022-07-03T14:27:10.000Z</time>
      </trkpt>
      <trkpt lat="45.28877" lon="6.4641">
        <ele>2146.4</ele>
        <time>2022-07-03T14:27:14.000Z</time>
      </trkpt>
      <trkpt lat="45.28867" lon="6.46419">
        <ele>2142.4</ele>
        <time>2022-07-03T14:27:18.000Z</time>
      </trkpt>
      <trkpt lat="45.28863" lon="6.46433">
        <ele>2139.1</ele>
        <time>2022-07-03T14:27:22.000Z</time>
      </trkpt>
      <trkpt lat="45.28854" lon="6.46436">
        <ele>2136.1</ele>
        <time>2022-07-03T14:27:30.000Z</time>
      </trkpt>
      <trkpt lat="45.28845" lon="6.46434">
        <ele>2133.4</ele>
        <time>2022-07-03T14:27:34.000Z</time>
      </trkpt>
      <trkpt lat="45.28837" lon="6.46444">
        <ele>2130.5</ele>
        <time>2022-07-03T14:27:38.000Z</time>
      </trkpt>
      <trkpt lat="45.28825" lon="6.4645">
        <ele>2126.1</ele>
        <time>2022-07-03T14:27:44.000Z</time>
      </trkpt>
      <trkpt lat="45.28815" lon="6.46455">
        <ele>2122.3</ele>
        <time>2022-07-03T14:27:48.000Z</time>
      </trkpt>
      <trkpt lat="45.28802" lon="6.46455">
        <ele>2118.4</ele>
        <time>2022-07-03T14:27:52.000Z</time>
      </trkpt>
      <trkpt lat="45.28787" lon="6.46459">
        <ele>2113.6</ele>
        <time>2022-07-03T14:27:56.000Z</time>
      </trkpt>
      <trkpt lat="45.28774" lon="6.46462">
        <ele>2109.3</ele>
        <time>2022-07-03T14:28:00.000Z</time>
      </trkpt>
      <trkpt lat="45.28764" lon="6.46461">
        <ele>2106</ele>
        <time>2022-07-03T14:28:04.000Z</time>
      </trkpt>
      <trkpt lat="45.28753" lon="6.46459">
        <ele>2103</ele>
        <time>2022-07-03T14:28:08.000Z</time>
      </trkpt>
      <trkpt lat="45.28738" lon="6.46457">
        <ele>2099.3</ele>
        <time>2022-07-03T14:28:12.000Z</time>
      </trkpt>
      <trkpt lat="45.28727" lon="6.46454">
        <ele>2096.5</ele>
        <time>2022-07-03T14:28:14.000Z</time>
      </trkpt>
      <trkpt lat="45.2871" lon="6.4646">
        <ele>2092.1</ele>
        <time>2022-07-03T14:28:18.000Z</time>
      </trkpt>
      <trkpt lat="45.28692" lon="6.46469">
        <ele>2088.1</ele>
        <time>2022-07-03T14:28:22.000Z</time>
      </trkpt>
      <trkpt lat="45.2868" lon="6.46481">
        <ele>2084.9</ele>
        <time>2022-07-03T14:28:26.000Z</time>
      </trkpt>
      <trkpt lat="45.28668" lon="6.46494">
        <ele>2081.5</ele>
        <time>2022-07-03T14:28:30.000Z</time>
      </trkpt>
      <trkpt lat="45.2866" lon="6.46498">
        <ele>2079.3</ele>
        <time>2022-07-03T14:28:32.000Z</time>
      </trkpt>
      <trkpt lat="45.2865" lon="6.46514">
        <ele>2076.8</ele>
        <time>2022-07-03T14:28:36.000Z</time>
      </trkpt>
      <trkpt lat="45.2864" lon="6.46525">
        <ele>2075.5</ele>
        <time>2022-07-03T14:28:38.000Z</time>
      </trkpt>
      <trkpt lat="45.28635" lon="6.46536">
        <ele>2074.7</ele>
        <time>2022-07-03T14:28:40.000Z</time>
      </trkpt>
      <trkpt lat="45.28627" lon="6.46545">
        <ele>2073.6</ele>
        <time>2022-07-03T14:28:42.000Z</time>
      </trkpt>
      <trkpt lat="45.2861" lon="6.46559">
        <ele>2071.2</ele>
        <time>2022-07-03T14:28:46.000Z</time>
      </trkpt>
      <trkpt lat="45.286" lon="6.46563">
        <ele>2069.3</ele>
        <time>2022-07-03T14:28:48.000Z</time>
      </trkpt>
      <trkpt lat="45.2859" lon="6.46566">
        <ele>2067.5</ele>
        <time>2022-07-03T14:28:50.000Z</time>
      </trkpt>
      <trkpt lat="45.28579" lon="6.4657">
        <ele>2065.3</ele>
        <time>2022-07-03T14:28:52.000Z</time>
      </trkpt>
      <trkpt lat="45.28564" lon="6.46575">
        <ele>2061.3</ele>
        <time>2022-07-03T14:28:56.000Z</time>
      </trkpt>
      <trkpt lat="45.28554" lon="6.46581">
        <ele>2058.7</ele>
        <time>2022-07-03T14:28:58.000Z</time>
      </trkpt>
      <trkpt lat="45.28547" lon="6.46593">
        <ele>2056.4</ele>
        <time>2022-07-03T14:29:00.000Z</time>
      </trkpt>
      <trkpt lat="45.28539" lon="6.46601">
        <ele>2054.6</ele>
        <time>2022-07-03T14:29:02.000Z</time>
      </trkpt>
      <trkpt lat="45.28524" lon="6.46605">
        <ele>2051.5</ele>
        <time>2022-07-03T14:29:06.000Z</time>
      </trkpt>
      <trkpt lat="45.28513" lon="6.46607">
        <ele>2049.4</ele>
        <time>2022-07-03T14:29:10.000Z</time>
      </trkpt>
      <trkpt lat="45.28498" lon="6.46603">
        <ele>2046.3</ele>
        <time>2022-07-03T14:29:14.000Z</time>
      </trkpt>
      <trkpt lat="45.28489" lon="6.46586">
        <ele>2042.8</ele>
        <time>2022-07-03T14:29:18.000Z</time>
      </trkpt>
      <trkpt lat="45.28478" lon="6.4658">
        <ele>2040.2</ele>
        <time>2022-07-03T14:29:22.000Z</time>
      </trkpt>
      <trkpt lat="45.28468" lon="6.46588">
        <ele>2037.1</ele>
        <time>2022-07-03T14:29:26.000Z</time>
      </trkpt>
      <trkpt lat="45.28466" lon="6.46606">
        <ele>2035</ele>
        <time>2022-07-03T14:29:30.000Z</time>
      </trkpt>
      <trkpt lat="45.28454" lon="6.46603">
        <ele>2032.3</ele>
        <time>2022-07-03T14:29:36.000Z</time>
      </trkpt>
      <trkpt lat="45.28444" lon="6.46597">
        <ele>2030.3</ele>
        <time>2022-07-03T14:29:38.000Z</time>
      </trkpt>
      <trkpt lat="45.28435" lon="6.46594">
        <ele>2028.3</ele>
        <time>2022-07-03T14:29:40.000Z</time>
      </trkpt>
      <trkpt lat="45.28427" lon="6.46588">
        <ele>2026.7</ele>
        <time>2022-07-03T14:29:42.000Z</time>
      </trkpt>
      <trkpt lat="45.28415" lon="6.46585">
        <ele>2024.1</ele>
        <time>2022-07-03T14:29:46.000Z</time>
      </trkpt>
      <trkpt lat="45.28413" lon="6.46565">
        <ele>2023.1</ele>
        <time>2022-07-03T14:30:08.000Z</time>
      </trkpt>
      <trkpt lat="45.28413" lon="6.46552">
        <ele>2022.7</ele>
        <time>2022-07-03T14:30:12.000Z</time>
      </trkpt>
      <trkpt lat="45.28414" lon="6.46539">
        <ele>2022.6</ele>
        <time>2022-07-03T14:30:16.000Z</time>
      </trkpt>
      <trkpt lat="45.28415" lon="6.4652">
        <ele>2022.5</ele>
        <time>2022-07-03T14:30:22.000Z</time>
      </trkpt>
      <trkpt lat="45.28418" lon="6.46508">
        <ele>2023.1</ele>
        <time>2022-07-03T14:30:26.000Z</time>
      </trkpt>
      <trkpt lat="45.28423" lon="6.46492">
        <ele>2023.3</ele>
        <time>2022-07-03T14:30:32.000Z</time>
      </trkpt>
      <trkpt lat="45.28426" lon="6.46479">
        <ele>2022.3</ele>
        <time>2022-07-03T14:30:36.000Z</time>
      </trkpt>
      <trkpt lat="45.28429" lon="6.4646">
        <ele>2021.2</ele>
        <time>2022-07-03T14:30:40.000Z</time>
      </trkpt>
      <trkpt lat="45.2843" lon="6.46444">
        <ele>2020.1</ele>
        <time>2022-07-03T14:30:44.000Z</time>
      </trkpt>
      <trkpt lat="45.28437" lon="6.46434">
        <ele>2019.2</ele>
        <time>2022-07-03T14:30:48.000Z</time>
      </trkpt>
      <trkpt lat="45.28446" lon="6.46419">
        <ele>2019</ele>
        <time>2022-07-03T14:30:54.000Z</time>
      </trkpt>
      <trkpt lat="45.28454" lon="6.4641">
        <ele>2019.2</ele>
        <time>2022-07-03T14:30:58.000Z</time>
      </trkpt>
      <trkpt lat="45.28464" lon="6.46401">
        <ele>2019.8</ele>
        <time>2022-07-03T14:31:02.000Z</time>
      </trkpt>
      <trkpt lat="45.28478" lon="6.46391">
        <ele>2020.3</ele>
        <time>2022-07-03T14:31:06.000Z</time>
      </trkpt>
      <trkpt lat="45.28493" lon="6.46378">
        <ele>2018.9</ele>
        <time>2022-07-03T14:31:10.000Z</time>
      </trkpt>
      <trkpt lat="45.28506" lon="6.46371">
        <ele>2017</ele>
        <time>2022-07-03T14:31:14.000Z</time>
      </trkpt>
      <trkpt lat="45.2852" lon="6.46363">
        <ele>2014.6</ele>
        <time>2022-07-03T14:31:20.000Z</time>
      </trkpt>
      <trkpt lat="45.2853" lon="6.46353">
        <ele>2013.8</ele>
        <time>2022-07-03T14:31:24.000Z</time>
      </trkpt>
      <trkpt lat="45.28531" lon="6.46338">
        <ele>2014.5</ele>
        <time>2022-07-03T14:31:30.000Z</time>
      </trkpt>
      <trkpt lat="45.28527" lon="6.46325">
        <ele>2014.1</ele>
        <time>2022-07-03T14:31:36.000Z</time>
      </trkpt>
      <trkpt lat="45.28524" lon="6.46311">
        <ele>2013.8</ele>
        <time>2022-07-03T14:31:40.000Z</time>
      </trkpt>
      <trkpt lat="45.28524" lon="6.46292">
        <ele>2013.4</ele>
        <time>2022-07-03T14:31:46.000Z</time>
      </trkpt>
      <trkpt lat="45.28524" lon="6.46274">
        <ele>2012.2</ele>
        <time>2022-07-03T14:31:54.000Z</time>
      </trkpt>
      <trkpt lat="45.28527" lon="6.46258">
        <ele>2011.5</ele>
        <time>2022-07-03T14:31:58.000Z</time>
      </trkpt>
      <trkpt lat="45.28535" lon="6.4624">
        <ele>2012.6</ele>
        <time>2022-07-03T14:32:02.000Z</time>
      </trkpt>
      <trkpt lat="45.2854" lon="6.46222">
        <ele>2012.2</ele>
        <time>2022-07-03T14:32:06.000Z</time>
      </trkpt>
      <trkpt lat="45.28536" lon="6.46209">
        <ele>2010.5</ele>
        <time>2022-07-03T14:32:10.000Z</time>
      </trkpt>
      <trkpt lat="45.28533" lon="6.46196">
        <ele>2009.9</ele>
        <time>2022-07-03T14:32:14.000Z</time>
      </trkpt>
      <trkpt lat="45.2853" lon="6.46183">
        <ele>2009.6</ele>
        <time>2022-07-03T14:32:18.000Z</time>
      </trkpt>
      <trkpt lat="45.28521" lon="6.46171">
        <ele>2008.6</ele>
        <time>2022-07-03T14:32:24.000Z</time>
      </trkpt>
      <trkpt lat="45.28514" lon="6.46157">
        <ele>2008.6</ele>
        <time>2022-07-03T14:32:32.000Z</time>
      </trkpt>
      <trkpt lat="45.28513" lon="6.46143">
        <ele>2010.2</ele>
        <time>2022-07-03T14:32:50.000Z</time>
      </trkpt>
      <trkpt lat="45.28507" lon="6.4613">
        <ele>2011.4</ele>
        <time>2022-07-03T14:33:00.000Z</time>
      </trkpt>
      <trkpt lat="45.28503" lon="6.46118">
        <ele>2014</ele>
        <time>2022-07-03T14:33:10.000Z</time>
      </trkpt>
      <trkpt lat="45.28497" lon="6.46108">
        <ele>2015.4</ele>
        <time>2022-07-03T14:33:36.000Z</time>
      </trkpt>
      <trkpt lat="45.28492" lon="6.46097">
        <ele>2019.5</ele>
        <time>2022-07-03T14:33:56.000Z</time>
      </trkpt>
      <trkpt lat="45.28486" lon="6.46086">
        <ele>2021.6</ele>
        <time>2022-07-03T14:34:10.000Z</time>
      </trkpt>
      <trkpt lat="45.28487" lon="6.46072">
        <ele>2026.1</ele>
        <time>2022-07-03T14:34:26.000Z</time>
      </trkpt>
      <trkpt lat="45.28483" lon="6.46059">
        <ele>2027.4</ele>
        <time>2022-07-03T14:34:38.000Z</time>
      </trkpt>
      <trkpt lat="45.28476" lon="6.46051">
        <ele>2025.9</ele>
        <time>2022-07-03T14:35:00.000Z</time>
      </trkpt>
      <trkpt lat="45.28471" lon="6.46039">
        <ele>2026.4</ele>
        <time>2022-07-03T14:35:12.000Z</time>
      </trkpt>
      <trkpt lat="45.28465" lon="6.4603">
        <ele>2026.7</ele>
        <time>2022-07-03T14:35:46.000Z</time>
      </trkpt>
      <trkpt lat="45.28462" lon="6.46016">
        <ele>2028.5</ele>
        <time>2022-07-03T14:36:14.000Z</time>
      </trkpt>
      <trkpt lat="45.28452" lon="6.46009">
        <ele>2027.4</ele>
        <time>2022-07-03T14:36:40.000Z</time>
      </trkpt>
      <trkpt lat="45.28442" lon="6.45998">
        <ele>2027</ele>
        <time>2022-07-03T14:36:44.000Z</time>
      </trkpt>
      <trkpt lat="45.28433" lon="6.45989">
        <ele>2026.8</ele>
        <time>2022-07-03T14:36:48.000Z</time>
      </trkpt>
      <trkpt lat="45.28425" lon="6.45976">
        <ele>2026.9</ele>
        <time>2022-07-03T14:36:54.000Z</time>
      </trkpt>
      <trkpt lat="45.28417" lon="6.45969">
        <ele>2026.5</ele>
        <time>2022-07-03T14:36:58.000Z</time>
      </trkpt>
      <trkpt lat="45.28408" lon="6.45957">
        <ele>2026.4</ele>
        <time>2022-07-03T14:37:02.000Z</time>
      </trkpt>
      <trkpt lat="45.28403" lon="6.45943">
        <ele>2027.4</ele>
        <time>2022-07-03T14:37:08.000Z</time>
      </trkpt>
      <trkpt lat="45.28403" lon="6.45928">
        <ele>2030.1</ele>
        <time>2022-07-03T14:37:14.000Z</time>
      </trkpt>
      <trkpt lat="45.28398" lon="6.45917">
        <ele>2031.5</ele>
        <time>2022-07-03T14:37:20.000Z</time>
      </trkpt>
      <trkpt lat="45.28388" lon="6.45907">
        <ele>2030.1</ele>
        <time>2022-07-03T14:37:26.000Z</time>
      </trkpt>
      <trkpt lat="45.28383" lon="6.4589">
        <ele>2027.7</ele>
        <time>2022-07-03T14:37:32.000Z</time>
      </trkpt>
      <trkpt lat="45.28376" lon="6.45877">
        <ele>2026.6</ele>
        <time>2022-07-03T14:37:38.000Z</time>
      </trkpt>
      <trkpt lat="45.28369" lon="6.4586">
        <ele>2025.7</ele>
        <time>2022-07-03T14:37:42.000Z</time>
      </trkpt>
      <trkpt lat="45.28364" lon="6.45845">
        <ele>2026.5</ele>
        <time>2022-07-03T14:37:46.000Z</time>
      </trkpt>
      <trkpt lat="45.28359" lon="6.45834">
        <ele>2027.1</ele>
        <time>2022-07-03T14:37:50.000Z</time>
      </trkpt>
      <trkpt lat="45.28356" lon="6.45821">
        <ele>2031.8</ele>
        <time>2022-07-03T14:38:12.000Z</time>
      </trkpt>
      <trkpt lat="45.28346" lon="6.45821">
        <ele>2028.7</ele>
        <time>2022-07-03T14:38:28.000Z</time>
      </trkpt>
      <trkpt lat="45.2834" lon="6.4581">
        <ele>2030.5</ele>
        <time>2022-07-03T14:38:44.000Z</time>
      </trkpt>
      <trkpt lat="45.2834" lon="6.45797">
        <ele>2034</ele>
        <time>2022-07-03T14:38:54.000Z</time>
      </trkpt>
      <trkpt lat="45.28335" lon="6.45785">
        <ele>2034.4</ele>
        <time>2022-07-03T14:39:06.000Z</time>
      </trkpt>
      <trkpt lat="45.28334" lon="6.45772">
        <ele>2037.8</ele>
        <time>2022-07-03T14:39:18.000Z</time>
      </trkpt>
      <trkpt lat="45.28323" lon="6.4577">
        <ele>2034</ele>
        <time>2022-07-03T14:39:34.000Z</time>
      </trkpt>
      <trkpt lat="45.28319" lon="6.45756">
        <ele>2037.1</ele>
        <time>2022-07-03T14:40:04.000Z</time>
      </trkpt>
      <trkpt lat="45.28308" lon="6.45744">
        <ele>2035.6</ele>
        <time>2022-07-03T14:40:10.000Z</time>
      </trkpt>
      <trkpt lat="45.283" lon="6.45736">
        <ele>2033.5</ele>
        <time>2022-07-03T14:40:14.000Z</time>
      </trkpt>
      <trkpt lat="45.28299" lon="6.4575">
        <ele>2029</ele>
        <time>2022-07-03T14:40:20.000Z</time>
      </trkpt>
      <trkpt lat="45.28286" lon="6.45741">
        <ele>2023.2</ele>
        <time>2022-07-03T14:40:26.000Z</time>
      </trkpt>
      <trkpt lat="45.28275" lon="6.45728">
        <ele>2021.6</ele>
        <time>2022-07-03T14:40:30.000Z</time>
      </trkpt>
      <trkpt lat="45.28277" lon="6.45743">
        <ele>2016.4</ele>
        <time>2022-07-03T14:40:56.000Z</time>
      </trkpt>
      <trkpt lat="45.28267" lon="6.45735">
        <ele>2014.5</ele>
        <time>2022-07-03T14:41:10.000Z</time>
      </trkpt>
      <trkpt lat="45.28257" lon="6.45726">
        <ele>2013.4</ele>
        <time>2022-07-03T14:41:14.000Z</time>
      </trkpt>
      <trkpt lat="45.28248" lon="6.45714">
        <ele>2013.4</ele>
        <time>2022-07-03T14:41:18.000Z</time>
      </trkpt>
      <trkpt lat="45.28237" lon="6.4571">
        <ele>2010.7</ele>
        <time>2022-07-03T14:41:22.000Z</time>
      </trkpt>
      <trkpt lat="45.28227" lon="6.45703">
        <ele>2007.3</ele>
        <time>2022-07-03T14:41:26.000Z</time>
      </trkpt>
      <trkpt lat="45.28222" lon="6.45684">
        <ele>2006.7</ele>
        <time>2022-07-03T14:41:32.000Z</time>
      </trkpt>
      <trkpt lat="45.28217" lon="6.45672">
        <ele>2005.4</ele>
        <time>2022-07-03T14:41:36.000Z</time>
      </trkpt>
      <trkpt lat="45.28217" lon="6.45689">
        <ele>2002.5</ele>
        <time>2022-07-03T14:41:48.000Z</time>
      </trkpt>
      <trkpt lat="45.28214" lon="6.45707">
        <ele>1998.4</ele>
        <time>2022-07-03T14:41:52.000Z</time>
      </trkpt>
      <trkpt lat="45.28215" lon="6.45721">
        <ele>1997.6</ele>
        <time>2022-07-03T14:41:56.000Z</time>
      </trkpt>
      <trkpt lat="45.28218" lon="6.45737">
        <ele>1995.6</ele>
        <time>2022-07-03T14:42:00.000Z</time>
      </trkpt>
      <trkpt lat="45.28223" lon="6.45749">
        <ele>1994.7</ele>
        <time>2022-07-03T14:42:04.000Z</time>
      </trkpt>
      <trkpt lat="45.28213" lon="6.45738">
        <ele>1991.6</ele>
        <time>2022-07-03T14:42:14.000Z</time>
      </trkpt>
      <trkpt lat="45.28204" lon="6.45728">
        <ele>1989</ele>
        <time>2022-07-03T14:42:18.000Z</time>
      </trkpt>
      <trkpt lat="45.28199" lon="6.45709">
        <ele>1987.8</ele>
        <time>2022-07-03T14:42:22.000Z</time>
      </trkpt>
      <trkpt lat="45.28193" lon="6.45688">
        <ele>1986</ele>
        <time>2022-07-03T14:42:26.000Z</time>
      </trkpt>
      <trkpt lat="45.28183" lon="6.45676">
        <ele>1983.8</ele>
        <time>2022-07-03T14:42:30.000Z</time>
      </trkpt>
      <trkpt lat="45.28183" lon="6.45695">
        <ele>1980.8</ele>
        <time>2022-07-03T14:43:00.000Z</time>
      </trkpt>
      <trkpt lat="45.28171" lon="6.45696">
        <ele>1976.5</ele>
        <time>2022-07-03T14:43:12.000Z</time>
      </trkpt>
      <trkpt lat="45.2816" lon="6.45695">
        <ele>1970</ele>
        <time>2022-07-03T14:43:16.000Z</time>
      </trkpt>
      <trkpt lat="45.28166" lon="6.4571">
        <ele>1969.3</ele>
        <time>2022-07-03T14:43:22.000Z</time>
      </trkpt>
      <trkpt lat="45.28177" lon="6.45727">
        <ele>1971.5</ele>
        <time>2022-07-03T14:43:26.000Z</time>
      </trkpt>
      <trkpt lat="45.28178" lon="6.45743">
        <ele>1968.2</ele>
        <time>2022-07-03T14:43:28.000Z</time>
      </trkpt>
      <trkpt lat="45.28182" lon="6.45756">
        <ele>1966</ele>
        <time>2022-07-03T14:43:30.000Z</time>
      </trkpt>
      <trkpt lat="45.28182" lon="6.45773">
        <ele>1961.7</ele>
        <time>2022-07-03T14:43:34.000Z</time>
      </trkpt>
      <trkpt lat="45.2817" lon="6.45762">
        <ele>1957.8</ele>
        <time>2022-07-03T14:43:44.000Z</time>
      </trkpt>
      <trkpt lat="45.28159" lon="6.45747">
        <ele>1955.8</ele>
        <time>2022-07-03T14:43:48.000Z</time>
      </trkpt>
      <trkpt lat="45.28147" lon="6.4574">
        <ele>1953</ele>
        <time>2022-07-03T14:43:52.000Z</time>
      </trkpt>
      <trkpt lat="45.28135" lon="6.45738">
        <ele>1947.5</ele>
        <time>2022-07-03T14:43:56.000Z</time>
      </trkpt>
      <trkpt lat="45.28136" lon="6.45725">
        <ele>1947.1</ele>
        <time>2022-07-03T14:44:00.000Z</time>
      </trkpt>
      <trkpt lat="45.28131" lon="6.45737">
        <ele>1943.5</ele>
        <time>2022-07-03T14:44:14.000Z</time>
      </trkpt>
      <trkpt lat="45.28127" lon="6.45757">
        <ele>1940.9</ele>
        <time>2022-07-03T14:44:18.000Z</time>
      </trkpt>
      <trkpt lat="45.28121" lon="6.45776">
        <ele>1938.1</ele>
        <time>2022-07-03T14:44:22.000Z</time>
      </trkpt>
      <trkpt lat="45.28122" lon="6.45789">
        <ele>1936.2</ele>
        <time>2022-07-03T14:44:26.000Z</time>
      </trkpt>
      <trkpt lat="45.28119" lon="6.45806">
        <ele>1932</ele>
        <time>2022-07-03T14:44:32.000Z</time>
      </trkpt>
      <trkpt lat="45.28106" lon="6.45811">
        <ele>1927.4</ele>
        <time>2022-07-03T14:44:38.000Z</time>
      </trkpt>
      <trkpt lat="45.28093" lon="6.4581">
        <ele>1922.6</ele>
        <time>2022-07-03T14:44:42.000Z</time>
      </trkpt>
      <trkpt lat="45.2808" lon="6.45827">
        <ele>1917.1</ele>
        <time>2022-07-03T14:44:46.000Z</time>
      </trkpt>
      <trkpt lat="45.28069" lon="6.45829">
        <ele>1913.7</ele>
        <time>2022-07-03T14:44:48.000Z</time>
      </trkpt>
      <trkpt lat="45.28061" lon="6.45841">
        <ele>1910.3</ele>
        <time>2022-07-03T14:44:52.000Z</time>
      </trkpt>
      <trkpt lat="45.28057" lon="6.45858">
        <ele>1908.6</ele>
        <time>2022-07-03T14:44:56.000Z</time>
      </trkpt>
      <trkpt lat="45.28042" lon="6.45854">
        <ele>1902.1</ele>
        <time>2022-07-03T14:45:02.000Z</time>
      </trkpt>
      <trkpt lat="45.28029" lon="6.45839">
        <ele>1897</ele>
        <time>2022-07-03T14:45:06.000Z</time>
      </trkpt>
      <trkpt lat="45.28025" lon="6.45826">
        <ele>1893.3</ele>
        <time>2022-07-03T14:45:12.000Z</time>
      </trkpt>
      <trkpt lat="45.28015" lon="6.45828">
        <ele>1890.6</ele>
        <time>2022-07-03T14:45:16.000Z</time>
      </trkpt>
      <trkpt lat="45.28005" lon="6.45827">
        <ele>1886.5</ele>
        <time>2022-07-03T14:45:20.000Z</time>
      </trkpt>
      <trkpt lat="45.28005" lon="6.45813">
        <ele>1882.3</ele>
        <time>2022-07-03T14:45:34.000Z</time>
      </trkpt>
      <trkpt lat="45.28005" lon="6.458">
        <ele>1879.4</ele>
        <time>2022-07-03T14:46:08.000Z</time>
      </trkpt>
      <trkpt lat="45.27992" lon="6.458">
        <ele>1874.8</ele>
        <time>2022-07-03T14:46:20.000Z</time>
      </trkpt>
      <trkpt lat="45.27982" lon="6.45806">
        <ele>1870</ele>
        <time>2022-07-03T14:46:24.000Z</time>
      </trkpt>
      <trkpt lat="45.27966" lon="6.45815">
        <ele>1866.7</ele>
        <time>2022-07-03T14:46:28.000Z</time>
      </trkpt>
      <trkpt lat="45.27949" lon="6.45816">
        <ele>1864.7</ele>
        <time>2022-07-03T14:46:32.000Z</time>
      </trkpt>
      <trkpt lat="45.27936" lon="6.45814">
        <ele>1860.9</ele>
        <time>2022-07-03T14:46:36.000Z</time>
      </trkpt>
      <trkpt lat="45.27929" lon="6.45803">
        <ele>1856</ele>
        <time>2022-07-03T14:46:42.000Z</time>
      </trkpt>
      <trkpt lat="45.27938" lon="6.45797">
        <ele>1859.1</ele>
        <time>2022-07-03T14:47:24.000Z</time>
      </trkpt>
      <trkpt lat="45.27931" lon="6.4579">
        <ele>1859.7</ele>
        <time>2022-07-03T14:47:40.000Z</time>
      </trkpt>
      <trkpt lat="45.2792" lon="6.45787">
        <ele>1857.5</ele>
        <time>2022-07-03T14:48:06.000Z</time>
      </trkpt>
      <trkpt lat="45.27909" lon="6.4578">
        <ele>1856.8</ele>
        <time>2022-07-03T14:48:22.000Z</time>
      </trkpt>
      <trkpt lat="45.27897" lon="6.45782">
        <ele>1853.8</ele>
        <time>2022-07-03T14:48:26.000Z</time>
      </trkpt>
      <trkpt lat="45.27885" lon="6.45783">
        <ele>1850.1</ele>
        <time>2022-07-03T14:48:32.000Z</time>
      </trkpt>
      <trkpt lat="45.27876" lon="6.45782">
        <ele>1847</ele>
        <time>2022-07-03T14:48:52.000Z</time>
      </trkpt>
      <trkpt lat="45.27865" lon="6.4578">
        <ele>1844.2</ele>
        <time>2022-07-03T14:49:04.000Z</time>
      </trkpt>
      <trkpt lat="45.27852" lon="6.45775">
        <ele>1841.6</ele>
        <time>2022-07-03T14:49:10.000Z</time>
      </trkpt>
      <trkpt lat="45.27837" lon="6.45764">
        <ele>1840.1</ele>
        <time>2022-07-03T14:49:14.000Z</time>
      </trkpt>
      <trkpt lat="45.27821" lon="6.45757">
        <ele>1837.9</ele>
        <time>2022-07-03T14:49:18.000Z</time>
      </trkpt>
      <trkpt lat="45.2781" lon="6.4575">
        <ele>1835.9</ele>
        <time>2022-07-03T14:49:22.000Z</time>
      </trkpt>
      <trkpt lat="45.27801" lon="6.45738">
        <ele>1835.3</ele>
        <time>2022-07-03T14:49:26.000Z</time>
      </trkpt>
      <trkpt lat="45.27792" lon="6.45734">
        <ele>1834.5</ele>
        <time>2022-07-03T14:49:30.000Z</time>
      </trkpt>
      <trkpt lat="45.27783" lon="6.45738">
        <ele>1832</ele>
        <time>2022-07-03T14:49:34.000Z</time>
      </trkpt>
      <trkpt lat="45.27767" lon="6.45737">
        <ele>1829.9</ele>
        <time>2022-07-03T14:49:38.000Z</time>
      </trkpt>
      <trkpt lat="45.27755" lon="6.45741">
        <ele>1827.6</ele>
        <time>2022-07-03T14:49:42.000Z</time>
      </trkpt>
      <trkpt lat="45.27743" lon="6.45746">
        <ele>1826.1</ele>
        <time>2022-07-03T14:49:46.000Z</time>
      </trkpt>
      <trkpt lat="45.2773" lon="6.45743">
        <ele>1826.2</ele>
        <time>2022-07-03T14:49:50.000Z</time>
      </trkpt>
      <trkpt lat="45.27715" lon="6.45741">
        <ele>1825.7</ele>
        <time>2022-07-03T14:49:54.000Z</time>
      </trkpt>
      <trkpt lat="45.27704" lon="6.45731">
        <ele>1824.7</ele>
        <time>2022-07-03T14:49:58.000Z</time>
      </trkpt>
      <trkpt lat="45.27689" lon="6.45724">
        <ele>1823.4</ele>
        <time>2022-07-03T14:50:02.000Z</time>
      </trkpt>
      <trkpt lat="45.2767" lon="6.45716">
        <ele>1821.4</ele>
        <time>2022-07-03T14:50:06.000Z</time>
      </trkpt>
      <trkpt lat="45.27655" lon="6.457">
        <ele>1820.1</ele>
        <time>2022-07-03T14:50:10.000Z</time>
      </trkpt>
      <trkpt lat="45.27647" lon="6.45688">
        <ele>1819.7</ele>
        <time>2022-07-03T14:50:14.000Z</time>
      </trkpt>
      <trkpt lat="45.27637" lon="6.4568">
        <ele>1819.5</ele>
        <time>2022-07-03T14:50:20.000Z</time>
      </trkpt>
      <trkpt lat="45.27628" lon="6.45675">
        <ele>1819.1</ele>
        <time>2022-07-03T14:50:26.000Z</time>
      </trkpt>
      <trkpt lat="45.27618" lon="6.45669">
        <ele>1818.7</ele>
        <time>2022-07-03T14:50:32.000Z</time>
      </trkpt>
      <trkpt lat="45.27606" lon="6.45666">
        <ele>1817.1</ele>
        <time>2022-07-03T14:50:36.000Z</time>
      </trkpt>
      <trkpt lat="45.27599" lon="6.45657">
        <ele>1816.3</ele>
        <time>2022-07-03T14:50:40.000Z</time>
      </trkpt>
      <trkpt lat="45.27589" lon="6.45658">
        <ele>1814.7</ele>
        <time>2022-07-03T14:50:44.000Z</time>
      </trkpt>
      <trkpt lat="45.27575" lon="6.45666">
        <ele>1810.9</ele>
        <time>2022-07-03T14:50:48.000Z</time>
      </trkpt>
      <trkpt lat="45.27564" lon="6.45676">
        <ele>1808</ele>
        <time>2022-07-03T14:50:52.000Z</time>
      </trkpt>
      <trkpt lat="45.27555" lon="6.45682">
        <ele>1805.1</ele>
        <time>2022-07-03T14:50:54.000Z</time>
      </trkpt>
      <trkpt lat="45.27545" lon="6.45693">
        <ele>1800.4</ele>
        <time>2022-07-03T14:50:58.000Z</time>
      </trkpt>
      <trkpt lat="45.27538" lon="6.45704">
        <ele>1796.8</ele>
        <time>2022-07-03T14:51:02.000Z</time>
      </trkpt>
      <trkpt lat="45.27527" lon="6.45716">
        <ele>1791.7</ele>
        <time>2022-07-03T14:51:06.000Z</time>
      </trkpt>
      <trkpt lat="45.27519" lon="6.45724">
        <ele>1788.4</ele>
        <time>2022-07-03T14:51:10.000Z</time>
      </trkpt>
      <trkpt lat="45.2751" lon="6.45737">
        <ele>1783.7</ele>
        <time>2022-07-03T14:51:14.000Z</time>
      </trkpt>
      <trkpt lat="45.27498" lon="6.45741">
        <ele>1781.2</ele>
        <time>2022-07-03T14:51:16.000Z</time>
      </trkpt>
      <trkpt lat="45.2749" lon="6.45749">
        <ele>1778.4</ele>
        <time>2022-07-03T14:51:18.000Z</time>
      </trkpt>
      <trkpt lat="45.27479" lon="6.45757">
        <ele>1775.2</ele>
        <time>2022-07-03T14:51:22.000Z</time>
      </trkpt>
      <trkpt lat="45.27466" lon="6.45772">
        <ele>1770.4</ele>
        <time>2022-07-03T14:51:26.000Z</time>
      </trkpt>
      <trkpt lat="45.27455" lon="6.4578">
        <ele>1766.8</ele>
        <time>2022-07-03T14:51:30.000Z</time>
      </trkpt>
      <trkpt lat="45.27445" lon="6.45774">
        <ele>1767.5</ele>
        <time>2022-07-03T14:51:36.000Z</time>
      </trkpt>
      <trkpt lat="45.27438" lon="6.45764">
        <ele>1767.2</ele>
        <time>2022-07-03T14:51:56.000Z</time>
      </trkpt>
      <trkpt lat="45.27425" lon="6.45763">
        <ele>1764.2</ele>
        <time>2022-07-03T14:52:06.000Z</time>
      </trkpt>
      <trkpt lat="45.27415" lon="6.45759">
        <ele>1761.7</ele>
        <time>2022-07-03T14:52:10.000Z</time>
      </trkpt>
      <trkpt lat="45.27407" lon="6.45754">
        <ele>1760.1</ele>
        <time>2022-07-03T14:52:18.000Z</time>
      </trkpt>
      <trkpt lat="45.27395" lon="6.45748">
        <ele>1758.4</ele>
        <time>2022-07-03T14:52:28.000Z</time>
      </trkpt>
      <trkpt lat="45.27383" lon="6.4575">
        <ele>1754.7</ele>
        <time>2022-07-03T14:52:34.000Z</time>
      </trkpt>
      <trkpt lat="45.27372" lon="6.45751">
        <ele>1751.1</ele>
        <time>2022-07-03T14:52:38.000Z</time>
      </trkpt>
      <trkpt lat="45.27367" lon="6.45762">
        <ele>1745.4</ele>
        <time>2022-07-03T14:52:44.000Z</time>
      </trkpt>
      <trkpt lat="45.27358" lon="6.45769">
        <ele>1740.5</ele>
        <time>2022-07-03T14:53:02.000Z</time>
      </trkpt>
      <trkpt lat="45.2735" lon="6.45761">
        <ele>1739.1</ele>
        <time>2022-07-03T14:53:06.000Z</time>
      </trkpt>
      <trkpt lat="45.27346" lon="6.4574">
        <ele>1739.4</ele>
        <time>2022-07-03T14:53:10.000Z</time>
      </trkpt>
      <trkpt lat="45.27335" lon="6.45731">
        <ele>1736.3</ele>
        <time>2022-07-03T14:53:14.000Z</time>
      </trkpt>
      <trkpt lat="45.27321" lon="6.45726">
        <ele>1733.8</ele>
        <time>2022-07-03T14:53:18.000Z</time>
      </trkpt>
      <trkpt lat="45.27312" lon="6.45734">
        <ele>1730</ele>
        <time>2022-07-03T14:53:22.000Z</time>
      </trkpt>
      <trkpt lat="45.27303" lon="6.45744">
        <ele>1724.3</ele>
        <time>2022-07-03T14:53:26.000Z</time>
      </trkpt>
      <trkpt lat="45.27295" lon="6.45754">
        <ele>1718.8</ele>
        <time>2022-07-03T14:53:32.000Z</time>
      </trkpt>
      <trkpt lat="45.27286" lon="6.45763">
        <ele>1715.1</ele>
        <time>2022-07-03T14:53:38.000Z</time>
      </trkpt>
      <trkpt lat="45.27276" lon="6.45761">
        <ele>1711.6</ele>
        <time>2022-07-03T14:53:42.000Z</time>
      </trkpt>
      <trkpt lat="45.27268" lon="6.4577">
        <ele>1708.6</ele>
        <time>2022-07-03T14:53:46.000Z</time>
      </trkpt>
      <trkpt lat="45.27258" lon="6.45773">
        <ele>1705.4</ele>
        <time>2022-07-03T14:53:52.000Z</time>
      </trkpt>
      <trkpt lat="45.27251" lon="6.45757">
        <ele>1701.9</ele>
        <time>2022-07-03T14:53:56.000Z</time>
      </trkpt>
      <trkpt lat="45.27242" lon="6.45745">
        <ele>1699</ele>
        <time>2022-07-03T14:54:02.000Z</time>
      </trkpt>
      <trkpt lat="45.27232" lon="6.45743">
        <ele>1695.7</ele>
        <time>2022-07-03T14:54:06.000Z</time>
      </trkpt>
      <trkpt lat="45.2722" lon="6.45736">
        <ele>1693.3</ele>
        <time>2022-07-03T14:54:10.000Z</time>
      </trkpt>
      <trkpt lat="45.27209" lon="6.4573">
        <ele>1691.5</ele>
        <time>2022-07-03T14:54:14.000Z</time>
      </trkpt>
      <trkpt lat="45.272" lon="6.45727">
        <ele>1689.1</ele>
        <time>2022-07-03T14:54:16.000Z</time>
      </trkpt>
      <trkpt lat="45.27183" lon="6.45723">
        <ele>1684.4</ele>
        <time>2022-07-03T14:54:20.000Z</time>
      </trkpt>
      <trkpt lat="45.27174" lon="6.45731">
        <ele>1679.4</ele>
        <time>2022-07-03T14:54:24.000Z</time>
      </trkpt>
      <trkpt lat="45.27158" lon="6.45734">
        <ele>1674</ele>
        <time>2022-07-03T14:54:28.000Z</time>
      </trkpt>
      <trkpt lat="45.27143" lon="6.45733">
        <ele>1669.5</ele>
        <time>2022-07-03T14:54:32.000Z</time>
      </trkpt>
      <trkpt lat="45.2713" lon="6.45732">
        <ele>1666.9</ele>
        <time>2022-07-03T14:54:36.000Z</time>
      </trkpt>
      <trkpt lat="45.27119" lon="6.45735">
        <ele>1664.5</ele>
        <time>2022-07-03T14:54:40.000Z</time>
      </trkpt>
      <trkpt lat="45.27108" lon="6.45739">
        <ele>1661.7</ele>
        <time>2022-07-03T14:54:52.000Z</time>
      </trkpt>
      <trkpt lat="45.27099" lon="6.45752">
        <ele>1657.2</ele>
        <time>2022-07-03T14:54:56.000Z</time>
      </trkpt>
      <trkpt lat="45.27094" lon="6.45768">
        <ele>1654.6</ele>
        <time>2022-07-03T14:55:00.000Z</time>
      </trkpt>
      <trkpt lat="45.27084" lon="6.4578">
        <ele>1652</ele>
        <time>2022-07-03T14:55:06.000Z</time>
      </trkpt>
      <trkpt lat="45.27075" lon="6.45777">
        <ele>1649.5</ele>
        <time>2022-07-03T14:55:10.000Z</time>
      </trkpt>
      <trkpt lat="45.27067" lon="6.45766">
        <ele>1647.7</ele>
        <time>2022-07-03T14:55:16.000Z</time>
      </trkpt>
      <trkpt lat="45.27059" lon="6.45778">
        <ele>1643.8</ele>
        <time>2022-07-03T14:55:24.000Z</time>
      </trkpt>
      <trkpt lat="45.27054" lon="6.45789">
        <ele>1641.8</ele>
        <time>2022-07-03T14:55:28.000Z</time>
      </trkpt>
      <trkpt lat="45.27046" lon="6.45802">
        <ele>1639.6</ele>
        <time>2022-07-03T14:55:32.000Z</time>
      </trkpt>
      <trkpt lat="45.27034" lon="6.45811">
        <ele>1635.7</ele>
        <time>2022-07-03T14:55:36.000Z</time>
      </trkpt>
      <trkpt lat="45.27022" lon="6.45818">
        <ele>1631.7</ele>
        <time>2022-07-03T14:55:40.000Z</time>
      </trkpt>
      <trkpt lat="45.27011" lon="6.4582">
        <ele>1628.4</ele>
        <time>2022-07-03T14:55:44.000Z</time>
      </trkpt>
      <trkpt lat="45.27001" lon="6.45828">
        <ele>1625.5</ele>
        <time>2022-07-03T14:55:50.000Z</time>
      </trkpt>
      <trkpt lat="45.26999" lon="6.4581">
        <ele>1624.8</ele>
        <time>2022-07-03T14:55:56.000Z</time>
      </trkpt>
      <trkpt lat="45.26993" lon="6.458">
        <ele>1623.2</ele>
        <time>2022-07-03T14:56:00.000Z</time>
      </trkpt>
      <trkpt lat="45.26991" lon="6.45814">
        <ele>1622.3</ele>
        <time>2022-07-03T14:56:04.000Z</time>
      </trkpt>
      <trkpt lat="45.26989" lon="6.45836">
        <ele>1621.6</ele>
        <time>2022-07-03T14:56:08.000Z</time>
      </trkpt>
      <trkpt lat="45.26976" lon="6.45848">
        <ele>1617.5</ele>
        <time>2022-07-03T14:56:12.000Z</time>
      </trkpt>
      <trkpt lat="45.26961" lon="6.45837">
        <ele>1615</ele>
        <time>2022-07-03T14:56:16.000Z</time>
      </trkpt>
      <trkpt lat="45.26949" lon="6.45834">
        <ele>1613.9</ele>
        <time>2022-07-03T14:56:18.000Z</time>
      </trkpt>
      <trkpt lat="45.2694" lon="6.45822">
        <ele>1612.5</ele>
        <time>2022-07-03T14:56:22.000Z</time>
      </trkpt>
      <trkpt lat="45.2693" lon="6.45811">
        <ele>1611.2</ele>
        <time>2022-07-03T14:56:26.000Z</time>
      </trkpt>
      <trkpt lat="45.26919" lon="6.45816">
        <ele>1610.4</ele>
        <time>2022-07-03T14:56:30.000Z</time>
      </trkpt>
      <trkpt lat="45.26913" lon="6.45828">
        <ele>1609.9</ele>
        <time>2022-07-03T14:56:34.000Z</time>
      </trkpt>
      <trkpt lat="45.26909" lon="6.45851">
        <ele>1607.3</ele>
        <time>2022-07-03T14:56:44.000Z</time>
      </trkpt>
      <trkpt lat="45.26901" lon="6.45875">
        <ele>1600.1</ele>
        <time>2022-07-03T14:56:48.000Z</time>
      </trkpt>
      <trkpt lat="45.2689" lon="6.45861">
        <ele>1601.6</ele>
        <time>2022-07-03T14:56:50.000Z</time>
      </trkpt>
      <trkpt lat="45.2688" lon="6.45855">
        <ele>1601.7</ele>
        <time>2022-07-03T14:56:52.000Z</time>
      </trkpt>
      <trkpt lat="45.26869" lon="6.45853">
        <ele>1601.9</ele>
        <time>2022-07-03T14:56:56.000Z</time>
      </trkpt>
      <trkpt lat="45.26855" lon="6.45846">
        <ele>1600.7</ele>
        <time>2022-07-03T14:57:00.000Z</time>
      </trkpt>
      <trkpt lat="45.26843" lon="6.45841">
        <ele>1599</ele>
        <time>2022-07-03T14:57:04.000Z</time>
      </trkpt>
      <trkpt lat="45.26827" lon="6.45841">
        <ele>1598</ele>
        <time>2022-07-03T14:57:08.000Z</time>
      </trkpt>
      <trkpt lat="45.26816" lon="6.45839">
        <ele>1595.8</ele>
        <time>2022-07-03T14:57:12.000Z</time>
      </trkpt>
      <trkpt lat="45.26806" lon="6.45836">
        <ele>1593</ele>
        <time>2022-07-03T14:57:22.000Z</time>
      </trkpt>
      <trkpt lat="45.26793" lon="6.45833">
        <ele>1591.4</ele>
        <time>2022-07-03T14:57:32.000Z</time>
      </trkpt>
      <trkpt lat="45.26778" lon="6.45831">
        <ele>1589.9</ele>
        <time>2022-07-03T14:57:36.000Z</time>
      </trkpt>
      <trkpt lat="45.26765" lon="6.4583">
        <ele>1587.5</ele>
        <time>2022-07-03T14:57:38.000Z</time>
      </trkpt>
      <trkpt lat="45.26756" lon="6.45824">
        <ele>1585.2</ele>
        <time>2022-07-03T14:57:40.000Z</time>
      </trkpt>
      <trkpt lat="45.26744" lon="6.45836">
        <ele>1581.3</ele>
        <time>2022-07-03T14:57:46.000Z</time>
      </trkpt>
      <trkpt lat="45.26725" lon="6.45834">
        <ele>1576.1</ele>
        <time>2022-07-03T14:57:50.000Z</time>
      </trkpt>
      <trkpt lat="45.26715" lon="6.45835">
        <ele>1573.8</ele>
        <time>2022-07-03T14:57:52.000Z</time>
      </trkpt>
      <trkpt lat="45.26705" lon="6.45841">
        <ele>1572</ele>
        <time>2022-07-03T14:57:54.000Z</time>
      </trkpt>
      <trkpt lat="45.26689" lon="6.45834">
        <ele>1569.3</ele>
        <time>2022-07-03T14:57:56.000Z</time>
      </trkpt>
      <trkpt lat="45.26677" lon="6.45839">
        <ele>1567.3</ele>
        <time>2022-07-03T14:57:58.000Z</time>
      </trkpt>
      <trkpt lat="45.26664" lon="6.45837">
        <ele>1565.1</ele>
        <time>2022-07-03T14:58:00.000Z</time>
      </trkpt>
      <trkpt lat="45.26648" lon="6.45833">
        <ele>1562.9</ele>
        <time>2022-07-03T14:58:02.000Z</time>
      </trkpt>
      <trkpt lat="45.26638" lon="6.45835">
        <ele>1561.7</ele>
        <time>2022-07-03T14:58:04.000Z</time>
      </trkpt>
      <trkpt lat="45.26626" lon="6.45831">
        <ele>1560.8</ele>
        <time>2022-07-03T14:58:08.000Z</time>
      </trkpt>
      <trkpt lat="45.26616" lon="6.45832">
        <ele>1560.5</ele>
        <time>2022-07-03T14:58:14.000Z</time>
      </trkpt>
      <trkpt lat="45.26601" lon="6.45831">
        <ele>1558.9</ele>
        <time>2022-07-03T14:58:20.000Z</time>
      </trkpt>
      <trkpt lat="45.2659" lon="6.45831">
        <ele>1556.9</ele>
        <time>2022-07-03T14:58:22.000Z</time>
      </trkpt>
      <trkpt lat="45.26574" lon="6.45827">
        <ele>1554.3</ele>
        <time>2022-07-03T14:58:24.000Z</time>
      </trkpt>
      <trkpt lat="45.2656" lon="6.45819">
        <ele>1551.4</ele>
        <time>2022-07-03T14:58:26.000Z</time>
      </trkpt>
      <trkpt lat="45.26545" lon="6.45814">
        <ele>1548.6</ele>
        <time>2022-07-03T14:58:28.000Z</time>
      </trkpt>
      <trkpt lat="45.26531" lon="6.45807">
        <ele>1546.3</ele>
        <time>2022-07-03T14:58:30.000Z</time>
      </trkpt>
      <trkpt lat="45.26512" lon="6.45798">
        <ele>1542.4</ele>
        <time>2022-07-03T14:58:34.000Z</time>
      </trkpt>
      <trkpt lat="45.26503" lon="6.4579">
        <ele>1539.3</ele>
        <time>2022-07-03T14:58:36.000Z</time>
      </trkpt>
      <trkpt lat="45.26488" lon="6.45783">
        <ele>1535.7</ele>
        <time>2022-07-03T14:58:38.000Z</time>
      </trkpt>
      <trkpt lat="45.26479" lon="6.45779">
        <ele>1533.5</ele>
        <time>2022-07-03T14:58:40.000Z</time>
      </trkpt>
      <trkpt lat="45.26467" lon="6.45774">
        <ele>1530.4</ele>
        <time>2022-07-03T14:58:44.000Z</time>
      </trkpt>
      <trkpt lat="45.26457" lon="6.45772">
        <ele>1527.7</ele>
        <time>2022-07-03T14:58:46.000Z</time>
      </trkpt>
      <trkpt lat="45.26445" lon="6.45772">
        <ele>1524.9</ele>
        <time>2022-07-03T14:58:48.000Z</time>
      </trkpt>
      <trkpt lat="45.26429" lon="6.45766">
        <ele>1518.3</ele>
        <time>2022-07-03T14:58:52.000Z</time>
      </trkpt>
      <trkpt lat="45.26416" lon="6.45755">
        <ele>1513.5</ele>
        <time>2022-07-03T14:58:56.000Z</time>
      </trkpt>
      <trkpt lat="45.26406" lon="6.45749">
        <ele>1510.5</ele>
        <time>2022-07-03T14:58:58.000Z</time>
      </trkpt>
      <trkpt lat="45.26396" lon="6.45746">
        <ele>1507.3</ele>
        <time>2022-07-03T14:59:00.000Z</time>
      </trkpt>
      <trkpt lat="45.26385" lon="6.4573">
        <ele>1504.8</ele>
        <time>2022-07-03T14:59:04.000Z</time>
      </trkpt>
      <trkpt lat="45.26368" lon="6.45721">
        <ele>1501.4</ele>
        <time>2022-07-03T14:59:08.000Z</time>
      </trkpt>
      <trkpt lat="45.26355" lon="6.45718">
        <ele>1498.7</ele>
        <time>2022-07-03T14:59:10.000Z</time>
      </trkpt>
      <trkpt lat="45.26346" lon="6.45714">
        <ele>1496.8</ele>
        <time>2022-07-03T14:59:12.000Z</time>
      </trkpt>
      <trkpt lat="45.26334" lon="6.45721">
        <ele>1493.1</ele>
        <time>2022-07-03T14:59:16.000Z</time>
      </trkpt>
      <trkpt lat="45.26318" lon="6.45709">
        <ele>1492.4</ele>
        <time>2022-07-03T14:59:20.000Z</time>
      </trkpt>
      <trkpt lat="45.26302" lon="6.4571">
        <ele>1490.2</ele>
        <time>2022-07-03T14:59:24.000Z</time>
      </trkpt>
      <trkpt lat="45.26304" lon="6.45723">
        <ele>1488.9</ele>
        <time>2022-07-03T14:59:28.000Z</time>
      </trkpt>
      <trkpt lat="45.26314" lon="6.45739">
        <ele>1484.8</ele>
        <time>2022-07-03T14:59:32.000Z</time>
      </trkpt>
      <trkpt lat="45.26325" lon="6.45742">
        <ele>1484</ele>
        <time>2022-07-03T14:59:34.000Z</time>
      </trkpt>
      <trkpt lat="45.2634" lon="6.45754">
        <ele>1482.3</ele>
        <time>2022-07-03T14:59:38.000Z</time>
      </trkpt>
      <trkpt lat="45.2635" lon="6.45765">
        <ele>1480.4</ele>
        <time>2022-07-03T14:59:42.000Z</time>
      </trkpt>
      <trkpt lat="45.2635" lon="6.45778">
        <ele>1476.4</ele>
        <time>2022-07-03T14:59:50.000Z</time>
      </trkpt>
      <trkpt lat="45.26355" lon="6.45789">
        <ele>1474.3</ele>
        <time>2022-07-03T15:00:12.000Z</time>
      </trkpt>
      <trkpt lat="45.26364" lon="6.458">
        <ele>1474.9</ele>
        <time>2022-07-03T15:00:36.000Z</time>
      </trkpt>
      <trkpt lat="45.26369" lon="6.45811">
        <ele>1475.3</ele>
        <time>2022-07-03T15:00:48.000Z</time>
      </trkpt>
      <trkpt lat="45.26375" lon="6.45821">
        <ele>1476.8</ele>
        <time>2022-07-03T15:00:58.000Z</time>
      </trkpt>
      <trkpt lat="45.26381" lon="6.45835">
        <ele>1477.2</ele>
        <time>2022-07-03T15:01:10.000Z</time>
      </trkpt>
      <trkpt lat="45.26383" lon="6.45849">
        <ele>1477.8</ele>
        <time>2022-07-03T15:01:14.000Z</time>
      </trkpt>
      <trkpt lat="45.26383" lon="6.45863">
        <ele>1477.8</ele>
        <time>2022-07-03T15:01:18.000Z</time>
      </trkpt>
      <trkpt lat="45.26384" lon="6.45877">
        <ele>1477.1</ele>
        <time>2022-07-03T15:01:36.000Z</time>
      </trkpt>
      <trkpt lat="45.26388" lon="6.45889">
        <ele>1477.5</ele>
        <time>2022-07-03T15:01:44.000Z</time>
      </trkpt>
      <trkpt lat="45.26394" lon="6.45902">
        <ele>1477.6</ele>
        <time>2022-07-03T15:01:52.000Z</time>
      </trkpt>
      <trkpt lat="45.26402" lon="6.45911">
        <ele>1477.8</ele>
        <time>2022-07-03T15:01:56.000Z</time>
      </trkpt>
      <trkpt lat="45.26413" lon="6.45915">
        <ele>1478.9</ele>
        <time>2022-07-03T15:02:02.000Z</time>
      </trkpt>
      <trkpt lat="45.26422" lon="6.45917">
        <ele>1481.3</ele>
        <time>2022-07-03T15:02:06.000Z</time>
      </trkpt>
      <trkpt lat="45.2643" lon="6.45924">
        <ele>1484.1</ele>
        <time>2022-07-03T15:02:32.000Z</time>
      </trkpt>
      <trkpt lat="45.26435" lon="6.45936">
        <ele>1483.9</ele>
        <time>2022-07-03T15:02:40.000Z</time>
      </trkpt>
      <trkpt lat="45.26437" lon="6.45949">
        <ele>1481.4</ele>
        <time>2022-07-03T15:02:44.000Z</time>
      </trkpt>
      <trkpt lat="45.26445" lon="6.45957">
        <ele>1480.2</ele>
        <time>2022-07-03T15:02:48.000Z</time>
      </trkpt>
      <trkpt lat="45.26455" lon="6.45967">
        <ele>1478.6</ele>
        <time>2022-07-03T15:03:08.000Z</time>
      </trkpt>
      <trkpt lat="45.26464" lon="6.45971">
        <ele>1478</ele>
        <time>2022-07-03T15:03:20.000Z</time>
      </trkpt>
      <trkpt lat="45.26462" lon="6.45986">
        <ele>1479.8</ele>
        <time>2022-07-03T15:03:48.000Z</time>
      </trkpt>
      <trkpt lat="45.26458" lon="6.45997">
        <ele>1481</ele>
        <time>2022-07-03T15:04:12.000Z</time>
      </trkpt>
      <trkpt lat="45.2645" lon="6.46006">
        <ele>1482</ele>
        <time>2022-07-03T15:04:20.000Z</time>
      </trkpt>
      <trkpt lat="45.26435" lon="6.46">
        <ele>1479.8</ele>
        <time>2022-07-03T15:04:26.000Z</time>
      </trkpt>
      <trkpt lat="45.26427" lon="6.45991">
        <ele>1477.7</ele>
        <time>2022-07-03T15:04:30.000Z</time>
      </trkpt>
      <trkpt lat="45.26412" lon="6.4598">
        <ele>1474</ele>
        <time>2022-07-03T15:04:34.000Z</time>
      </trkpt>
      <trkpt lat="45.264" lon="6.45977">
        <ele>1471.2</ele>
        <time>2022-07-03T15:04:38.000Z</time>
      </trkpt>
      <trkpt lat="45.26387" lon="6.45976">
        <ele>1468.9</ele>
        <time>2022-07-03T15:04:44.000Z</time>
      </trkpt>
      <trkpt lat="45.26374" lon="6.45982">
        <ele>1468.6</ele>
        <time>2022-07-03T15:04:48.000Z</time>
      </trkpt>
      <trkpt lat="45.26358" lon="6.4599">
        <ele>1468.2</ele>
        <time>2022-07-03T15:04:52.000Z</time>
      </trkpt>
      <trkpt lat="45.26349" lon="6.45994">
        <ele>1468</ele>
        <time>2022-07-03T15:04:54.000Z</time>
      </trkpt>
      <trkpt lat="45.26335" lon="6.45998">
        <ele>1467.7</ele>
        <time>2022-07-03T15:04:58.000Z</time>
      </trkpt>
      <trkpt lat="45.26326" lon="6.45992">
        <ele>1464.9</ele>
        <time>2022-07-03T15:05:10.000Z</time>
      </trkpt>
      <trkpt lat="45.26311" lon="6.45995">
        <ele>1464.5</ele>
        <time>2022-07-03T15:05:16.000Z</time>
      </trkpt>
      <trkpt lat="45.26299" lon="6.45998">
        <ele>1464</ele>
        <time>2022-07-03T15:05:20.000Z</time>
      </trkpt>
      <trkpt lat="45.26285" lon="6.46001">
        <ele>1463</ele>
        <time>2022-07-03T15:05:24.000Z</time>
      </trkpt>
      <trkpt lat="45.26276" lon="6.46011">
        <ele>1463.3</ele>
        <time>2022-07-03T15:05:28.000Z</time>
      </trkpt>
      <trkpt lat="45.26272" lon="6.46023">
        <ele>1464.4</ele>
        <time>2022-07-03T15:05:34.000Z</time>
      </trkpt>
      <trkpt lat="45.26263" lon="6.46033">
        <ele>1464.1</ele>
        <time>2022-07-03T15:05:42.000Z</time>
      </trkpt>
      <trkpt lat="45.26254" lon="6.46041">
        <ele>1463.5</ele>
        <time>2022-07-03T15:05:46.000Z</time>
      </trkpt>
      <trkpt lat="45.26241" lon="6.46042">
        <ele>1462.3</ele>
        <time>2022-07-03T15:05:50.000Z</time>
      </trkpt>
      <trkpt lat="45.26229" lon="6.46047">
        <ele>1460.9</ele>
        <time>2022-07-03T15:05:54.000Z</time>
      </trkpt>
      <trkpt lat="45.26221" lon="6.46067">
        <ele>1460.1</ele>
        <time>2022-07-03T15:05:58.000Z</time>
      </trkpt>
      <trkpt lat="45.26217" lon="6.46087">
        <ele>1459.8</ele>
        <time>2022-07-03T15:06:02.000Z</time>
      </trkpt>
      <trkpt lat="45.26215" lon="6.46101">
        <ele>1460.1</ele>
        <time>2022-07-03T15:06:06.000Z</time>
      </trkpt>
      <trkpt lat="45.26212" lon="6.46114">
        <ele>1460.4</ele>
        <time>2022-07-03T15:06:12.000Z</time>
      </trkpt>
      <trkpt lat="45.26206" lon="6.4613">
        <ele>1460.5</ele>
        <time>2022-07-03T15:06:18.000Z</time>
      </trkpt>
      <trkpt lat="45.26202" lon="6.46146">
        <ele>1460.4</ele>
        <time>2022-07-03T15:06:24.000Z</time>
      </trkpt>
      <trkpt lat="45.26202" lon="6.46163">
        <ele>1460</ele>
        <time>2022-07-03T15:06:30.000Z</time>
      </trkpt>
      <trkpt lat="45.26199" lon="6.46177">
        <ele>1459.1</ele>
        <time>2022-07-03T15:06:34.000Z</time>
      </trkpt>
      <trkpt lat="45.262" lon="6.46204">
        <ele>1457.9</ele>
        <time>2022-07-03T15:06:38.000Z</time>
      </trkpt>
      <trkpt lat="45.26205" lon="6.4623">
        <ele>1457.7</ele>
        <time>2022-07-03T15:06:42.000Z</time>
      </trkpt>
      <trkpt lat="45.26211" lon="6.46241">
        <ele>1457.9</ele>
        <time>2022-07-03T15:06:44.000Z</time>
      </trkpt>
      <trkpt lat="45.26219" lon="6.46253">
        <ele>1458.9</ele>
        <time>2022-07-03T15:06:50.000Z</time>
      </trkpt>
      <trkpt lat="45.26204" lon="6.46254">
        <ele>1456.1</ele>
        <time>2022-07-03T15:07:28.000Z</time>
      </trkpt>
      <trkpt lat="45.26188" lon="6.46256">
        <ele>1451.8</ele>
        <time>2022-07-03T15:07:32.000Z</time>
      </trkpt>
      <trkpt lat="45.26174" lon="6.46256">
        <ele>1447.4</ele>
        <time>2022-07-03T15:07:39.000Z</time>
      </trkpt>
      <trkpt lat="45.26163" lon="6.4625">
        <ele>1444.4</ele>
        <time>2022-07-03T15:07:44.000Z</time>
      </trkpt>
      <trkpt lat="45.26138" lon="6.46245">
        <ele>1438.2</ele>
        <time>2022-07-03T15:07:48.000Z</time>
      </trkpt>
      <trkpt lat="45.26125" lon="6.46235">
        <ele>1435.6</ele>
        <time>2022-07-03T15:07:50.000Z</time>
      </trkpt>
      <trkpt lat="45.26112" lon="6.46229">
        <ele>1433.2</ele>
        <time>2022-07-03T15:07:52.000Z</time>
      </trkpt>
      <trkpt lat="45.26101" lon="6.46221">
        <ele>1431.1</ele>
        <time>2022-07-03T15:07:54.000Z</time>
      </trkpt>
      <trkpt lat="45.26082" lon="6.46216">
        <ele>1427.5</ele>
        <time>2022-07-03T15:07:58.000Z</time>
      </trkpt>
      <trkpt lat="45.26062" lon="6.46209">
        <ele>1423.7</ele>
        <time>2022-07-03T15:08:02.000Z</time>
      </trkpt>
      <trkpt lat="45.26048" lon="6.46202">
        <ele>1421.2</ele>
        <time>2022-07-03T15:08:04.000Z</time>
      </trkpt>
      <trkpt lat="45.26031" lon="6.46189">
        <ele>1416.5</ele>
        <time>2022-07-03T15:08:08.000Z</time>
      </trkpt>
      <trkpt lat="45.26021" lon="6.46178">
        <ele>1414</ele>
        <time>2022-07-03T15:08:10.000Z</time>
      </trkpt>
      <trkpt lat="45.26005" lon="6.46163">
        <ele>1410.4</ele>
        <time>2022-07-03T15:08:14.000Z</time>
      </trkpt>
      <trkpt lat="45.25993" lon="6.46152">
        <ele>1407.9</ele>
        <time>2022-07-03T15:08:16.000Z</time>
      </trkpt>
      <trkpt lat="45.25983" lon="6.46141">
        <ele>1405.3</ele>
        <time>2022-07-03T15:08:18.000Z</time>
      </trkpt>
      <trkpt lat="45.25971" lon="6.46135">
        <ele>1402.6</ele>
        <time>2022-07-03T15:08:20.000Z</time>
      </trkpt>
      <trkpt lat="45.25961" lon="6.46131">
        <ele>1399.9</ele>
        <time>2022-07-03T15:08:22.000Z</time>
      </trkpt>
      <trkpt lat="45.25947" lon="6.46124">
        <ele>1396.8</ele>
        <time>2022-07-03T15:08:24.000Z</time>
      </trkpt>
      <trkpt lat="45.25932" lon="6.46123">
        <ele>1393.3</ele>
        <time>2022-07-03T15:08:28.000Z</time>
      </trkpt>
      <trkpt lat="45.25916" lon="6.4611">
        <ele>1388.1</ele>
        <time>2022-07-03T15:08:32.000Z</time>
      </trkpt>
      <trkpt lat="45.25898" lon="6.46102">
        <ele>1383.7</ele>
        <time>2022-07-03T15:08:36.000Z</time>
      </trkpt>
      <trkpt lat="45.25888" lon="6.46099">
        <ele>1381.2</ele>
        <time>2022-07-03T15:08:38.000Z</time>
      </trkpt>
      <trkpt lat="45.25874" lon="6.46094">
        <ele>1377.4</ele>
        <time>2022-07-03T15:08:40.000Z</time>
      </trkpt>
      <trkpt lat="45.25853" lon="6.46081">
        <ele>1369.9</ele>
        <time>2022-07-03T15:08:44.000Z</time>
      </trkpt>
      <trkpt lat="45.25844" lon="6.46076">
        <ele>1366.6</ele>
        <time>2022-07-03T15:08:46.000Z</time>
      </trkpt>
      <trkpt lat="45.25833" lon="6.46072">
        <ele>1363.8</ele>
        <time>2022-07-03T15:08:48.000Z</time>
      </trkpt>
      <trkpt lat="45.25821" lon="6.46066">
        <ele>1361.5</ele>
        <time>2022-07-03T15:08:50.000Z</time>
      </trkpt>
      <trkpt lat="45.2581" lon="6.46068">
        <ele>1359.5</ele>
        <time>2022-07-03T15:08:54.000Z</time>
      </trkpt>
      <trkpt lat="45.25797" lon="6.46071">
        <ele>1358</ele>
        <time>2022-07-03T15:08:58.000Z</time>
      </trkpt>
      <trkpt lat="45.25789" lon="6.4608">
        <ele>1357.2</ele>
        <time>2022-07-03T15:09:04.000Z</time>
      </trkpt>
      <trkpt lat="45.25777" lon="6.46084">
        <ele>1356.3</ele>
        <time>2022-07-03T15:09:10.000Z</time>
      </trkpt>
      <trkpt lat="45.25768" lon="6.4608">
        <ele>1355.1</ele>
        <time>2022-07-03T15:09:14.000Z</time>
      </trkpt>
      <trkpt lat="45.25758" lon="6.46074">
        <ele>1354.1</ele>
        <time>2022-07-03T15:09:18.000Z</time>
      </trkpt>
      <trkpt lat="45.25741" lon="6.46076">
        <ele>1352.3</ele>
        <time>2022-07-03T15:09:22.000Z</time>
      </trkpt>
      <trkpt lat="45.2573" lon="6.46079">
        <ele>1350.8</ele>
        <time>2022-07-03T15:09:24.000Z</time>
      </trkpt>
      <trkpt lat="45.25712" lon="6.46076">
        <ele>1348.1</ele>
        <time>2022-07-03T15:09:28.000Z</time>
      </trkpt>
      <trkpt lat="45.25703" lon="6.4607">
        <ele>1346.6</ele>
        <time>2022-07-03T15:09:30.000Z</time>
      </trkpt>
      <trkpt lat="45.25689" lon="6.46067">
        <ele>1344.6</ele>
        <time>2022-07-03T15:09:32.000Z</time>
      </trkpt>
      <trkpt lat="45.25676" lon="6.46064">
        <ele>1342.5</ele>
        <time>2022-07-03T15:09:34.000Z</time>
      </trkpt>
      <trkpt lat="45.25665" lon="6.46066">
        <ele>1340.6</ele>
        <time>2022-07-03T15:09:36.000Z</time>
      </trkpt>
      <trkpt lat="45.25651" lon="6.46069">
        <ele>1338.8</ele>
        <time>2022-07-03T15:09:38.000Z</time>
      </trkpt>
      <trkpt lat="45.25638" lon="6.46067">
        <ele>1337.2</ele>
        <time>2022-07-03T15:09:40.000Z</time>
      </trkpt>
      <trkpt lat="45.25626" lon="6.46066">
        <ele>1335.5</ele>
        <time>2022-07-03T15:09:42.000Z</time>
      </trkpt>
      <trkpt lat="45.25614" lon="6.46065">
        <ele>1333.7</ele>
        <time>2022-07-03T15:09:44.000Z</time>
      </trkpt>
      <trkpt lat="45.256" lon="6.46061">
        <ele>1331.7</ele>
        <time>2022-07-03T15:09:46.000Z</time>
      </trkpt>
      <trkpt lat="45.25586" lon="6.46058">
        <ele>1329.4</ele>
        <time>2022-07-03T15:09:48.000Z</time>
      </trkpt>
      <trkpt lat="45.25575" lon="6.46061">
        <ele>1326.7</ele>
        <time>2022-07-03T15:09:50.000Z</time>
      </trkpt>
      <trkpt lat="45.25566" lon="6.46058">
        <ele>1324.4</ele>
        <time>2022-07-03T15:09:52.000Z</time>
      </trkpt>
      <trkpt lat="45.25556" lon="6.46059">
        <ele>1321.9</ele>
        <time>2022-07-03T15:09:54.000Z</time>
      </trkpt>
      <trkpt lat="45.25537" lon="6.4606">
        <ele>1317.2</ele>
        <time>2022-07-03T15:09:58.000Z</time>
      </trkpt>
      <trkpt lat="45.25527" lon="6.4606">
        <ele>1314.8</ele>
        <time>2022-07-03T15:10:00.000Z</time>
      </trkpt>
      <trkpt lat="45.25517" lon="6.46058">
        <ele>1311.9</ele>
        <time>2022-07-03T15:10:02.000Z</time>
      </trkpt>
      <trkpt lat="45.25506" lon="6.46058">
        <ele>1308.4</ele>
        <time>2022-07-03T15:10:04.000Z</time>
      </trkpt>
      <trkpt lat="45.25496" lon="6.46062">
        <ele>1304.2</ele>
        <time>2022-07-03T15:10:08.000Z</time>
      </trkpt>
      <trkpt lat="45.25495" lon="6.46083">
        <ele>1302.2</ele>
        <time>2022-07-03T15:10:12.000Z</time>
      </trkpt>
      <trkpt lat="45.25492" lon="6.46097">
        <ele>1301.3</ele>
        <time>2022-07-03T15:10:14.000Z</time>
      </trkpt>
      <trkpt lat="45.25488" lon="6.46116">
        <ele>1300.1</ele>
        <time>2022-07-03T15:10:16.000Z</time>
      </trkpt>
      <trkpt lat="45.25488" lon="6.46131">
        <ele>1299.7</ele>
        <time>2022-07-03T15:10:18.000Z</time>
      </trkpt>
      <trkpt lat="45.25481" lon="6.46141">
        <ele>1298.6</ele>
        <time>2022-07-03T15:10:20.000Z</time>
      </trkpt>
      <trkpt lat="45.25471" lon="6.46153">
        <ele>1297.7</ele>
        <time>2022-07-03T15:10:22.000Z</time>
      </trkpt>
      <trkpt lat="45.25459" lon="6.46167">
        <ele>1296.3</ele>
        <time>2022-07-03T15:10:24.000Z</time>
      </trkpt>
      <trkpt lat="45.25447" lon="6.46187">
        <ele>1293.2</ele>
        <time>2022-07-03T15:10:26.000Z</time>
      </trkpt>
      <trkpt lat="45.25439" lon="6.46206">
        <ele>1291.4</ele>
        <time>2022-07-03T15:10:28.000Z</time>
      </trkpt>
      <trkpt lat="45.25426" lon="6.46221">
        <ele>1289.6</ele>
        <time>2022-07-03T15:10:30.000Z</time>
      </trkpt>
      <trkpt lat="45.25416" lon="6.46235">
        <ele>1289</ele>
        <time>2022-07-03T15:10:32.000Z</time>
      </trkpt>
      <trkpt lat="45.25399" lon="6.46246">
        <ele>1287</ele>
        <time>2022-07-03T15:10:34.000Z</time>
      </trkpt>
      <trkpt lat="45.25386" lon="6.46254">
        <ele>1284.6</ele>
        <time>2022-07-03T15:10:36.000Z</time>
      </trkpt>
      <trkpt lat="45.25372" lon="6.46267">
        <ele>1282.1</ele>
        <time>2022-07-03T15:10:38.000Z</time>
      </trkpt>
      <trkpt lat="45.25359" lon="6.4628">
        <ele>1280.2</ele>
        <time>2022-07-03T15:10:40.000Z</time>
      </trkpt>
      <trkpt lat="45.25342" lon="6.46288">
        <ele>1279.1</ele>
        <time>2022-07-03T15:10:42.000Z</time>
      </trkpt>
      <trkpt lat="45.25328" lon="6.46296">
        <ele>1278.8</ele>
        <time>2022-07-03T15:10:44.000Z</time>
      </trkpt>
      <trkpt lat="45.25315" lon="6.46304">
        <ele>1280.2</ele>
        <time>2022-07-03T15:10:46.000Z</time>
      </trkpt>
      <trkpt lat="45.25301" lon="6.46308">
        <ele>1281.2</ele>
        <time>2022-07-03T15:10:48.000Z</time>
      </trkpt>
      <trkpt lat="45.25299" lon="6.46326">
        <ele>1282.9</ele>
        <time>2022-07-03T15:10:52.000Z</time>
      </trkpt>
      <trkpt lat="45.25294" lon="6.4634">
        <ele>1283.8</ele>
        <time>2022-07-03T15:10:56.000Z</time>
      </trkpt>
      <trkpt lat="45.25286" lon="6.46356">
        <ele>1283.5</ele>
        <time>2022-07-03T15:11:00.000Z</time>
      </trkpt>
      <trkpt lat="45.25268" lon="6.46367">
        <ele>1281.6</ele>
        <time>2022-07-03T15:11:04.000Z</time>
      </trkpt>
      <trkpt lat="45.25254" lon="6.46372">
        <ele>1280</ele>
        <time>2022-07-03T15:11:06.000Z</time>
      </trkpt>
      <trkpt lat="45.25242" lon="6.46378">
        <ele>1278.5</ele>
        <time>2022-07-03T15:11:08.000Z</time>
      </trkpt>
      <trkpt lat="45.25229" lon="6.46382">
        <ele>1276.8</ele>
        <time>2022-07-03T15:11:10.000Z</time>
      </trkpt>
      <trkpt lat="45.25219" lon="6.46392">
        <ele>1276.2</ele>
        <time>2022-07-03T15:11:12.000Z</time>
      </trkpt>
      <trkpt lat="45.25209" lon="6.46404">
        <ele>1276.1</ele>
        <time>2022-07-03T15:11:14.000Z</time>
      </trkpt>
      <trkpt lat="45.25203" lon="6.46418">
        <ele>1276.6</ele>
        <time>2022-07-03T15:11:16.000Z</time>
      </trkpt>
      <trkpt lat="45.25188" lon="6.46437">
        <ele>1277.1</ele>
        <time>2022-07-03T15:11:20.000Z</time>
      </trkpt>
      <trkpt lat="45.25184" lon="6.4645">
        <ele>1278.5</ele>
        <time>2022-07-03T15:11:26.000Z</time>
      </trkpt>
      <trkpt lat="45.25183" lon="6.46466">
        <ele>1280.4</ele>
        <time>2022-07-03T15:11:32.000Z</time>
      </trkpt>
      <trkpt lat="45.25177" lon="6.4648">
        <ele>1280.6</ele>
        <time>2022-07-03T15:11:38.000Z</time>
      </trkpt>
      <trkpt lat="45.25174" lon="6.46496">
        <ele>1280.5</ele>
        <time>2022-07-03T15:11:44.000Z</time>
      </trkpt>
      <trkpt lat="45.25173" lon="6.46511">
        <ele>1280.7</ele>
        <time>2022-07-03T15:11:50.000Z</time>
      </trkpt>
      <trkpt lat="45.25172" lon="6.46527">
        <ele>1280.7</ele>
        <time>2022-07-03T15:11:56.000Z</time>
      </trkpt>
      <trkpt lat="45.25171" lon="6.46545">
        <ele>1281.1</ele>
        <time>2022-07-03T15:12:02.000Z</time>
      </trkpt>
      <trkpt lat="45.25168" lon="6.46557">
        <ele>1281.2</ele>
        <time>2022-07-03T15:12:06.000Z</time>
      </trkpt>
      <trkpt lat="45.25161" lon="6.46568">
        <ele>1282.4</ele>
        <time>2022-07-03T15:12:10.000Z</time>
      </trkpt>
      <trkpt lat="45.25153" lon="6.46577">
        <ele>1283.6</ele>
        <time>2022-07-03T15:12:14.000Z</time>
      </trkpt>
      <trkpt lat="45.25145" lon="6.46583">
        <ele>1284.7</ele>
        <time>2022-07-03T15:12:20.000Z</time>
      </trkpt>
      <trkpt lat="45.25134" lon="6.46587">
        <ele>1285.9</ele>
        <time>2022-07-03T15:12:26.000Z</time>
      </trkpt>
      <trkpt lat="45.25124" lon="6.4659">
        <ele>1287.3</ele>
        <time>2022-07-03T15:12:34.000Z</time>
      </trkpt>
      <trkpt lat="45.25114" lon="6.46591">
        <ele>1288.3</ele>
        <time>2022-07-03T15:12:40.000Z</time>
      </trkpt>
      <trkpt lat="45.25103" lon="6.46588">
        <ele>1289</ele>
        <time>2022-07-03T15:12:48.000Z</time>
      </trkpt>
      <trkpt lat="45.25095" lon="6.46582">
        <ele>1289.1</ele>
        <time>2022-07-03T15:12:54.000Z</time>
      </trkpt>
      <trkpt lat="45.25086" lon="6.46579">
        <ele>1289.8</ele>
        <time>2022-07-03T15:13:02.000Z</time>
      </trkpt>
      <trkpt lat="45.25076" lon="6.4658">
        <ele>1290.9</ele>
        <time>2022-07-03T15:13:08.000Z</time>
      </trkpt>
      <trkpt lat="45.25067" lon="6.4658">
        <ele>1291.7</ele>
        <time>2022-07-03T15:13:14.000Z</time>
      </trkpt>
      <trkpt lat="45.25057" lon="6.46576">
        <ele>1292.1</ele>
        <time>2022-07-03T15:13:20.000Z</time>
      </trkpt>
      <trkpt lat="45.25048" lon="6.46571">
        <ele>1292.5</ele>
        <time>2022-07-03T15:13:26.000Z</time>
      </trkpt>
      <trkpt lat="45.25037" lon="6.46566">
        <ele>1293.3</ele>
        <time>2022-07-03T15:13:32.000Z</time>
      </trkpt>
      <trkpt lat="45.25027" lon="6.46563">
        <ele>1294</ele>
        <time>2022-07-03T15:13:38.000Z</time>
      </trkpt>
      <trkpt lat="45.25018" lon="6.46558">
        <ele>1293.8</ele>
        <time>2022-07-03T15:13:46.000Z</time>
      </trkpt>
      <trkpt lat="45.25007" lon="6.4656">
        <ele>1294.3</ele>
        <time>2022-07-03T15:13:52.000Z</time>
      </trkpt>
      <trkpt lat="45.25016" lon="6.46563">
        <ele>1294.1</ele>
        <time>2022-07-03T15:25:29.000Z</time>
      </trkpt>
      <trkpt lat="45.25022" lon="6.46572">
        <ele>1294.8</ele>
        <time>2022-07-03T15:25:35.000Z</time>
      </trkpt>
      <trkpt lat="45.25028" lon="6.46584">
        <ele>1296.7</ele>
        <time>2022-07-03T15:25:43.000Z</time>
      </trkpt>
      <trkpt lat="45.25035" lon="6.46592">
        <ele>1295.4</ele>
        <time>2022-07-03T15:25:49.000Z</time>
      </trkpt>
      <trkpt lat="45.25042" lon="6.46603">
        <ele>1295.4</ele>
        <time>2022-07-03T15:25:55.000Z</time>
      </trkpt>
      <trkpt lat="45.25052" lon="6.46616">
        <ele>1297.5</ele>
        <time>2022-07-03T15:26:02.000Z</time>
      </trkpt>
      <trkpt lat="45.25059" lon="6.46628">
        <ele>1299.1</ele>
        <time>2022-07-03T15:26:08.000Z</time>
      </trkpt>
      <trkpt lat="45.25067" lon="6.46639">
        <ele>1301.1</ele>
        <time>2022-07-03T15:26:14.000Z</time>
      </trkpt>
      <trkpt lat="45.25074" lon="6.46648">
        <ele>1301.8</ele>
        <time>2022-07-03T15:26:22.000Z</time>
      </trkpt>
      <trkpt lat="45.25081" lon="6.46658">
        <ele>1302.8</ele>
        <time>2022-07-03T15:26:28.000Z</time>
      </trkpt>
      <trkpt lat="45.25088" lon="6.46668">
        <ele>1304.2</ele>
        <time>2022-07-03T15:26:34.000Z</time>
      </trkpt>
      <trkpt lat="45.25092" lon="6.46681">
        <ele>1305.7</ele>
        <time>2022-07-03T15:26:40.000Z</time>
      </trkpt>
      <trkpt lat="45.25094" lon="6.46698">
        <ele>1306.5</ele>
        <time>2022-07-03T15:26:48.000Z</time>
      </trkpt>
      <trkpt lat="45.25095" lon="6.46715">
        <ele>1307</ele>
        <time>2022-07-03T15:26:54.000Z</time>
      </trkpt>
      <trkpt lat="45.25097" lon="6.46728">
        <ele>1307.8</ele>
        <time>2022-07-03T15:27:00.000Z</time>
      </trkpt>
      <trkpt lat="45.25098" lon="6.46745">
        <ele>1308.4</ele>
        <time>2022-07-03T15:27:10.000Z</time>
      </trkpt>
      <trkpt lat="45.25099" lon="6.46762">
        <ele>1309</ele>
        <time>2022-07-03T15:27:18.000Z</time>
      </trkpt>
      <trkpt lat="45.251" lon="6.46779">
        <ele>1309.7</ele>
        <time>2022-07-03T15:27:26.000Z</time>
      </trkpt>
      <trkpt lat="45.251" lon="6.46793">
        <ele>1310.8</ele>
        <time>2022-07-03T15:27:34.000Z</time>
      </trkpt>
      <trkpt lat="45.25099" lon="6.46808">
        <ele>1311.8</ele>
        <time>2022-07-03T15:27:44.000Z</time>
      </trkpt>
      <trkpt lat="45.251" lon="6.46822">
        <ele>1313.3</ele>
        <time>2022-07-03T15:27:54.000Z</time>
      </trkpt>
      <trkpt lat="45.25101" lon="6.46836">
        <ele>1314.5</ele>
        <time>2022-07-03T15:28:02.000Z</time>
      </trkpt>
      <trkpt lat="45.25101" lon="6.4685">
        <ele>1314.7</ele>
        <time>2022-07-03T15:28:10.000Z</time>
      </trkpt>
      <trkpt lat="45.25106" lon="6.46864">
        <ele>1315.9</ele>
        <time>2022-07-03T15:28:20.000Z</time>
      </trkpt>
      <trkpt lat="45.25111" lon="6.46879">
        <ele>1317.7</ele>
        <time>2022-07-03T15:28:28.000Z</time>
      </trkpt>
      <trkpt lat="45.25114" lon="6.46892">
        <ele>1318.4</ele>
        <time>2022-07-03T15:28:34.000Z</time>
      </trkpt>
      <trkpt lat="45.25119" lon="6.46903">
        <ele>1318.3</ele>
        <time>2022-07-03T15:28:40.000Z</time>
      </trkpt>
      <trkpt lat="45.25126" lon="6.46913">
        <ele>1319.5</ele>
        <time>2022-07-03T15:28:46.000Z</time>
      </trkpt>
      <trkpt lat="45.25135" lon="6.46923">
        <ele>1321</ele>
        <time>2022-07-03T15:28:54.000Z</time>
      </trkpt>
      <trkpt lat="45.25141" lon="6.46933">
        <ele>1321.7</ele>
        <time>2022-07-03T15:29:00.000Z</time>
      </trkpt>
      <trkpt lat="45.25147" lon="6.46947">
        <ele>1322.6</ele>
        <time>2022-07-03T15:29:08.000Z</time>
      </trkpt>
      <trkpt lat="45.2515" lon="6.46959">
        <ele>1322.8</ele>
        <time>2022-07-03T15:29:14.000Z</time>
      </trkpt>
      <trkpt lat="45.25152" lon="6.46971">
        <ele>1323.3</ele>
        <time>2022-07-03T15:29:20.000Z</time>
      </trkpt>
      <trkpt lat="45.25155" lon="6.46985">
        <ele>1323.9</ele>
        <time>2022-07-03T15:29:26.000Z</time>
      </trkpt>
      <trkpt lat="45.25156" lon="6.47">
        <ele>1323.5</ele>
        <time>2022-07-03T15:29:34.000Z</time>
      </trkpt>
      <trkpt lat="45.25159" lon="6.47016">
        <ele>1323.7</ele>
        <time>2022-07-03T15:29:42.000Z</time>
      </trkpt>
      <trkpt lat="45.25163" lon="6.47029">
        <ele>1324.3</ele>
        <time>2022-07-03T15:29:50.000Z</time>
      </trkpt>
      <trkpt lat="45.25167" lon="6.47044">
        <ele>1325.2</ele>
        <time>2022-07-03T15:29:58.000Z</time>
      </trkpt>
      <trkpt lat="45.25173" lon="6.47054">
        <ele>1326.6</ele>
        <time>2022-07-03T15:30:04.000Z</time>
      </trkpt>
      <trkpt lat="45.25178" lon="6.47066">
        <ele>1327.1</ele>
        <time>2022-07-03T15:30:10.000Z</time>
      </trkpt>
      <trkpt lat="45.25183" lon="6.47078">
        <ele>1326.8</ele>
        <time>2022-07-03T15:30:16.000Z</time>
      </trkpt>
      <trkpt lat="45.25189" lon="6.47091">
        <ele>1327.8</ele>
        <time>2022-07-03T15:30:22.000Z</time>
      </trkpt>
      <trkpt lat="45.25195" lon="6.47104">
        <ele>1329.3</ele>
        <time>2022-07-03T15:30:32.000Z</time>
      </trkpt>
      <trkpt lat="45.25201" lon="6.4712">
        <ele>1330.2</ele>
        <time>2022-07-03T15:30:40.000Z</time>
      </trkpt>
      <trkpt lat="45.25206" lon="6.47133">
        <ele>1331.1</ele>
        <time>2022-07-03T15:30:46.000Z</time>
      </trkpt>
      <trkpt lat="45.25208" lon="6.47146">
        <ele>1331.6</ele>
        <time>2022-07-03T15:30:52.000Z</time>
      </trkpt>
      <trkpt lat="45.25209" lon="6.47161">
        <ele>1332</ele>
        <time>2022-07-03T15:30:58.000Z</time>
      </trkpt>
      <trkpt lat="45.25211" lon="6.47175">
        <ele>1332.8</ele>
        <time>2022-07-03T15:31:04.000Z</time>
      </trkpt>
      <trkpt lat="45.25213" lon="6.47191">
        <ele>1334.1</ele>
        <time>2022-07-03T15:31:10.000Z</time>
      </trkpt>
      <trkpt lat="45.25212" lon="6.47205">
        <ele>1334</ele>
        <time>2022-07-03T15:31:16.000Z</time>
      </trkpt>
      <trkpt lat="45.25207" lon="6.47217">
        <ele>1332.1</ele>
        <time>2022-07-03T15:31:22.000Z</time>
      </trkpt>
      <trkpt lat="45.25196" lon="6.47224">
        <ele>1329.3</ele>
        <time>2022-07-03T15:31:28.000Z</time>
      </trkpt>
      <trkpt lat="45.25187" lon="6.47231">
        <ele>1332.3</ele>
        <time>2022-07-03T15:31:34.000Z</time>
      </trkpt>
      <trkpt lat="45.25175" lon="6.47227">
        <ele>1334.3</ele>
        <time>2022-07-03T15:31:40.000Z</time>
      </trkpt>
      <trkpt lat="45.25166" lon="6.47218">
        <ele>1333.8</ele>
        <time>2022-07-03T15:31:46.000Z</time>
      </trkpt>
      <trkpt lat="45.25157" lon="6.47207">
        <ele>1332.3</ele>
        <time>2022-07-03T15:31:52.000Z</time>
      </trkpt>
      <trkpt lat="45.25145" lon="6.47199">
        <ele>1333.8</ele>
        <time>2022-07-03T15:32:00.000Z</time>
      </trkpt>
      <trkpt lat="45.25135" lon="6.47189">
        <ele>1333.9</ele>
        <time>2022-07-03T15:32:06.000Z</time>
      </trkpt>
      <trkpt lat="45.25126" lon="6.47182">
        <ele>1333</ele>
        <time>2022-07-03T15:32:10.000Z</time>
      </trkpt>
      <trkpt lat="45.25114" lon="6.47175">
        <ele>1332.7</ele>
        <time>2022-07-03T15:32:14.000Z</time>
      </trkpt>
      <trkpt lat="45.25103" lon="6.47176">
        <ele>1333.1</ele>
        <time>2022-07-03T15:32:18.000Z</time>
      </trkpt>
      <trkpt lat="45.25093" lon="6.47178">
        <ele>1333.5</ele>
        <time>2022-07-03T15:32:22.000Z</time>
      </trkpt>
      <trkpt lat="45.25085" lon="6.47182">
        <ele>1334</ele>
        <time>2022-07-03T15:32:26.000Z</time>
      </trkpt>
      <trkpt lat="45.25073" lon="6.47187">
        <ele>1334.6</ele>
        <time>2022-07-03T15:32:32.000Z</time>
      </trkpt>
      <trkpt lat="45.25064" lon="6.47187">
        <ele>1335</ele>
        <time>2022-07-03T15:32:36.000Z</time>
      </trkpt>
      <trkpt lat="45.25052" lon="6.47193">
        <ele>1335.5</ele>
        <time>2022-07-03T15:32:42.000Z</time>
      </trkpt>
      <trkpt lat="45.2504" lon="6.47199">
        <ele>1335.6</ele>
        <time>2022-07-03T15:32:48.000Z</time>
      </trkpt>
      <trkpt lat="45.25028" lon="6.47207">
        <ele>1336.2</ele>
        <time>2022-07-03T15:32:54.000Z</time>
      </trkpt>
      <trkpt lat="45.25021" lon="6.47214">
        <ele>1336.5</ele>
        <time>2022-07-03T15:32:58.000Z</time>
      </trkpt>
      <trkpt lat="45.25014" lon="6.47226">
        <ele>1337.1</ele>
        <time>2022-07-03T15:33:04.000Z</time>
      </trkpt>
      <trkpt lat="45.25009" lon="6.47237">
        <ele>1338.4</ele>
        <time>2022-07-03T15:33:10.000Z</time>
      </trkpt>
      <trkpt lat="45.25003" lon="6.47247">
        <ele>1339.7</ele>
        <time>2022-07-03T15:33:16.000Z</time>
      </trkpt>
      <trkpt lat="45.24996" lon="6.47256">
        <ele>1340</ele>
        <time>2022-07-03T15:33:22.000Z</time>
      </trkpt>
      <trkpt lat="45.24989" lon="6.47267">
        <ele>1340.5</ele>
        <time>2022-07-03T15:33:28.000Z</time>
      </trkpt>
      <trkpt lat="45.24982" lon="6.47276">
        <ele>1340.8</ele>
        <time>2022-07-03T15:33:34.000Z</time>
      </trkpt>
      <trkpt lat="45.24973" lon="6.47289">
        <ele>1340.9</ele>
        <time>2022-07-03T15:33:40.000Z</time>
      </trkpt>
      <trkpt lat="45.24966" lon="6.47299">
        <ele>1340.1</ele>
        <time>2022-07-03T15:33:46.000Z</time>
      </trkpt>
      <trkpt lat="45.24959" lon="6.4731">
        <ele>1339</ele>
        <time>2022-07-03T15:33:50.000Z</time>
      </trkpt>
      <trkpt lat="45.24949" lon="6.47322">
        <ele>1338.8</ele>
        <time>2022-07-03T15:33:54.000Z</time>
      </trkpt>
      <trkpt lat="45.24937" lon="6.47309">
        <ele>1335.5</ele>
        <time>2022-07-03T15:33:58.000Z</time>
      </trkpt>
      <trkpt lat="45.24932" lon="6.47291">
        <ele>1333.1</ele>
        <time>2022-07-03T15:34:00.000Z</time>
      </trkpt>
      <trkpt lat="45.24927" lon="6.47277">
        <ele>1330.8</ele>
        <time>2022-07-03T15:34:02.000Z</time>
      </trkpt>
      <trkpt lat="45.24917" lon="6.47269">
        <ele>1328</ele>
        <time>2022-07-03T15:34:06.000Z</time>
      </trkpt>
      <trkpt lat="45.24907" lon="6.47266">
        <ele>1326.7</ele>
        <time>2022-07-03T15:34:08.000Z</time>
      </trkpt>
      <trkpt lat="45.24893" lon="6.47262">
        <ele>1325</ele>
        <time>2022-07-03T15:34:10.000Z</time>
      </trkpt>
      <trkpt lat="45.24882" lon="6.47262">
        <ele>1323.9</ele>
        <time>2022-07-03T15:34:12.000Z</time>
      </trkpt>
      <trkpt lat="45.24872" lon="6.47263">
        <ele>1323.3</ele>
        <time>2022-07-03T15:34:14.000Z</time>
      </trkpt>
      <trkpt lat="45.24854" lon="6.47263">
        <ele>1322.5</ele>
        <time>2022-07-03T15:34:18.000Z</time>
      </trkpt>
      <trkpt lat="45.2484" lon="6.47261">
        <ele>1322.3</ele>
        <time>2022-07-03T15:34:22.000Z</time>
      </trkpt>
      <trkpt lat="45.24831" lon="6.47259">
        <ele>1322</ele>
        <time>2022-07-03T15:34:26.000Z</time>
      </trkpt>
      <trkpt lat="45.2482" lon="6.47252">
        <ele>1321.1</ele>
        <time>2022-07-03T15:34:30.000Z</time>
      </trkpt>
      <trkpt lat="45.24805" lon="6.47246">
        <ele>1320</ele>
        <time>2022-07-03T15:34:34.000Z</time>
      </trkpt>
      <trkpt lat="45.24795" lon="6.47243">
        <ele>1319.4</ele>
        <time>2022-07-03T15:34:36.000Z</time>
      </trkpt>
      <trkpt lat="45.24785" lon="6.47242">
        <ele>1319.3</ele>
        <time>2022-07-03T15:34:38.000Z</time>
      </trkpt>
      <trkpt lat="45.24774" lon="6.4724">
        <ele>1319.1</ele>
        <time>2022-07-03T15:34:40.000Z</time>
      </trkpt>
      <trkpt lat="45.24761" lon="6.47236">
        <ele>1318.5</ele>
        <time>2022-07-03T15:34:42.000Z</time>
      </trkpt>
      <trkpt lat="45.24749" lon="6.47233">
        <ele>1318</ele>
        <time>2022-07-03T15:34:44.000Z</time>
      </trkpt>
      <trkpt lat="45.24737" lon="6.47231">
        <ele>1317.6</ele>
        <time>2022-07-03T15:34:46.000Z</time>
      </trkpt>
      <trkpt lat="45.24722" lon="6.47226">
        <ele>1316.8</ele>
        <time>2022-07-03T15:34:50.000Z</time>
      </trkpt>
      <trkpt lat="45.24713" lon="6.47226">
        <ele>1317.5</ele>
        <time>2022-07-03T15:34:56.000Z</time>
      </trkpt>
      <trkpt lat="45.24704" lon="6.47215">
        <ele>1317.1</ele>
        <time>2022-07-03T15:35:02.000Z</time>
      </trkpt>
      <trkpt lat="45.24693" lon="6.47215">
        <ele>1318.4</ele>
        <time>2022-07-03T15:35:12.000Z</time>
      </trkpt>
      <trkpt lat="45.24683" lon="6.47206">
        <ele>1321</ele>
        <time>2022-07-03T15:35:22.000Z</time>
      </trkpt>
      <trkpt lat="45.24673" lon="6.47197">
        <ele>1323</ele>
        <time>2022-07-03T15:35:28.000Z</time>
      </trkpt>
      <trkpt lat="45.24667" lon="6.47185">
        <ele>1324.1</ele>
        <time>2022-07-03T15:35:34.000Z</time>
      </trkpt>
      <trkpt lat="45.24659" lon="6.47173">
        <ele>1325.1</ele>
        <time>2022-07-03T15:35:42.000Z</time>
      </trkpt>
      <trkpt lat="45.24649" lon="6.47165">
        <ele>1326.6</ele>
        <time>2022-07-03T15:35:50.000Z</time>
      </trkpt>
      <trkpt lat="45.24638" lon="6.47162">
        <ele>1328.8</ele>
        <time>2022-07-03T15:35:58.000Z</time>
      </trkpt>
      <trkpt lat="45.24627" lon="6.47161">
        <ele>1330.2</ele>
        <time>2022-07-03T15:36:06.000Z</time>
      </trkpt>
      <trkpt lat="45.24617" lon="6.47157">
        <ele>1331.4</ele>
        <time>2022-07-03T15:36:16.000Z</time>
      </trkpt>
      <trkpt lat="45.24608" lon="6.47154">
        <ele>1332.3</ele>
        <time>2022-07-03T15:36:24.000Z</time>
      </trkpt>
      <trkpt lat="45.24596" lon="6.47151">
        <ele>1333.1</ele>
        <time>2022-07-03T15:36:32.000Z</time>
      </trkpt>
      <trkpt lat="45.24587" lon="6.47149">
        <ele>1333.7</ele>
        <time>2022-07-03T15:36:38.000Z</time>
      </trkpt>
      <trkpt lat="45.24576" lon="6.47151">
        <ele>1334.1</ele>
        <time>2022-07-03T15:36:46.000Z</time>
      </trkpt>
      <trkpt lat="45.24566" lon="6.47156">
        <ele>1334.4</ele>
        <time>2022-07-03T15:36:54.000Z</time>
      </trkpt>
      <trkpt lat="45.24555" lon="6.47163">
        <ele>1335.2</ele>
        <time>2022-07-03T15:37:02.000Z</time>
      </trkpt>
      <trkpt lat="45.24546" lon="6.47169">
        <ele>1335.3</ele>
        <time>2022-07-03T15:37:08.000Z</time>
      </trkpt>
      <trkpt lat="45.24537" lon="6.47175">
        <ele>1335.5</ele>
        <time>2022-07-03T15:37:14.000Z</time>
      </trkpt>
      <trkpt lat="45.24528" lon="6.47183">
        <ele>1335.9</ele>
        <time>2022-07-03T15:37:20.000Z</time>
      </trkpt>
      <trkpt lat="45.24521" lon="6.47192">
        <ele>1336.1</ele>
        <time>2022-07-03T15:37:26.000Z</time>
      </trkpt>
      <trkpt lat="45.2451" lon="6.47203">
        <ele>1335.5</ele>
        <time>2022-07-03T15:37:32.000Z</time>
      </trkpt>
      <trkpt lat="45.24502" lon="6.47209">
        <ele>1334.6</ele>
        <time>2022-07-03T15:37:36.000Z</time>
      </trkpt>
      <trkpt lat="45.24492" lon="6.47221">
        <ele>1334.3</ele>
        <time>2022-07-03T15:37:40.000Z</time>
      </trkpt>
      <trkpt lat="45.24483" lon="6.47229">
        <ele>1334</ele>
        <time>2022-07-03T15:37:42.000Z</time>
      </trkpt>
      <trkpt lat="45.24476" lon="6.47238">
        <ele>1334</ele>
        <time>2022-07-03T15:37:44.000Z</time>
      </trkpt>
      <trkpt lat="45.24469" lon="6.47251">
        <ele>1334.3</ele>
        <time>2022-07-03T15:37:48.000Z</time>
      </trkpt>
      <trkpt lat="45.24459" lon="6.47263">
        <ele>1334.6</ele>
        <time>2022-07-03T15:37:54.000Z</time>
      </trkpt>
      <trkpt lat="45.24449" lon="6.47274">
        <ele>1335</ele>
        <time>2022-07-03T15:38:00.000Z</time>
      </trkpt>
      <trkpt lat="45.24441" lon="6.47288">
        <ele>1334.9</ele>
        <time>2022-07-03T15:38:06.000Z</time>
      </trkpt>
      <trkpt lat="45.24431" lon="6.47302">
        <ele>1334</ele>
        <time>2022-07-03T15:38:10.000Z</time>
      </trkpt>
      <trkpt lat="45.24422" lon="6.47308">
        <ele>1333.4</ele>
        <time>2022-07-03T15:38:12.000Z</time>
      </trkpt>
      <trkpt lat="45.24411" lon="6.47313">
        <ele>1332.7</ele>
        <time>2022-07-03T15:38:14.000Z</time>
      </trkpt>
      <trkpt lat="45.244" lon="6.47318">
        <ele>1331.7</ele>
        <time>2022-07-03T15:38:16.000Z</time>
      </trkpt>
      <trkpt lat="45.2439" lon="6.4733">
        <ele>1331.6</ele>
        <time>2022-07-03T15:38:18.000Z</time>
      </trkpt>
      <trkpt lat="45.24381" lon="6.47342">
        <ele>1331.1</ele>
        <time>2022-07-03T15:38:20.000Z</time>
      </trkpt>
      <trkpt lat="45.24376" lon="6.47356">
        <ele>1331.4</ele>
        <time>2022-07-03T15:38:22.000Z</time>
      </trkpt>
      <trkpt lat="45.24373" lon="6.47369">
        <ele>1331.5</ele>
        <time>2022-07-03T15:38:24.000Z</time>
      </trkpt>
      <trkpt lat="45.24368" lon="6.47386">
        <ele>1330.6</ele>
        <time>2022-07-03T15:38:26.000Z</time>
      </trkpt>
      <trkpt lat="45.24362" lon="6.474">
        <ele>1329.6</ele>
        <time>2022-07-03T15:38:28.000Z</time>
      </trkpt>
      <trkpt lat="45.24355" lon="6.47416">
        <ele>1328.5</ele>
        <time>2022-07-03T15:38:30.000Z</time>
      </trkpt>
      <trkpt lat="45.24347" lon="6.47427">
        <ele>1328.2</ele>
        <time>2022-07-03T15:38:32.000Z</time>
      </trkpt>
      <trkpt lat="45.2434" lon="6.47436">
        <ele>1328</ele>
        <time>2022-07-03T15:38:34.000Z</time>
      </trkpt>
      <trkpt lat="45.24328" lon="6.47447">
        <ele>1326.5</ele>
        <time>2022-07-03T15:38:38.000Z</time>
      </trkpt>
      <trkpt lat="45.24326" lon="6.4746">
        <ele>1327.8</ele>
        <time>2022-07-03T15:38:42.000Z</time>
      </trkpt>
      <trkpt lat="45.24318" lon="6.47485">
        <ele>1329.1</ele>
        <time>2022-07-03T15:38:46.000Z</time>
      </trkpt>
      <trkpt lat="45.24306" lon="6.47495">
        <ele>1326.4</ele>
        <time>2022-07-03T15:38:48.000Z</time>
      </trkpt>
      <trkpt lat="45.24294" lon="6.47497">
        <ele>1323.4</ele>
        <time>2022-07-03T15:38:50.000Z</time>
      </trkpt>
      <trkpt lat="45.24283" lon="6.47506">
        <ele>1322.2</ele>
        <time>2022-07-03T15:38:52.000Z</time>
      </trkpt>
      <trkpt lat="45.24276" lon="6.47513">
        <ele>1321.8</ele>
        <time>2022-07-03T15:38:54.000Z</time>
      </trkpt>
      <trkpt lat="45.24269" lon="6.47524">
        <ele>1322.7</ele>
        <time>2022-07-03T15:38:58.000Z</time>
      </trkpt>
      <trkpt lat="45.24263" lon="6.47536">
        <ele>1324.6</ele>
        <time>2022-07-03T15:39:02.000Z</time>
      </trkpt>
      <trkpt lat="45.24252" lon="6.47543">
        <ele>1324.4</ele>
        <time>2022-07-03T15:39:08.000Z</time>
      </trkpt>
      <trkpt lat="45.24243" lon="6.47547">
        <ele>1324.8</ele>
        <time>2022-07-03T15:39:14.000Z</time>
      </trkpt>
      <trkpt lat="45.24233" lon="6.4755">
        <ele>1326</ele>
        <time>2022-07-03T15:39:20.000Z</time>
      </trkpt>
      <trkpt lat="45.24222" lon="6.47552">
        <ele>1327.2</ele>
        <time>2022-07-03T15:39:26.000Z</time>
      </trkpt>
      <trkpt lat="45.24211" lon="6.47555">
        <ele>1329.1</ele>
        <time>2022-07-03T15:39:32.000Z</time>
      </trkpt>
      <trkpt lat="45.24201" lon="6.47557">
        <ele>1331</ele>
        <time>2022-07-03T15:39:38.000Z</time>
      </trkpt>
      <trkpt lat="45.2419" lon="6.47559">
        <ele>1331.9</ele>
        <time>2022-07-03T15:39:44.000Z</time>
      </trkpt>
      <trkpt lat="45.24181" lon="6.47564">
        <ele>1332.3</ele>
        <time>2022-07-03T15:39:50.000Z</time>
      </trkpt>
      <trkpt lat="45.24171" lon="6.47569">
        <ele>1333.1</ele>
        <time>2022-07-03T15:39:58.000Z</time>
      </trkpt>
      <trkpt lat="45.24159" lon="6.47574">
        <ele>1334</ele>
        <time>2022-07-03T15:40:06.000Z</time>
      </trkpt>
      <trkpt lat="45.24148" lon="6.47573">
        <ele>1333.7</ele>
        <time>2022-07-03T15:40:12.000Z</time>
      </trkpt>
      <trkpt lat="45.24137" lon="6.47573">
        <ele>1333.3</ele>
        <time>2022-07-03T15:40:18.000Z</time>
      </trkpt>
      <trkpt lat="45.24127" lon="6.47572">
        <ele>1333.7</ele>
        <time>2022-07-03T15:40:24.000Z</time>
      </trkpt>
      <trkpt lat="45.24116" lon="6.47571">
        <ele>1334.2</ele>
        <time>2022-07-03T15:40:30.000Z</time>
      </trkpt>
      <trkpt lat="45.24105" lon="6.47575">
        <ele>1334.7</ele>
        <time>2022-07-03T15:40:36.000Z</time>
      </trkpt>
      <trkpt lat="45.2409" lon="6.47587">
        <ele>1334.5</ele>
        <time>2022-07-03T15:40:40.000Z</time>
      </trkpt>
      <trkpt lat="45.2408" lon="6.47592">
        <ele>1333.6</ele>
        <time>2022-07-03T15:40:42.000Z</time>
      </trkpt>
      <trkpt lat="45.2407" lon="6.476">
        <ele>1332.7</ele>
        <time>2022-07-03T15:40:44.000Z</time>
      </trkpt>
      <trkpt lat="45.24059" lon="6.47607">
        <ele>1331.6</ele>
        <time>2022-07-03T15:40:46.000Z</time>
      </trkpt>
      <trkpt lat="45.24047" lon="6.47612">
        <ele>1330.4</ele>
        <time>2022-07-03T15:40:48.000Z</time>
      </trkpt>
      <trkpt lat="45.24037" lon="6.47619">
        <ele>1330.4</ele>
        <time>2022-07-03T15:40:50.000Z</time>
      </trkpt>
      <trkpt lat="45.2403" lon="6.47626">
        <ele>1331.4</ele>
        <time>2022-07-03T15:40:52.000Z</time>
      </trkpt>
      <trkpt lat="45.2402" lon="6.47633">
        <ele>1332.3</ele>
        <time>2022-07-03T15:40:56.000Z</time>
      </trkpt>
      <trkpt lat="45.24011" lon="6.47637">
        <ele>1331.8</ele>
        <time>2022-07-03T15:41:00.000Z</time>
      </trkpt>
      <trkpt lat="45.24003" lon="6.47648">
        <ele>1334.3</ele>
        <time>2022-07-03T15:41:08.000Z</time>
      </trkpt>
      <trkpt lat="45.23997" lon="6.47657">
        <ele>1336.2</ele>
        <time>2022-07-03T15:41:14.000Z</time>
      </trkpt>
      <trkpt lat="45.23986" lon="6.47665">
        <ele>1337.7</ele>
        <time>2022-07-03T15:41:22.000Z</time>
      </trkpt>
      <trkpt lat="45.23977" lon="6.47668">
        <ele>1337.1</ele>
        <time>2022-07-03T15:41:28.000Z</time>
      </trkpt>
      <trkpt lat="45.23967" lon="6.47673">
        <ele>1336.9</ele>
        <time>2022-07-03T15:41:34.000Z</time>
      </trkpt>
      <trkpt lat="45.23956" lon="6.47677">
        <ele>1337</ele>
        <time>2022-07-03T15:41:40.000Z</time>
      </trkpt>
      <trkpt lat="45.23946" lon="6.47684">
        <ele>1337.8</ele>
        <time>2022-07-03T15:41:52.000Z</time>
      </trkpt>
      <trkpt lat="45.23938" lon="6.47694">
        <ele>1340.2</ele>
        <time>2022-07-03T15:41:58.000Z</time>
      </trkpt>
      <trkpt lat="45.23928" lon="6.47701">
        <ele>1341.1</ele>
        <time>2022-07-03T15:42:04.000Z</time>
      </trkpt>
      <trkpt lat="45.23917" lon="6.47706">
        <ele>1341.5</ele>
        <time>2022-07-03T15:42:10.000Z</time>
      </trkpt>
      <trkpt lat="45.23909" lon="6.47715">
        <ele>1342.5</ele>
        <time>2022-07-03T15:42:18.000Z</time>
      </trkpt>
      <trkpt lat="45.23903" lon="6.47726">
        <ele>1344.1</ele>
        <time>2022-07-03T15:42:24.000Z</time>
      </trkpt>
      <trkpt lat="45.23894" lon="6.47732">
        <ele>1344.5</ele>
        <time>2022-07-03T15:42:30.000Z</time>
      </trkpt>
      <trkpt lat="45.23887" lon="6.47739">
        <ele>1345.4</ele>
        <time>2022-07-03T15:42:36.000Z</time>
      </trkpt>
      <trkpt lat="45.23878" lon="6.47743">
        <ele>1346.2</ele>
        <time>2022-07-03T15:42:42.000Z</time>
      </trkpt>
      <trkpt lat="45.23868" lon="6.47746">
        <ele>1346.5</ele>
        <time>2022-07-03T15:42:48.000Z</time>
      </trkpt>
      <trkpt lat="45.23859" lon="6.47755">
        <ele>1347.5</ele>
        <time>2022-07-03T15:42:56.000Z</time>
      </trkpt>
      <trkpt lat="45.2385" lon="6.47764">
        <ele>1347.5</ele>
        <time>2022-07-03T15:43:04.000Z</time>
      </trkpt>
      <trkpt lat="45.23843" lon="6.47773">
        <ele>1347.7</ele>
        <time>2022-07-03T15:43:08.000Z</time>
      </trkpt>
      <trkpt lat="45.23823" lon="6.47784">
        <ele>1345.8</ele>
        <time>2022-07-03T15:43:12.000Z</time>
      </trkpt>
      <trkpt lat="45.23815" lon="6.47793">
        <ele>1344.9</ele>
        <time>2022-07-03T15:43:14.000Z</time>
      </trkpt>
      <trkpt lat="45.23804" lon="6.47801">
        <ele>1344</ele>
        <time>2022-07-03T15:43:16.000Z</time>
      </trkpt>
      <trkpt lat="45.23793" lon="6.47812">
        <ele>1343.1</ele>
        <time>2022-07-03T15:43:18.000Z</time>
      </trkpt>
      <trkpt lat="45.23782" lon="6.47821">
        <ele>1341.6</ele>
        <time>2022-07-03T15:43:20.000Z</time>
      </trkpt>
      <trkpt lat="45.23777" lon="6.47837">
        <ele>1340.8</ele>
        <time>2022-07-03T15:43:22.000Z</time>
      </trkpt>
      <trkpt lat="45.23772" lon="6.47857">
        <ele>1339.1</ele>
        <time>2022-07-03T15:43:24.000Z</time>
      </trkpt>
      <trkpt lat="45.23767" lon="6.47873">
        <ele>1338.7</ele>
        <time>2022-07-03T15:43:26.000Z</time>
      </trkpt>
      <trkpt lat="45.23759" lon="6.4788">
        <ele>1337.4</ele>
        <time>2022-07-03T15:43:28.000Z</time>
      </trkpt>
      <trkpt lat="45.2375" lon="6.47889">
        <ele>1336.4</ele>
        <time>2022-07-03T15:43:30.000Z</time>
      </trkpt>
      <trkpt lat="45.2374" lon="6.47898">
        <ele>1335.4</ele>
        <time>2022-07-03T15:43:32.000Z</time>
      </trkpt>
      <trkpt lat="45.2373" lon="6.47905">
        <ele>1334</ele>
        <time>2022-07-03T15:43:34.000Z</time>
      </trkpt>
      <trkpt lat="45.23719" lon="6.47907">
        <ele>1332.2</ele>
        <time>2022-07-03T15:43:36.000Z</time>
      </trkpt>
      <trkpt lat="45.23726" lon="6.47919">
        <ele>1333.8</ele>
        <time>2022-07-03T15:50:20.000Z</time>
      </trkpt>
      <trkpt lat="45.23734" lon="6.47912">
        <ele>1334.8</ele>
        <time>2022-07-03T15:50:24.000Z</time>
      </trkpt>
      <trkpt lat="45.23741" lon="6.47896">
        <ele>1334.9</ele>
        <time>2022-07-03T15:50:30.000Z</time>
      </trkpt>
      <trkpt lat="45.23742" lon="6.47878">
        <ele>1332</ele>
        <time>2022-07-03T15:50:34.000Z</time>
      </trkpt>
      <trkpt lat="45.23726" lon="6.47879">
        <ele>1329</ele>
        <time>2022-07-03T15:50:38.000Z</time>
      </trkpt>
      <trkpt lat="45.23718" lon="6.47871">
        <ele>1326.1</ele>
        <time>2022-07-03T15:50:42.000Z</time>
      </trkpt>
      <trkpt lat="45.23717" lon="6.47857">
        <ele>1322.4</ele>
        <time>2022-07-03T15:50:48.000Z</time>
      </trkpt>
      <trkpt lat="45.23705" lon="6.47851">
        <ele>1319.4</ele>
        <time>2022-07-03T15:50:52.000Z</time>
      </trkpt>
      <trkpt lat="45.23715" lon="6.47844">
        <ele>1317.3</ele>
        <time>2022-07-03T15:50:58.000Z</time>
      </trkpt>
      <trkpt lat="45.23706" lon="6.47826">
        <ele>1313.6</ele>
        <time>2022-07-03T15:51:12.000Z</time>
      </trkpt>
      <trkpt lat="45.23695" lon="6.47824">
        <ele>1311.2</ele>
        <time>2022-07-03T15:51:16.000Z</time>
      </trkpt>
      <trkpt lat="45.23686" lon="6.47828">
        <ele>1310.3</ele>
        <time>2022-07-03T15:51:18.000Z</time>
      </trkpt>
      <trkpt lat="45.23681" lon="6.4781">
        <ele>1304.8</ele>
        <time>2022-07-03T15:51:24.000Z</time>
      </trkpt>
      <trkpt lat="45.23684" lon="6.47793">
        <ele>1299.8</ele>
        <time>2022-07-03T15:51:28.000Z</time>
      </trkpt>
      <trkpt lat="45.23675" lon="6.47786">
        <ele>1296.1</ele>
        <time>2022-07-03T15:51:34.000Z</time>
      </trkpt>
      <trkpt lat="45.23663" lon="6.47798">
        <ele>1297.2</ele>
        <time>2022-07-03T15:51:38.000Z</time>
      </trkpt>
      <trkpt lat="45.23652" lon="6.47801">
        <ele>1297.4</ele>
        <time>2022-07-03T15:51:42.000Z</time>
      </trkpt>
      <trkpt lat="45.23647" lon="6.47785">
        <ele>1293.3</ele>
        <time>2022-07-03T15:51:48.000Z</time>
      </trkpt>
      <trkpt lat="45.23645" lon="6.47772">
        <ele>1289.3</ele>
        <time>2022-07-03T15:51:56.000Z</time>
      </trkpt>
      <trkpt lat="45.23643" lon="6.47759">
        <ele>1284.9</ele>
        <time>2022-07-03T15:52:06.000Z</time>
      </trkpt>
      <trkpt lat="45.23648" lon="6.47748">
        <ele>1281.1</ele>
        <time>2022-07-03T15:52:12.000Z</time>
      </trkpt>
      <trkpt lat="45.23641" lon="6.47738">
        <ele>1276.4</ele>
        <time>2022-07-03T15:52:34.000Z</time>
      </trkpt>
      <trkpt lat="45.23629" lon="6.47741">
        <ele>1275.4</ele>
        <time>2022-07-03T15:52:40.000Z</time>
      </trkpt>
      <trkpt lat="45.23621" lon="6.47729">
        <ele>1270.6</ele>
        <time>2022-07-03T15:52:54.000Z</time>
      </trkpt>
      <trkpt lat="45.23618" lon="6.47715">
        <ele>1264.7</ele>
        <time>2022-07-03T15:53:00.000Z</time>
      </trkpt>
      <trkpt lat="45.23608" lon="6.47712">
        <ele>1261.5</ele>
        <time>2022-07-03T15:53:14.000Z</time>
      </trkpt>
      <trkpt lat="45.23609" lon="6.47698">
        <ele>1256.7</ele>
        <time>2022-07-03T15:53:20.000Z</time>
      </trkpt>
      <trkpt lat="45.23599" lon="6.47691">
        <ele>1250.8</ele>
        <time>2022-07-03T15:53:34.000Z</time>
      </trkpt>
      <trkpt lat="45.23604" lon="6.47677">
        <ele>1246.3</ele>
        <time>2022-07-03T15:53:44.000Z</time>
      </trkpt>
      <trkpt lat="45.23615" lon="6.47676">
        <ele>1246.3</ele>
        <time>2022-07-03T15:53:56.000Z</time>
      </trkpt>
      <trkpt lat="45.23614" lon="6.47657">
        <ele>1240.1</ele>
        <time>2022-07-03T15:54:02.000Z</time>
      </trkpt>
      <trkpt lat="45.236" lon="6.4765">
        <ele>1234.7</ele>
        <time>2022-07-03T15:54:06.000Z</time>
      </trkpt>
      <trkpt lat="45.23609" lon="6.47643">
        <ele>1230.7</ele>
        <time>2022-07-03T15:54:16.000Z</time>
      </trkpt>
      <trkpt lat="45.23601" lon="6.47629">
        <ele>1226.9</ele>
        <time>2022-07-03T15:54:28.000Z</time>
      </trkpt>
      <trkpt lat="45.23587" lon="6.47625">
        <ele>1225.9</ele>
        <time>2022-07-03T15:54:32.000Z</time>
      </trkpt>
      <trkpt lat="45.23602" lon="6.47619">
        <ele>1223.1</ele>
        <time>2022-07-03T15:54:40.000Z</time>
      </trkpt>
      <trkpt lat="45.23612" lon="6.47623">
        <ele>1224</ele>
        <time>2022-07-03T15:54:42.000Z</time>
      </trkpt>
      <trkpt lat="45.23622" lon="6.47609">
        <ele>1226.5</ele>
        <time>2022-07-03T15:54:46.000Z</time>
      </trkpt>
      <trkpt lat="45.23618" lon="6.47586">
        <ele>1221.4</ele>
        <time>2022-07-03T15:54:52.000Z</time>
      </trkpt>
      <trkpt lat="45.23613" lon="6.47575">
        <ele>1216.7</ele>
        <time>2022-07-03T15:55:08.000Z</time>
      </trkpt>
      <trkpt lat="45.23606" lon="6.47564">
        <ele>1211.2</ele>
        <time>2022-07-03T15:55:40.000Z</time>
      </trkpt>
      <trkpt lat="45.236" lon="6.47555">
        <ele>1205.1</ele>
        <time>2022-07-03T15:55:50.000Z</time>
      </trkpt>
      <trkpt lat="45.23591" lon="6.47549">
        <ele>1199.1</ele>
        <time>2022-07-03T15:55:56.000Z</time>
      </trkpt>
      <trkpt lat="45.23587" lon="6.47535">
        <ele>1196.3</ele>
        <time>2022-07-03T15:56:02.000Z</time>
      </trkpt>
      <trkpt lat="45.23579" lon="6.47525">
        <ele>1191.3</ele>
        <time>2022-07-03T15:56:18.000Z</time>
      </trkpt>
      <trkpt lat="45.23578" lon="6.47512">
        <ele>1187.6</ele>
        <time>2022-07-03T15:56:24.000Z</time>
      </trkpt>
      <trkpt lat="45.2357" lon="6.47521">
        <ele>1184.3</ele>
        <time>2022-07-03T15:56:30.000Z</time>
      </trkpt>
      <trkpt lat="45.23569" lon="6.47503">
        <ele>1181.5</ele>
        <time>2022-07-03T15:56:36.000Z</time>
      </trkpt>
      <trkpt lat="45.2357" lon="6.47489">
        <ele>1177.9</ele>
        <time>2022-07-03T15:56:42.000Z</time>
      </trkpt>
      <trkpt lat="45.23557" lon="6.47497">
        <ele>1174.8</ele>
        <time>2022-07-03T15:56:48.000Z</time>
      </trkpt>
      <trkpt lat="45.23557" lon="6.47478">
        <ele>1170.9</ele>
        <time>2022-07-03T15:56:58.000Z</time>
      </trkpt>
      <trkpt lat="45.23559" lon="6.4746">
        <ele>1166.8</ele>
        <time>2022-07-03T15:57:02.000Z</time>
      </trkpt>
      <trkpt lat="45.23552" lon="6.47469">
        <ele>1165.7</ele>
        <time>2022-07-03T15:57:08.000Z</time>
      </trkpt>
      <trkpt lat="45.23548" lon="6.47455">
        <ele>1160.3</ele>
        <time>2022-07-03T15:57:18.000Z</time>
      </trkpt>
      <trkpt lat="45.2354" lon="6.47466">
        <ele>1157.6</ele>
        <time>2022-07-03T15:57:26.000Z</time>
      </trkpt>
      <trkpt lat="45.23531" lon="6.4746">
        <ele>1151.6</ele>
        <time>2022-07-03T15:57:38.000Z</time>
      </trkpt>
      <trkpt lat="45.23528" lon="6.47446">
        <ele>1148</ele>
        <time>2022-07-03T15:57:44.000Z</time>
      </trkpt>
      <trkpt lat="45.2352" lon="6.47424">
        <ele>1143.3</ele>
        <time>2022-07-03T15:57:48.000Z</time>
      </trkpt>
      <trkpt lat="45.23515" lon="6.47412">
        <ele>1137.8</ele>
        <time>2022-07-03T15:57:54.000Z</time>
      </trkpt>
      <trkpt lat="45.23507" lon="6.47408">
        <ele>1133.3</ele>
        <time>2022-07-03T15:58:12.000Z</time>
      </trkpt>
      <trkpt lat="45.23499" lon="6.47395">
        <ele>1126.9</ele>
        <time>2022-07-03T15:58:22.000Z</time>
      </trkpt>
      <trkpt lat="45.23492" lon="6.4738">
        <ele>1122.2</ele>
        <time>2022-07-03T15:58:36.000Z</time>
      </trkpt>
      <trkpt lat="45.23484" lon="6.47372">
        <ele>1118.4</ele>
        <time>2022-07-03T15:58:44.000Z</time>
      </trkpt>
      <trkpt lat="45.23476" lon="6.47365">
        <ele>1115.9</ele>
        <time>2022-07-03T15:59:04.000Z</time>
      </trkpt>
      <trkpt lat="45.23467" lon="6.47357">
        <ele>1112.6</ele>
        <time>2022-07-03T15:59:10.000Z</time>
      </trkpt>
      <trkpt lat="45.23461" lon="6.47345">
        <ele>1106.8</ele>
        <time>2022-07-03T15:59:18.000Z</time>
      </trkpt>
      <trkpt lat="45.23454" lon="6.47332">
        <ele>1102.1</ele>
        <time>2022-07-03T15:59:28.000Z</time>
      </trkpt>
      <trkpt lat="45.23447" lon="6.47321">
        <ele>1098.6</ele>
        <time>2022-07-03T15:59:36.000Z</time>
      </trkpt>
      <trkpt lat="45.23442" lon="6.47333">
        <ele>1098.3</ele>
        <time>2022-07-03T15:59:40.000Z</time>
      </trkpt>
      <trkpt lat="45.23439" lon="6.47314">
        <ele>1095.8</ele>
        <time>2022-07-03T15:59:50.000Z</time>
      </trkpt>
      <trkpt lat="45.23429" lon="6.47303">
        <ele>1091.5</ele>
        <time>2022-07-03T15:59:56.000Z</time>
      </trkpt>
      <trkpt lat="45.23418" lon="6.47291">
        <ele>1088.3</ele>
        <time>2022-07-03T16:00:00.000Z</time>
      </trkpt>
      <trkpt lat="45.2341" lon="6.47281">
        <ele>1085.9</ele>
        <time>2022-07-03T16:00:04.000Z</time>
      </trkpt>
      <trkpt lat="45.23403" lon="6.4727">
        <ele>1081.5</ele>
        <time>2022-07-03T16:00:14.000Z</time>
      </trkpt>
      <trkpt lat="45.23406" lon="6.47254">
        <ele>1078.8</ele>
        <time>2022-07-03T16:00:22.000Z</time>
      </trkpt>
      <trkpt lat="45.23396" lon="6.47254">
        <ele>1076.4</ele>
        <time>2022-07-03T16:00:28.000Z</time>
      </trkpt>
      <trkpt lat="45.23387" lon="6.47245">
        <ele>1072</ele>
        <time>2022-07-03T16:00:40.000Z</time>
      </trkpt>
      <trkpt lat="45.2338" lon="6.47252">
        <ele>1071</ele>
        <time>2022-07-03T16:00:46.000Z</time>
      </trkpt>
      <trkpt lat="45.23386" lon="6.47237">
        <ele>1068.4</ele>
        <time>2022-07-03T16:00:50.000Z</time>
      </trkpt>
      <trkpt lat="45.23376" lon="6.47238">
        <ele>1066</ele>
        <time>2022-07-03T16:00:56.000Z</time>
      </trkpt>
      <trkpt lat="45.23361" lon="6.47236">
        <ele>1062.1</ele>
        <time>2022-07-03T16:01:00.000Z</time>
      </trkpt>
      <trkpt lat="45.23352" lon="6.47233">
        <ele>1059.5</ele>
        <time>2022-07-03T16:01:04.000Z</time>
      </trkpt>
      <trkpt lat="45.23362" lon="6.47218">
        <ele>1057.3</ele>
        <time>2022-07-03T16:01:10.000Z</time>
      </trkpt>
      <trkpt lat="45.23366" lon="6.47203">
        <ele>1054.3</ele>
        <time>2022-07-03T16:01:14.000Z</time>
      </trkpt>
      <trkpt lat="45.23365" lon="6.47189">
        <ele>1050.9</ele>
        <time>2022-07-03T16:01:18.000Z</time>
      </trkpt>
      <trkpt lat="45.23367" lon="6.47172">
        <ele>1048</ele>
        <time>2022-07-03T16:01:22.000Z</time>
      </trkpt>
      <trkpt lat="45.23358" lon="6.47158">
        <ele>1044.8</ele>
        <time>2022-07-03T16:01:26.000Z</time>
      </trkpt>
      <trkpt lat="45.23347" lon="6.47149">
        <ele>1041.7</ele>
        <time>2022-07-03T16:01:30.000Z</time>
      </trkpt>
      <trkpt lat="45.23351" lon="6.47136">
        <ele>1038.8</ele>
        <time>2022-07-03T16:01:34.000Z</time>
      </trkpt>
      <trkpt lat="45.23364" lon="6.47133">
        <ele>1036.7</ele>
        <time>2022-07-03T16:01:38.000Z</time>
      </trkpt>
      <trkpt lat="45.23351" lon="6.47115">
        <ele>1031.7</ele>
        <time>2022-07-03T16:01:44.000Z</time>
      </trkpt>
      <trkpt lat="45.23341" lon="6.47111">
        <ele>1030.2</ele>
        <time>2022-07-03T16:01:46.000Z</time>
      </trkpt>
      <trkpt lat="45.23332" lon="6.47111">
        <ele>1029.8</ele>
        <time>2022-07-03T16:01:48.000Z</time>
      </trkpt>
      <trkpt lat="45.23344" lon="6.47099">
        <ele>1025.7</ele>
        <time>2022-07-03T16:01:56.000Z</time>
      </trkpt>
      <trkpt lat="45.23363" lon="6.471">
        <ele>1024.4</ele>
        <time>2022-07-03T16:02:02.000Z</time>
      </trkpt>
      <trkpt lat="45.23373" lon="6.47097">
        <ele>1022.7</ele>
        <time>2022-07-03T16:02:04.000Z</time>
      </trkpt>
      <trkpt lat="45.23362" lon="6.47079">
        <ele>1017.4</ele>
        <time>2022-07-03T16:02:12.000Z</time>
      </trkpt>
      <trkpt lat="45.23349" lon="6.4707">
        <ele>1014.6</ele>
        <time>2022-07-03T16:02:14.000Z</time>
      </trkpt>
      <trkpt lat="45.23337" lon="6.47061">
        <ele>1011.4</ele>
        <time>2022-07-03T16:02:16.000Z</time>
      </trkpt>
      <trkpt lat="45.23327" lon="6.47056">
        <ele>1008</ele>
        <time>2022-07-03T16:02:18.000Z</time>
      </trkpt>
      <trkpt lat="45.23341" lon="6.4705">
        <ele>1005.6</ele>
        <time>2022-07-03T16:02:26.000Z</time>
      </trkpt>
      <trkpt lat="45.23353" lon="6.47046">
        <ele>1004.9</ele>
        <time>2022-07-03T16:02:28.000Z</time>
      </trkpt>
      <trkpt lat="45.2336" lon="6.47038">
        <ele>1003.3</ele>
        <time>2022-07-03T16:02:30.000Z</time>
      </trkpt>
      <trkpt lat="45.23366" lon="6.47027">
        <ele>1001.2</ele>
        <time>2022-07-03T16:02:32.000Z</time>
      </trkpt>
      <trkpt lat="45.23376" lon="6.47014">
        <ele>998.6</ele>
        <time>2022-07-03T16:02:34.000Z</time>
      </trkpt>
      <trkpt lat="45.23392" lon="6.47">
        <ele>995.9</ele>
        <time>2022-07-03T16:02:38.000Z</time>
      </trkpt>
      <trkpt lat="45.23377" lon="6.46992">
        <ele>991.4</ele>
        <time>2022-07-03T16:02:46.000Z</time>
      </trkpt>
      <trkpt lat="45.23368" lon="6.46991">
        <ele>989.2</ele>
        <time>2022-07-03T16:02:48.000Z</time>
      </trkpt>
      <trkpt lat="45.23357" lon="6.46993">
        <ele>987.5</ele>
        <time>2022-07-03T16:02:50.000Z</time>
      </trkpt>
      <trkpt lat="45.23344" lon="6.46994">
        <ele>986.1</ele>
        <time>2022-07-03T16:02:52.000Z</time>
      </trkpt>
      <trkpt lat="45.23328" lon="6.46989">
        <ele>983</ele>
        <time>2022-07-03T16:02:56.000Z</time>
      </trkpt>
      <trkpt lat="45.23316" lon="6.46989">
        <ele>981.4</ele>
        <time>2022-07-03T16:03:00.000Z</time>
      </trkpt>
      <trkpt lat="45.23319" lon="6.46967">
        <ele>975.5</ele>
        <time>2022-07-03T16:03:06.000Z</time>
      </trkpt>
      <trkpt lat="45.23334" lon="6.46956">
        <ele>973</ele>
        <time>2022-07-03T16:03:10.000Z</time>
      </trkpt>
      <trkpt lat="45.23347" lon="6.4695">
        <ele>971.6</ele>
        <time>2022-07-03T16:03:12.000Z</time>
      </trkpt>
      <trkpt lat="45.23359" lon="6.46943">
        <ele>969.7</ele>
        <time>2022-07-03T16:03:14.000Z</time>
      </trkpt>
      <trkpt lat="45.23357" lon="6.46924">
        <ele>966.6</ele>
        <time>2022-07-03T16:03:28.000Z</time>
      </trkpt>
      <trkpt lat="45.2335" lon="6.46912">
        <ele>963.7</ele>
        <time>2022-07-03T16:03:32.000Z</time>
      </trkpt>
      <trkpt lat="45.23339" lon="6.46907">
        <ele>961.5</ele>
        <time>2022-07-03T16:03:36.000Z</time>
      </trkpt>
      <trkpt lat="45.23328" lon="6.46897">
        <ele>959.9</ele>
        <time>2022-07-03T16:03:40.000Z</time>
      </trkpt>
      <trkpt lat="45.23319" lon="6.46891">
        <ele>956.9</ele>
        <time>2022-07-03T16:03:44.000Z</time>
      </trkpt>
      <trkpt lat="45.23314" lon="6.46877">
        <ele>954.6</ele>
        <time>2022-07-03T16:03:48.000Z</time>
      </trkpt>
      <trkpt lat="45.23309" lon="6.4689">
        <ele>952.4</ele>
        <time>2022-07-03T16:03:56.000Z</time>
      </trkpt>
      <trkpt lat="45.23312" lon="6.46902">
        <ele>953.3</ele>
        <time>2022-07-03T16:04:02.000Z</time>
      </trkpt>
      <trkpt lat="45.23303" lon="6.46891">
        <ele>950.3</ele>
        <time>2022-07-03T16:04:10.000Z</time>
      </trkpt>
      <trkpt lat="45.23298" lon="6.46878">
        <ele>947.9</ele>
        <time>2022-07-03T16:04:16.000Z</time>
      </trkpt>
      <trkpt lat="45.2329" lon="6.4687">
        <ele>943.8</ele>
        <time>2022-07-03T16:04:40.000Z</time>
      </trkpt>
      <trkpt lat="45.23284" lon="6.4686">
        <ele>940</ele>
        <time>2022-07-03T16:05:02.000Z</time>
      </trkpt>
      <trkpt lat="45.23283" lon="6.46846">
        <ele>939.9</ele>
        <time>2022-07-03T16:05:24.000Z</time>
      </trkpt>
      <trkpt lat="45.23276" lon="6.46832">
        <ele>937.7</ele>
        <time>2022-07-03T16:05:56.000Z</time>
      </trkpt>
      <trkpt lat="45.23266" lon="6.4682">
        <ele>935.2</ele>
        <time>2022-07-03T16:06:00.000Z</time>
      </trkpt>
      <trkpt lat="45.23258" lon="6.46809">
        <ele>933.7</ele>
        <time>2022-07-03T16:06:04.000Z</time>
      </trkpt>
      <trkpt lat="45.23254" lon="6.46795">
        <ele>933.4</ele>
        <time>2022-07-03T16:06:16.000Z</time>
      </trkpt>
      <trkpt lat="45.23246" lon="6.46801">
        <ele>928.7</ele>
        <time>2022-07-03T16:06:36.000Z</time>
      </trkpt>
      <trkpt lat="45.2324" lon="6.46791">
        <ele>926.1</ele>
        <time>2022-07-03T16:06:46.000Z</time>
      </trkpt>
      <trkpt lat="45.23231" lon="6.46798">
        <ele>920.6</ele>
        <time>2022-07-03T16:06:58.000Z</time>
      </trkpt>
      <trkpt lat="45.23228" lon="6.46785">
        <ele>919.6</ele>
        <time>2022-07-03T16:07:04.000Z</time>
      </trkpt>
      <trkpt lat="45.23218" lon="6.46782">
        <ele>915.1</ele>
        <time>2022-07-03T16:07:10.000Z</time>
      </trkpt>
      <trkpt lat="45.23211" lon="6.46792">
        <ele>911.7</ele>
        <time>2022-07-03T16:07:16.000Z</time>
      </trkpt>
      <trkpt lat="45.23202" lon="6.46783">
        <ele>909</ele>
        <time>2022-07-03T16:07:22.000Z</time>
      </trkpt>
      <trkpt lat="45.23194" lon="6.46778">
        <ele>907</ele>
        <time>2022-07-03T16:07:32.000Z</time>
      </trkpt>
      <trkpt lat="45.23182" lon="6.4677">
        <ele>904</ele>
        <time>2022-07-03T16:07:38.000Z</time>
      </trkpt>
      <trkpt lat="45.23172" lon="6.46772">
        <ele>899.9</ele>
        <time>2022-07-03T16:07:42.000Z</time>
      </trkpt>
      <trkpt lat="45.23157" lon="6.46757">
        <ele>897</ele>
        <time>2022-07-03T16:07:52.000Z</time>
      </trkpt>
      <trkpt lat="45.23148" lon="6.46743">
        <ele>894.4</ele>
        <time>2022-07-03T16:07:56.000Z</time>
      </trkpt>
      <trkpt lat="45.23148" lon="6.46758">
        <ele>892.6</ele>
        <time>2022-07-03T16:08:02.000Z</time>
      </trkpt>
      <trkpt lat="45.23136" lon="6.46749">
        <ele>889</ele>
        <time>2022-07-03T16:08:12.000Z</time>
      </trkpt>
      <trkpt lat="45.23126" lon="6.46724">
        <ele>887.6</ele>
        <time>2022-07-03T16:08:16.000Z</time>
      </trkpt>
      <trkpt lat="45.23115" lon="6.4671">
        <ele>884.3</ele>
        <time>2022-07-03T16:08:20.000Z</time>
      </trkpt>
      <trkpt lat="45.23107" lon="6.46697">
        <ele>881.8</ele>
        <time>2022-07-03T16:08:26.000Z</time>
      </trkpt>
      <trkpt lat="45.23101" lon="6.46705">
        <ele>880.2</ele>
        <time>2022-07-03T16:08:42.000Z</time>
      </trkpt>
      <trkpt lat="45.23091" lon="6.4669">
        <ele>876.6</ele>
        <time>2022-07-03T16:08:48.000Z</time>
      </trkpt>
      <trkpt lat="45.23098" lon="6.4668">
        <ele>878.8</ele>
        <time>2022-07-03T16:12:57.000Z</time>
      </trkpt>
      <trkpt lat="45.23091" lon="6.46689">
        <ele>876.1</ele>
        <time>2022-07-03T16:13:19.000Z</time>
      </trkpt>
      <trkpt lat="45.23087" lon="6.46703">
        <ele>876.5</ele>
        <time>2022-07-03T16:13:33.000Z</time>
      </trkpt>
      <trkpt lat="45.23089" lon="6.46689">
        <ele>874.9</ele>
        <time>2022-07-03T16:13:43.000Z</time>
      </trkpt>
      <trkpt lat="45.23084" lon="6.46701">
        <ele>875.5</ele>
        <time>2022-07-03T16:13:49.000Z</time>
      </trkpt>
      <trkpt lat="45.23074" lon="6.46708">
        <ele>876.4</ele>
        <time>2022-07-03T16:13:55.000Z</time>
      </trkpt>
      <trkpt lat="45.23065" lon="6.46712">
        <ele>876.3</ele>
        <time>2022-07-03T16:14:01.000Z</time>
      </trkpt>
      <trkpt lat="45.23055" lon="6.46715">
        <ele>875.5</ele>
        <time>2022-07-03T16:14:07.000Z</time>
      </trkpt>
      <trkpt lat="45.23047" lon="6.46721">
        <ele>876.3</ele>
        <time>2022-07-03T16:14:13.000Z</time>
      </trkpt>
      <trkpt lat="45.23036" lon="6.4673">
        <ele>878.2</ele>
        <time>2022-07-03T16:14:21.000Z</time>
      </trkpt>
      <trkpt lat="45.23025" lon="6.46739">
        <ele>879.6</ele>
        <time>2022-07-03T16:14:27.000Z</time>
      </trkpt>
      <trkpt lat="45.23014" lon="6.46746">
        <ele>880.3</ele>
        <time>2022-07-03T16:14:33.000Z</time>
      </trkpt>
      <trkpt lat="45.23005" lon="6.46747">
        <ele>880.3</ele>
        <time>2022-07-03T16:14:39.000Z</time>
      </trkpt>
      <trkpt lat="45.22994" lon="6.46747">
        <ele>879.4</ele>
        <time>2022-07-03T16:14:47.000Z</time>
      </trkpt>
      <trkpt lat="45.22983" lon="6.46748">
        <ele>879</ele>
        <time>2022-07-03T16:14:53.000Z</time>
      </trkpt>
      <trkpt lat="45.22972" lon="6.46749">
        <ele>878.7</ele>
        <time>2022-07-03T16:14:59.000Z</time>
      </trkpt>
      <trkpt lat="45.22958" lon="6.46747">
        <ele>877.5</ele>
        <time>2022-07-03T16:15:05.000Z</time>
      </trkpt>
      <trkpt lat="45.22947" lon="6.46745">
        <ele>876.1</ele>
        <time>2022-07-03T16:15:07.000Z</time>
      </trkpt>
      <trkpt lat="45.22934" lon="6.46741">
        <ele>874.7</ele>
        <time>2022-07-03T16:15:09.000Z</time>
      </trkpt>
      <trkpt lat="45.22921" lon="6.46739">
        <ele>874.7</ele>
        <time>2022-07-03T16:15:11.000Z</time>
      </trkpt>
      <trkpt lat="45.2291" lon="6.46737">
        <ele>874.9</ele>
        <time>2022-07-03T16:15:13.000Z</time>
      </trkpt>
      <trkpt lat="45.22897" lon="6.46739">
        <ele>875.5</ele>
        <time>2022-07-03T16:15:15.000Z</time>
      </trkpt>
      <trkpt lat="45.22887" lon="6.46739">
        <ele>875.8</ele>
        <time>2022-07-03T16:15:17.000Z</time>
      </trkpt>
      <trkpt lat="45.22877" lon="6.46742">
        <ele>875.9</ele>
        <time>2022-07-03T16:15:19.000Z</time>
      </trkpt>
      <trkpt lat="45.22868" lon="6.46744">
        <ele>876</ele>
        <time>2022-07-03T16:15:21.000Z</time>
      </trkpt>
      <trkpt lat="45.22853" lon="6.46748">
        <ele>876</ele>
        <time>2022-07-03T16:15:25.000Z</time>
      </trkpt>
      <trkpt lat="45.22844" lon="6.46754">
        <ele>877.5</ele>
        <time>2022-07-03T16:15:29.000Z</time>
      </trkpt>
      <trkpt lat="45.22832" lon="6.46756">
        <ele>877.7</ele>
        <time>2022-07-03T16:15:35.000Z</time>
      </trkpt>
      <trkpt lat="45.22822" lon="6.46761">
        <ele>879.1</ele>
        <time>2022-07-03T16:15:39.000Z</time>
      </trkpt>
      <trkpt lat="45.2281" lon="6.46766">
        <ele>881.2</ele>
        <time>2022-07-03T16:15:45.000Z</time>
      </trkpt>
      <trkpt lat="45.22799" lon="6.46771">
        <ele>882.2</ele>
        <time>2022-07-03T16:15:51.000Z</time>
      </trkpt>
      <trkpt lat="45.22787" lon="6.46773">
        <ele>881</ele>
        <time>2022-07-03T16:15:57.000Z</time>
      </trkpt>
      <trkpt lat="45.22778" lon="6.4678">
        <ele>880.7</ele>
        <time>2022-07-03T16:16:02.000Z</time>
      </trkpt>
      <trkpt lat="45.22766" lon="6.46788">
        <ele>880.8</ele>
        <time>2022-07-03T16:16:09.000Z</time>
      </trkpt>
      <trkpt lat="45.22748" lon="6.4679">
        <ele>878.7</ele>
        <time>2022-07-03T16:16:13.000Z</time>
      </trkpt>
      <trkpt lat="45.22737" lon="6.46789">
        <ele>877.7</ele>
        <time>2022-07-03T16:16:15.000Z</time>
      </trkpt>
      <trkpt lat="45.22725" lon="6.46788">
        <ele>876.7</ele>
        <time>2022-07-03T16:16:17.000Z</time>
      </trkpt>
      <trkpt lat="45.22714" lon="6.46788">
        <ele>876.3</ele>
        <time>2022-07-03T16:16:19.000Z</time>
      </trkpt>
      <trkpt lat="45.22702" lon="6.46788">
        <ele>876.2</ele>
        <time>2022-07-03T16:16:21.000Z</time>
      </trkpt>
      <trkpt lat="45.22688" lon="6.46788">
        <ele>876</ele>
        <time>2022-07-03T16:16:23.000Z</time>
      </trkpt>
      <trkpt lat="45.22675" lon="6.46792">
        <ele>876</ele>
        <time>2022-07-03T16:16:25.000Z</time>
      </trkpt>
      <trkpt lat="45.22662" lon="6.46799">
        <ele>876.4</ele>
        <time>2022-07-03T16:16:27.000Z</time>
      </trkpt>
      <trkpt lat="45.22649" lon="6.46804">
        <ele>875.8</ele>
        <time>2022-07-03T16:16:29.000Z</time>
      </trkpt>
      <trkpt lat="45.22636" lon="6.46809">
        <ele>874.9</ele>
        <time>2022-07-03T16:16:31.000Z</time>
      </trkpt>
      <trkpt lat="45.22623" lon="6.46815">
        <ele>874.2</ele>
        <time>2022-07-03T16:16:33.000Z</time>
      </trkpt>
      <trkpt lat="45.22609" lon="6.4682">
        <ele>873.3</ele>
        <time>2022-07-03T16:16:35.000Z</time>
      </trkpt>
      <trkpt lat="45.22597" lon="6.46824">
        <ele>873</ele>
        <time>2022-07-03T16:16:37.000Z</time>
      </trkpt>
      <trkpt lat="45.22587" lon="6.46833">
        <ele>873.9</ele>
        <time>2022-07-03T16:16:39.000Z</time>
      </trkpt>
      <trkpt lat="45.22577" lon="6.4684">
        <ele>874.3</ele>
        <time>2022-07-03T16:16:41.000Z</time>
      </trkpt>
      <trkpt lat="45.22569" lon="6.46853">
        <ele>874.9</ele>
        <time>2022-07-03T16:16:43.000Z</time>
      </trkpt>
      <trkpt lat="45.22562" lon="6.4687">
        <ele>876.1</ele>
        <time>2022-07-03T16:16:47.000Z</time>
      </trkpt>
      <trkpt lat="45.22559" lon="6.46883">
        <ele>877.1</ele>
        <time>2022-07-03T16:16:53.000Z</time>
      </trkpt>
      <trkpt lat="45.22555" lon="6.469">
        <ele>880.1</ele>
        <time>2022-07-03T16:16:59.000Z</time>
      </trkpt>
      <trkpt lat="45.22552" lon="6.46914">
        <ele>883.2</ele>
        <time>2022-07-03T16:17:05.000Z</time>
      </trkpt>
      <trkpt lat="45.22546" lon="6.46924">
        <ele>882.7</ele>
        <time>2022-07-03T16:17:11.000Z</time>
      </trkpt>
      <trkpt lat="45.22539" lon="6.46936">
        <ele>881.7</ele>
        <time>2022-07-03T16:17:17.000Z</time>
      </trkpt>
      <trkpt lat="45.22532" lon="6.4695">
        <ele>882.4</ele>
        <time>2022-07-03T16:17:23.000Z</time>
      </trkpt>
      <trkpt lat="45.22527" lon="6.46962">
        <ele>884</ele>
        <time>2022-07-03T16:17:29.000Z</time>
      </trkpt>
      <trkpt lat="45.22518" lon="6.46973">
        <ele>883.8</ele>
        <time>2022-07-03T16:17:37.000Z</time>
      </trkpt>
      <trkpt lat="45.22509" lon="6.46978">
        <ele>881.8</ele>
        <time>2022-07-03T16:17:45.000Z</time>
      </trkpt>
      <trkpt lat="45.22501" lon="6.46987">
        <ele>882.2</ele>
        <time>2022-07-03T16:17:53.000Z</time>
      </trkpt>
      <trkpt lat="45.22492" lon="6.46999">
        <ele>884.1</ele>
        <time>2022-07-03T16:18:01.000Z</time>
      </trkpt>
      <trkpt lat="45.22485" lon="6.47007">
        <ele>884.5</ele>
        <time>2022-07-03T16:18:07.000Z</time>
      </trkpt>
      <trkpt lat="45.22476" lon="6.47015">
        <ele>884</ele>
        <time>2022-07-03T16:18:17.000Z</time>
      </trkpt>
      <trkpt lat="45.22468" lon="6.47025">
        <ele>885.2</ele>
        <time>2022-07-03T16:18:23.000Z</time>
      </trkpt>
      <trkpt lat="45.22459" lon="6.47033">
        <ele>886.5</ele>
        <time>2022-07-03T16:18:29.000Z</time>
      </trkpt>
      <trkpt lat="45.22449" lon="6.47039">
        <ele>886.8</ele>
        <time>2022-07-03T16:18:37.000Z</time>
      </trkpt>
      <trkpt lat="45.22439" lon="6.47046">
        <ele>887.5</ele>
        <time>2022-07-03T16:18:45.000Z</time>
      </trkpt>
      <trkpt lat="45.2243" lon="6.47056">
        <ele>890.2</ele>
        <time>2022-07-03T16:18:53.000Z</time>
      </trkpt>
      <trkpt lat="45.22424" lon="6.47066">
        <ele>892.2</ele>
        <time>2022-07-03T16:19:01.000Z</time>
      </trkpt>
      <trkpt lat="45.22417" lon="6.47075">
        <ele>893.5</ele>
        <time>2022-07-03T16:19:07.000Z</time>
      </trkpt>
      <trkpt lat="45.22412" lon="6.47086">
        <ele>894.9</ele>
        <time>2022-07-03T16:19:13.000Z</time>
      </trkpt>
      <trkpt lat="45.22405" lon="6.47096">
        <ele>895.3</ele>
        <time>2022-07-03T16:19:19.000Z</time>
      </trkpt>
      <trkpt lat="45.22399" lon="6.47105">
        <ele>895.6</ele>
        <time>2022-07-03T16:19:25.000Z</time>
      </trkpt>
      <trkpt lat="45.22393" lon="6.47117">
        <ele>896.1</ele>
        <time>2022-07-03T16:19:31.000Z</time>
      </trkpt>
      <trkpt lat="45.22388" lon="6.47128">
        <ele>896.3</ele>
        <time>2022-07-03T16:19:37.000Z</time>
      </trkpt>
      <trkpt lat="45.22382" lon="6.47141">
        <ele>895.5</ele>
        <time>2022-07-03T16:19:43.000Z</time>
      </trkpt>
      <trkpt lat="45.22375" lon="6.47154">
        <ele>895.2</ele>
        <time>2022-07-03T16:19:51.000Z</time>
      </trkpt>
      <trkpt lat="45.22367" lon="6.47165">
        <ele>895</ele>
        <time>2022-07-03T16:19:59.000Z</time>
      </trkpt>
      <trkpt lat="45.22362" lon="6.47176">
        <ele>896.1</ele>
        <time>2022-07-03T16:20:05.000Z</time>
      </trkpt>
      <trkpt lat="45.22355" lon="6.47189">
        <ele>896.3</ele>
        <time>2022-07-03T16:20:13.000Z</time>
      </trkpt>
      <trkpt lat="45.22349" lon="6.47202">
        <ele>896.4</ele>
        <time>2022-07-03T16:20:19.000Z</time>
      </trkpt>
      <trkpt lat="45.22344" lon="6.47217">
        <ele>897.7</ele>
        <time>2022-07-03T16:20:27.000Z</time>
      </trkpt>
      <trkpt lat="45.22341" lon="6.47231">
        <ele>900.2</ele>
        <time>2022-07-03T16:20:35.000Z</time>
      </trkpt>
      <trkpt lat="45.22339" lon="6.47248">
        <ele>903.4</ele>
        <time>2022-07-03T16:20:43.000Z</time>
      </trkpt>
      <trkpt lat="45.22337" lon="6.47264">
        <ele>905</ele>
        <time>2022-07-03T16:20:51.000Z</time>
      </trkpt>
      <trkpt lat="45.22337" lon="6.4728">
        <ele>907.2</ele>
        <time>2022-07-03T16:20:59.000Z</time>
      </trkpt>
      <trkpt lat="45.22336" lon="6.47293">
        <ele>908.2</ele>
        <time>2022-07-03T16:21:05.000Z</time>
      </trkpt>
      <trkpt lat="45.22337" lon="6.47307">
        <ele>909.5</ele>
        <time>2022-07-03T16:21:11.000Z</time>
      </trkpt>
      <trkpt lat="45.22336" lon="6.47322">
        <ele>910.4</ele>
        <time>2022-07-03T16:21:19.000Z</time>
      </trkpt>
      <trkpt lat="45.22337" lon="6.4734">
        <ele>912</ele>
        <time>2022-07-03T16:21:27.000Z</time>
      </trkpt>
      <trkpt lat="45.22336" lon="6.47357">
        <ele>913.4</ele>
        <time>2022-07-03T16:21:35.000Z</time>
      </trkpt>
      <trkpt lat="45.22332" lon="6.47369">
        <ele>913.1</ele>
        <time>2022-07-03T16:21:43.000Z</time>
      </trkpt>
      <trkpt lat="45.22329" lon="6.47383">
        <ele>912.9</ele>
        <time>2022-07-03T16:21:49.000Z</time>
      </trkpt>
      <trkpt lat="45.22331" lon="6.47399">
        <ele>914.8</ele>
        <time>2022-07-03T16:21:57.000Z</time>
      </trkpt>
      <trkpt lat="45.2233" lon="6.47412">
        <ele>915.5</ele>
        <time>2022-07-03T16:22:03.000Z</time>
      </trkpt>
      <trkpt lat="45.22329" lon="6.47425">
        <ele>916.1</ele>
        <time>2022-07-03T16:22:09.000Z</time>
      </trkpt>
      <trkpt lat="45.22332" lon="6.47437">
        <ele>917.9</ele>
        <time>2022-07-03T16:22:15.000Z</time>
      </trkpt>
      <trkpt lat="45.22332" lon="6.47452">
        <ele>918.6</ele>
        <time>2022-07-03T16:22:21.000Z</time>
      </trkpt>
      <trkpt lat="45.2233" lon="6.47466">
        <ele>918.6</ele>
        <time>2022-07-03T16:22:29.000Z</time>
      </trkpt>
      <trkpt lat="45.22331" lon="6.47481">
        <ele>919.5</ele>
        <time>2022-07-03T16:22:37.000Z</time>
      </trkpt>
      <trkpt lat="45.22332" lon="6.47494">
        <ele>920.8</ele>
        <time>2022-07-03T16:22:43.000Z</time>
      </trkpt>
      <trkpt lat="45.22334" lon="6.47508">
        <ele>922</ele>
        <time>2022-07-03T16:22:49.000Z</time>
      </trkpt>
      <trkpt lat="45.22336" lon="6.47522">
        <ele>922.6</ele>
        <time>2022-07-03T16:22:55.000Z</time>
      </trkpt>
      <trkpt lat="45.22337" lon="6.47535">
        <ele>922.6</ele>
        <time>2022-07-03T16:23:01.000Z</time>
      </trkpt>
      <trkpt lat="45.22341" lon="6.4755">
        <ele>922.5</ele>
        <time>2022-07-03T16:23:07.000Z</time>
      </trkpt>
      <trkpt lat="45.22344" lon="6.47565">
        <ele>921.7</ele>
        <time>2022-07-03T16:23:15.000Z</time>
      </trkpt>
      <trkpt lat="45.22347" lon="6.47578">
        <ele>920.7</ele>
        <time>2022-07-03T16:23:21.000Z</time>
      </trkpt>
      <trkpt lat="45.22354" lon="6.47589">
        <ele>921.5</ele>
        <time>2022-07-03T16:23:27.000Z</time>
      </trkpt>
      <trkpt lat="45.22363" lon="6.476">
        <ele>924.1</ele>
        <time>2022-07-03T16:23:33.000Z</time>
      </trkpt>
      <trkpt lat="45.2237" lon="6.47613">
        <ele>926.8</ele>
        <time>2022-07-03T16:23:41.000Z</time>
      </trkpt>
      <trkpt lat="45.22371" lon="6.47626">
        <ele>928.7</ele>
        <time>2022-07-03T16:23:47.000Z</time>
      </trkpt>
      <trkpt lat="45.22368" lon="6.47643">
        <ele>928.9</ele>
        <time>2022-07-03T16:23:55.000Z</time>
      </trkpt>
      <trkpt lat="45.22368" lon="6.47658">
        <ele>931.8</ele>
        <time>2022-07-03T16:24:01.000Z</time>
      </trkpt>
      <trkpt lat="45.22368" lon="6.47671">
        <ele>933.4</ele>
        <time>2022-07-03T16:24:07.000Z</time>
      </trkpt>
      <trkpt lat="45.22368" lon="6.47689">
        <ele>936.1</ele>
        <time>2022-07-03T16:24:15.000Z</time>
      </trkpt>
      <trkpt lat="45.22365" lon="6.47703">
        <ele>936.1</ele>
        <time>2022-07-03T16:24:21.000Z</time>
      </trkpt>
      <trkpt lat="45.22362" lon="6.47719">
        <ele>936.4</ele>
        <time>2022-07-03T16:24:29.000Z</time>
      </trkpt>
      <trkpt lat="45.22358" lon="6.47732">
        <ele>936.3</ele>
        <time>2022-07-03T16:24:35.000Z</time>
      </trkpt>
      <trkpt lat="45.22353" lon="6.47744">
        <ele>936.3</ele>
        <time>2022-07-03T16:24:41.000Z</time>
      </trkpt>
      <trkpt lat="45.22348" lon="6.47756">
        <ele>935.7</ele>
        <time>2022-07-03T16:24:47.000Z</time>
      </trkpt>
      <trkpt lat="45.22343" lon="6.47768">
        <ele>935.8</ele>
        <time>2022-07-03T16:24:55.000Z</time>
      </trkpt>
      <trkpt lat="45.2234" lon="6.47783">
        <ele>937.9</ele>
        <time>2022-07-03T16:25:03.000Z</time>
      </trkpt>
      <trkpt lat="45.22332" lon="6.47793">
        <ele>939</ele>
        <time>2022-07-03T16:25:11.000Z</time>
      </trkpt>
      <trkpt lat="45.22323" lon="6.47801">
        <ele>939.9</ele>
        <time>2022-07-03T16:25:17.000Z</time>
      </trkpt>
      <trkpt lat="45.22314" lon="6.47805">
        <ele>940</ele>
        <time>2022-07-03T16:25:23.000Z</time>
      </trkpt>
      <trkpt lat="45.22306" lon="6.47812">
        <ele>940.7</ele>
        <time>2022-07-03T16:25:29.000Z</time>
      </trkpt>
      <trkpt lat="45.22301" lon="6.47824">
        <ele>942.1</ele>
        <time>2022-07-03T16:25:37.000Z</time>
      </trkpt>
      <trkpt lat="45.22297" lon="6.47837">
        <ele>943.6</ele>
        <time>2022-07-03T16:25:43.000Z</time>
      </trkpt>
      <trkpt lat="45.22292" lon="6.47852">
        <ele>945.4</ele>
        <time>2022-07-03T16:25:49.000Z</time>
      </trkpt>
      <trkpt lat="45.22286" lon="6.47866">
        <ele>946.8</ele>
        <time>2022-07-03T16:25:55.000Z</time>
      </trkpt>
      <trkpt lat="45.22278" lon="6.47873">
        <ele>945.8</ele>
        <time>2022-07-03T16:26:03.000Z</time>
      </trkpt>
      <trkpt lat="45.22269" lon="6.47876">
        <ele>943.8</ele>
        <time>2022-07-03T16:27:36.000Z</time>
      </trkpt>
      <trkpt lat="45.22263" lon="6.47889">
        <ele>945.8</ele>
        <time>2022-07-03T16:28:06.000Z</time>
      </trkpt>
      <trkpt lat="45.22254" lon="6.47894">
        <ele>945.5</ele>
        <time>2022-07-03T16:28:14.000Z</time>
      </trkpt>
      <trkpt lat="45.22245" lon="6.479">
        <ele>945.4</ele>
        <time>2022-07-03T16:28:22.000Z</time>
      </trkpt>
      <trkpt lat="45.22236" lon="6.47905">
        <ele>945.9</ele>
        <time>2022-07-03T16:28:28.000Z</time>
      </trkpt>
      <trkpt lat="45.22229" lon="6.47913">
        <ele>947.5</ele>
        <time>2022-07-03T16:28:34.000Z</time>
      </trkpt>
      <trkpt lat="45.22221" lon="6.47921">
        <ele>948.9</ele>
        <time>2022-07-03T16:28:40.000Z</time>
      </trkpt>
      <trkpt lat="45.22214" lon="6.4793">
        <ele>949.9</ele>
        <time>2022-07-03T16:28:48.000Z</time>
      </trkpt>
      <trkpt lat="45.22207" lon="6.47941">
        <ele>950.9</ele>
        <time>2022-07-03T16:28:54.000Z</time>
      </trkpt>
      <trkpt lat="45.22203" lon="6.47953">
        <ele>951.8</ele>
        <time>2022-07-03T16:29:00.000Z</time>
      </trkpt>
      <trkpt lat="45.22203" lon="6.47968">
        <ele>952.9</ele>
        <time>2022-07-03T16:29:10.000Z</time>
      </trkpt>
      <trkpt lat="45.22204" lon="6.47981">
        <ele>954.6</ele>
        <time>2022-07-03T16:29:20.000Z</time>
      </trkpt>
      <trkpt lat="45.22201" lon="6.47995">
        <ele>954.9</ele>
        <time>2022-07-03T16:29:28.000Z</time>
      </trkpt>
      <trkpt lat="45.22197" lon="6.48008">
        <ele>955.3</ele>
        <time>2022-07-03T16:29:34.000Z</time>
      </trkpt>
      <trkpt lat="45.22192" lon="6.48022">
        <ele>956.6</ele>
        <time>2022-07-03T16:29:40.000Z</time>
      </trkpt>
      <trkpt lat="45.22189" lon="6.48035">
        <ele>958.1</ele>
        <time>2022-07-03T16:29:46.000Z</time>
      </trkpt>
      <trkpt lat="45.22185" lon="6.4805">
        <ele>960.2</ele>
        <time>2022-07-03T16:29:54.000Z</time>
      </trkpt>
      <trkpt lat="45.22183" lon="6.48066">
        <ele>962.9</ele>
        <time>2022-07-03T16:30:02.000Z</time>
      </trkpt>
      <trkpt lat="45.22175" lon="6.48078">
        <ele>963.3</ele>
        <time>2022-07-03T16:30:10.000Z</time>
      </trkpt>
      <trkpt lat="45.22166" lon="6.48084">
        <ele>963</ele>
        <time>2022-07-03T16:30:16.000Z</time>
      </trkpt>
      <trkpt lat="45.22157" lon="6.4809">
        <ele>963.3</ele>
        <time>2022-07-03T16:30:24.000Z</time>
      </trkpt>
      <trkpt lat="45.22148" lon="6.48095">
        <ele>963.8</ele>
        <time>2022-07-03T16:30:32.000Z</time>
      </trkpt>
      <trkpt lat="45.22138" lon="6.48101">
        <ele>964.7</ele>
        <time>2022-07-03T16:30:40.000Z</time>
      </trkpt>
      <trkpt lat="45.2213" lon="6.48106">
        <ele>965.6</ele>
        <time>2022-07-03T16:30:46.000Z</time>
      </trkpt>
      <trkpt lat="45.22121" lon="6.48112">
        <ele>966.5</ele>
        <time>2022-07-03T16:30:52.000Z</time>
      </trkpt>
      <trkpt lat="45.22115" lon="6.48125">
        <ele>968</ele>
        <time>2022-07-03T16:31:00.000Z</time>
      </trkpt>
      <trkpt lat="45.22111" lon="6.48137">
        <ele>969.4</ele>
        <time>2022-07-03T16:31:06.000Z</time>
      </trkpt>
      <trkpt lat="45.22106" lon="6.48148">
        <ele>972.5</ele>
        <time>2022-07-03T16:31:12.000Z</time>
      </trkpt>
      <trkpt lat="45.22097" lon="6.48158">
        <ele>974.7</ele>
        <time>2022-07-03T16:31:20.000Z</time>
      </trkpt>
      <trkpt lat="45.22087" lon="6.48164">
        <ele>974.5</ele>
        <time>2022-07-03T16:31:28.000Z</time>
      </trkpt>
      <trkpt lat="45.22077" lon="6.4817">
        <ele>973.8</ele>
        <time>2022-07-03T16:31:36.000Z</time>
      </trkpt>
      <trkpt lat="45.22067" lon="6.48178">
        <ele>974.7</ele>
        <time>2022-07-03T16:31:44.000Z</time>
      </trkpt>
      <trkpt lat="45.22059" lon="6.48184">
        <ele>975.2</ele>
        <time>2022-07-03T16:31:50.000Z</time>
      </trkpt>
      <trkpt lat="45.22051" lon="6.48192">
        <ele>975.6</ele>
        <time>2022-07-03T16:31:56.000Z</time>
      </trkpt>
      <trkpt lat="45.22043" lon="6.48198">
        <ele>976.6</ele>
        <time>2022-07-03T16:32:02.000Z</time>
      </trkpt>
      <trkpt lat="45.22035" lon="6.48207">
        <ele>977.7</ele>
        <time>2022-07-03T16:32:10.000Z</time>
      </trkpt>
      <trkpt lat="45.22027" lon="6.48219">
        <ele>978</ele>
        <time>2022-07-03T16:32:18.000Z</time>
      </trkpt>
      <trkpt lat="45.22022" lon="6.4823">
        <ele>979.7</ele>
        <time>2022-07-03T16:32:24.000Z</time>
      </trkpt>
      <trkpt lat="45.22017" lon="6.48242">
        <ele>982.9</ele>
        <time>2022-07-03T16:32:30.000Z</time>
      </trkpt>
      <trkpt lat="45.22012" lon="6.48257">
        <ele>985.1</ele>
        <time>2022-07-03T16:32:38.000Z</time>
      </trkpt>
      <trkpt lat="45.22006" lon="6.4827">
        <ele>984.5</ele>
        <time>2022-07-03T16:32:46.000Z</time>
      </trkpt>
      <trkpt lat="45.21999" lon="6.48279">
        <ele>983.4</ele>
        <time>2022-07-03T16:32:52.000Z</time>
      </trkpt>
      <trkpt lat="45.2199" lon="6.48287">
        <ele>984.6</ele>
        <time>2022-07-03T16:33:00.000Z</time>
      </trkpt>
      <trkpt lat="45.21982" lon="6.48292">
        <ele>984.6</ele>
        <time>2022-07-03T16:33:06.000Z</time>
      </trkpt>
      <trkpt lat="45.21974" lon="6.48302">
        <ele>985.4</ele>
        <time>2022-07-03T16:33:14.000Z</time>
      </trkpt>
      <trkpt lat="45.21964" lon="6.4831">
        <ele>986.2</ele>
        <time>2022-07-03T16:33:22.000Z</time>
      </trkpt>
      <trkpt lat="45.21955" lon="6.48318">
        <ele>986.9</ele>
        <time>2022-07-03T16:33:28.000Z</time>
      </trkpt>
      <trkpt lat="45.21945" lon="6.48324">
        <ele>987.2</ele>
        <time>2022-07-03T16:33:36.000Z</time>
      </trkpt>
      <trkpt lat="45.21936" lon="6.48328">
        <ele>987.8</ele>
        <time>2022-07-03T16:33:42.000Z</time>
      </trkpt>
      <trkpt lat="45.21926" lon="6.48333">
        <ele>988</ele>
        <time>2022-07-03T16:33:50.000Z</time>
      </trkpt>
      <trkpt lat="45.21918" lon="6.48339">
        <ele>989.9</ele>
        <time>2022-07-03T16:33:56.000Z</time>
      </trkpt>
      <trkpt lat="45.21909" lon="6.48346">
        <ele>991.7</ele>
        <time>2022-07-03T16:34:02.000Z</time>
      </trkpt>
      <trkpt lat="45.21901" lon="6.48354">
        <ele>993</ele>
        <time>2022-07-03T16:34:08.000Z</time>
      </trkpt>
      <trkpt lat="45.21893" lon="6.48363">
        <ele>993.5</ele>
        <time>2022-07-03T16:34:14.000Z</time>
      </trkpt>
      <trkpt lat="45.21883" lon="6.48372">
        <ele>996.7</ele>
        <time>2022-07-03T16:34:22.000Z</time>
      </trkpt>
      <trkpt lat="45.21874" lon="6.48376">
        <ele>998.1</ele>
        <time>2022-07-03T16:34:28.000Z</time>
      </trkpt>
      <trkpt lat="45.21864" lon="6.48382">
        <ele>999.3</ele>
        <time>2022-07-03T16:34:36.000Z</time>
      </trkpt>
      <trkpt lat="45.21855" lon="6.48385">
        <ele>999.8</ele>
        <time>2022-07-03T16:34:44.000Z</time>
      </trkpt>
      <trkpt lat="45.21844" lon="6.48386">
        <ele>999.4</ele>
        <time>2022-07-03T16:34:52.000Z</time>
      </trkpt>
      <trkpt lat="45.21833" lon="6.48386">
        <ele>998.2</ele>
        <time>2022-07-03T16:35:00.000Z</time>
      </trkpt>
      <trkpt lat="45.21824" lon="6.4839">
        <ele>998.6</ele>
        <time>2022-07-03T16:36:39.000Z</time>
      </trkpt>
      <trkpt lat="45.21813" lon="6.48397">
        <ele>1000.8</ele>
        <time>2022-07-03T16:36:47.000Z</time>
      </trkpt>
      <trkpt lat="45.21805" lon="6.48404">
        <ele>1002.5</ele>
        <time>2022-07-03T16:36:53.000Z</time>
      </trkpt>
      <trkpt lat="45.21797" lon="6.48411">
        <ele>1003.1</ele>
        <time>2022-07-03T16:36:59.000Z</time>
      </trkpt>
      <trkpt lat="45.21789" lon="6.48416">
        <ele>1002.8</ele>
        <time>2022-07-03T16:37:07.000Z</time>
      </trkpt>
      <trkpt lat="45.21778" lon="6.48426">
        <ele>1004.8</ele>
        <time>2022-07-03T16:37:15.000Z</time>
      </trkpt>
      <trkpt lat="45.21768" lon="6.48433">
        <ele>1006.4</ele>
        <time>2022-07-03T16:37:23.000Z</time>
      </trkpt>
      <trkpt lat="45.2176" lon="6.48443">
        <ele>1008.1</ele>
        <time>2022-07-03T16:37:31.000Z</time>
      </trkpt>
      <trkpt lat="45.21751" lon="6.48453">
        <ele>1008.5</ele>
        <time>2022-07-03T16:37:39.000Z</time>
      </trkpt>
      <trkpt lat="45.21744" lon="6.48461">
        <ele>1009.4</ele>
        <time>2022-07-03T16:37:47.000Z</time>
      </trkpt>
      <trkpt lat="45.21736" lon="6.48468">
        <ele>1010.6</ele>
        <time>2022-07-03T16:37:55.000Z</time>
      </trkpt>
      <trkpt lat="45.21727" lon="6.48472">
        <ele>1010.7</ele>
        <time>2022-07-03T16:38:01.000Z</time>
      </trkpt>
      <trkpt lat="45.21718" lon="6.48479">
        <ele>1011.6</ele>
        <time>2022-07-03T16:38:07.000Z</time>
      </trkpt>
      <trkpt lat="45.2171" lon="6.48484">
        <ele>1012.6</ele>
        <time>2022-07-03T16:38:13.000Z</time>
      </trkpt>
      <trkpt lat="45.21702" lon="6.48495">
        <ele>1013.7</ele>
        <time>2022-07-03T16:38:19.000Z</time>
      </trkpt>
      <trkpt lat="45.21696" lon="6.48505">
        <ele>1014.5</ele>
        <time>2022-07-03T16:38:25.000Z</time>
      </trkpt>
      <trkpt lat="45.21687" lon="6.48514">
        <ele>1015.5</ele>
        <time>2022-07-03T16:38:33.000Z</time>
      </trkpt>
      <trkpt lat="45.2168" lon="6.48526">
        <ele>1016.9</ele>
        <time>2022-07-03T16:38:41.000Z</time>
      </trkpt>
      <trkpt lat="45.21673" lon="6.48538">
        <ele>1017.7</ele>
        <time>2022-07-03T16:38:49.000Z</time>
      </trkpt>
      <trkpt lat="45.21667" lon="6.48551">
        <ele>1017.1</ele>
        <time>2022-07-03T16:38:57.000Z</time>
      </trkpt>
      <trkpt lat="45.21662" lon="6.48564">
        <ele>1018.7</ele>
        <time>2022-07-03T16:39:05.000Z</time>
      </trkpt>
      <trkpt lat="45.21655" lon="6.48575">
        <ele>1019.9</ele>
        <time>2022-07-03T16:39:13.000Z</time>
      </trkpt>
      <trkpt lat="45.2165" lon="6.48588">
        <ele>1019.9</ele>
        <time>2022-07-03T16:39:19.000Z</time>
      </trkpt>
      <trkpt lat="45.21644" lon="6.48601">
        <ele>1019.9</ele>
        <time>2022-07-03T16:39:25.000Z</time>
      </trkpt>
      <trkpt lat="45.21639" lon="6.48613">
        <ele>1020.3</ele>
        <time>2022-07-03T16:39:31.000Z</time>
      </trkpt>
      <trkpt lat="45.21632" lon="6.48623">
        <ele>1022</ele>
        <time>2022-07-03T16:39:37.000Z</time>
      </trkpt>
      <trkpt lat="45.21626" lon="6.48633">
        <ele>1023.5</ele>
        <time>2022-07-03T16:39:43.000Z</time>
      </trkpt>
      <trkpt lat="45.21618" lon="6.48639">
        <ele>1023.8</ele>
        <time>2022-07-03T16:39:49.000Z</time>
      </trkpt>
      <trkpt lat="45.21606" lon="6.48644">
        <ele>1023.4</ele>
        <time>2022-07-03T16:39:57.000Z</time>
      </trkpt>
      <trkpt lat="45.21599" lon="6.48651">
        <ele>1024.4</ele>
        <time>2022-07-03T16:40:03.000Z</time>
      </trkpt>
      <trkpt lat="45.21591" lon="6.4866">
        <ele>1025.3</ele>
        <time>2022-07-03T16:40:09.000Z</time>
      </trkpt>
      <trkpt lat="45.21586" lon="6.48674">
        <ele>1027.8</ele>
        <time>2022-07-03T16:40:17.000Z</time>
      </trkpt>
      <trkpt lat="45.21582" lon="6.48687">
        <ele>1030</ele>
        <time>2022-07-03T16:40:23.000Z</time>
      </trkpt>
      <trkpt lat="45.21579" lon="6.48699">
        <ele>1030.2</ele>
        <time>2022-07-03T16:40:29.000Z</time>
      </trkpt>
      <trkpt lat="45.21579" lon="6.48713">
        <ele>1027.7</ele>
        <time>2022-07-03T16:40:37.000Z</time>
      </trkpt>
      <trkpt lat="45.21585" lon="6.48726">
        <ele>1028.3</ele>
        <time>2022-07-03T16:40:45.000Z</time>
      </trkpt>
      <trkpt lat="45.21591" lon="6.48739">
        <ele>1029.8</ele>
        <time>2022-07-03T16:40:53.000Z</time>
      </trkpt>
      <trkpt lat="45.21591" lon="6.48754">
        <ele>1028.9</ele>
        <time>2022-07-03T16:41:01.000Z</time>
      </trkpt>
      <trkpt lat="45.21587" lon="6.4874">
        <ele>1028.1</ele>
        <time>2022-07-03T16:47:07.000Z</time>
      </trkpt>
      <trkpt lat="45.2158" lon="6.48723">
        <ele>1026.7</ele>
        <time>2022-07-03T16:47:13.000Z</time>
      </trkpt>
      <trkpt lat="45.2157" lon="6.48713">
        <ele>1023.9</ele>
        <time>2022-07-03T16:47:17.000Z</time>
      </trkpt>
      <trkpt lat="45.21566" lon="6.48697">
        <ele>1023</ele>
        <time>2022-07-03T16:47:21.000Z</time>
      </trkpt>
      <trkpt lat="45.21561" lon="6.48677">
        <ele>1019.2</ele>
        <time>2022-07-03T16:47:25.000Z</time>
      </trkpt>
      <trkpt lat="45.21559" lon="6.48665">
        <ele>1015.3</ele>
        <time>2022-07-03T16:47:29.000Z</time>
      </trkpt>
      <trkpt lat="45.21566" lon="6.48648">
        <ele>1012.5</ele>
        <time>2022-07-03T16:47:33.000Z</time>
      </trkpt>
      <trkpt lat="45.21572" lon="6.48631">
        <ele>1009.6</ele>
        <time>2022-07-03T16:47:37.000Z</time>
      </trkpt>
      <trkpt lat="45.2157" lon="6.48615">
        <ele>1005.6</ele>
        <time>2022-07-03T16:47:41.000Z</time>
      </trkpt>
      <trkpt lat="45.21563" lon="6.48592">
        <ele>1000.4</ele>
        <time>2022-07-03T16:47:45.000Z</time>
      </trkpt>
      <trkpt lat="45.21562" lon="6.48572">
        <ele>993.8</ele>
        <time>2022-07-03T16:47:49.000Z</time>
      </trkpt>
      <trkpt lat="45.21571" lon="6.48563">
        <ele>990.3</ele>
        <time>2022-07-03T16:47:53.000Z</time>
      </trkpt>
      <trkpt lat="45.21583" lon="6.48551">
        <ele>987.7</ele>
        <time>2022-07-03T16:47:57.000Z</time>
      </trkpt>
      <trkpt lat="45.21593" lon="6.48549">
        <ele>992.8</ele>
        <time>2022-07-03T16:47:59.000Z</time>
      </trkpt>
      <trkpt lat="45.21593" lon="6.48536">
        <ele>988.2</ele>
        <time>2022-07-03T16:48:05.000Z</time>
      </trkpt>
      <trkpt lat="45.21596" lon="6.48518">
        <ele>981.6</ele>
        <time>2022-07-03T16:48:19.000Z</time>
      </trkpt>
      <trkpt lat="45.21594" lon="6.48495">
        <ele>974.6</ele>
        <time>2022-07-03T16:48:23.000Z</time>
      </trkpt>
      <trkpt lat="45.21591" lon="6.48479">
        <ele>968.2</ele>
        <time>2022-07-03T16:48:27.000Z</time>
      </trkpt>
      <trkpt lat="45.21585" lon="6.48464">
        <ele>962.3</ele>
        <time>2022-07-03T16:48:31.000Z</time>
      </trkpt>
      <trkpt lat="45.21579" lon="6.48452">
        <ele>957.6</ele>
        <time>2022-07-03T16:48:37.000Z</time>
      </trkpt>
      <trkpt lat="45.21573" lon="6.48468">
        <ele>954.1</ele>
        <time>2022-07-03T16:48:41.000Z</time>
      </trkpt>
      <trkpt lat="45.21569" lon="6.4848">
        <ele>953.1</ele>
        <time>2022-07-03T16:48:45.000Z</time>
      </trkpt>
      <trkpt lat="45.21565" lon="6.48461">
        <ele>948.5</ele>
        <time>2022-07-03T16:48:51.000Z</time>
      </trkpt>
      <trkpt lat="45.2156" lon="6.48439">
        <ele>946.2</ele>
        <time>2022-07-03T16:48:55.000Z</time>
      </trkpt>
      <trkpt lat="45.2155" lon="6.48424">
        <ele>945.4</ele>
        <time>2022-07-03T16:48:59.000Z</time>
      </trkpt>
      <trkpt lat="45.21539" lon="6.48416">
        <ele>940.3</ele>
        <time>2022-07-03T16:49:03.000Z</time>
      </trkpt>
      <trkpt lat="45.21532" lon="6.48407">
        <ele>936.1</ele>
        <time>2022-07-03T16:49:07.000Z</time>
      </trkpt>
      <trkpt lat="45.21524" lon="6.48397">
        <ele>932.5</ele>
        <time>2022-07-03T16:49:13.000Z</time>
      </trkpt>
      <trkpt lat="45.21513" lon="6.48393">
        <ele>926</ele>
        <time>2022-07-03T16:49:19.000Z</time>
      </trkpt>
      <trkpt lat="45.21502" lon="6.48395">
        <ele>918.7</ele>
        <time>2022-07-03T16:49:25.000Z</time>
      </trkpt>
      <trkpt lat="45.215" lon="6.48375">
        <ele>916</ele>
        <time>2022-07-03T16:49:29.000Z</time>
      </trkpt>
      <trkpt lat="45.21497" lon="6.48356">
        <ele>914.1</ele>
        <time>2022-07-03T16:49:33.000Z</time>
      </trkpt>
      <trkpt lat="45.2149" lon="6.48347">
        <ele>911</ele>
        <time>2022-07-03T16:49:37.000Z</time>
      </trkpt>
      <trkpt lat="45.21477" lon="6.48335">
        <ele>905.6</ele>
        <time>2022-07-03T16:49:41.000Z</time>
      </trkpt>
      <trkpt lat="45.21464" lon="6.48341">
        <ele>899.6</ele>
        <time>2022-07-03T16:49:47.000Z</time>
      </trkpt>
      <trkpt lat="45.2145" lon="6.48349">
        <ele>895.6</ele>
        <time>2022-07-03T16:49:51.000Z</time>
      </trkpt>
      <trkpt lat="45.21437" lon="6.48347">
        <ele>891</ele>
        <time>2022-07-03T16:49:55.000Z</time>
      </trkpt>
      <trkpt lat="45.21426" lon="6.48346">
        <ele>886.2</ele>
        <time>2022-07-03T16:50:05.000Z</time>
      </trkpt>
      <trkpt lat="45.21416" lon="6.48347">
        <ele>882.9</ele>
        <time>2022-07-03T16:50:13.000Z</time>
      </trkpt>
      <trkpt lat="45.21403" lon="6.48352">
        <ele>878.8</ele>
        <time>2022-07-03T16:50:19.000Z</time>
      </trkpt>
      <trkpt lat="45.21391" lon="6.4835">
        <ele>872.8</ele>
        <time>2022-07-03T16:50:25.000Z</time>
      </trkpt>
      <trkpt lat="45.21383" lon="6.48355">
        <ele>870.2</ele>
        <time>2022-07-03T16:50:29.000Z</time>
      </trkpt>
      <trkpt lat="45.21374" lon="6.48352">
        <ele>864.8</ele>
        <time>2022-07-03T16:50:39.000Z</time>
      </trkpt>
      <trkpt lat="45.21359" lon="6.48366">
        <ele>862.4</ele>
        <time>2022-07-03T16:50:43.000Z</time>
      </trkpt>
      <trkpt lat="45.21351" lon="6.48374">
        <ele>861</ele>
        <time>2022-07-03T16:50:45.000Z</time>
      </trkpt>
      <trkpt lat="45.21344" lon="6.48382">
        <ele>859.4</ele>
        <time>2022-07-03T16:50:47.000Z</time>
      </trkpt>
      <trkpt lat="45.21333" lon="6.48375">
        <ele>854.2</ele>
        <time>2022-07-03T16:50:53.000Z</time>
      </trkpt>
      <trkpt lat="45.21323" lon="6.48368">
        <ele>848.9</ele>
        <time>2022-07-03T16:50:59.000Z</time>
      </trkpt>
      <trkpt lat="45.2131" lon="6.48369">
        <ele>844.1</ele>
        <time>2022-07-03T16:51:09.000Z</time>
      </trkpt>
      <trkpt lat="45.21299" lon="6.48374">
        <ele>839.6</ele>
        <time>2022-07-03T16:51:15.000Z</time>
      </trkpt>
      <trkpt lat="45.21293" lon="6.48363">
        <ele>835.2</ele>
        <time>2022-07-03T16:51:19.000Z</time>
      </trkpt>
      <trkpt lat="45.21295" lon="6.4835">
        <ele>833.1</ele>
        <time>2022-07-03T16:51:23.000Z</time>
      </trkpt>
      <trkpt lat="45.21287" lon="6.48341">
        <ele>827.3</ele>
        <time>2022-07-03T16:51:39.000Z</time>
      </trkpt>
      <trkpt lat="45.21275" lon="6.48351">
        <ele>823.4</ele>
        <time>2022-07-03T16:51:45.000Z</time>
      </trkpt>
      <trkpt lat="45.21268" lon="6.4834">
        <ele>818.4</ele>
        <time>2022-07-03T16:51:51.000Z</time>
      </trkpt>
      <trkpt lat="45.21258" lon="6.48346">
        <ele>815.5</ele>
        <time>2022-07-03T16:51:55.000Z</time>
      </trkpt>
      <trkpt lat="45.2125" lon="6.48354">
        <ele>814</ele>
        <time>2022-07-03T16:51:59.000Z</time>
      </trkpt>
      <trkpt lat="45.21241" lon="6.48359">
        <ele>810.5</ele>
        <time>2022-07-03T16:52:03.000Z</time>
      </trkpt>
      <trkpt lat="45.21232" lon="6.4837">
        <ele>807.4</ele>
        <time>2022-07-03T16:52:07.000Z</time>
      </trkpt>
      <trkpt lat="45.21222" lon="6.48387">
        <ele>803.3</ele>
        <time>2022-07-03T16:52:11.000Z</time>
      </trkpt>
      <trkpt lat="45.21212" lon="6.48404">
        <ele>798.9</ele>
        <time>2022-07-03T16:52:15.000Z</time>
      </trkpt>
      <trkpt lat="45.2121" lon="6.48421">
        <ele>797.1</ele>
        <time>2022-07-03T16:52:23.000Z</time>
      </trkpt>
      <trkpt lat="45.21204" lon="6.48433">
        <ele>793.1</ele>
        <time>2022-07-03T16:52:29.000Z</time>
      </trkpt>
      <trkpt lat="45.21204" lon="6.48448">
        <ele>791.8</ele>
        <time>2022-07-03T16:52:33.000Z</time>
      </trkpt>
      <trkpt lat="45.21193" lon="6.48454">
        <ele>785.8</ele>
        <time>2022-07-03T16:52:43.000Z</time>
      </trkpt>
      <trkpt lat="45.21184" lon="6.4846">
        <ele>780.7</ele>
        <time>2022-07-03T16:53:07.000Z</time>
      </trkpt>
      <trkpt lat="45.21175" lon="6.48451">
        <ele>777.1</ele>
        <time>2022-07-03T16:53:17.000Z</time>
      </trkpt>
      <trkpt lat="45.21173" lon="6.4843">
        <ele>775.9</ele>
        <time>2022-07-03T16:53:21.000Z</time>
      </trkpt>
      <trkpt lat="45.21173" lon="6.48396">
        <ele>773.4</ele>
        <time>2022-07-03T16:53:25.000Z</time>
      </trkpt>
      <trkpt lat="45.21176" lon="6.4838">
        <ele>772.7</ele>
        <time>2022-07-03T16:53:27.000Z</time>
      </trkpt>
      <trkpt lat="45.21175" lon="6.48358">
        <ele>769.5</ele>
        <time>2022-07-03T16:53:29.000Z</time>
      </trkpt>
      <trkpt lat="45.21178" lon="6.48339">
        <ele>766.6</ele>
        <time>2022-07-03T16:53:31.000Z</time>
      </trkpt>
      <trkpt lat="45.21186" lon="6.48326">
        <ele>765.8</ele>
        <time>2022-07-03T16:53:33.000Z</time>
      </trkpt>
      <trkpt lat="45.21195" lon="6.48314">
        <ele>764.7</ele>
        <time>2022-07-03T16:53:37.000Z</time>
      </trkpt>
      <trkpt lat="45.21199" lon="6.48302">
        <ele>763.6</ele>
        <time>2022-07-03T16:53:39.000Z</time>
      </trkpt>
      <trkpt lat="45.21208" lon="6.48286">
        <ele>763.8</ele>
        <time>2022-07-03T16:53:43.000Z</time>
      </trkpt>
      <trkpt lat="45.21217" lon="6.48273">
        <ele>765.9</ele>
        <time>2022-07-03T16:53:53.000Z</time>
      </trkpt>
      <trkpt lat="45.21223" lon="6.48255">
        <ele>765</ele>
        <time>2022-07-03T16:53:57.000Z</time>
      </trkpt>
      <trkpt lat="45.21228" lon="6.48239">
        <ele>764.3</ele>
        <time>2022-07-03T16:54:03.000Z</time>
      </trkpt>
      <trkpt lat="45.21237" lon="6.48222">
        <ele>763.7</ele>
        <time>2022-07-03T16:54:09.000Z</time>
      </trkpt>
      <trkpt lat="45.21245" lon="6.48204">
        <ele>761.8</ele>
        <time>2022-07-03T16:54:13.000Z</time>
      </trkpt>
      <trkpt lat="45.21259" lon="6.48197">
        <ele>762.2</ele>
        <time>2022-07-03T16:54:17.000Z</time>
      </trkpt>
      <trkpt lat="45.21269" lon="6.48189">
        <ele>764</ele>
        <time>2022-07-03T16:54:23.000Z</time>
      </trkpt>
      <trkpt lat="45.21275" lon="6.48179">
        <ele>765.4</ele>
        <time>2022-07-03T16:54:27.000Z</time>
      </trkpt>
      <trkpt lat="45.21271" lon="6.48166">
        <ele>765.1</ele>
        <time>2022-07-03T16:54:31.000Z</time>
      </trkpt>
      <trkpt lat="45.21268" lon="6.48154">
        <ele>763.9</ele>
        <time>2022-07-03T16:54:35.000Z</time>
      </trkpt>
      <trkpt lat="45.21268" lon="6.48139">
        <ele>763.8</ele>
        <time>2022-07-03T16:54:41.000Z</time>
      </trkpt>
      <trkpt lat="45.21266" lon="6.48126">
        <ele>763.8</ele>
        <time>2022-07-03T16:54:45.000Z</time>
      </trkpt>
      <trkpt lat="45.21262" lon="6.48114">
        <ele>763.5</ele>
        <time>2022-07-03T16:54:49.000Z</time>
      </trkpt>
      <trkpt lat="45.21263" lon="6.48098">
        <ele>763.8</ele>
        <time>2022-07-03T16:54:53.000Z</time>
      </trkpt>
      <trkpt lat="45.21267" lon="6.48086">
        <ele>764.4</ele>
        <time>2022-07-03T16:54:57.000Z</time>
      </trkpt>
      <trkpt lat="45.21272" lon="6.48073">
        <ele>765.8</ele>
        <time>2022-07-03T16:55:03.000Z</time>
      </trkpt>
      <trkpt lat="45.21273" lon="6.48056">
        <ele>766.2</ele>
        <time>2022-07-03T16:55:09.000Z</time>
      </trkpt>
      <trkpt lat="45.21269" lon="6.4804">
        <ele>765.1</ele>
        <time>2022-07-03T16:55:15.000Z</time>
      </trkpt>
      <trkpt lat="45.21278" lon="6.48029">
        <ele>766.7</ele>
        <time>2022-07-03T16:55:21.000Z</time>
      </trkpt>
      <trkpt lat="45.21288" lon="6.48025">
        <ele>767.6</ele>
        <time>2022-07-03T16:55:37.000Z</time>
      </trkpt>
      <trkpt lat="45.21298" lon="6.48016">
        <ele>767.2</ele>
        <time>2022-07-03T16:55:43.000Z</time>
      </trkpt>
      <trkpt lat="45.21302" lon="6.48002">
        <ele>765.3</ele>
        <time>2022-07-03T16:55:47.000Z</time>
      </trkpt>
      <trkpt lat="45.21295" lon="6.47991">
        <ele>760.8</ele>
        <time>2022-07-03T16:55:53.000Z</time>
      </trkpt>
      <trkpt lat="45.21302" lon="6.4798">
        <ele>758.7</ele>
        <time>2022-07-03T16:57:43.000Z</time>
      </trkpt>
      <trkpt lat="45.21318" lon="6.47969">
        <ele>758.6</ele>
        <time>2022-07-03T16:57:47.000Z</time>
      </trkpt>
      <trkpt lat="45.21331" lon="6.47965">
        <ele>758.6</ele>
        <time>2022-07-03T16:57:49.000Z</time>
      </trkpt>
      <trkpt lat="45.21346" lon="6.47953">
        <ele>756.3</ele>
        <time>2022-07-03T16:57:51.000Z</time>
      </trkpt>
      <trkpt lat="45.21355" lon="6.47942">
        <ele>753.5</ele>
        <time>2022-07-03T16:57:53.000Z</time>
      </trkpt>
      <trkpt lat="45.21369" lon="6.47932">
        <ele>753.9</ele>
        <time>2022-07-03T16:57:55.000Z</time>
      </trkpt>
      <trkpt lat="45.21377" lon="6.47921">
        <ele>754.6</ele>
        <time>2022-07-03T16:57:57.000Z</time>
      </trkpt>
      <trkpt lat="45.21384" lon="6.47911">
        <ele>755.3</ele>
        <time>2022-07-03T16:58:01.000Z</time>
      </trkpt>
      <trkpt lat="45.21394" lon="6.47901">
        <ele>757.5</ele>
        <time>2022-07-03T16:58:07.000Z</time>
      </trkpt>
      <trkpt lat="45.21403" lon="6.47892">
        <ele>761.5</ele>
        <time>2022-07-03T16:58:11.000Z</time>
      </trkpt>
      <trkpt lat="45.21409" lon="6.4788">
        <ele>762.5</ele>
        <time>2022-07-03T16:58:17.000Z</time>
      </trkpt>
      <trkpt lat="45.21416" lon="6.4787">
        <ele>761.6</ele>
        <time>2022-07-03T16:58:23.000Z</time>
      </trkpt>
      <trkpt lat="45.21423" lon="6.47859">
        <ele>760.7</ele>
        <time>2022-07-03T16:58:29.000Z</time>
      </trkpt>
      <trkpt lat="45.21432" lon="6.47849">
        <ele>763.5</ele>
        <time>2022-07-03T16:58:35.000Z</time>
      </trkpt>
      <trkpt lat="45.21438" lon="6.47836">
        <ele>764.3</ele>
        <time>2022-07-03T16:58:43.000Z</time>
      </trkpt>
      <trkpt lat="45.2144" lon="6.47822">
        <ele>763.5</ele>
        <time>2022-07-03T16:58:51.000Z</time>
      </trkpt>
      <trkpt lat="45.21445" lon="6.47811">
        <ele>764</ele>
        <time>2022-07-03T16:58:59.000Z</time>
      </trkpt>
      <trkpt lat="45.21453" lon="6.47801">
        <ele>765.6</ele>
        <time>2022-07-03T16:59:07.000Z</time>
      </trkpt>
      <trkpt lat="45.21462" lon="6.47792">
        <ele>767.3</ele>
        <time>2022-07-03T16:59:13.000Z</time>
      </trkpt>
      <trkpt lat="45.2147" lon="6.4778">
        <ele>767.9</ele>
        <time>2022-07-03T16:59:19.000Z</time>
      </trkpt>
      <trkpt lat="45.21474" lon="6.47767">
        <ele>767.2</ele>
        <time>2022-07-03T16:59:27.000Z</time>
      </trkpt>
      <trkpt lat="45.2148" lon="6.47758">
        <ele>767</ele>
        <time>2022-07-03T16:59:31.000Z</time>
      </trkpt>
      <trkpt lat="45.21491" lon="6.4775">
        <ele>766.5</ele>
        <time>2022-07-03T16:59:37.000Z</time>
      </trkpt>
      <trkpt lat="45.21502" lon="6.47738">
        <ele>764.4</ele>
        <time>2022-07-03T16:59:41.000Z</time>
      </trkpt>
      <trkpt lat="45.2151" lon="6.47727">
        <ele>762.7</ele>
        <time>2022-07-03T16:59:43.000Z</time>
      </trkpt>
      <trkpt lat="45.21525" lon="6.47715">
        <ele>761</ele>
        <time>2022-07-03T16:59:45.000Z</time>
      </trkpt>
      <trkpt lat="45.21539" lon="6.47702">
        <ele>759.8</ele>
        <time>2022-07-03T16:59:47.000Z</time>
      </trkpt>
      <trkpt lat="45.21552" lon="6.4769">
        <ele>759.2</ele>
        <time>2022-07-03T16:59:49.000Z</time>
      </trkpt>
      <trkpt lat="45.21563" lon="6.47677">
        <ele>759</ele>
        <time>2022-07-03T16:59:51.000Z</time>
      </trkpt>
      <trkpt lat="45.21573" lon="6.47665">
        <ele>760.3</ele>
        <time>2022-07-03T16:59:53.000Z</time>
      </trkpt>
      <trkpt lat="45.21581" lon="6.47654">
        <ele>760.6</ele>
        <time>2022-07-03T16:59:55.000Z</time>
      </trkpt>
      <trkpt lat="45.21593" lon="6.47646">
        <ele>760.9</ele>
        <time>2022-07-03T16:59:59.000Z</time>
      </trkpt>
      <trkpt lat="45.216" lon="6.47636">
        <ele>760.7</ele>
        <time>2022-07-03T17:00:05.000Z</time>
      </trkpt>
      <trkpt lat="45.21609" lon="6.47628">
        <ele>761.8</ele>
        <time>2022-07-03T17:00:11.000Z</time>
      </trkpt>
      <trkpt lat="45.21618" lon="6.4762">
        <ele>762.8</ele>
        <time>2022-07-03T17:00:17.000Z</time>
      </trkpt>
      <trkpt lat="45.21626" lon="6.47611">
        <ele>763</ele>
        <time>2022-07-03T17:00:23.000Z</time>
      </trkpt>
      <trkpt lat="45.21639" lon="6.47595">
        <ele>761.1</ele>
        <time>2022-07-03T17:00:29.000Z</time>
      </trkpt>
      <trkpt lat="45.2165" lon="6.4758">
        <ele>760.1</ele>
        <time>2022-07-03T17:00:33.000Z</time>
      </trkpt>
      <trkpt lat="45.2166" lon="6.47565">
        <ele>758.2</ele>
        <time>2022-07-03T17:00:37.000Z</time>
      </trkpt>
      <trkpt lat="45.21672" lon="6.47557">
        <ele>760.9</ele>
        <time>2022-07-03T17:00:43.000Z</time>
      </trkpt>
      <trkpt lat="45.21681" lon="6.47554">
        <ele>761.2</ele>
        <time>2022-07-03T17:00:47.000Z</time>
      </trkpt>
      <trkpt lat="45.21694" lon="6.47548">
        <ele>761.1</ele>
        <time>2022-07-03T17:00:53.000Z</time>
      </trkpt>
      <trkpt lat="45.21707" lon="6.47541">
        <ele>760.9</ele>
        <time>2022-07-03T17:00:59.000Z</time>
      </trkpt>
      <trkpt lat="45.21716" lon="6.47536">
        <ele>761.2</ele>
        <time>2022-07-03T17:01:03.000Z</time>
      </trkpt>
      <trkpt lat="45.21726" lon="6.47529">
        <ele>761.6</ele>
        <time>2022-07-03T17:01:07.000Z</time>
      </trkpt>
      <trkpt lat="45.21744" lon="6.47518">
        <ele>759.2</ele>
        <time>2022-07-03T17:01:11.000Z</time>
      </trkpt>
      <trkpt lat="45.21754" lon="6.47514">
        <ele>759</ele>
        <time>2022-07-03T17:01:13.000Z</time>
      </trkpt>
      <trkpt lat="45.21764" lon="6.47507">
        <ele>757.2</ele>
        <time>2022-07-03T17:01:15.000Z</time>
      </trkpt>
      <trkpt lat="45.21775" lon="6.47507">
        <ele>756.4</ele>
        <time>2022-07-03T17:01:17.000Z</time>
      </trkpt>
      <trkpt lat="45.21785" lon="6.47511">
        <ele>755</ele>
        <time>2022-07-03T17:01:19.000Z</time>
      </trkpt>
      <trkpt lat="45.21796" lon="6.47517">
        <ele>752.4</ele>
        <time>2022-07-03T17:01:21.000Z</time>
      </trkpt>
      <trkpt lat="45.21807" lon="6.47525">
        <ele>749.9</ele>
        <time>2022-07-03T17:01:23.000Z</time>
      </trkpt>
      <trkpt lat="45.21821" lon="6.47529">
        <ele>747</ele>
        <time>2022-07-03T17:01:25.000Z</time>
      </trkpt>
      <trkpt lat="45.21833" lon="6.47534">
        <ele>744.8</ele>
        <time>2022-07-03T17:01:27.000Z</time>
      </trkpt>
      <trkpt lat="45.21847" lon="6.47535">
        <ele>744</ele>
        <time>2022-07-03T17:01:31.000Z</time>
      </trkpt>
      <trkpt lat="45.21853" lon="6.4752">
        <ele>739.1</ele>
        <time>2022-07-03T17:01:35.000Z</time>
      </trkpt>
      <trkpt lat="45.21857" lon="6.47506">
        <ele>736.2</ele>
        <time>2022-07-03T17:01:41.000Z</time>
      </trkpt>
      <trkpt lat="45.21848" lon="6.47499">
        <ele>735.2</ele>
        <time>2022-07-03T17:01:45.000Z</time>
      </trkpt>
      <trkpt lat="45.21834" lon="6.47495">
        <ele>734.9</ele>
        <time>2022-07-03T17:01:49.000Z</time>
      </trkpt>
      <trkpt lat="45.21828" lon="6.47477">
        <ele>734.7</ele>
        <time>2022-07-03T17:01:55.000Z</time>
      </trkpt>
      <trkpt lat="45.2183" lon="6.47462">
        <ele>734</ele>
        <time>2022-07-03T17:01:59.000Z</time>
      </trkpt>
      <trkpt lat="45.21828" lon="6.47446">
        <ele>733.7</ele>
        <time>2022-07-03T17:02:03.000Z</time>
      </trkpt>
      <trkpt lat="45.21818" lon="6.47432">
        <ele>733.3</ele>
        <time>2022-07-03T17:02:07.000Z</time>
      </trkpt>
      <trkpt lat="45.21807" lon="6.47424">
        <ele>732.5</ele>
        <time>2022-07-03T17:02:09.000Z</time>
      </trkpt>
      <trkpt lat="45.21797" lon="6.47418">
        <ele>731.6</ele>
        <time>2022-07-03T17:02:11.000Z</time>
      </trkpt>
      <trkpt lat="45.21781" lon="6.47409">
        <ele>729</ele>
        <time>2022-07-03T17:02:15.000Z</time>
      </trkpt>
      <trkpt lat="45.21772" lon="6.47409">
        <ele>727.5</ele>
        <time>2022-07-03T17:02:17.000Z</time>
      </trkpt>
      <trkpt lat="45.21761" lon="6.47413">
        <ele>726.8</ele>
        <time>2022-07-03T17:02:19.000Z</time>
      </trkpt>
      <trkpt lat="45.21752" lon="6.47422">
        <ele>727.1</ele>
        <time>2022-07-03T17:02:21.000Z</time>
      </trkpt>
      <trkpt lat="45.21744" lon="6.47436">
        <ele>725.1</ele>
        <time>2022-07-03T17:02:23.000Z</time>
      </trkpt>
      <trkpt lat="45.21733" lon="6.47446">
        <ele>721.7</ele>
        <time>2022-07-03T17:02:25.000Z</time>
      </trkpt>
      <trkpt lat="45.21722" lon="6.47456">
        <ele>719.4</ele>
        <time>2022-07-03T17:02:27.000Z</time>
      </trkpt>
      <trkpt lat="45.21711" lon="6.47464">
        <ele>718.7</ele>
        <time>2022-07-03T17:02:29.000Z</time>
      </trkpt>
      <trkpt lat="45.21704" lon="6.47476">
        <ele>719.2</ele>
        <time>2022-07-03T17:02:31.000Z</time>
      </trkpt>
      <trkpt lat="45.21695" lon="6.47487">
        <ele>718.6</ele>
        <time>2022-07-03T17:02:33.000Z</time>
      </trkpt>
      <trkpt lat="45.21682" lon="6.47495">
        <ele>718.2</ele>
        <time>2022-07-03T17:02:35.000Z</time>
      </trkpt>
      <trkpt lat="45.21668" lon="6.475">
        <ele>717.6</ele>
        <time>2022-07-03T17:02:37.000Z</time>
      </trkpt>
      <trkpt lat="45.21656" lon="6.47512">
        <ele>719.3</ele>
        <time>2022-07-03T17:02:39.000Z</time>
      </trkpt>
      <trkpt lat="45.21649" lon="6.47522">
        <ele>720.2</ele>
        <time>2022-07-03T17:02:41.000Z</time>
      </trkpt>
      <trkpt lat="45.21627" lon="6.47533">
        <ele>718.7</ele>
        <time>2022-07-03T17:02:45.000Z</time>
      </trkpt>
      <trkpt lat="45.2161" lon="6.4754">
        <ele>717.9</ele>
        <time>2022-07-03T17:02:47.000Z</time>
      </trkpt>
      <trkpt lat="45.21597" lon="6.4754">
        <ele>717.2</ele>
        <time>2022-07-03T17:02:49.000Z</time>
      </trkpt>
      <trkpt lat="45.21596" lon="6.47523">
        <ele>716</ele>
        <time>2022-07-03T17:02:51.000Z</time>
      </trkpt>
      <trkpt lat="45.21606" lon="6.47507">
        <ele>715.2</ele>
        <time>2022-07-03T17:02:55.000Z</time>
      </trkpt>
      <trkpt lat="45.21616" lon="6.47498">
        <ele>715.1</ele>
        <time>2022-07-03T17:02:57.000Z</time>
      </trkpt>
      <trkpt lat="45.2163" lon="6.47486">
        <ele>715</ele>
        <time>2022-07-03T17:03:01.000Z</time>
      </trkpt>
      <trkpt lat="45.21639" lon="6.47479">
        <ele>715</ele>
        <time>2022-07-03T17:03:03.000Z</time>
      </trkpt>
      <trkpt lat="45.21652" lon="6.47466">
        <ele>714.6</ele>
        <time>2022-07-03T17:03:07.000Z</time>
      </trkpt>
      <trkpt lat="45.21659" lon="6.47459">
        <ele>714.3</ele>
        <time>2022-07-03T17:03:09.000Z</time>
      </trkpt>
      <trkpt lat="45.21668" lon="6.47453">
        <ele>714.1</ele>
        <time>2022-07-03T17:03:11.000Z</time>
      </trkpt>
      <trkpt lat="45.21679" lon="6.47445">
        <ele>714.1</ele>
        <time>2022-07-03T17:03:13.000Z</time>
      </trkpt>
      <trkpt lat="45.21688" lon="6.47436">
        <ele>713.9</ele>
        <time>2022-07-03T17:03:15.000Z</time>
      </trkpt>
      <trkpt lat="45.21695" lon="6.47428">
        <ele>714</ele>
        <time>2022-07-03T17:03:17.000Z</time>
      </trkpt>
      <trkpt lat="45.21702" lon="6.47418">
        <ele>713.8</ele>
        <time>2022-07-03T17:03:19.000Z</time>
      </trkpt>
      <trkpt lat="45.21709" lon="6.47407">
        <ele>713.5</ele>
        <time>2022-07-03T17:03:21.000Z</time>
      </trkpt>
      <trkpt lat="45.21715" lon="6.47398">
        <ele>713.2</ele>
        <time>2022-07-03T17:03:23.000Z</time>
      </trkpt>
      <trkpt lat="45.21727" lon="6.47378">
        <ele>712.9</ele>
        <time>2022-07-03T17:03:27.000Z</time>
      </trkpt>
      <trkpt lat="45.21738" lon="6.47368">
        <ele>712.6</ele>
        <time>2022-07-03T17:03:29.000Z</time>
      </trkpt>
      <trkpt lat="45.21747" lon="6.47363">
        <ele>712.2</ele>
        <time>2022-07-03T17:03:31.000Z</time>
      </trkpt>
      <trkpt lat="45.21752" lon="6.47351">
        <ele>712.3</ele>
        <time>2022-07-03T17:03:33.000Z</time>
      </trkpt>
      <trkpt lat="45.21764" lon="6.47334">
        <ele>712.4</ele>
        <time>2022-07-03T17:03:37.000Z</time>
      </trkpt>
      <trkpt lat="45.21769" lon="6.47321">
        <ele>712.3</ele>
        <time>2022-07-03T17:03:39.000Z</time>
      </trkpt>
      <trkpt lat="45.21776" lon="6.47309">
        <ele>712.1</ele>
        <time>2022-07-03T17:03:41.000Z</time>
      </trkpt>
      <trkpt lat="45.21784" lon="6.47298">
        <ele>711.9</ele>
        <time>2022-07-03T17:03:43.000Z</time>
      </trkpt>
      <trkpt lat="45.21793" lon="6.47289">
        <ele>711.8</ele>
        <time>2022-07-03T17:03:45.000Z</time>
      </trkpt>
      <trkpt lat="45.21799" lon="6.47278">
        <ele>711.9</ele>
        <time>2022-07-03T17:03:47.000Z</time>
      </trkpt>
      <trkpt lat="45.21813" lon="6.47273">
        <ele>711.7</ele>
        <time>2022-07-03T17:03:51.000Z</time>
      </trkpt>
      <trkpt lat="45.2183" lon="6.47267">
        <ele>711.2</ele>
        <time>2022-07-03T17:03:55.000Z</time>
      </trkpt>
    </trkseg>
  </trk>
</gpx>